<?xml version="1.0" encoding="UTF-8" standalone="no" ?>
<gpx xmlns="http://www.topografix.com/GPX/1/1" xmlns:xsi="http://www.w3.org/2001/XMLSchema-instance" xsi:schemaLocation="http://www.topografix.com/GPX/1/1 http://www.topografix.com/GPX/1/1/gpx.xsd" version="1.1" creator="VisuGPX - https://www.visugpx.com">
  <metadata>
    <name>Conliège Ermitage ASCD</name>
  </metadata>
  <trk>
    <name><![CDATA[Conliège Ermitage ASCD_1]]></name>
    <extensions>
      <line xmlns="http://www.topografix.com/GPX/gpx_style/0/2">
        <color>0000FF</color>
        <width>4</width>
      </line>
    </extensions>
    <trkseg>
      <trkpt lat="46.65268" lon="5.60004">
        <ele>295.4</ele>
        <time>2022-07-03T07:04:55Z</time>
      </trkpt>
      <trkpt lat="46.65264" lon="5.6">
        <ele>318.6</ele>
        <time>2022-07-03T07:05:11Z</time>
      </trkpt>
      <trkpt lat="46.65261" lon="5.59995">
        <ele>322.7</ele>
        <time>2022-07-03T07:05:29Z</time>
      </trkpt>
      <trkpt lat="46.65264" lon="5.5999">
        <ele>320.6</ele>
        <time>2022-07-03T07:05:47Z</time>
      </trkpt>
      <trkpt lat="46.65269" lon="5.59989">
        <ele>318.5</ele>
        <time>2022-07-03T07:05:58Z</time>
      </trkpt>
      <trkpt lat="46.65268" lon="5.59995">
        <ele>318.3</ele>
        <time>2022-07-03T07:11:58Z</time>
      </trkpt>
      <trkpt lat="46.65264" lon="5.59999">
        <ele>319.1</ele>
        <time>2022-07-03T07:12:04Z</time>
      </trkpt>
      <trkpt lat="46.65259" lon="5.59999">
        <ele>320.3</ele>
        <time>2022-07-03T07:13:10Z</time>
      </trkpt>
      <trkpt lat="46.65262" lon="5.60004">
        <ele>320.4</ele>
        <time>2022-07-03T07:13:46Z</time>
      </trkpt>
      <trkpt lat="46.65257" lon="5.60006">
        <ele>321.7</ele>
        <time>2022-07-03T07:14:39Z</time>
      </trkpt>
      <trkpt lat="46.65257" lon="5.60014">
        <ele>321.3</ele>
        <time>2022-07-03T07:14:44Z</time>
      </trkpt>
      <trkpt lat="46.65258" lon="5.6002">
        <ele>320.5</ele>
        <time>2022-07-03T07:14:50Z</time>
      </trkpt>
      <trkpt lat="46.65258" lon="5.60028">
        <ele>319.5</ele>
        <time>2022-07-03T07:14:57Z</time>
      </trkpt>
      <trkpt lat="46.65257" lon="5.60035">
        <ele>319</ele>
        <time>2022-07-03T07:15:03Z</time>
      </trkpt>
      <trkpt lat="46.65255" lon="5.60041">
        <ele>318.7</ele>
        <time>2022-07-03T07:15:10Z</time>
      </trkpt>
      <trkpt lat="46.6525" lon="5.60042">
        <ele>318.5</ele>
        <time>2022-07-03T07:15:17Z</time>
      </trkpt>
      <trkpt lat="46.65244" lon="5.60043">
        <ele>318.8</ele>
        <time>2022-07-03T07:15:22Z</time>
      </trkpt>
      <trkpt lat="46.65239" lon="5.60045">
        <ele>319.3</ele>
        <time>2022-07-03T07:15:27Z</time>
      </trkpt>
      <trkpt lat="46.65234" lon="5.60049">
        <ele>319.4</ele>
        <time>2022-07-03T07:15:34Z</time>
      </trkpt>
      <trkpt lat="46.6523" lon="5.60053">
        <ele>319</ele>
        <time>2022-07-03T07:15:41Z</time>
      </trkpt>
      <trkpt lat="46.65225" lon="5.60055">
        <ele>317.5</ele>
        <time>2022-07-03T07:15:48Z</time>
      </trkpt>
      <trkpt lat="46.65221" lon="5.60058">
        <ele>316.7</ele>
        <time>2022-07-03T07:15:52Z</time>
      </trkpt>
      <trkpt lat="46.65216" lon="5.60061">
        <ele>316.1</ele>
        <time>2022-07-03T07:15:56Z</time>
      </trkpt>
      <trkpt lat="46.65211" lon="5.60064">
        <ele>315.9</ele>
        <time>2022-07-03T07:16:00Z</time>
      </trkpt>
      <trkpt lat="46.65207" lon="5.60068">
        <ele>315.9</ele>
        <time>2022-07-03T07:16:04Z</time>
      </trkpt>
      <trkpt lat="46.65203" lon="5.60072">
        <ele>315.8</ele>
        <time>2022-07-03T07:16:09Z</time>
      </trkpt>
      <trkpt lat="46.65199" lon="5.60074">
        <ele>315.8</ele>
        <time>2022-07-03T07:16:14Z</time>
      </trkpt>
      <trkpt lat="46.65193" lon="5.60077">
        <ele>315.9</ele>
        <time>2022-07-03T07:16:19Z</time>
      </trkpt>
      <trkpt lat="46.65188" lon="5.60078">
        <ele>316.1</ele>
        <time>2022-07-03T07:16:23Z</time>
      </trkpt>
      <trkpt lat="46.65183" lon="5.60081">
        <ele>316.7</ele>
        <time>2022-07-03T07:16:27Z</time>
      </trkpt>
      <trkpt lat="46.65179" lon="5.60085">
        <ele>317.4</ele>
        <time>2022-07-03T07:16:31Z</time>
      </trkpt>
      <trkpt lat="46.65174" lon="5.60086">
        <ele>317.7</ele>
        <time>2022-07-03T07:16:36Z</time>
      </trkpt>
      <trkpt lat="46.65169" lon="5.60089">
        <ele>318.3</ele>
        <time>2022-07-03T07:16:40Z</time>
      </trkpt>
      <trkpt lat="46.65163" lon="5.60092">
        <ele>319.1</ele>
        <time>2022-07-03T07:16:45Z</time>
      </trkpt>
      <trkpt lat="46.65159" lon="5.60094">
        <ele>319.9</ele>
        <time>2022-07-03T07:16:50Z</time>
      </trkpt>
      <trkpt lat="46.65154" lon="5.60096">
        <ele>320.7</ele>
        <time>2022-07-03T07:16:55Z</time>
      </trkpt>
      <trkpt lat="46.6515" lon="5.60099">
        <ele>321</ele>
        <time>2022-07-03T07:17:00Z</time>
      </trkpt>
      <trkpt lat="46.65146" lon="5.60102">
        <ele>321.3</ele>
        <time>2022-07-03T07:17:04Z</time>
      </trkpt>
      <trkpt lat="46.65142" lon="5.60105">
        <ele>321.4</ele>
        <time>2022-07-03T07:17:08Z</time>
      </trkpt>
      <trkpt lat="46.65137" lon="5.60107">
        <ele>321.4</ele>
        <time>2022-07-03T07:17:12Z</time>
      </trkpt>
      <trkpt lat="46.65132" lon="5.60111">
        <ele>321.4</ele>
        <time>2022-07-03T07:17:17Z</time>
      </trkpt>
      <trkpt lat="46.65128" lon="5.60113">
        <ele>321.9</ele>
        <time>2022-07-03T07:17:21Z</time>
      </trkpt>
      <trkpt lat="46.65123" lon="5.60116">
        <ele>323.4</ele>
        <time>2022-07-03T07:17:26Z</time>
      </trkpt>
      <trkpt lat="46.65118" lon="5.60119">
        <ele>324.9</ele>
        <time>2022-07-03T07:17:30Z</time>
      </trkpt>
      <trkpt lat="46.65113" lon="5.60121">
        <ele>326.2</ele>
        <time>2022-07-03T07:17:34Z</time>
      </trkpt>
      <trkpt lat="46.65109" lon="5.60124">
        <ele>327.4</ele>
        <time>2022-07-03T07:17:40Z</time>
      </trkpt>
      <trkpt lat="46.65105" lon="5.60129">
        <ele>327.3</ele>
        <time>2022-07-03T07:17:45Z</time>
      </trkpt>
      <trkpt lat="46.65102" lon="5.60134">
        <ele>327.2</ele>
        <time>2022-07-03T07:17:49Z</time>
      </trkpt>
      <trkpt lat="46.65098" lon="5.60137">
        <ele>326.7</ele>
        <time>2022-07-03T07:17:54Z</time>
      </trkpt>
      <trkpt lat="46.65094" lon="5.6014">
        <ele>326.1</ele>
        <time>2022-07-03T07:17:58Z</time>
      </trkpt>
      <trkpt lat="46.6509" lon="5.60145">
        <ele>326</ele>
        <time>2022-07-03T07:18:02Z</time>
      </trkpt>
      <trkpt lat="46.65086" lon="5.6015">
        <ele>326</ele>
        <time>2022-07-03T07:18:06Z</time>
      </trkpt>
      <trkpt lat="46.65082" lon="5.60154">
        <ele>326.4</ele>
        <time>2022-07-03T07:18:11Z</time>
      </trkpt>
      <trkpt lat="46.65077" lon="5.60158">
        <ele>326.3</ele>
        <time>2022-07-03T07:18:17Z</time>
      </trkpt>
      <trkpt lat="46.65074" lon="5.60164">
        <ele>325.9</ele>
        <time>2022-07-03T07:18:23Z</time>
      </trkpt>
      <trkpt lat="46.65071" lon="5.60168">
        <ele>325.6</ele>
        <time>2022-07-03T07:18:28Z</time>
      </trkpt>
      <trkpt lat="46.65066" lon="5.60171">
        <ele>325.5</ele>
        <time>2022-07-03T07:18:32Z</time>
      </trkpt>
      <trkpt lat="46.65061" lon="5.60174">
        <ele>325.4</ele>
        <time>2022-07-03T07:18:36Z</time>
      </trkpt>
      <trkpt lat="46.65056" lon="5.60176">
        <ele>325.3</ele>
        <time>2022-07-03T07:18:39Z</time>
      </trkpt>
      <trkpt lat="46.65052" lon="5.60179">
        <ele>325.5</ele>
        <time>2022-07-03T07:18:43Z</time>
      </trkpt>
      <trkpt lat="46.65048" lon="5.60185">
        <ele>325.9</ele>
        <time>2022-07-03T07:18:49Z</time>
      </trkpt>
      <trkpt lat="46.65045" lon="5.60189">
        <ele>325.7</ele>
        <time>2022-07-03T07:18:54Z</time>
      </trkpt>
      <trkpt lat="46.65041" lon="5.60192">
        <ele>325.7</ele>
        <time>2022-07-03T07:18:59Z</time>
      </trkpt>
      <trkpt lat="46.65036" lon="5.60195">
        <ele>326.4</ele>
        <time>2022-07-03T07:19:04Z</time>
      </trkpt>
      <trkpt lat="46.65031" lon="5.60197">
        <ele>326.8</ele>
        <time>2022-07-03T07:19:09Z</time>
      </trkpt>
      <trkpt lat="46.65026" lon="5.602">
        <ele>327.1</ele>
        <time>2022-07-03T07:19:14Z</time>
      </trkpt>
      <trkpt lat="46.65021" lon="5.60203">
        <ele>327.7</ele>
        <time>2022-07-03T07:19:19Z</time>
      </trkpt>
      <trkpt lat="46.65016" lon="5.60206">
        <ele>328.3</ele>
        <time>2022-07-03T07:19:23Z</time>
      </trkpt>
      <trkpt lat="46.65012" lon="5.60208">
        <ele>329.1</ele>
        <time>2022-07-03T07:19:27Z</time>
      </trkpt>
      <trkpt lat="46.65007" lon="5.60211">
        <ele>330</ele>
        <time>2022-07-03T07:19:31Z</time>
      </trkpt>
      <trkpt lat="46.65002" lon="5.60214">
        <ele>330.9</ele>
        <time>2022-07-03T07:19:35Z</time>
      </trkpt>
      <trkpt lat="46.64998" lon="5.60217">
        <ele>331.4</ele>
        <time>2022-07-03T07:19:38Z</time>
      </trkpt>
      <trkpt lat="46.64993" lon="5.60221">
        <ele>332.3</ele>
        <time>2022-07-03T07:19:42Z</time>
      </trkpt>
      <trkpt lat="46.64989" lon="5.60223">
        <ele>333.6</ele>
        <time>2022-07-03T07:19:47Z</time>
      </trkpt>
      <trkpt lat="46.64984" lon="5.60226">
        <ele>333.9</ele>
        <time>2022-07-03T07:19:55Z</time>
      </trkpt>
      <trkpt lat="46.64979" lon="5.60228">
        <ele>333.6</ele>
        <time>2022-07-03T07:20:01Z</time>
      </trkpt>
      <trkpt lat="46.64975" lon="5.6023">
        <ele>333.3</ele>
        <time>2022-07-03T07:20:07Z</time>
      </trkpt>
      <trkpt lat="46.64971" lon="5.60232">
        <ele>333.1</ele>
        <time>2022-07-03T07:20:11Z</time>
      </trkpt>
      <trkpt lat="46.64965" lon="5.60233">
        <ele>332.6</ele>
        <time>2022-07-03T07:20:15Z</time>
      </trkpt>
      <trkpt lat="46.6496" lon="5.60235">
        <ele>332.2</ele>
        <time>2022-07-03T07:20:19Z</time>
      </trkpt>
      <trkpt lat="46.64954" lon="5.60237">
        <ele>332</ele>
        <time>2022-07-03T07:20:23Z</time>
      </trkpt>
      <trkpt lat="46.6495" lon="5.60237">
        <ele>332.1</ele>
        <time>2022-07-03T07:20:26Z</time>
      </trkpt>
      <trkpt lat="46.64945" lon="5.6024">
        <ele>332.4</ele>
        <time>2022-07-03T07:20:30Z</time>
      </trkpt>
      <trkpt lat="46.64941" lon="5.60243">
        <ele>332.6</ele>
        <time>2022-07-03T07:20:36Z</time>
      </trkpt>
      <trkpt lat="46.64935" lon="5.60246">
        <ele>332.5</ele>
        <time>2022-07-03T07:20:41Z</time>
      </trkpt>
      <trkpt lat="46.6493" lon="5.60248">
        <ele>332.4</ele>
        <time>2022-07-03T07:20:45Z</time>
      </trkpt>
      <trkpt lat="46.64925" lon="5.60251">
        <ele>332.6</ele>
        <time>2022-07-03T07:20:49Z</time>
      </trkpt>
      <trkpt lat="46.6492" lon="5.60253">
        <ele>331.9</ele>
        <time>2022-07-03T07:20:56Z</time>
      </trkpt>
      <trkpt lat="46.64916" lon="5.60254">
        <ele>331.4</ele>
        <time>2022-07-03T07:21:02Z</time>
      </trkpt>
      <trkpt lat="46.64911" lon="5.60255">
        <ele>330.7</ele>
        <time>2022-07-03T07:21:08Z</time>
      </trkpt>
      <trkpt lat="46.64906" lon="5.60255">
        <ele>330.5</ele>
        <time>2022-07-03T07:21:12Z</time>
      </trkpt>
      <trkpt lat="46.64901" lon="5.60257">
        <ele>329.8</ele>
        <time>2022-07-03T07:21:17Z</time>
      </trkpt>
      <trkpt lat="46.64897" lon="5.6026">
        <ele>329.3</ele>
        <time>2022-07-03T07:21:21Z</time>
      </trkpt>
      <trkpt lat="46.64893" lon="5.60262">
        <ele>329.2</ele>
        <time>2022-07-03T07:21:25Z</time>
      </trkpt>
      <trkpt lat="46.64887" lon="5.60263">
        <ele>329.3</ele>
        <time>2022-07-03T07:21:29Z</time>
      </trkpt>
      <trkpt lat="46.64882" lon="5.60264">
        <ele>329.8</ele>
        <time>2022-07-03T07:21:33Z</time>
      </trkpt>
      <trkpt lat="46.64877" lon="5.60267">
        <ele>330.4</ele>
        <time>2022-07-03T07:21:37Z</time>
      </trkpt>
      <trkpt lat="46.64872" lon="5.60267">
        <ele>331.4</ele>
        <time>2022-07-03T07:21:41Z</time>
      </trkpt>
      <trkpt lat="46.64867" lon="5.60268">
        <ele>332.4</ele>
        <time>2022-07-03T07:21:45Z</time>
      </trkpt>
      <trkpt lat="46.64862" lon="5.60269">
        <ele>333.5</ele>
        <time>2022-07-03T07:21:49Z</time>
      </trkpt>
      <trkpt lat="46.64856" lon="5.6027">
        <ele>334.8</ele>
        <time>2022-07-03T07:21:56Z</time>
      </trkpt>
      <trkpt lat="46.64852" lon="5.60272">
        <ele>335.5</ele>
        <time>2022-07-03T07:22:00Z</time>
      </trkpt>
      <trkpt lat="46.64848" lon="5.60275">
        <ele>335.6</ele>
        <time>2022-07-03T07:22:05Z</time>
      </trkpt>
      <trkpt lat="46.64843" lon="5.60274">
        <ele>335.2</ele>
        <time>2022-07-03T07:22:10Z</time>
      </trkpt>
      <trkpt lat="46.64838" lon="5.60274">
        <ele>335</ele>
        <time>2022-07-03T07:22:13Z</time>
      </trkpt>
      <trkpt lat="46.64833" lon="5.60275">
        <ele>334.6</ele>
        <time>2022-07-03T07:22:16Z</time>
      </trkpt>
      <trkpt lat="46.64828" lon="5.60277">
        <ele>334.2</ele>
        <time>2022-07-03T07:22:19Z</time>
      </trkpt>
      <trkpt lat="46.64824" lon="5.60279">
        <ele>333.6</ele>
        <time>2022-07-03T07:22:23Z</time>
      </trkpt>
      <trkpt lat="46.64819" lon="5.60282">
        <ele>332.3</ele>
        <time>2022-07-03T07:22:29Z</time>
      </trkpt>
      <trkpt lat="46.64814" lon="5.60283">
        <ele>331.4</ele>
        <time>2022-07-03T07:22:34Z</time>
      </trkpt>
      <trkpt lat="46.64809" lon="5.60283">
        <ele>331.7</ele>
        <time>2022-07-03T07:22:38Z</time>
      </trkpt>
      <trkpt lat="46.64806" lon="5.60288">
        <ele>332.1</ele>
        <time>2022-07-03T07:22:42Z</time>
      </trkpt>
      <trkpt lat="46.64802" lon="5.60293">
        <ele>332.4</ele>
        <time>2022-07-03T07:22:46Z</time>
      </trkpt>
      <trkpt lat="46.64798" lon="5.60295">
        <ele>333</ele>
        <time>2022-07-03T07:22:50Z</time>
      </trkpt>
      <trkpt lat="46.64794" lon="5.60298">
        <ele>333.3</ele>
        <time>2022-07-03T07:22:54Z</time>
      </trkpt>
      <trkpt lat="46.6479" lon="5.60304">
        <ele>333.3</ele>
        <time>2022-07-03T07:22:58Z</time>
      </trkpt>
      <trkpt lat="46.64785" lon="5.60309">
        <ele>333.1</ele>
        <time>2022-07-03T07:23:02Z</time>
      </trkpt>
      <trkpt lat="46.6478" lon="5.60312">
        <ele>332.9</ele>
        <time>2022-07-03T07:23:06Z</time>
      </trkpt>
      <trkpt lat="46.64776" lon="5.60315">
        <ele>333</ele>
        <time>2022-07-03T07:23:09Z</time>
      </trkpt>
      <trkpt lat="46.6477" lon="5.60317">
        <ele>333.3</ele>
        <time>2022-07-03T07:23:13Z</time>
      </trkpt>
      <trkpt lat="46.64765" lon="5.6032">
        <ele>334.2</ele>
        <time>2022-07-03T07:23:17Z</time>
      </trkpt>
      <trkpt lat="46.6476" lon="5.60324">
        <ele>335.3</ele>
        <time>2022-07-03T07:23:21Z</time>
      </trkpt>
      <trkpt lat="46.64756" lon="5.60327">
        <ele>336</ele>
        <time>2022-07-03T07:23:25Z</time>
      </trkpt>
      <trkpt lat="46.6475" lon="5.60329">
        <ele>336.1</ele>
        <time>2022-07-03T07:23:30Z</time>
      </trkpt>
      <trkpt lat="46.64745" lon="5.60329">
        <ele>336.3</ele>
        <time>2022-07-03T07:23:33Z</time>
      </trkpt>
      <trkpt lat="46.6474" lon="5.60331">
        <ele>336.7</ele>
        <time>2022-07-03T07:23:36Z</time>
      </trkpt>
      <trkpt lat="46.64735" lon="5.60335">
        <ele>337.1</ele>
        <time>2022-07-03T07:23:39Z</time>
      </trkpt>
      <trkpt lat="46.6473" lon="5.6034">
        <ele>337.5</ele>
        <time>2022-07-03T07:23:42Z</time>
      </trkpt>
      <trkpt lat="46.64725" lon="5.60342">
        <ele>338.1</ele>
        <time>2022-07-03T07:23:46Z</time>
      </trkpt>
      <trkpt lat="46.6472" lon="5.60342">
        <ele>339.6</ele>
        <time>2022-07-03T07:23:52Z</time>
      </trkpt>
      <trkpt lat="46.64715" lon="5.60343">
        <ele>340.8</ele>
        <time>2022-07-03T07:23:57Z</time>
      </trkpt>
      <trkpt lat="46.6471" lon="5.60346">
        <ele>341.3</ele>
        <time>2022-07-03T07:24:02Z</time>
      </trkpt>
      <trkpt lat="46.64705" lon="5.60348">
        <ele>341.9</ele>
        <time>2022-07-03T07:24:06Z</time>
      </trkpt>
      <trkpt lat="46.647" lon="5.60349">
        <ele>342.9</ele>
        <time>2022-07-03T07:24:10Z</time>
      </trkpt>
      <trkpt lat="46.64695" lon="5.60351">
        <ele>343.6</ele>
        <time>2022-07-03T07:24:17Z</time>
      </trkpt>
      <trkpt lat="46.64691" lon="5.60354">
        <ele>343.4</ele>
        <time>2022-07-03T07:24:21Z</time>
      </trkpt>
      <trkpt lat="46.64687" lon="5.60354">
        <ele>342.8</ele>
        <time>2022-07-03T07:24:25Z</time>
      </trkpt>
      <trkpt lat="46.64682" lon="5.60352">
        <ele>342.1</ele>
        <time>2022-07-03T07:24:29Z</time>
      </trkpt>
      <trkpt lat="46.64677" lon="5.60348">
        <ele>341.5</ele>
        <time>2022-07-03T07:24:33Z</time>
      </trkpt>
      <trkpt lat="46.64671" lon="5.60346">
        <ele>341.4</ele>
        <time>2022-07-03T07:24:37Z</time>
      </trkpt>
      <trkpt lat="46.64666" lon="5.60344">
        <ele>341.4</ele>
        <time>2022-07-03T07:24:41Z</time>
      </trkpt>
      <trkpt lat="46.64661" lon="5.60344">
        <ele>341.5</ele>
        <time>2022-07-03T07:24:46Z</time>
      </trkpt>
      <trkpt lat="46.64656" lon="5.60346">
        <ele>341.9</ele>
        <time>2022-07-03T07:24:52Z</time>
      </trkpt>
      <trkpt lat="46.64651" lon="5.60346">
        <ele>342.3</ele>
        <time>2022-07-03T07:24:58Z</time>
      </trkpt>
      <trkpt lat="46.64646" lon="5.60348">
        <ele>343.2</ele>
        <time>2022-07-03T07:25:03Z</time>
      </trkpt>
      <trkpt lat="46.6464" lon="5.60349">
        <ele>343.8</ele>
        <time>2022-07-03T07:25:07Z</time>
      </trkpt>
      <trkpt lat="46.64635" lon="5.60348">
        <ele>344</ele>
        <time>2022-07-03T07:25:12Z</time>
      </trkpt>
      <trkpt lat="46.64629" lon="5.6035">
        <ele>344.1</ele>
        <time>2022-07-03T07:25:16Z</time>
      </trkpt>
      <trkpt lat="46.64624" lon="5.6035">
        <ele>344.3</ele>
        <time>2022-07-03T07:25:20Z</time>
      </trkpt>
      <trkpt lat="46.64618" lon="5.6035">
        <ele>344.7</ele>
        <time>2022-07-03T07:25:24Z</time>
      </trkpt>
      <trkpt lat="46.64614" lon="5.60352">
        <ele>345</ele>
        <time>2022-07-03T07:25:28Z</time>
      </trkpt>
      <trkpt lat="46.64609" lon="5.60351">
        <ele>344.9</ele>
        <time>2022-07-03T07:25:35Z</time>
      </trkpt>
      <trkpt lat="46.64604" lon="5.60349">
        <ele>345</ele>
        <time>2022-07-03T07:25:41Z</time>
      </trkpt>
      <trkpt lat="46.646" lon="5.60348">
        <ele>344.9</ele>
        <time>2022-07-03T07:25:46Z</time>
      </trkpt>
      <trkpt lat="46.64595" lon="5.60345">
        <ele>344.8</ele>
        <time>2022-07-03T07:25:53Z</time>
      </trkpt>
      <trkpt lat="46.6459" lon="5.60345">
        <ele>344.9</ele>
        <time>2022-07-03T07:25:58Z</time>
      </trkpt>
      <trkpt lat="46.64585" lon="5.60344">
        <ele>345</ele>
        <time>2022-07-03T07:26:02Z</time>
      </trkpt>
      <trkpt lat="46.6458" lon="5.60342">
        <ele>345.2</ele>
        <time>2022-07-03T07:26:06Z</time>
      </trkpt>
      <trkpt lat="46.64574" lon="5.60341">
        <ele>345.5</ele>
        <time>2022-07-03T07:26:10Z</time>
      </trkpt>
      <trkpt lat="46.64569" lon="5.60339">
        <ele>345.6</ele>
        <time>2022-07-03T07:26:15Z</time>
      </trkpt>
      <trkpt lat="46.64564" lon="5.60339">
        <ele>345.1</ele>
        <time>2022-07-03T07:26:20Z</time>
      </trkpt>
      <trkpt lat="46.6456" lon="5.60341">
        <ele>344.8</ele>
        <time>2022-07-03T07:26:24Z</time>
      </trkpt>
      <trkpt lat="46.64555" lon="5.6034">
        <ele>343.5</ele>
        <time>2022-07-03T07:26:31Z</time>
      </trkpt>
      <trkpt lat="46.6455" lon="5.6034">
        <ele>342.3</ele>
        <time>2022-07-03T07:26:37Z</time>
      </trkpt>
      <trkpt lat="46.64544" lon="5.60338">
        <ele>342.1</ele>
        <time>2022-07-03T07:26:41Z</time>
      </trkpt>
      <trkpt lat="46.6454" lon="5.60338">
        <ele>342.2</ele>
        <time>2022-07-03T07:26:44Z</time>
      </trkpt>
      <trkpt lat="46.64535" lon="5.60338">
        <ele>342.7</ele>
        <time>2022-07-03T07:26:47Z</time>
      </trkpt>
      <trkpt lat="46.64529" lon="5.60337">
        <ele>343.9</ele>
        <time>2022-07-03T07:26:51Z</time>
      </trkpt>
      <trkpt lat="46.64525" lon="5.60335">
        <ele>345.4</ele>
        <time>2022-07-03T07:26:56Z</time>
      </trkpt>
      <trkpt lat="46.6452" lon="5.60335">
        <ele>346.5</ele>
        <time>2022-07-03T07:27:01Z</time>
      </trkpt>
      <trkpt lat="46.64516" lon="5.60335">
        <ele>347.2</ele>
        <time>2022-07-03T07:27:05Z</time>
      </trkpt>
      <trkpt lat="46.64511" lon="5.60334">
        <ele>347.7</ele>
        <time>2022-07-03T07:27:09Z</time>
      </trkpt>
      <trkpt lat="46.64506" lon="5.60334">
        <ele>348.2</ele>
        <time>2022-07-03T07:27:13Z</time>
      </trkpt>
      <trkpt lat="46.64502" lon="5.60336">
        <ele>348.5</ele>
        <time>2022-07-03T07:27:16Z</time>
      </trkpt>
      <trkpt lat="46.64496" lon="5.60338">
        <ele>348.9</ele>
        <time>2022-07-03T07:27:20Z</time>
      </trkpt>
      <trkpt lat="46.64491" lon="5.60339">
        <ele>349</ele>
        <time>2022-07-03T07:27:24Z</time>
      </trkpt>
      <trkpt lat="46.64487" lon="5.60337">
        <ele>349</ele>
        <time>2022-07-03T07:27:30Z</time>
      </trkpt>
      <trkpt lat="46.64481" lon="5.60336">
        <ele>351.3</ele>
        <time>2022-07-03T07:28:45Z</time>
      </trkpt>
      <trkpt lat="46.64477" lon="5.60341">
        <ele>350.6</ele>
        <time>2022-07-03T07:28:48Z</time>
      </trkpt>
      <trkpt lat="46.64473" lon="5.60337">
        <ele>349.3</ele>
        <time>2022-07-03T07:29:16Z</time>
      </trkpt>
      <trkpt lat="46.64468" lon="5.60337">
        <ele>349.5</ele>
        <time>2022-07-03T07:29:22Z</time>
      </trkpt>
      <trkpt lat="46.64464" lon="5.60335">
        <ele>349.5</ele>
        <time>2022-07-03T07:29:28Z</time>
      </trkpt>
      <trkpt lat="46.64459" lon="5.60333">
        <ele>350.2</ele>
        <time>2022-07-03T07:29:33Z</time>
      </trkpt>
      <trkpt lat="46.64454" lon="5.6033">
        <ele>350.8</ele>
        <time>2022-07-03T07:29:39Z</time>
      </trkpt>
      <trkpt lat="46.6445" lon="5.60328">
        <ele>351.1</ele>
        <time>2022-07-03T07:29:44Z</time>
      </trkpt>
      <trkpt lat="46.64445" lon="5.60328">
        <ele>350.1</ele>
        <time>2022-07-03T07:29:51Z</time>
      </trkpt>
      <trkpt lat="46.64441" lon="5.60326">
        <ele>348.7</ele>
        <time>2022-07-03T07:29:57Z</time>
      </trkpt>
      <trkpt lat="46.64436" lon="5.60325">
        <ele>347.3</ele>
        <time>2022-07-03T07:30:03Z</time>
      </trkpt>
      <trkpt lat="46.64431" lon="5.60322">
        <ele>346</ele>
        <time>2022-07-03T07:30:09Z</time>
      </trkpt>
      <trkpt lat="46.64426" lon="5.60322">
        <ele>345.3</ele>
        <time>2022-07-03T07:30:15Z</time>
      </trkpt>
      <trkpt lat="46.64421" lon="5.60323">
        <ele>345</ele>
        <time>2022-07-03T07:30:20Z</time>
      </trkpt>
      <trkpt lat="46.64416" lon="5.60323">
        <ele>345</ele>
        <time>2022-07-03T07:30:24Z</time>
      </trkpt>
      <trkpt lat="46.64412" lon="5.6032">
        <ele>344</ele>
        <time>2022-07-03T07:30:34Z</time>
      </trkpt>
      <trkpt lat="46.64407" lon="5.60319">
        <ele>344</ele>
        <time>2022-07-03T07:30:39Z</time>
      </trkpt>
      <trkpt lat="46.64402" lon="5.60319">
        <ele>344.4</ele>
        <time>2022-07-03T07:30:42Z</time>
      </trkpt>
      <trkpt lat="46.64396" lon="5.60319">
        <ele>345.4</ele>
        <time>2022-07-03T07:30:46Z</time>
      </trkpt>
      <trkpt lat="46.64391" lon="5.6032">
        <ele>346.5</ele>
        <time>2022-07-03T07:30:50Z</time>
      </trkpt>
      <trkpt lat="46.64387" lon="5.60323">
        <ele>347.8</ele>
        <time>2022-07-03T07:30:55Z</time>
      </trkpt>
      <trkpt lat="46.64381" lon="5.60324">
        <ele>349.5</ele>
        <time>2022-07-03T07:31:00Z</time>
      </trkpt>
      <trkpt lat="46.64376" lon="5.60323">
        <ele>351.4</ele>
        <time>2022-07-03T07:31:05Z</time>
      </trkpt>
      <trkpt lat="46.6437" lon="5.60323">
        <ele>352.8</ele>
        <time>2022-07-03T07:31:09Z</time>
      </trkpt>
      <trkpt lat="46.64365" lon="5.60322">
        <ele>354.2</ele>
        <time>2022-07-03T07:31:14Z</time>
      </trkpt>
      <trkpt lat="46.64361" lon="5.60325">
        <ele>355.6</ele>
        <time>2022-07-03T07:31:18Z</time>
      </trkpt>
      <trkpt lat="46.64355" lon="5.60325">
        <ele>357</ele>
        <time>2022-07-03T07:31:23Z</time>
      </trkpt>
      <trkpt lat="46.64351" lon="5.60324">
        <ele>357.8</ele>
        <time>2022-07-03T07:31:27Z</time>
      </trkpt>
      <trkpt lat="46.64346" lon="5.60323">
        <ele>358.2</ele>
        <time>2022-07-03T07:31:31Z</time>
      </trkpt>
      <trkpt lat="46.64341" lon="5.60323">
        <ele>358.6</ele>
        <time>2022-07-03T07:31:35Z</time>
      </trkpt>
      <trkpt lat="46.64336" lon="5.60321">
        <ele>358.9</ele>
        <time>2022-07-03T07:31:41Z</time>
      </trkpt>
      <trkpt lat="46.64331" lon="5.6032">
        <ele>358.8</ele>
        <time>2022-07-03T07:31:46Z</time>
      </trkpt>
      <trkpt lat="46.64326" lon="5.60321">
        <ele>358.9</ele>
        <time>2022-07-03T07:31:50Z</time>
      </trkpt>
      <trkpt lat="46.64321" lon="5.60323">
        <ele>359.1</ele>
        <time>2022-07-03T07:31:56Z</time>
      </trkpt>
      <trkpt lat="46.64317" lon="5.60322">
        <ele>359.3</ele>
        <time>2022-07-03T07:32:02Z</time>
      </trkpt>
      <trkpt lat="46.64312" lon="5.60321">
        <ele>359.1</ele>
        <time>2022-07-03T07:32:06Z</time>
      </trkpt>
      <trkpt lat="46.64307" lon="5.60321">
        <ele>358.8</ele>
        <time>2022-07-03T07:32:10Z</time>
      </trkpt>
      <trkpt lat="46.64303" lon="5.60322">
        <ele>358.2</ele>
        <time>2022-07-03T07:32:16Z</time>
      </trkpt>
      <trkpt lat="46.64298" lon="5.60324">
        <ele>357.5</ele>
        <time>2022-07-03T07:32:21Z</time>
      </trkpt>
      <trkpt lat="46.64293" lon="5.60324">
        <ele>355.8</ele>
        <time>2022-07-03T07:32:29Z</time>
      </trkpt>
      <trkpt lat="46.64288" lon="5.60324">
        <ele>355.2</ele>
        <time>2022-07-03T07:32:33Z</time>
      </trkpt>
      <trkpt lat="46.64283" lon="5.60324">
        <ele>355.2</ele>
        <time>2022-07-03T07:32:37Z</time>
      </trkpt>
      <trkpt lat="46.64279" lon="5.60324">
        <ele>355.2</ele>
        <time>2022-07-03T07:32:41Z</time>
      </trkpt>
      <trkpt lat="46.64274" lon="5.60323">
        <ele>355.1</ele>
        <time>2022-07-03T07:32:45Z</time>
      </trkpt>
      <trkpt lat="46.6427" lon="5.60326">
        <ele>355.6</ele>
        <time>2022-07-03T07:32:55Z</time>
      </trkpt>
      <trkpt lat="46.64265" lon="5.60327">
        <ele>356.9</ele>
        <time>2022-07-03T07:33:03Z</time>
      </trkpt>
      <trkpt lat="46.64261" lon="5.60325">
        <ele>357.5</ele>
        <time>2022-07-03T07:33:09Z</time>
      </trkpt>
      <trkpt lat="46.64255" lon="5.60325">
        <ele>358</ele>
        <time>2022-07-03T07:33:15Z</time>
      </trkpt>
      <trkpt lat="46.64251" lon="5.60325">
        <ele>358.8</ele>
        <time>2022-07-03T07:33:22Z</time>
      </trkpt>
      <trkpt lat="46.64246" lon="5.60327">
        <ele>360.1</ele>
        <time>2022-07-03T07:33:31Z</time>
      </trkpt>
      <trkpt lat="46.64251" lon="5.60327">
        <ele>359.3</ele>
        <time>2022-07-03T07:34:49Z</time>
      </trkpt>
      <trkpt lat="46.64246" lon="5.6033">
        <ele>358.6</ele>
        <time>2022-07-03T07:35:33Z</time>
      </trkpt>
      <trkpt lat="46.64241" lon="5.6033">
        <ele>358.8</ele>
        <time>2022-07-03T07:35:38Z</time>
      </trkpt>
      <trkpt lat="46.64237" lon="5.60331">
        <ele>359.1</ele>
        <time>2022-07-03T07:35:42Z</time>
      </trkpt>
      <trkpt lat="46.64232" lon="5.60334">
        <ele>359.6</ele>
        <time>2022-07-03T07:35:46Z</time>
      </trkpt>
      <trkpt lat="46.64227" lon="5.60336">
        <ele>359.8</ele>
        <time>2022-07-03T07:35:50Z</time>
      </trkpt>
      <trkpt lat="46.64222" lon="5.60334">
        <ele>360.1</ele>
        <time>2022-07-03T07:35:54Z</time>
      </trkpt>
      <trkpt lat="46.64218" lon="5.60332">
        <ele>360.5</ele>
        <time>2022-07-03T07:35:59Z</time>
      </trkpt>
      <trkpt lat="46.64213" lon="5.60334">
        <ele>361.3</ele>
        <time>2022-07-03T07:36:04Z</time>
      </trkpt>
      <trkpt lat="46.64208" lon="5.60335">
        <ele>362.9</ele>
        <time>2022-07-03T07:36:10Z</time>
      </trkpt>
      <trkpt lat="46.64203" lon="5.60335">
        <ele>363.7</ele>
        <time>2022-07-03T07:36:15Z</time>
      </trkpt>
      <trkpt lat="46.64198" lon="5.60333">
        <ele>363.3</ele>
        <time>2022-07-03T07:36:23Z</time>
      </trkpt>
      <trkpt lat="46.64193" lon="5.60335">
        <ele>362.5</ele>
        <time>2022-07-03T07:36:28Z</time>
      </trkpt>
      <trkpt lat="46.64187" lon="5.60333">
        <ele>361.9</ele>
        <time>2022-07-03T07:36:33Z</time>
      </trkpt>
      <trkpt lat="46.64183" lon="5.60332">
        <ele>361.7</ele>
        <time>2022-07-03T07:36:37Z</time>
      </trkpt>
      <trkpt lat="46.64178" lon="5.6033">
        <ele>361.8</ele>
        <time>2022-07-03T07:36:41Z</time>
      </trkpt>
      <trkpt lat="46.64173" lon="5.60328">
        <ele>362</ele>
        <time>2022-07-03T07:36:45Z</time>
      </trkpt>
      <trkpt lat="46.64168" lon="5.60326">
        <ele>362.8</ele>
        <time>2022-07-03T07:36:49Z</time>
      </trkpt>
      <trkpt lat="46.64163" lon="5.60326">
        <ele>363.5</ele>
        <time>2022-07-03T07:36:53Z</time>
      </trkpt>
      <trkpt lat="46.64158" lon="5.60326">
        <ele>363.9</ele>
        <time>2022-07-03T07:36:57Z</time>
      </trkpt>
      <trkpt lat="46.64153" lon="5.60324">
        <ele>364.1</ele>
        <time>2022-07-03T07:37:03Z</time>
      </trkpt>
      <trkpt lat="46.64148" lon="5.60324">
        <ele>364.6</ele>
        <time>2022-07-03T07:37:09Z</time>
      </trkpt>
      <trkpt lat="46.64144" lon="5.60327">
        <ele>364.2</ele>
        <time>2022-07-03T07:37:15Z</time>
      </trkpt>
      <trkpt lat="46.64139" lon="5.60328">
        <ele>362.3</ele>
        <time>2022-07-03T07:37:22Z</time>
      </trkpt>
      <trkpt lat="46.64134" lon="5.60329">
        <ele>360.1</ele>
        <time>2022-07-03T07:37:28Z</time>
      </trkpt>
      <trkpt lat="46.64128" lon="5.6033">
        <ele>359</ele>
        <time>2022-07-03T07:37:32Z</time>
      </trkpt>
      <trkpt lat="46.64123" lon="5.60331">
        <ele>358.4</ele>
        <time>2022-07-03T07:37:36Z</time>
      </trkpt>
      <trkpt lat="46.64118" lon="5.6033">
        <ele>358.7</ele>
        <time>2022-07-03T07:37:40Z</time>
      </trkpt>
      <trkpt lat="46.64113" lon="5.60329">
        <ele>360.5</ele>
        <time>2022-07-03T07:37:49Z</time>
      </trkpt>
      <trkpt lat="46.64108" lon="5.60329">
        <ele>361.2</ele>
        <time>2022-07-03T07:37:54Z</time>
      </trkpt>
      <trkpt lat="46.64104" lon="5.60331">
        <ele>361.6</ele>
        <time>2022-07-03T07:37:58Z</time>
      </trkpt>
      <trkpt lat="46.64099" lon="5.60331">
        <ele>361.7</ele>
        <time>2022-07-03T07:38:03Z</time>
      </trkpt>
      <trkpt lat="46.64094" lon="5.60331">
        <ele>362</ele>
        <time>2022-07-03T07:38:07Z</time>
      </trkpt>
      <trkpt lat="46.64089" lon="5.60331">
        <ele>362.2</ele>
        <time>2022-07-03T07:38:12Z</time>
      </trkpt>
      <trkpt lat="46.64084" lon="5.60332">
        <ele>362.7</ele>
        <time>2022-07-03T07:38:16Z</time>
      </trkpt>
      <trkpt lat="46.6408" lon="5.60334">
        <ele>363.5</ele>
        <time>2022-07-03T07:38:19Z</time>
      </trkpt>
      <trkpt lat="46.64074" lon="5.60335">
        <ele>364.4</ele>
        <time>2022-07-03T07:38:23Z</time>
      </trkpt>
      <trkpt lat="46.6407" lon="5.60337">
        <ele>365</ele>
        <time>2022-07-03T07:38:27Z</time>
      </trkpt>
      <trkpt lat="46.64065" lon="5.60339">
        <ele>365.5</ele>
        <time>2022-07-03T07:38:31Z</time>
      </trkpt>
      <trkpt lat="46.6406" lon="5.60342">
        <ele>365.5</ele>
        <time>2022-07-03T07:38:35Z</time>
      </trkpt>
      <trkpt lat="46.64056" lon="5.60346">
        <ele>364.8</ele>
        <time>2022-07-03T07:38:40Z</time>
      </trkpt>
      <trkpt lat="46.64051" lon="5.60351">
        <ele>364.2</ele>
        <time>2022-07-03T07:38:44Z</time>
      </trkpt>
      <trkpt lat="46.64048" lon="5.60354">
        <ele>363.6</ele>
        <time>2022-07-03T07:38:48Z</time>
      </trkpt>
      <trkpt lat="46.64043" lon="5.60357">
        <ele>363.3</ele>
        <time>2022-07-03T07:38:53Z</time>
      </trkpt>
      <trkpt lat="46.64038" lon="5.60359">
        <ele>364</ele>
        <time>2022-07-03T07:38:57Z</time>
      </trkpt>
      <trkpt lat="46.64034" lon="5.60361">
        <ele>365.3</ele>
        <time>2022-07-03T07:39:01Z</time>
      </trkpt>
      <trkpt lat="46.64029" lon="5.60365">
        <ele>366.7</ele>
        <time>2022-07-03T07:39:05Z</time>
      </trkpt>
      <trkpt lat="46.64025" lon="5.60371">
        <ele>368.1</ele>
        <time>2022-07-03T07:39:09Z</time>
      </trkpt>
      <trkpt lat="46.64021" lon="5.60376">
        <ele>369.3</ele>
        <time>2022-07-03T07:39:13Z</time>
      </trkpt>
      <trkpt lat="46.64017" lon="5.6038">
        <ele>370.3</ele>
        <time>2022-07-03T07:39:18Z</time>
      </trkpt>
      <trkpt lat="46.64012" lon="5.60383">
        <ele>371.8</ele>
        <time>2022-07-03T07:39:26Z</time>
      </trkpt>
      <trkpt lat="46.64008" lon="5.60386">
        <ele>372.7</ele>
        <time>2022-07-03T07:39:30Z</time>
      </trkpt>
      <trkpt lat="46.64003" lon="5.60387">
        <ele>373.8</ele>
        <time>2022-07-03T07:39:33Z</time>
      </trkpt>
      <trkpt lat="46.63999" lon="5.60392">
        <ele>375.2</ele>
        <time>2022-07-03T07:39:38Z</time>
      </trkpt>
      <trkpt lat="46.63996" lon="5.60397">
        <ele>376.1</ele>
        <time>2022-07-03T07:39:41Z</time>
      </trkpt>
      <trkpt lat="46.63992" lon="5.60401">
        <ele>376.9</ele>
        <time>2022-07-03T07:39:44Z</time>
      </trkpt>
      <trkpt lat="46.63986" lon="5.60402">
        <ele>378.6</ele>
        <time>2022-07-03T07:39:49Z</time>
      </trkpt>
      <trkpt lat="46.63981" lon="5.60401">
        <ele>379.9</ele>
        <time>2022-07-03T07:39:54Z</time>
      </trkpt>
      <trkpt lat="46.63976" lon="5.60402">
        <ele>380.7</ele>
        <time>2022-07-03T07:39:58Z</time>
      </trkpt>
      <trkpt lat="46.63971" lon="5.60402">
        <ele>382</ele>
        <time>2022-07-03T07:40:07Z</time>
      </trkpt>
      <trkpt lat="46.63967" lon="5.60408">
        <ele>381.8</ele>
        <time>2022-07-03T07:40:13Z</time>
      </trkpt>
      <trkpt lat="46.63964" lon="5.60414">
        <ele>381.1</ele>
        <time>2022-07-03T07:40:17Z</time>
      </trkpt>
      <trkpt lat="46.6396" lon="5.60418">
        <ele>380.2</ele>
        <time>2022-07-03T07:40:22Z</time>
      </trkpt>
      <trkpt lat="46.63955" lon="5.60419">
        <ele>379.9</ele>
        <time>2022-07-03T07:40:26Z</time>
      </trkpt>
      <trkpt lat="46.6395" lon="5.60421">
        <ele>379.7</ele>
        <time>2022-07-03T07:40:30Z</time>
      </trkpt>
      <trkpt lat="46.63946" lon="5.60423">
        <ele>379.6</ele>
        <time>2022-07-03T07:40:33Z</time>
      </trkpt>
      <trkpt lat="46.63941" lon="5.60425">
        <ele>379.6</ele>
        <time>2022-07-03T07:40:37Z</time>
      </trkpt>
      <trkpt lat="46.63936" lon="5.60428">
        <ele>379.8</ele>
        <time>2022-07-03T07:40:43Z</time>
      </trkpt>
      <trkpt lat="46.63934" lon="5.60434">
        <ele>380.2</ele>
        <time>2022-07-03T07:40:47Z</time>
      </trkpt>
      <trkpt lat="46.63929" lon="5.60437">
        <ele>380.7</ele>
        <time>2022-07-03T07:40:51Z</time>
      </trkpt>
      <trkpt lat="46.63924" lon="5.60438">
        <ele>381.5</ele>
        <time>2022-07-03T07:40:55Z</time>
      </trkpt>
      <trkpt lat="46.63919" lon="5.6044">
        <ele>382.3</ele>
        <time>2022-07-03T07:41:00Z</time>
      </trkpt>
      <trkpt lat="46.63914" lon="5.60442">
        <ele>382.8</ele>
        <time>2022-07-03T07:41:05Z</time>
      </trkpt>
      <trkpt lat="46.6391" lon="5.60447">
        <ele>384.1</ele>
        <time>2022-07-03T07:41:11Z</time>
      </trkpt>
      <trkpt lat="46.63905" lon="5.60447">
        <ele>384.8</ele>
        <time>2022-07-03T07:41:17Z</time>
      </trkpt>
      <trkpt lat="46.639" lon="5.60449">
        <ele>384.7</ele>
        <time>2022-07-03T07:41:22Z</time>
      </trkpt>
      <trkpt lat="46.63896" lon="5.60453">
        <ele>384.1</ele>
        <time>2022-07-03T07:41:27Z</time>
      </trkpt>
      <trkpt lat="46.63891" lon="5.60456">
        <ele>382.9</ele>
        <time>2022-07-03T07:41:33Z</time>
      </trkpt>
      <trkpt lat="46.63886" lon="5.60457">
        <ele>382.5</ele>
        <time>2022-07-03T07:41:37Z</time>
      </trkpt>
      <trkpt lat="46.63881" lon="5.60457">
        <ele>382.5</ele>
        <time>2022-07-03T07:41:41Z</time>
      </trkpt>
      <trkpt lat="46.63878" lon="5.60463">
        <ele>383.6</ele>
        <time>2022-07-03T07:41:48Z</time>
      </trkpt>
      <trkpt lat="46.63873" lon="5.60466">
        <ele>384.3</ele>
        <time>2022-07-03T07:41:53Z</time>
      </trkpt>
      <trkpt lat="46.63868" lon="5.60469">
        <ele>384.5</ele>
        <time>2022-07-03T07:41:58Z</time>
      </trkpt>
      <trkpt lat="46.63863" lon="5.6047">
        <ele>384.1</ele>
        <time>2022-07-03T07:42:02Z</time>
      </trkpt>
      <trkpt lat="46.63858" lon="5.60471">
        <ele>383.4</ele>
        <time>2022-07-03T07:42:06Z</time>
      </trkpt>
      <trkpt lat="46.63853" lon="5.60472">
        <ele>382.1</ele>
        <time>2022-07-03T07:42:11Z</time>
      </trkpt>
      <trkpt lat="46.63847" lon="5.60474">
        <ele>381.4</ele>
        <time>2022-07-03T07:42:16Z</time>
      </trkpt>
      <trkpt lat="46.63842" lon="5.60475">
        <ele>381.2</ele>
        <time>2022-07-03T07:42:20Z</time>
      </trkpt>
      <trkpt lat="46.63837" lon="5.60476">
        <ele>380.8</ele>
        <time>2022-07-03T07:42:25Z</time>
      </trkpt>
      <trkpt lat="46.63833" lon="5.60478">
        <ele>380.5</ele>
        <time>2022-07-03T07:42:29Z</time>
      </trkpt>
      <trkpt lat="46.63828" lon="5.6048">
        <ele>380.3</ele>
        <time>2022-07-03T07:42:33Z</time>
      </trkpt>
      <trkpt lat="46.63822" lon="5.60482">
        <ele>380.8</ele>
        <time>2022-07-03T07:42:37Z</time>
      </trkpt>
      <trkpt lat="46.63818" lon="5.60483">
        <ele>381.7</ele>
        <time>2022-07-03T07:42:41Z</time>
      </trkpt>
      <trkpt lat="46.63813" lon="5.60484">
        <ele>382.1</ele>
        <time>2022-07-03T07:42:46Z</time>
      </trkpt>
      <trkpt lat="46.63808" lon="5.60485">
        <ele>382</ele>
        <time>2022-07-03T07:42:49Z</time>
      </trkpt>
      <trkpt lat="46.63803" lon="5.60484">
        <ele>382.1</ele>
        <time>2022-07-03T07:42:52Z</time>
      </trkpt>
      <trkpt lat="46.63798" lon="5.60485">
        <ele>383.4</ele>
        <time>2022-07-03T07:42:57Z</time>
      </trkpt>
      <trkpt lat="46.63793" lon="5.60485">
        <ele>384.4</ele>
        <time>2022-07-03T07:43:03Z</time>
      </trkpt>
      <trkpt lat="46.63789" lon="5.60489">
        <ele>384.8</ele>
        <time>2022-07-03T07:43:08Z</time>
      </trkpt>
      <trkpt lat="46.63784" lon="5.60491">
        <ele>385.1</ele>
        <time>2022-07-03T07:43:15Z</time>
      </trkpt>
      <trkpt lat="46.63779" lon="5.60492">
        <ele>385.1</ele>
        <time>2022-07-03T07:43:23Z</time>
      </trkpt>
      <trkpt lat="46.63776" lon="5.60498">
        <ele>385</ele>
        <time>2022-07-03T07:43:27Z</time>
      </trkpt>
      <trkpt lat="46.63772" lon="5.60503">
        <ele>384.6</ele>
        <time>2022-07-03T07:43:31Z</time>
      </trkpt>
      <trkpt lat="46.63768" lon="5.60505">
        <ele>383.3</ele>
        <time>2022-07-03T07:43:36Z</time>
      </trkpt>
      <trkpt lat="46.63764" lon="5.60509">
        <ele>381.8</ele>
        <time>2022-07-03T07:43:41Z</time>
      </trkpt>
      <trkpt lat="46.63759" lon="5.60511">
        <ele>379.9</ele>
        <time>2022-07-03T07:43:48Z</time>
      </trkpt>
      <trkpt lat="46.63755" lon="5.60514">
        <ele>379.3</ele>
        <time>2022-07-03T07:43:52Z</time>
      </trkpt>
      <trkpt lat="46.63751" lon="5.60519">
        <ele>378.6</ele>
        <time>2022-07-03T07:43:57Z</time>
      </trkpt>
      <trkpt lat="46.63748" lon="5.60524">
        <ele>378.6</ele>
        <time>2022-07-03T07:44:02Z</time>
      </trkpt>
      <trkpt lat="46.63744" lon="5.60528">
        <ele>378.9</ele>
        <time>2022-07-03T07:44:06Z</time>
      </trkpt>
      <trkpt lat="46.6374" lon="5.60532">
        <ele>379</ele>
        <time>2022-07-03T07:44:10Z</time>
      </trkpt>
      <trkpt lat="46.63736" lon="5.60537">
        <ele>379.6</ele>
        <time>2022-07-03T07:44:15Z</time>
      </trkpt>
      <trkpt lat="46.63731" lon="5.60541">
        <ele>380.3</ele>
        <time>2022-07-03T07:44:20Z</time>
      </trkpt>
      <trkpt lat="46.63727" lon="5.60544">
        <ele>380.7</ele>
        <time>2022-07-03T07:44:23Z</time>
      </trkpt>
      <trkpt lat="46.63723" lon="5.60546">
        <ele>381.4</ele>
        <time>2022-07-03T07:44:26Z</time>
      </trkpt>
      <trkpt lat="46.63719" lon="5.6055">
        <ele>382.5</ele>
        <time>2022-07-03T07:44:31Z</time>
      </trkpt>
      <trkpt lat="46.63715" lon="5.60555">
        <ele>383.4</ele>
        <time>2022-07-03T07:44:35Z</time>
      </trkpt>
      <trkpt lat="46.63711" lon="5.60559">
        <ele>383.9</ele>
        <time>2022-07-03T07:44:39Z</time>
      </trkpt>
      <trkpt lat="46.63707" lon="5.60562">
        <ele>383.6</ele>
        <time>2022-07-03T07:44:44Z</time>
      </trkpt>
      <trkpt lat="46.63702" lon="5.60563">
        <ele>383.4</ele>
        <time>2022-07-03T07:44:48Z</time>
      </trkpt>
      <trkpt lat="46.63698" lon="5.60567">
        <ele>383.7</ele>
        <time>2022-07-03T07:44:51Z</time>
      </trkpt>
      <trkpt lat="46.63693" lon="5.60571">
        <ele>383.8</ele>
        <time>2022-07-03T07:44:55Z</time>
      </trkpt>
      <trkpt lat="46.63688" lon="5.60573">
        <ele>384.4</ele>
        <time>2022-07-03T07:44:59Z</time>
      </trkpt>
      <trkpt lat="46.63683" lon="5.60575">
        <ele>385.4</ele>
        <time>2022-07-03T07:45:04Z</time>
      </trkpt>
      <trkpt lat="46.6368" lon="5.60582">
        <ele>385.6</ele>
        <time>2022-07-03T07:45:09Z</time>
      </trkpt>
      <trkpt lat="46.63676" lon="5.60587">
        <ele>385.7</ele>
        <time>2022-07-03T07:45:15Z</time>
      </trkpt>
      <trkpt lat="46.63672" lon="5.6059">
        <ele>385.6</ele>
        <time>2022-07-03T07:45:19Z</time>
      </trkpt>
      <trkpt lat="46.63668" lon="5.60593">
        <ele>385.4</ele>
        <time>2022-07-03T07:45:23Z</time>
      </trkpt>
      <trkpt lat="46.63663" lon="5.60595">
        <ele>386</ele>
        <time>2022-07-03T07:45:31Z</time>
      </trkpt>
      <trkpt lat="46.63661" lon="5.60588">
        <ele>386.3</ele>
        <time>2022-07-03T07:45:57Z</time>
      </trkpt>
      <trkpt lat="46.63658" lon="5.60595">
        <ele>384.2</ele>
        <time>2022-07-03T07:47:00Z</time>
      </trkpt>
      <trkpt lat="46.63655" lon="5.606">
        <ele>382.8</ele>
        <time>2022-07-03T07:47:14Z</time>
      </trkpt>
      <trkpt lat="46.63649" lon="5.60603">
        <ele>384.9</ele>
        <time>2022-07-03T07:47:38Z</time>
      </trkpt>
      <trkpt lat="46.63644" lon="5.60606">
        <ele>385.6</ele>
        <time>2022-07-03T07:47:42Z</time>
      </trkpt>
      <trkpt lat="46.6364" lon="5.6061">
        <ele>385.1</ele>
        <time>2022-07-03T07:47:52Z</time>
      </trkpt>
      <trkpt lat="46.63636" lon="5.60613">
        <ele>384.2</ele>
        <time>2022-07-03T07:47:57Z</time>
      </trkpt>
      <trkpt lat="46.63631" lon="5.60615">
        <ele>384.1</ele>
        <time>2022-07-03T07:48:02Z</time>
      </trkpt>
      <trkpt lat="46.63627" lon="5.60619">
        <ele>385.1</ele>
        <time>2022-07-03T07:48:07Z</time>
      </trkpt>
      <trkpt lat="46.63623" lon="5.60623">
        <ele>386.4</ele>
        <time>2022-07-03T07:48:12Z</time>
      </trkpt>
      <trkpt lat="46.63618" lon="5.60628">
        <ele>387.1</ele>
        <time>2022-07-03T07:48:18Z</time>
      </trkpt>
      <trkpt lat="46.63615" lon="5.60632">
        <ele>387.3</ele>
        <time>2022-07-03T07:48:23Z</time>
      </trkpt>
      <trkpt lat="46.6361" lon="5.60635">
        <ele>386.9</ele>
        <time>2022-07-03T07:48:29Z</time>
      </trkpt>
      <trkpt lat="46.63607" lon="5.6064">
        <ele>386</ele>
        <time>2022-07-03T07:48:35Z</time>
      </trkpt>
      <trkpt lat="46.63604" lon="5.60645">
        <ele>384.3</ele>
        <time>2022-07-03T07:48:43Z</time>
      </trkpt>
      <trkpt lat="46.63599" lon="5.60649">
        <ele>381.8</ele>
        <time>2022-07-03T07:48:56Z</time>
      </trkpt>
      <trkpt lat="46.63594" lon="5.6065">
        <ele>381</ele>
        <time>2022-07-03T07:49:06Z</time>
      </trkpt>
      <trkpt lat="46.63589" lon="5.6065">
        <ele>381.4</ele>
        <time>2022-07-03T07:49:10Z</time>
      </trkpt>
      <trkpt lat="46.63585" lon="5.60651">
        <ele>384.1</ele>
        <time>2022-07-03T07:49:19Z</time>
      </trkpt>
      <trkpt lat="46.63581" lon="5.60654">
        <ele>385.5</ele>
        <time>2022-07-03T07:49:26Z</time>
      </trkpt>
      <trkpt lat="46.63577" lon="5.60659">
        <ele>386.5</ele>
        <time>2022-07-03T07:49:32Z</time>
      </trkpt>
      <trkpt lat="46.63575" lon="5.60666">
        <ele>385.2</ele>
        <time>2022-07-03T07:49:42Z</time>
      </trkpt>
      <trkpt lat="46.63572" lon="5.60671">
        <ele>384.4</ele>
        <time>2022-07-03T07:49:46Z</time>
      </trkpt>
      <trkpt lat="46.63567" lon="5.60675">
        <ele>383.9</ele>
        <time>2022-07-03T07:49:49Z</time>
      </trkpt>
      <trkpt lat="46.63562" lon="5.60678">
        <ele>383.9</ele>
        <time>2022-07-03T07:49:52Z</time>
      </trkpt>
      <trkpt lat="46.63557" lon="5.60679">
        <ele>384.5</ele>
        <time>2022-07-03T07:49:56Z</time>
      </trkpt>
      <trkpt lat="46.63552" lon="5.60678">
        <ele>385.4</ele>
        <time>2022-07-03T07:50:01Z</time>
      </trkpt>
      <trkpt lat="46.63548" lon="5.60683">
        <ele>386.5</ele>
        <time>2022-07-03T07:50:08Z</time>
      </trkpt>
      <trkpt lat="46.63545" lon="5.60688">
        <ele>388.1</ele>
        <time>2022-07-03T07:50:14Z</time>
      </trkpt>
      <trkpt lat="46.6354" lon="5.60693">
        <ele>388.7</ele>
        <time>2022-07-03T07:50:21Z</time>
      </trkpt>
      <trkpt lat="46.63536" lon="5.60694">
        <ele>389.3</ele>
        <time>2022-07-03T07:50:27Z</time>
      </trkpt>
      <trkpt lat="46.63532" lon="5.60698">
        <ele>390.1</ele>
        <time>2022-07-03T07:50:32Z</time>
      </trkpt>
      <trkpt lat="46.63528" lon="5.60704">
        <ele>390.5</ele>
        <time>2022-07-03T07:50:37Z</time>
      </trkpt>
      <trkpt lat="46.63524" lon="5.60707">
        <ele>391.1</ele>
        <time>2022-07-03T07:50:43Z</time>
      </trkpt>
      <trkpt lat="46.63521" lon="5.60712">
        <ele>391.1</ele>
        <time>2022-07-03T07:51:05Z</time>
      </trkpt>
      <trkpt lat="46.63517" lon="5.60714">
        <ele>391.1</ele>
        <time>2022-07-03T07:51:08Z</time>
      </trkpt>
      <trkpt lat="46.63512" lon="5.60717">
        <ele>391.3</ele>
        <time>2022-07-03T07:51:12Z</time>
      </trkpt>
      <trkpt lat="46.63508" lon="5.60722">
        <ele>391.6</ele>
        <time>2022-07-03T07:51:17Z</time>
      </trkpt>
      <trkpt lat="46.63504" lon="5.60726">
        <ele>392.5</ele>
        <time>2022-07-03T07:51:22Z</time>
      </trkpt>
      <trkpt lat="46.63501" lon="5.60732">
        <ele>393.3</ele>
        <time>2022-07-03T07:51:29Z</time>
      </trkpt>
      <trkpt lat="46.63499" lon="5.60739">
        <ele>393.2</ele>
        <time>2022-07-03T07:51:34Z</time>
      </trkpt>
      <trkpt lat="46.63496" lon="5.60745">
        <ele>392.9</ele>
        <time>2022-07-03T07:51:39Z</time>
      </trkpt>
      <trkpt lat="46.63492" lon="5.6075">
        <ele>392.8</ele>
        <time>2022-07-03T07:51:44Z</time>
      </trkpt>
      <trkpt lat="46.63488" lon="5.60754">
        <ele>393</ele>
        <time>2022-07-03T07:51:49Z</time>
      </trkpt>
      <trkpt lat="46.63486" lon="5.6076">
        <ele>393.7</ele>
        <time>2022-07-03T07:51:55Z</time>
      </trkpt>
      <trkpt lat="46.63482" lon="5.60765">
        <ele>394</ele>
        <time>2022-07-03T07:51:59Z</time>
      </trkpt>
      <trkpt lat="46.6348" lon="5.60772">
        <ele>394.4</ele>
        <time>2022-07-03T07:52:04Z</time>
      </trkpt>
      <trkpt lat="46.63476" lon="5.60779">
        <ele>394.8</ele>
        <time>2022-07-03T07:52:09Z</time>
      </trkpt>
      <trkpt lat="46.63474" lon="5.60784">
        <ele>395.1</ele>
        <time>2022-07-03T07:52:12Z</time>
      </trkpt>
      <trkpt lat="46.63472" lon="5.60791">
        <ele>395.9</ele>
        <time>2022-07-03T07:52:16Z</time>
      </trkpt>
      <trkpt lat="46.63468" lon="5.60798">
        <ele>396.8</ele>
        <time>2022-07-03T07:52:20Z</time>
      </trkpt>
      <trkpt lat="46.63464" lon="5.60803">
        <ele>397.5</ele>
        <time>2022-07-03T07:52:24Z</time>
      </trkpt>
      <trkpt lat="46.63462" lon="5.60809">
        <ele>398.5</ele>
        <time>2022-07-03T07:52:30Z</time>
      </trkpt>
      <trkpt lat="46.63461" lon="5.60816">
        <ele>398.6</ele>
        <time>2022-07-03T07:52:36Z</time>
      </trkpt>
      <trkpt lat="46.63458" lon="5.60823">
        <ele>398.1</ele>
        <time>2022-07-03T07:52:41Z</time>
      </trkpt>
      <trkpt lat="46.63456" lon="5.6083">
        <ele>397.3</ele>
        <time>2022-07-03T07:52:46Z</time>
      </trkpt>
      <trkpt lat="46.63455" lon="5.60836">
        <ele>397</ele>
        <time>2022-07-03T07:52:51Z</time>
      </trkpt>
      <trkpt lat="46.63454" lon="5.60844">
        <ele>396.4</ele>
        <time>2022-07-03T07:52:56Z</time>
      </trkpt>
      <trkpt lat="46.63454" lon="5.60852">
        <ele>395</ele>
        <time>2022-07-03T07:53:01Z</time>
      </trkpt>
      <trkpt lat="46.63453" lon="5.6086">
        <ele>393</ele>
        <time>2022-07-03T07:53:07Z</time>
      </trkpt>
      <trkpt lat="46.63454" lon="5.60867">
        <ele>391.6</ele>
        <time>2022-07-03T07:53:11Z</time>
      </trkpt>
      <trkpt lat="46.63453" lon="5.60875">
        <ele>389.9</ele>
        <time>2022-07-03T07:53:16Z</time>
      </trkpt>
      <trkpt lat="46.63453" lon="5.60882">
        <ele>388.9</ele>
        <time>2022-07-03T07:53:21Z</time>
      </trkpt>
      <trkpt lat="46.63452" lon="5.60889">
        <ele>388.9</ele>
        <time>2022-07-03T07:53:26Z</time>
      </trkpt>
      <trkpt lat="46.63451" lon="5.60896">
        <ele>389.2</ele>
        <time>2022-07-03T07:53:30Z</time>
      </trkpt>
      <trkpt lat="46.6345" lon="5.60902">
        <ele>389.9</ele>
        <time>2022-07-03T07:53:34Z</time>
      </trkpt>
      <trkpt lat="46.63449" lon="5.6091">
        <ele>390.6</ele>
        <time>2022-07-03T07:53:39Z</time>
      </trkpt>
      <trkpt lat="46.63448" lon="5.60917">
        <ele>391.5</ele>
        <time>2022-07-03T07:53:44Z</time>
      </trkpt>
      <trkpt lat="46.63449" lon="5.60924">
        <ele>392</ele>
        <time>2022-07-03T07:53:49Z</time>
      </trkpt>
      <trkpt lat="46.63449" lon="5.60932">
        <ele>392.4</ele>
        <time>2022-07-03T07:53:54Z</time>
      </trkpt>
      <trkpt lat="46.63448" lon="5.60938">
        <ele>393.2</ele>
        <time>2022-07-03T07:53:58Z</time>
      </trkpt>
      <trkpt lat="46.63448" lon="5.60946">
        <ele>394.5</ele>
        <time>2022-07-03T07:54:03Z</time>
      </trkpt>
      <trkpt lat="46.63448" lon="5.60953">
        <ele>395.3</ele>
        <time>2022-07-03T07:54:08Z</time>
      </trkpt>
      <trkpt lat="46.6345" lon="5.6096">
        <ele>395.9</ele>
        <time>2022-07-03T07:54:14Z</time>
      </trkpt>
      <trkpt lat="46.63449" lon="5.60967">
        <ele>396.7</ele>
        <time>2022-07-03T07:54:18Z</time>
      </trkpt>
      <trkpt lat="46.6345" lon="5.60974">
        <ele>397.6</ele>
        <time>2022-07-03T07:54:23Z</time>
      </trkpt>
      <trkpt lat="46.63452" lon="5.60981">
        <ele>397.9</ele>
        <time>2022-07-03T07:54:28Z</time>
      </trkpt>
      <trkpt lat="46.63453" lon="5.60988">
        <ele>397.9</ele>
        <time>2022-07-03T07:54:33Z</time>
      </trkpt>
      <trkpt lat="46.63454" lon="5.60996">
        <ele>397.9</ele>
        <time>2022-07-03T07:54:38Z</time>
      </trkpt>
      <trkpt lat="46.63455" lon="5.61003">
        <ele>397.8</ele>
        <time>2022-07-03T07:54:44Z</time>
      </trkpt>
      <trkpt lat="46.63457" lon="5.6101">
        <ele>397.8</ele>
        <time>2022-07-03T07:54:50Z</time>
      </trkpt>
      <trkpt lat="46.63457" lon="5.61018">
        <ele>397.8</ele>
        <time>2022-07-03T07:54:56Z</time>
      </trkpt>
      <trkpt lat="46.63458" lon="5.61024">
        <ele>398.2</ele>
        <time>2022-07-03T07:55:02Z</time>
      </trkpt>
      <trkpt lat="46.63458" lon="5.61031">
        <ele>398.3</ele>
        <time>2022-07-03T07:55:55Z</time>
      </trkpt>
      <trkpt lat="46.63462" lon="5.61036">
        <ele>398.6</ele>
        <time>2022-07-03T07:56:05Z</time>
      </trkpt>
      <trkpt lat="46.63464" lon="5.61042">
        <ele>398.2</ele>
        <time>2022-07-03T07:56:10Z</time>
      </trkpt>
      <trkpt lat="46.63464" lon="5.6105">
        <ele>398</ele>
        <time>2022-07-03T07:56:16Z</time>
      </trkpt>
      <trkpt lat="46.63465" lon="5.61057">
        <ele>398.1</ele>
        <time>2022-07-03T07:56:21Z</time>
      </trkpt>
      <trkpt lat="46.63466" lon="5.61064">
        <ele>398.2</ele>
        <time>2022-07-03T07:56:24Z</time>
      </trkpt>
      <trkpt lat="46.63467" lon="5.61071">
        <ele>398.3</ele>
        <time>2022-07-03T07:56:27Z</time>
      </trkpt>
      <trkpt lat="46.63467" lon="5.61079">
        <ele>398.9</ele>
        <time>2022-07-03T07:56:31Z</time>
      </trkpt>
      <trkpt lat="46.63466" lon="5.61086">
        <ele>399.7</ele>
        <time>2022-07-03T07:56:35Z</time>
      </trkpt>
      <trkpt lat="46.63465" lon="5.61094">
        <ele>400.8</ele>
        <time>2022-07-03T07:56:40Z</time>
      </trkpt>
      <trkpt lat="46.63464" lon="5.611">
        <ele>401.5</ele>
        <time>2022-07-03T07:56:44Z</time>
      </trkpt>
      <trkpt lat="46.63465" lon="5.61108">
        <ele>401.8</ele>
        <time>2022-07-03T07:56:50Z</time>
      </trkpt>
      <trkpt lat="46.63466" lon="5.61116">
        <ele>401.9</ele>
        <time>2022-07-03T07:56:55Z</time>
      </trkpt>
      <trkpt lat="46.63468" lon="5.61122">
        <ele>402</ele>
        <time>2022-07-03T07:57:00Z</time>
      </trkpt>
      <trkpt lat="46.63468" lon="5.61129">
        <ele>402.9</ele>
        <time>2022-07-03T07:57:05Z</time>
      </trkpt>
      <trkpt lat="46.63471" lon="5.61137">
        <ele>403.2</ele>
        <time>2022-07-03T07:57:09Z</time>
      </trkpt>
      <trkpt lat="46.6347" lon="5.61144">
        <ele>403.7</ele>
        <time>2022-07-03T07:57:14Z</time>
      </trkpt>
      <trkpt lat="46.63468" lon="5.61151">
        <ele>404</ele>
        <time>2022-07-03T07:57:18Z</time>
      </trkpt>
      <trkpt lat="46.63468" lon="5.61158">
        <ele>404</ele>
        <time>2022-07-03T07:57:22Z</time>
      </trkpt>
      <trkpt lat="46.63468" lon="5.61165">
        <ele>404.4</ele>
        <time>2022-07-03T07:57:26Z</time>
      </trkpt>
      <trkpt lat="46.63471" lon="5.61171">
        <ele>405.2</ele>
        <time>2022-07-03T07:57:32Z</time>
      </trkpt>
      <trkpt lat="46.63474" lon="5.61176">
        <ele>405.3</ele>
        <time>2022-07-03T07:57:37Z</time>
      </trkpt>
      <trkpt lat="46.63475" lon="5.61184">
        <ele>405.2</ele>
        <time>2022-07-03T07:57:41Z</time>
      </trkpt>
      <trkpt lat="46.63477" lon="5.6119">
        <ele>405.3</ele>
        <time>2022-07-03T07:57:45Z</time>
      </trkpt>
      <trkpt lat="46.6348" lon="5.61197">
        <ele>405.4</ele>
        <time>2022-07-03T07:57:49Z</time>
      </trkpt>
      <trkpt lat="46.63483" lon="5.61202">
        <ele>405.4</ele>
        <time>2022-07-03T07:57:53Z</time>
      </trkpt>
      <trkpt lat="46.63486" lon="5.61207">
        <ele>405.5</ele>
        <time>2022-07-03T07:57:57Z</time>
      </trkpt>
      <trkpt lat="46.63489" lon="5.61212">
        <ele>405.7</ele>
        <time>2022-07-03T07:58:00Z</time>
      </trkpt>
      <trkpt lat="46.63491" lon="5.61218">
        <ele>405.7</ele>
        <time>2022-07-03T07:58:04Z</time>
      </trkpt>
      <trkpt lat="46.63494" lon="5.61224">
        <ele>405.5</ele>
        <time>2022-07-03T07:58:09Z</time>
      </trkpt>
      <trkpt lat="46.63498" lon="5.61229">
        <ele>404.8</ele>
        <time>2022-07-03T07:58:15Z</time>
      </trkpt>
      <trkpt lat="46.63501" lon="5.61234">
        <ele>404.1</ele>
        <time>2022-07-03T07:58:19Z</time>
      </trkpt>
      <trkpt lat="46.63504" lon="5.6124">
        <ele>402.7</ele>
        <time>2022-07-03T07:58:27Z</time>
      </trkpt>
      <trkpt lat="46.63508" lon="5.61244">
        <ele>402.6</ele>
        <time>2022-07-03T07:58:30Z</time>
      </trkpt>
      <trkpt lat="46.63512" lon="5.6125">
        <ele>402.7</ele>
        <time>2022-07-03T07:58:33Z</time>
      </trkpt>
      <trkpt lat="46.63516" lon="5.61254">
        <ele>402.9</ele>
        <time>2022-07-03T07:58:36Z</time>
      </trkpt>
      <trkpt lat="46.6352" lon="5.61258">
        <ele>403.6</ele>
        <time>2022-07-03T07:58:40Z</time>
      </trkpt>
      <trkpt lat="46.63524" lon="5.6126">
        <ele>404.4</ele>
        <time>2022-07-03T07:58:45Z</time>
      </trkpt>
      <trkpt lat="46.63528" lon="5.61265">
        <ele>405.1</ele>
        <time>2022-07-03T07:58:53Z</time>
      </trkpt>
      <trkpt lat="46.63531" lon="5.61272">
        <ele>404.6</ele>
        <time>2022-07-03T07:58:58Z</time>
      </trkpt>
      <trkpt lat="46.63532" lon="5.61279">
        <ele>403.9</ele>
        <time>2022-07-03T07:59:04Z</time>
      </trkpt>
      <trkpt lat="46.63533" lon="5.61286">
        <ele>402.2</ele>
        <time>2022-07-03T07:59:11Z</time>
      </trkpt>
      <trkpt lat="46.63537" lon="5.61291">
        <ele>400.8</ele>
        <time>2022-07-03T07:59:17Z</time>
      </trkpt>
      <trkpt lat="46.63539" lon="5.61298">
        <ele>400.2</ele>
        <time>2022-07-03T07:59:22Z</time>
      </trkpt>
      <trkpt lat="46.63542" lon="5.61303">
        <ele>400.2</ele>
        <time>2022-07-03T07:59:28Z</time>
      </trkpt>
      <trkpt lat="46.63544" lon="5.6131">
        <ele>400.2</ele>
        <time>2022-07-03T07:59:32Z</time>
      </trkpt>
      <trkpt lat="46.63544" lon="5.61317">
        <ele>400.2</ele>
        <time>2022-07-03T07:59:35Z</time>
      </trkpt>
      <trkpt lat="46.63543" lon="5.61327">
        <ele>400.2</ele>
        <time>2022-07-03T07:59:38Z</time>
      </trkpt>
      <trkpt lat="46.63543" lon="5.61335">
        <ele>400.5</ele>
        <time>2022-07-03T07:59:41Z</time>
      </trkpt>
      <trkpt lat="46.63546" lon="5.61341">
        <ele>400.8</ele>
        <time>2022-07-03T07:59:44Z</time>
      </trkpt>
      <trkpt lat="46.63551" lon="5.61345">
        <ele>400.7</ele>
        <time>2022-07-03T07:59:48Z</time>
      </trkpt>
      <trkpt lat="46.63555" lon="5.61348">
        <ele>400.2</ele>
        <time>2022-07-03T07:59:53Z</time>
      </trkpt>
      <trkpt lat="46.63557" lon="5.61356">
        <ele>400.2</ele>
        <time>2022-07-03T07:59:57Z</time>
      </trkpt>
      <trkpt lat="46.63558" lon="5.61363">
        <ele>400.4</ele>
        <time>2022-07-03T08:00:00Z</time>
      </trkpt>
      <trkpt lat="46.63561" lon="5.61368">
        <ele>400.6</ele>
        <time>2022-07-03T08:00:04Z</time>
      </trkpt>
      <trkpt lat="46.63565" lon="5.61372">
        <ele>400.4</ele>
        <time>2022-07-03T08:00:10Z</time>
      </trkpt>
      <trkpt lat="46.63569" lon="5.61378">
        <ele>400</ele>
        <time>2022-07-03T08:00:16Z</time>
      </trkpt>
      <trkpt lat="46.63572" lon="5.61384">
        <ele>400.2</ele>
        <time>2022-07-03T08:00:22Z</time>
      </trkpt>
      <trkpt lat="46.63573" lon="5.61391">
        <ele>400.2</ele>
        <time>2022-07-03T08:00:27Z</time>
      </trkpt>
      <trkpt lat="46.63576" lon="5.61397">
        <ele>400</ele>
        <time>2022-07-03T08:00:31Z</time>
      </trkpt>
      <trkpt lat="46.6358" lon="5.61403">
        <ele>399.9</ele>
        <time>2022-07-03T08:00:35Z</time>
      </trkpt>
      <trkpt lat="46.63584" lon="5.61407">
        <ele>399.9</ele>
        <time>2022-07-03T08:00:39Z</time>
      </trkpt>
      <trkpt lat="46.63589" lon="5.61412">
        <ele>400.4</ele>
        <time>2022-07-03T08:00:43Z</time>
      </trkpt>
      <trkpt lat="46.63592" lon="5.61417">
        <ele>401.6</ele>
        <time>2022-07-03T08:00:48Z</time>
      </trkpt>
      <trkpt lat="46.63596" lon="5.61421">
        <ele>402.2</ele>
        <time>2022-07-03T08:00:53Z</time>
      </trkpt>
      <trkpt lat="46.63598" lon="5.61426">
        <ele>402.3</ele>
        <time>2022-07-03T08:00:57Z</time>
      </trkpt>
      <trkpt lat="46.63601" lon="5.61432">
        <ele>402.4</ele>
        <time>2022-07-03T08:01:02Z</time>
      </trkpt>
      <trkpt lat="46.63605" lon="5.61438">
        <ele>402.5</ele>
        <time>2022-07-03T08:01:07Z</time>
      </trkpt>
      <trkpt lat="46.63606" lon="5.61445">
        <ele>402.8</ele>
        <time>2022-07-03T08:01:12Z</time>
      </trkpt>
      <trkpt lat="46.6361" lon="5.61448">
        <ele>403</ele>
        <time>2022-07-03T08:01:18Z</time>
      </trkpt>
      <trkpt lat="46.63613" lon="5.61454">
        <ele>403.5</ele>
        <time>2022-07-03T08:01:23Z</time>
      </trkpt>
      <trkpt lat="46.63615" lon="5.6146">
        <ele>403.8</ele>
        <time>2022-07-03T08:01:28Z</time>
      </trkpt>
      <trkpt lat="46.63618" lon="5.61467">
        <ele>404</ele>
        <time>2022-07-03T08:01:32Z</time>
      </trkpt>
      <trkpt lat="46.6362" lon="5.61474">
        <ele>404.1</ele>
        <time>2022-07-03T08:01:36Z</time>
      </trkpt>
      <trkpt lat="46.63622" lon="5.61481">
        <ele>404.3</ele>
        <time>2022-07-03T08:01:40Z</time>
      </trkpt>
      <trkpt lat="46.63625" lon="5.61488">
        <ele>404.5</ele>
        <time>2022-07-03T08:01:44Z</time>
      </trkpt>
      <trkpt lat="46.63626" lon="5.61494">
        <ele>404.6</ele>
        <time>2022-07-03T08:01:48Z</time>
      </trkpt>
      <trkpt lat="46.63627" lon="5.61502">
        <ele>404.6</ele>
        <time>2022-07-03T08:01:52Z</time>
      </trkpt>
      <trkpt lat="46.6363" lon="5.61509">
        <ele>404.7</ele>
        <time>2022-07-03T08:01:56Z</time>
      </trkpt>
      <trkpt lat="46.63632" lon="5.61515">
        <ele>405</ele>
        <time>2022-07-03T08:02:02Z</time>
      </trkpt>
      <trkpt lat="46.63636" lon="5.6152">
        <ele>405.1</ele>
        <time>2022-07-03T08:02:06Z</time>
      </trkpt>
      <trkpt lat="46.63641" lon="5.61524">
        <ele>405.2</ele>
        <time>2022-07-03T08:02:11Z</time>
      </trkpt>
      <trkpt lat="46.63646" lon="5.61528">
        <ele>405.1</ele>
        <time>2022-07-03T08:02:15Z</time>
      </trkpt>
      <trkpt lat="46.6365" lon="5.61533">
        <ele>405.2</ele>
        <time>2022-07-03T08:02:20Z</time>
      </trkpt>
      <trkpt lat="46.63654" lon="5.61537">
        <ele>405.1</ele>
        <time>2022-07-03T08:02:24Z</time>
      </trkpt>
      <trkpt lat="46.63658" lon="5.61542">
        <ele>405</ele>
        <time>2022-07-03T08:02:28Z</time>
      </trkpt>
      <trkpt lat="46.63662" lon="5.61548">
        <ele>405</ele>
        <time>2022-07-03T08:02:32Z</time>
      </trkpt>
      <trkpt lat="46.63666" lon="5.61551">
        <ele>405</ele>
        <time>2022-07-03T08:02:36Z</time>
      </trkpt>
      <trkpt lat="46.6367" lon="5.61555">
        <ele>405.1</ele>
        <time>2022-07-03T08:02:40Z</time>
      </trkpt>
      <trkpt lat="46.63676" lon="5.61556">
        <ele>405.5</ele>
        <time>2022-07-03T08:02:45Z</time>
      </trkpt>
      <trkpt lat="46.6368" lon="5.61559">
        <ele>406</ele>
        <time>2022-07-03T08:02:50Z</time>
      </trkpt>
      <trkpt lat="46.63684" lon="5.61563">
        <ele>406.6</ele>
        <time>2022-07-03T08:02:56Z</time>
      </trkpt>
      <trkpt lat="46.63688" lon="5.61566">
        <ele>407.1</ele>
        <time>2022-07-03T08:03:01Z</time>
      </trkpt>
      <trkpt lat="46.63693" lon="5.61565">
        <ele>407.7</ele>
        <time>2022-07-03T08:03:06Z</time>
      </trkpt>
      <trkpt lat="46.63698" lon="5.61565">
        <ele>408.4</ele>
        <time>2022-07-03T08:03:11Z</time>
      </trkpt>
      <trkpt lat="46.63703" lon="5.61567">
        <ele>409.1</ele>
        <time>2022-07-03T08:03:15Z</time>
      </trkpt>
      <trkpt lat="46.63707" lon="5.6157">
        <ele>410</ele>
        <time>2022-07-03T08:03:22Z</time>
      </trkpt>
      <trkpt lat="46.63712" lon="5.61569">
        <ele>410.9</ele>
        <time>2022-07-03T08:03:28Z</time>
      </trkpt>
      <trkpt lat="46.63716" lon="5.61564">
        <ele>411.3</ele>
        <time>2022-07-03T08:03:32Z</time>
      </trkpt>
      <trkpt lat="46.63721" lon="5.6156">
        <ele>411.7</ele>
        <time>2022-07-03T08:03:58Z</time>
      </trkpt>
      <trkpt lat="46.63726" lon="5.61559">
        <ele>411.4</ele>
        <time>2022-07-03T08:04:07Z</time>
      </trkpt>
      <trkpt lat="46.63721" lon="5.61561">
        <ele>412</ele>
        <time>2022-07-03T08:04:22Z</time>
      </trkpt>
      <trkpt lat="46.63719" lon="5.61566">
        <ele>412.3</ele>
        <time>2022-07-03T08:04:29Z</time>
      </trkpt>
      <trkpt lat="46.63723" lon="5.6157">
        <ele>415.4</ele>
        <time>2022-07-03T08:04:43Z</time>
      </trkpt>
      <trkpt lat="46.63718" lon="5.61571">
        <ele>414.2</ele>
        <time>2022-07-03T08:04:54Z</time>
      </trkpt>
      <trkpt lat="46.6372" lon="5.61577">
        <ele>414.1</ele>
        <time>2022-07-03T08:05:21Z</time>
      </trkpt>
      <trkpt lat="46.63725" lon="5.61577">
        <ele>414.6</ele>
        <time>2022-07-03T08:05:25Z</time>
      </trkpt>
      <trkpt lat="46.63726" lon="5.6157">
        <ele>415.9</ele>
        <time>2022-07-03T08:05:36Z</time>
      </trkpt>
      <trkpt lat="46.63721" lon="5.61573">
        <ele>415.7</ele>
        <time>2022-07-03T08:05:44Z</time>
      </trkpt>
      <trkpt lat="46.63719" lon="5.61579">
        <ele>415.4</ele>
        <time>2022-07-03T08:06:00Z</time>
      </trkpt>
      <trkpt lat="46.63722" lon="5.61573">
        <ele>416.5</ele>
        <time>2022-07-03T08:06:21Z</time>
      </trkpt>
      <trkpt lat="46.63724" lon="5.61566">
        <ele>418.1</ele>
        <time>2022-07-03T08:06:32Z</time>
      </trkpt>
      <trkpt lat="46.63721" lon="5.61561">
        <ele>419</ele>
        <time>2022-07-03T08:06:42Z</time>
      </trkpt>
      <trkpt lat="46.63716" lon="5.61559">
        <ele>419.5</ele>
        <time>2022-07-03T08:07:02Z</time>
      </trkpt>
      <trkpt lat="46.63712" lon="5.61563">
        <ele>419.8</ele>
        <time>2022-07-03T08:07:12Z</time>
      </trkpt>
      <trkpt lat="46.63712" lon="5.6157">
        <ele>421</ele>
        <time>2022-07-03T08:07:38Z</time>
      </trkpt>
      <trkpt lat="46.63709" lon="5.61576">
        <ele>419.9</ele>
        <time>2022-07-03T08:07:45Z</time>
      </trkpt>
      <trkpt lat="46.63714" lon="5.61572">
        <ele>419.2</ele>
        <time>2022-07-03T08:07:58Z</time>
      </trkpt>
      <trkpt lat="46.63718" lon="5.6157">
        <ele>419.5</ele>
        <time>2022-07-03T08:08:22Z</time>
      </trkpt>
      <trkpt lat="46.63715" lon="5.61575">
        <ele>417.9</ele>
        <time>2022-07-03T08:09:06Z</time>
      </trkpt>
      <trkpt lat="46.6372" lon="5.61577">
        <ele>417.8</ele>
        <time>2022-07-03T08:09:23Z</time>
      </trkpt>
      <trkpt lat="46.63726" lon="5.61575">
        <ele>417.6</ele>
        <time>2022-07-03T08:09:27Z</time>
      </trkpt>
      <trkpt lat="46.63731" lon="5.61576">
        <ele>417.4</ele>
        <time>2022-07-03T08:09:31Z</time>
      </trkpt>
      <trkpt lat="46.63735" lon="5.6158">
        <ele>417.2</ele>
        <time>2022-07-03T08:09:37Z</time>
      </trkpt>
      <trkpt lat="46.6374" lon="5.6158">
        <ele>417</ele>
        <time>2022-07-03T08:09:43Z</time>
      </trkpt>
      <trkpt lat="46.63745" lon="5.6158">
        <ele>416.9</ele>
        <time>2022-07-03T08:09:48Z</time>
      </trkpt>
      <trkpt lat="46.6375" lon="5.61581">
        <ele>417.1</ele>
        <time>2022-07-03T08:09:53Z</time>
      </trkpt>
      <trkpt lat="46.63754" lon="5.61584">
        <ele>417.6</ele>
        <time>2022-07-03T08:09:59Z</time>
      </trkpt>
      <trkpt lat="46.63758" lon="5.61589">
        <ele>417.8</ele>
        <time>2022-07-03T08:10:04Z</time>
      </trkpt>
      <trkpt lat="46.63762" lon="5.61593">
        <ele>417.5</ele>
        <time>2022-07-03T08:10:10Z</time>
      </trkpt>
      <trkpt lat="46.63767" lon="5.61593">
        <ele>416.9</ele>
        <time>2022-07-03T08:10:15Z</time>
      </trkpt>
      <trkpt lat="46.63771" lon="5.61597">
        <ele>416.2</ele>
        <time>2022-07-03T08:10:20Z</time>
      </trkpt>
      <trkpt lat="46.63776" lon="5.616">
        <ele>415.3</ele>
        <time>2022-07-03T08:10:25Z</time>
      </trkpt>
      <trkpt lat="46.6378" lon="5.61599">
        <ele>414.5</ele>
        <time>2022-07-03T08:10:29Z</time>
      </trkpt>
      <trkpt lat="46.63785" lon="5.61597">
        <ele>413.6</ele>
        <time>2022-07-03T08:10:34Z</time>
      </trkpt>
      <trkpt lat="46.6379" lon="5.61596">
        <ele>412.4</ele>
        <time>2022-07-03T08:10:44Z</time>
      </trkpt>
      <trkpt lat="46.63795" lon="5.61596">
        <ele>412.1</ele>
        <time>2022-07-03T08:10:49Z</time>
      </trkpt>
      <trkpt lat="46.638" lon="5.61599">
        <ele>411.9</ele>
        <time>2022-07-03T08:10:55Z</time>
      </trkpt>
      <trkpt lat="46.63803" lon="5.61604">
        <ele>412.1</ele>
        <time>2022-07-03T08:11:01Z</time>
      </trkpt>
      <trkpt lat="46.63808" lon="5.61605">
        <ele>412.4</ele>
        <time>2022-07-03T08:11:06Z</time>
      </trkpt>
      <trkpt lat="46.63813" lon="5.61605">
        <ele>412.3</ele>
        <time>2022-07-03T08:11:11Z</time>
      </trkpt>
      <trkpt lat="46.63817" lon="5.61607">
        <ele>412.2</ele>
        <time>2022-07-03T08:11:16Z</time>
      </trkpt>
      <trkpt lat="46.63822" lon="5.61609">
        <ele>412.3</ele>
        <time>2022-07-03T08:11:20Z</time>
      </trkpt>
      <trkpt lat="46.63826" lon="5.61614">
        <ele>412.3</ele>
        <time>2022-07-03T08:11:25Z</time>
      </trkpt>
      <trkpt lat="46.63829" lon="5.61619">
        <ele>412.3</ele>
        <time>2022-07-03T08:11:29Z</time>
      </trkpt>
      <trkpt lat="46.63831" lon="5.61626">
        <ele>412.4</ele>
        <time>2022-07-03T08:11:33Z</time>
      </trkpt>
      <trkpt lat="46.63833" lon="5.61633">
        <ele>412.2</ele>
        <time>2022-07-03T08:11:39Z</time>
      </trkpt>
      <trkpt lat="46.63836" lon="5.61639">
        <ele>412.2</ele>
        <time>2022-07-03T08:11:44Z</time>
      </trkpt>
      <trkpt lat="46.6384" lon="5.61644">
        <ele>412.3</ele>
        <time>2022-07-03T08:11:49Z</time>
      </trkpt>
      <trkpt lat="46.63844" lon="5.61648">
        <ele>412.3</ele>
        <time>2022-07-03T08:11:53Z</time>
      </trkpt>
      <trkpt lat="46.63847" lon="5.61653">
        <ele>412.2</ele>
        <time>2022-07-03T08:11:57Z</time>
      </trkpt>
      <trkpt lat="46.63851" lon="5.61656">
        <ele>412.3</ele>
        <time>2022-07-03T08:12:02Z</time>
      </trkpt>
      <trkpt lat="46.63855" lon="5.61661">
        <ele>412.5</ele>
        <time>2022-07-03T08:12:07Z</time>
      </trkpt>
      <trkpt lat="46.63859" lon="5.61666">
        <ele>412.5</ele>
        <time>2022-07-03T08:12:14Z</time>
      </trkpt>
      <trkpt lat="46.63862" lon="5.61671">
        <ele>412.3</ele>
        <time>2022-07-03T08:12:20Z</time>
      </trkpt>
      <trkpt lat="46.63867" lon="5.61672">
        <ele>412</ele>
        <time>2022-07-03T08:12:24Z</time>
      </trkpt>
      <trkpt lat="46.63872" lon="5.61674">
        <ele>411.8</ele>
        <time>2022-07-03T08:12:28Z</time>
      </trkpt>
      <trkpt lat="46.63875" lon="5.61678">
        <ele>411.7</ele>
        <time>2022-07-03T08:12:32Z</time>
      </trkpt>
      <trkpt lat="46.6388" lon="5.61682">
        <ele>411.6</ele>
        <time>2022-07-03T08:12:36Z</time>
      </trkpt>
      <trkpt lat="46.63884" lon="5.61682">
        <ele>411.8</ele>
        <time>2022-07-03T08:12:40Z</time>
      </trkpt>
      <trkpt lat="46.63889" lon="5.61681">
        <ele>412.3</ele>
        <time>2022-07-03T08:12:45Z</time>
      </trkpt>
      <trkpt lat="46.63894" lon="5.61684">
        <ele>412.8</ele>
        <time>2022-07-03T08:12:51Z</time>
      </trkpt>
      <trkpt lat="46.63898" lon="5.61687">
        <ele>413</ele>
        <time>2022-07-03T08:12:55Z</time>
      </trkpt>
      <trkpt lat="46.63903" lon="5.61689">
        <ele>413.1</ele>
        <time>2022-07-03T08:12:59Z</time>
      </trkpt>
      <trkpt lat="46.63907" lon="5.6169">
        <ele>413</ele>
        <time>2022-07-03T08:13:03Z</time>
      </trkpt>
      <trkpt lat="46.63912" lon="5.61692">
        <ele>412.7</ele>
        <time>2022-07-03T08:13:08Z</time>
      </trkpt>
      <trkpt lat="46.63917" lon="5.61695">
        <ele>412.5</ele>
        <time>2022-07-03T08:13:13Z</time>
      </trkpt>
      <trkpt lat="46.63922" lon="5.61697">
        <ele>412.4</ele>
        <time>2022-07-03T08:13:17Z</time>
      </trkpt>
      <trkpt lat="46.63927" lon="5.617">
        <ele>412.6</ele>
        <time>2022-07-03T08:13:21Z</time>
      </trkpt>
      <trkpt lat="46.63931" lon="5.61706">
        <ele>413.3</ele>
        <time>2022-07-03T08:13:26Z</time>
      </trkpt>
      <trkpt lat="46.63936" lon="5.61709">
        <ele>413.8</ele>
        <time>2022-07-03T08:13:31Z</time>
      </trkpt>
      <trkpt lat="46.63939" lon="5.61715">
        <ele>413.8</ele>
        <time>2022-07-03T08:13:38Z</time>
      </trkpt>
      <trkpt lat="46.63943" lon="5.6172">
        <ele>413.6</ele>
        <time>2022-07-03T08:13:42Z</time>
      </trkpt>
      <trkpt lat="46.63947" lon="5.61723">
        <ele>413.6</ele>
        <time>2022-07-03T08:13:45Z</time>
      </trkpt>
      <trkpt lat="46.63952" lon="5.61727">
        <ele>413.9</ele>
        <time>2022-07-03T08:13:49Z</time>
      </trkpt>
      <trkpt lat="46.63955" lon="5.61734">
        <ele>413.5</ele>
        <time>2022-07-03T08:13:58Z</time>
      </trkpt>
      <trkpt lat="46.63956" lon="5.6174">
        <ele>413.5</ele>
        <time>2022-07-03T08:14:02Z</time>
      </trkpt>
      <trkpt lat="46.63957" lon="5.61747">
        <ele>413.3</ele>
        <time>2022-07-03T08:14:07Z</time>
      </trkpt>
      <trkpt lat="46.63961" lon="5.61752">
        <ele>413.2</ele>
        <time>2022-07-03T08:14:12Z</time>
      </trkpt>
      <trkpt lat="46.63964" lon="5.61759">
        <ele>413.3</ele>
        <time>2022-07-03T08:14:16Z</time>
      </trkpt>
      <trkpt lat="46.63967" lon="5.61764">
        <ele>413.4</ele>
        <time>2022-07-03T08:14:20Z</time>
      </trkpt>
      <trkpt lat="46.63968" lon="5.61771">
        <ele>413.7</ele>
        <time>2022-07-03T08:14:26Z</time>
      </trkpt>
      <trkpt lat="46.63967" lon="5.61777">
        <ele>414.6</ele>
        <time>2022-07-03T08:14:45Z</time>
      </trkpt>
      <trkpt lat="46.63968" lon="5.61784">
        <ele>414.9</ele>
        <time>2022-07-03T08:14:50Z</time>
      </trkpt>
      <trkpt lat="46.6397" lon="5.6179">
        <ele>415</ele>
        <time>2022-07-03T08:14:59Z</time>
      </trkpt>
      <trkpt lat="46.63973" lon="5.61795">
        <ele>415.2</ele>
        <time>2022-07-03T08:15:07Z</time>
      </trkpt>
      <trkpt lat="46.63972" lon="5.61802">
        <ele>415.3</ele>
        <time>2022-07-03T08:15:13Z</time>
      </trkpt>
      <trkpt lat="46.63976" lon="5.61807">
        <ele>415.6</ele>
        <time>2022-07-03T08:15:22Z</time>
      </trkpt>
      <trkpt lat="46.63977" lon="5.61814">
        <ele>415.9</ele>
        <time>2022-07-03T08:15:28Z</time>
      </trkpt>
      <trkpt lat="46.6398" lon="5.6182">
        <ele>416.4</ele>
        <time>2022-07-03T08:15:33Z</time>
      </trkpt>
      <trkpt lat="46.63984" lon="5.61817">
        <ele>420.4</ele>
        <time>2022-07-03T08:16:03Z</time>
      </trkpt>
      <trkpt lat="46.63981" lon="5.61813">
        <ele>422.8</ele>
        <time>2022-07-03T08:16:18Z</time>
      </trkpt>
      <trkpt lat="46.63974" lon="5.61814">
        <ele>423.3</ele>
        <time>2022-07-03T08:16:35Z</time>
      </trkpt>
      <trkpt lat="46.63979" lon="5.61815">
        <ele>425.4</ele>
        <time>2022-07-03T08:17:06Z</time>
      </trkpt>
      <trkpt lat="46.63976" lon="5.61821">
        <ele>426.5</ele>
        <time>2022-07-03T08:17:24Z</time>
      </trkpt>
      <trkpt lat="46.63731" lon="5.61731">
        <ele>446.7</ele>
        <time>2022-07-03T08:23:11Z</time>
      </trkpt>
      <trkpt lat="46.63727" lon="5.61726">
        <ele>448.4</ele>
        <time>2022-07-03T08:23:16Z</time>
      </trkpt>
      <trkpt lat="46.63732" lon="5.61729">
        <ele>447.6</ele>
        <time>2022-07-03T08:23:29Z</time>
      </trkpt>
      <trkpt lat="46.63737" lon="5.61729">
        <ele>448.5</ele>
        <time>2022-07-03T08:23:34Z</time>
      </trkpt>
      <trkpt lat="46.63737" lon="5.61736">
        <ele>444.8</ele>
        <time>2022-07-03T08:23:49Z</time>
      </trkpt>
      <trkpt lat="46.63734" lon="5.6174">
        <ele>442.8</ele>
        <time>2022-07-03T08:24:04Z</time>
      </trkpt>
      <trkpt lat="46.63729" lon="5.61736">
        <ele>441.8</ele>
        <time>2022-07-03T08:24:36Z</time>
      </trkpt>
      <trkpt lat="46.63727" lon="5.6173">
        <ele>442.1</ele>
        <time>2022-07-03T08:24:44Z</time>
      </trkpt>
      <trkpt lat="46.63723" lon="5.61727">
        <ele>443.4</ele>
        <time>2022-07-03T08:24:53Z</time>
      </trkpt>
      <trkpt lat="46.63727" lon="5.61728">
        <ele>444.4</ele>
        <time>2022-07-03T08:25:21Z</time>
      </trkpt>
      <trkpt lat="46.63726" lon="5.61722">
        <ele>441.1</ele>
        <time>2022-07-03T08:26:16Z</time>
      </trkpt>
      <trkpt lat="46.63726" lon="5.6173">
        <ele>441.2</ele>
        <time>2022-07-03T08:26:37Z</time>
      </trkpt>
      <trkpt lat="46.63729" lon="5.61735">
        <ele>443</ele>
        <time>2022-07-03T08:26:56Z</time>
      </trkpt>
      <trkpt lat="46.63726" lon="5.6174">
        <ele>443.3</ele>
        <time>2022-07-03T08:27:18Z</time>
      </trkpt>
      <trkpt lat="46.63723" lon="5.61735">
        <ele>443.8</ele>
        <time>2022-07-03T08:27:32Z</time>
      </trkpt>
      <trkpt lat="46.63726" lon="5.61729">
        <ele>445.2</ele>
        <time>2022-07-03T08:27:38Z</time>
      </trkpt>
      <trkpt lat="46.63722" lon="5.61733">
        <ele>446.5</ele>
        <time>2022-07-03T08:27:53Z</time>
      </trkpt>
      <trkpt lat="46.63716" lon="5.61731">
        <ele>447.6</ele>
        <time>2022-07-03T08:28:05Z</time>
      </trkpt>
      <trkpt lat="46.63711" lon="5.61729">
        <ele>447.9</ele>
        <time>2022-07-03T08:28:10Z</time>
      </trkpt>
      <trkpt lat="46.63706" lon="5.61725">
        <ele>448.1</ele>
        <time>2022-07-03T08:28:15Z</time>
      </trkpt>
      <trkpt lat="46.63703" lon="5.61721">
        <ele>449</ele>
        <time>2022-07-03T08:28:22Z</time>
      </trkpt>
      <trkpt lat="46.63699" lon="5.61716">
        <ele>449</ele>
        <time>2022-07-03T08:28:27Z</time>
      </trkpt>
      <trkpt lat="46.63694" lon="5.61715">
        <ele>448.6</ele>
        <time>2022-07-03T08:28:32Z</time>
      </trkpt>
      <trkpt lat="46.6369" lon="5.61717">
        <ele>448.2</ele>
        <time>2022-07-03T08:28:39Z</time>
      </trkpt>
      <trkpt lat="46.63685" lon="5.61717">
        <ele>447.1</ele>
        <time>2022-07-03T08:28:44Z</time>
      </trkpt>
      <trkpt lat="46.6368" lon="5.6172">
        <ele>446</ele>
        <time>2022-07-03T08:28:49Z</time>
      </trkpt>
      <trkpt lat="46.63675" lon="5.61717">
        <ele>445.3</ele>
        <time>2022-07-03T08:28:54Z</time>
      </trkpt>
      <trkpt lat="46.6367" lon="5.61718">
        <ele>444.8</ele>
        <time>2022-07-03T08:29:00Z</time>
      </trkpt>
      <trkpt lat="46.63665" lon="5.61723">
        <ele>445.3</ele>
        <time>2022-07-03T08:29:06Z</time>
      </trkpt>
      <trkpt lat="46.63663" lon="5.61728">
        <ele>446</ele>
        <time>2022-07-03T08:29:10Z</time>
      </trkpt>
      <trkpt lat="46.63658" lon="5.61724">
        <ele>445.8</ele>
        <time>2022-07-03T08:29:15Z</time>
      </trkpt>
      <trkpt lat="46.63653" lon="5.61722">
        <ele>444.8</ele>
        <time>2022-07-03T08:29:19Z</time>
      </trkpt>
      <trkpt lat="46.63648" lon="5.61721">
        <ele>443.7</ele>
        <time>2022-07-03T08:29:25Z</time>
      </trkpt>
      <trkpt lat="46.63644" lon="5.6172">
        <ele>443.4</ele>
        <time>2022-07-03T08:29:30Z</time>
      </trkpt>
      <trkpt lat="46.63639" lon="5.6172">
        <ele>443.1</ele>
        <time>2022-07-03T08:29:34Z</time>
      </trkpt>
      <trkpt lat="46.63634" lon="5.61718">
        <ele>442.8</ele>
        <time>2022-07-03T08:29:41Z</time>
      </trkpt>
      <trkpt lat="46.63629" lon="5.61717">
        <ele>442.7</ele>
        <time>2022-07-03T08:29:46Z</time>
      </trkpt>
      <trkpt lat="46.63625" lon="5.61719">
        <ele>442.6</ele>
        <time>2022-07-03T08:29:50Z</time>
      </trkpt>
      <trkpt lat="46.63619" lon="5.61718">
        <ele>442.4</ele>
        <time>2022-07-03T08:29:55Z</time>
      </trkpt>
      <trkpt lat="46.63615" lon="5.61714">
        <ele>442</ele>
        <time>2022-07-03T08:30:00Z</time>
      </trkpt>
      <trkpt lat="46.63612" lon="5.61709">
        <ele>441.4</ele>
        <time>2022-07-03T08:30:07Z</time>
      </trkpt>
      <trkpt lat="46.63608" lon="5.61705">
        <ele>441.1</ele>
        <time>2022-07-03T08:30:14Z</time>
      </trkpt>
      <trkpt lat="46.63603" lon="5.61704">
        <ele>440.6</ele>
        <time>2022-07-03T08:30:22Z</time>
      </trkpt>
      <trkpt lat="46.63598" lon="5.61705">
        <ele>439.5</ele>
        <time>2022-07-03T08:30:28Z</time>
      </trkpt>
      <trkpt lat="46.63593" lon="5.61702">
        <ele>438.7</ele>
        <time>2022-07-03T08:30:33Z</time>
      </trkpt>
      <trkpt lat="46.63589" lon="5.61699">
        <ele>438.1</ele>
        <time>2022-07-03T08:30:37Z</time>
      </trkpt>
      <trkpt lat="46.63584" lon="5.61696">
        <ele>437.5</ele>
        <time>2022-07-03T08:30:41Z</time>
      </trkpt>
      <trkpt lat="46.6358" lon="5.61694">
        <ele>436.8</ele>
        <time>2022-07-03T08:30:45Z</time>
      </trkpt>
      <trkpt lat="46.63574" lon="5.61693">
        <ele>436.4</ele>
        <time>2022-07-03T08:30:51Z</time>
      </trkpt>
      <trkpt lat="46.6357" lon="5.61691">
        <ele>436.2</ele>
        <time>2022-07-03T08:30:56Z</time>
      </trkpt>
      <trkpt lat="46.63566" lon="5.61687">
        <ele>435.9</ele>
        <time>2022-07-03T08:31:01Z</time>
      </trkpt>
      <trkpt lat="46.63561" lon="5.61683">
        <ele>435.2</ele>
        <time>2022-07-03T08:31:07Z</time>
      </trkpt>
      <trkpt lat="46.63557" lon="5.6168">
        <ele>434.4</ele>
        <time>2022-07-03T08:31:12Z</time>
      </trkpt>
      <trkpt lat="46.63553" lon="5.61678">
        <ele>433.7</ele>
        <time>2022-07-03T08:31:18Z</time>
      </trkpt>
      <trkpt lat="46.63548" lon="5.61676">
        <ele>435.2</ele>
        <time>2022-07-03T08:31:22Z</time>
      </trkpt>
      <trkpt lat="46.63544" lon="5.61672">
        <ele>437.2</ele>
        <time>2022-07-03T08:31:26Z</time>
      </trkpt>
      <trkpt lat="46.6354" lon="5.61669">
        <ele>438.9</ele>
        <time>2022-07-03T08:31:31Z</time>
      </trkpt>
      <trkpt lat="46.63534" lon="5.61669">
        <ele>440</ele>
        <time>2022-07-03T08:31:35Z</time>
      </trkpt>
      <trkpt lat="46.6353" lon="5.61669">
        <ele>441.2</ele>
        <time>2022-07-03T08:31:38Z</time>
      </trkpt>
      <trkpt lat="46.63525" lon="5.61666">
        <ele>442.8</ele>
        <time>2022-07-03T08:31:42Z</time>
      </trkpt>
      <trkpt lat="46.6352" lon="5.61661">
        <ele>443.2</ele>
        <time>2022-07-03T08:31:47Z</time>
      </trkpt>
      <trkpt lat="46.63516" lon="5.61656">
        <ele>442.8</ele>
        <time>2022-07-03T08:31:52Z</time>
      </trkpt>
      <trkpt lat="46.63512" lon="5.61652">
        <ele>441.5</ele>
        <time>2022-07-03T08:31:57Z</time>
      </trkpt>
      <trkpt lat="46.63508" lon="5.61652">
        <ele>439.8</ele>
        <time>2022-07-03T08:32:04Z</time>
      </trkpt>
      <trkpt lat="46.63502" lon="5.61651">
        <ele>438.9</ele>
        <time>2022-07-03T08:32:12Z</time>
      </trkpt>
      <trkpt lat="46.63497" lon="5.61649">
        <ele>438.6</ele>
        <time>2022-07-03T08:32:15Z</time>
      </trkpt>
      <trkpt lat="46.63492" lon="5.61649">
        <ele>438.5</ele>
        <time>2022-07-03T08:32:18Z</time>
      </trkpt>
      <trkpt lat="46.63488" lon="5.61651">
        <ele>438.4</ele>
        <time>2022-07-03T08:32:23Z</time>
      </trkpt>
      <trkpt lat="46.63483" lon="5.61647">
        <ele>438.2</ele>
        <time>2022-07-03T08:32:30Z</time>
      </trkpt>
      <trkpt lat="46.63479" lon="5.61644">
        <ele>437.4</ele>
        <time>2022-07-03T08:32:40Z</time>
      </trkpt>
      <trkpt lat="46.63475" lon="5.61651">
        <ele>436.9</ele>
        <time>2022-07-03T08:32:44Z</time>
      </trkpt>
      <trkpt lat="46.6347" lon="5.61654">
        <ele>436.8</ele>
        <time>2022-07-03T08:32:47Z</time>
      </trkpt>
      <trkpt lat="46.63467" lon="5.61659">
        <ele>438.8</ele>
        <time>2022-07-03T08:32:53Z</time>
      </trkpt>
      <trkpt lat="46.63463" lon="5.61655">
        <ele>444.4</ele>
        <time>2022-07-03T08:33:04Z</time>
      </trkpt>
      <trkpt lat="46.63458" lon="5.61652">
        <ele>448.2</ele>
        <time>2022-07-03T08:33:15Z</time>
      </trkpt>
      <trkpt lat="46.6346" lon="5.61658">
        <ele>452.9</ele>
        <time>2022-07-03T08:33:31Z</time>
      </trkpt>
      <trkpt lat="46.63464" lon="5.61651">
        <ele>455.2</ele>
        <time>2022-07-03T08:33:43Z</time>
      </trkpt>
      <trkpt lat="46.6346" lon="5.61657">
        <ele>460.8</ele>
        <time>2022-07-03T08:34:02Z</time>
      </trkpt>
      <trkpt lat="46.63455" lon="5.61658">
        <ele>461.1</ele>
        <time>2022-07-03T08:34:05Z</time>
      </trkpt>
      <trkpt lat="46.63451" lon="5.61661">
        <ele>461.4</ele>
        <time>2022-07-03T08:34:09Z</time>
      </trkpt>
      <trkpt lat="46.63446" lon="5.61666">
        <ele>462.6</ele>
        <time>2022-07-03T08:34:14Z</time>
      </trkpt>
      <trkpt lat="46.63442" lon="5.61668">
        <ele>463.9</ele>
        <time>2022-07-03T08:34:19Z</time>
      </trkpt>
      <trkpt lat="46.63437" lon="5.6167">
        <ele>465.1</ele>
        <time>2022-07-03T08:34:26Z</time>
      </trkpt>
      <trkpt lat="46.63432" lon="5.61673">
        <ele>465.5</ele>
        <time>2022-07-03T08:34:30Z</time>
      </trkpt>
      <trkpt lat="46.63427" lon="5.61676">
        <ele>466.2</ele>
        <time>2022-07-03T08:34:35Z</time>
      </trkpt>
      <trkpt lat="46.63422" lon="5.61678">
        <ele>466.8</ele>
        <time>2022-07-03T08:34:39Z</time>
      </trkpt>
      <trkpt lat="46.63417" lon="5.6168">
        <ele>466.8</ele>
        <time>2022-07-03T08:34:46Z</time>
      </trkpt>
      <trkpt lat="46.63413" lon="5.6168">
        <ele>465.5</ele>
        <time>2022-07-03T08:34:53Z</time>
      </trkpt>
      <trkpt lat="46.63408" lon="5.6168">
        <ele>464.3</ele>
        <time>2022-07-03T08:34:58Z</time>
      </trkpt>
      <trkpt lat="46.63403" lon="5.61682">
        <ele>463.6</ele>
        <time>2022-07-03T08:35:02Z</time>
      </trkpt>
      <trkpt lat="46.63398" lon="5.61681">
        <ele>462.7</ele>
        <time>2022-07-03T08:35:08Z</time>
      </trkpt>
      <trkpt lat="46.63394" lon="5.61678">
        <ele>462</ele>
        <time>2022-07-03T08:35:14Z</time>
      </trkpt>
      <trkpt lat="46.63389" lon="5.61678">
        <ele>461.5</ele>
        <time>2022-07-03T08:35:19Z</time>
      </trkpt>
      <trkpt lat="46.63385" lon="5.61676">
        <ele>461.2</ele>
        <time>2022-07-03T08:35:26Z</time>
      </trkpt>
      <trkpt lat="46.6338" lon="5.61677">
        <ele>460.9</ele>
        <time>2022-07-03T08:35:31Z</time>
      </trkpt>
      <trkpt lat="46.63374" lon="5.61678">
        <ele>460.5</ele>
        <time>2022-07-03T08:35:35Z</time>
      </trkpt>
      <trkpt lat="46.6337" lon="5.61679">
        <ele>459.9</ele>
        <time>2022-07-03T08:35:42Z</time>
      </trkpt>
      <trkpt lat="46.63365" lon="5.61676">
        <ele>460.1</ele>
        <time>2022-07-03T08:35:51Z</time>
      </trkpt>
      <trkpt lat="46.63362" lon="5.61672">
        <ele>459</ele>
        <time>2022-07-03T08:35:58Z</time>
      </trkpt>
      <trkpt lat="46.63358" lon="5.61669">
        <ele>458.6</ele>
        <time>2022-07-03T08:36:03Z</time>
      </trkpt>
      <trkpt lat="46.63354" lon="5.61665">
        <ele>458.4</ele>
        <time>2022-07-03T08:36:34Z</time>
      </trkpt>
      <trkpt lat="46.63351" lon="5.61659">
        <ele>458.8</ele>
        <time>2022-07-03T08:36:42Z</time>
      </trkpt>
      <trkpt lat="46.63346" lon="5.61657">
        <ele>459.4</ele>
        <time>2022-07-03T08:36:55Z</time>
      </trkpt>
      <trkpt lat="46.63342" lon="5.61653">
        <ele>459.5</ele>
        <time>2022-07-03T08:37:01Z</time>
      </trkpt>
      <trkpt lat="46.63339" lon="5.61647">
        <ele>459.4</ele>
        <time>2022-07-03T08:37:08Z</time>
      </trkpt>
      <trkpt lat="46.63336" lon="5.61643">
        <ele>460.1</ele>
        <time>2022-07-03T08:37:14Z</time>
      </trkpt>
      <trkpt lat="46.63331" lon="5.61639">
        <ele>460.4</ele>
        <time>2022-07-03T08:37:19Z</time>
      </trkpt>
      <trkpt lat="46.63329" lon="5.61633">
        <ele>460.5</ele>
        <time>2022-07-03T08:37:24Z</time>
      </trkpt>
      <trkpt lat="46.63328" lon="5.61627">
        <ele>460.4</ele>
        <time>2022-07-03T08:37:30Z</time>
      </trkpt>
      <trkpt lat="46.63323" lon="5.61627">
        <ele>459.6</ele>
        <time>2022-07-03T08:37:37Z</time>
      </trkpt>
      <trkpt lat="46.63321" lon="5.61621">
        <ele>456.9</ele>
        <time>2022-07-03T08:37:51Z</time>
      </trkpt>
      <trkpt lat="46.63318" lon="5.61616">
        <ele>456.4</ele>
        <time>2022-07-03T08:38:00Z</time>
      </trkpt>
      <trkpt lat="46.63315" lon="5.6161">
        <ele>456.5</ele>
        <time>2022-07-03T08:38:09Z</time>
      </trkpt>
      <trkpt lat="46.6331" lon="5.61605">
        <ele>455.5</ele>
        <time>2022-07-03T08:38:19Z</time>
      </trkpt>
      <trkpt lat="46.63306" lon="5.616">
        <ele>455.1</ele>
        <time>2022-07-03T08:38:23Z</time>
      </trkpt>
      <trkpt lat="46.63305" lon="5.61593">
        <ele>454.9</ele>
        <time>2022-07-03T08:38:28Z</time>
      </trkpt>
      <trkpt lat="46.63306" lon="5.61586">
        <ele>454.7</ele>
        <time>2022-07-03T08:38:33Z</time>
      </trkpt>
      <trkpt lat="46.63307" lon="5.61578">
        <ele>454.9</ele>
        <time>2022-07-03T08:38:38Z</time>
      </trkpt>
      <trkpt lat="46.63308" lon="5.61572">
        <ele>455.5</ele>
        <time>2022-07-03T08:38:41Z</time>
      </trkpt>
      <trkpt lat="46.63308" lon="5.61565">
        <ele>456.5</ele>
        <time>2022-07-03T08:38:45Z</time>
      </trkpt>
      <trkpt lat="46.63311" lon="5.61559">
        <ele>457.5</ele>
        <time>2022-07-03T08:38:49Z</time>
      </trkpt>
      <trkpt lat="46.63314" lon="5.61553">
        <ele>458.1</ele>
        <time>2022-07-03T08:38:54Z</time>
      </trkpt>
      <trkpt lat="46.63311" lon="5.61546">
        <ele>458.5</ele>
        <time>2022-07-03T08:38:59Z</time>
      </trkpt>
      <trkpt lat="46.63308" lon="5.61539">
        <ele>459.2</ele>
        <time>2022-07-03T08:39:04Z</time>
      </trkpt>
      <trkpt lat="46.6331" lon="5.61532">
        <ele>459.3</ele>
        <time>2022-07-03T08:39:11Z</time>
      </trkpt>
      <trkpt lat="46.6331" lon="5.61525">
        <ele>459.1</ele>
        <time>2022-07-03T08:39:16Z</time>
      </trkpt>
      <trkpt lat="46.6331" lon="5.61518">
        <ele>458.7</ele>
        <time>2022-07-03T08:39:20Z</time>
      </trkpt>
      <trkpt lat="46.63309" lon="5.6151">
        <ele>458.4</ele>
        <time>2022-07-03T08:39:25Z</time>
      </trkpt>
      <trkpt lat="46.63307" lon="5.61503">
        <ele>458.9</ele>
        <time>2022-07-03T08:39:30Z</time>
      </trkpt>
      <trkpt lat="46.63309" lon="5.61496">
        <ele>459.4</ele>
        <time>2022-07-03T08:39:36Z</time>
      </trkpt>
      <trkpt lat="46.63313" lon="5.6149">
        <ele>458</ele>
        <time>2022-07-03T08:39:51Z</time>
      </trkpt>
      <trkpt lat="46.63309" lon="5.61486">
        <ele>457.7</ele>
        <time>2022-07-03T08:39:56Z</time>
      </trkpt>
      <trkpt lat="46.63305" lon="5.61481">
        <ele>458.1</ele>
        <time>2022-07-03T08:40:00Z</time>
      </trkpt>
      <trkpt lat="46.63303" lon="5.61476">
        <ele>460.7</ele>
        <time>2022-07-03T08:40:10Z</time>
      </trkpt>
      <trkpt lat="46.633" lon="5.6147">
        <ele>460.1</ele>
        <time>2022-07-03T08:40:37Z</time>
      </trkpt>
      <trkpt lat="46.63296" lon="5.61476">
        <ele>458.5</ele>
        <time>2022-07-03T08:40:45Z</time>
      </trkpt>
      <trkpt lat="46.63301" lon="5.61478">
        <ele>456.3</ele>
        <time>2022-07-03T08:40:58Z</time>
      </trkpt>
      <trkpt lat="46.63296" lon="5.61477">
        <ele>455.8</ele>
        <time>2022-07-03T08:41:16Z</time>
      </trkpt>
      <trkpt lat="46.63292" lon="5.61484">
        <ele>462.4</ele>
        <time>2022-07-03T08:42:45Z</time>
      </trkpt>
      <trkpt lat="46.63292" lon="5.61491">
        <ele>456.8</ele>
        <time>2022-07-03T08:43:04Z</time>
      </trkpt>
      <trkpt lat="46.63296" lon="5.61496">
        <ele>455.3</ele>
        <time>2022-07-03T08:43:08Z</time>
      </trkpt>
      <trkpt lat="46.633" lon="5.61499">
        <ele>454.7</ele>
        <time>2022-07-03T08:43:12Z</time>
      </trkpt>
      <trkpt lat="46.63299" lon="5.61507">
        <ele>453.6</ele>
        <time>2022-07-03T08:43:24Z</time>
      </trkpt>
      <trkpt lat="46.63297" lon="5.61513">
        <ele>453.8</ele>
        <time>2022-07-03T08:43:27Z</time>
      </trkpt>
      <trkpt lat="46.63294" lon="5.61519">
        <ele>453.7</ele>
        <time>2022-07-03T08:43:32Z</time>
      </trkpt>
      <trkpt lat="46.63293" lon="5.61526">
        <ele>453.4</ele>
        <time>2022-07-03T08:43:37Z</time>
      </trkpt>
      <trkpt lat="46.63293" lon="5.61532">
        <ele>453.3</ele>
        <time>2022-07-03T08:43:43Z</time>
      </trkpt>
      <trkpt lat="46.63294" lon="5.61541">
        <ele>453.9</ele>
        <time>2022-07-03T08:43:49Z</time>
      </trkpt>
      <trkpt lat="46.63296" lon="5.61547">
        <ele>455.3</ele>
        <time>2022-07-03T08:43:54Z</time>
      </trkpt>
      <trkpt lat="46.63299" lon="5.61552">
        <ele>457.5</ele>
        <time>2022-07-03T08:44:00Z</time>
      </trkpt>
      <trkpt lat="46.633" lon="5.61558">
        <ele>458.3</ele>
        <time>2022-07-03T08:44:05Z</time>
      </trkpt>
      <trkpt lat="46.63296" lon="5.61564">
        <ele>459.3</ele>
        <time>2022-07-03T08:44:12Z</time>
      </trkpt>
      <trkpt lat="46.63292" lon="5.6157">
        <ele>461.2</ele>
        <time>2022-07-03T08:44:20Z</time>
      </trkpt>
      <trkpt lat="46.6329" lon="5.61575">
        <ele>462.7</ele>
        <time>2022-07-03T08:44:26Z</time>
      </trkpt>
      <trkpt lat="46.63289" lon="5.61583">
        <ele>464.5</ele>
        <time>2022-07-03T08:44:34Z</time>
      </trkpt>
      <trkpt lat="46.63286" lon="5.61589">
        <ele>464.9</ele>
        <time>2022-07-03T08:44:41Z</time>
      </trkpt>
      <trkpt lat="46.63283" lon="5.61594">
        <ele>464.7</ele>
        <time>2022-07-03T08:44:46Z</time>
      </trkpt>
      <trkpt lat="46.63279" lon="5.61598">
        <ele>464.4</ele>
        <time>2022-07-03T08:44:50Z</time>
      </trkpt>
      <trkpt lat="46.63277" lon="5.61604">
        <ele>464.4</ele>
        <time>2022-07-03T08:44:54Z</time>
      </trkpt>
      <trkpt lat="46.63275" lon="5.61612">
        <ele>464.6</ele>
        <time>2022-07-03T08:44:58Z</time>
      </trkpt>
      <trkpt lat="46.63273" lon="5.6162">
        <ele>465</ele>
        <time>2022-07-03T08:45:03Z</time>
      </trkpt>
      <trkpt lat="46.6327" lon="5.61626">
        <ele>465.5</ele>
        <time>2022-07-03T08:45:09Z</time>
      </trkpt>
      <trkpt lat="46.63268" lon="5.61633">
        <ele>465.4</ele>
        <time>2022-07-03T08:45:15Z</time>
      </trkpt>
      <trkpt lat="46.63266" lon="5.6164">
        <ele>465</ele>
        <time>2022-07-03T08:45:23Z</time>
      </trkpt>
      <trkpt lat="46.63268" lon="5.61645">
        <ele>465.1</ele>
        <time>2022-07-03T08:45:29Z</time>
      </trkpt>
      <trkpt lat="46.63265" lon="5.61652">
        <ele>465.4</ele>
        <time>2022-07-03T08:45:35Z</time>
      </trkpt>
      <trkpt lat="46.63262" lon="5.61658">
        <ele>466.3</ele>
        <time>2022-07-03T08:45:40Z</time>
      </trkpt>
      <trkpt lat="46.63259" lon="5.61664">
        <ele>467.3</ele>
        <time>2022-07-03T08:45:45Z</time>
      </trkpt>
      <trkpt lat="46.63255" lon="5.61668">
        <ele>468</ele>
        <time>2022-07-03T08:45:51Z</time>
      </trkpt>
      <trkpt lat="46.63254" lon="5.61676">
        <ele>468.3</ele>
        <time>2022-07-03T08:45:56Z</time>
      </trkpt>
      <trkpt lat="46.63254" lon="5.61683">
        <ele>468.7</ele>
        <time>2022-07-03T08:46:01Z</time>
      </trkpt>
      <trkpt lat="46.63254" lon="5.6169">
        <ele>469.4</ele>
        <time>2022-07-03T08:46:04Z</time>
      </trkpt>
      <trkpt lat="46.63255" lon="5.61697">
        <ele>470.3</ele>
        <time>2022-07-03T08:46:07Z</time>
      </trkpt>
      <trkpt lat="46.63256" lon="5.61703">
        <ele>471.2</ele>
        <time>2022-07-03T08:46:10Z</time>
      </trkpt>
      <trkpt lat="46.63256" lon="5.61711">
        <ele>473.1</ele>
        <time>2022-07-03T08:46:14Z</time>
      </trkpt>
      <trkpt lat="46.63256" lon="5.61719">
        <ele>475.1</ele>
        <time>2022-07-03T08:46:18Z</time>
      </trkpt>
      <trkpt lat="46.63256" lon="5.61726">
        <ele>476.9</ele>
        <time>2022-07-03T08:46:22Z</time>
      </trkpt>
      <trkpt lat="46.63255" lon="5.61734">
        <ele>478.3</ele>
        <time>2022-07-03T08:46:26Z</time>
      </trkpt>
      <trkpt lat="46.63253" lon="5.6174">
        <ele>480.1</ele>
        <time>2022-07-03T08:46:33Z</time>
      </trkpt>
      <trkpt lat="46.63249" lon="5.61745">
        <ele>481</ele>
        <time>2022-07-03T08:46:39Z</time>
      </trkpt>
      <trkpt lat="46.63247" lon="5.61751">
        <ele>481.7</ele>
        <time>2022-07-03T08:46:43Z</time>
      </trkpt>
      <trkpt lat="46.63245" lon="5.61757">
        <ele>482.3</ele>
        <time>2022-07-03T08:46:50Z</time>
      </trkpt>
      <trkpt lat="46.63243" lon="5.61763">
        <ele>481.9</ele>
        <time>2022-07-03T08:46:56Z</time>
      </trkpt>
      <trkpt lat="46.63241" lon="5.6177">
        <ele>481.8</ele>
        <time>2022-07-03T08:47:03Z</time>
      </trkpt>
      <trkpt lat="46.63238" lon="5.61775">
        <ele>482.7</ele>
        <time>2022-07-03T08:47:10Z</time>
      </trkpt>
      <trkpt lat="46.63235" lon="5.61783">
        <ele>484.7</ele>
        <time>2022-07-03T08:47:26Z</time>
      </trkpt>
      <trkpt lat="46.63233" lon="5.6179">
        <ele>484.9</ele>
        <time>2022-07-03T08:47:29Z</time>
      </trkpt>
      <trkpt lat="46.63231" lon="5.61797">
        <ele>485</ele>
        <time>2022-07-03T08:47:32Z</time>
      </trkpt>
      <trkpt lat="46.63229" lon="5.61803">
        <ele>484.9</ele>
        <time>2022-07-03T08:47:37Z</time>
      </trkpt>
      <trkpt lat="46.63229" lon="5.6181">
        <ele>485.3</ele>
        <time>2022-07-03T08:47:41Z</time>
      </trkpt>
      <trkpt lat="46.63233" lon="5.61815">
        <ele>486.4</ele>
        <time>2022-07-03T08:47:45Z</time>
      </trkpt>
      <trkpt lat="46.63233" lon="5.61822">
        <ele>489.9</ele>
        <time>2022-07-03T08:47:52Z</time>
      </trkpt>
      <trkpt lat="46.6323" lon="5.61828">
        <ele>491.4</ele>
        <time>2022-07-03T08:47:56Z</time>
      </trkpt>
      <trkpt lat="46.63226" lon="5.61832">
        <ele>492.3</ele>
        <time>2022-07-03T08:47:59Z</time>
      </trkpt>
      <trkpt lat="46.63222" lon="5.61839">
        <ele>493.5</ele>
        <time>2022-07-03T08:48:03Z</time>
      </trkpt>
      <trkpt lat="46.63218" lon="5.61845">
        <ele>494.2</ele>
        <time>2022-07-03T08:48:06Z</time>
      </trkpt>
      <trkpt lat="46.63217" lon="5.61853">
        <ele>495.3</ele>
        <time>2022-07-03T08:48:11Z</time>
      </trkpt>
      <trkpt lat="46.63218" lon="5.61859">
        <ele>496</ele>
        <time>2022-07-03T08:48:18Z</time>
      </trkpt>
      <trkpt lat="46.63217" lon="5.61867">
        <ele>495.9</ele>
        <time>2022-07-03T08:48:22Z</time>
      </trkpt>
      <trkpt lat="46.63219" lon="5.61873">
        <ele>495.8</ele>
        <time>2022-07-03T08:48:25Z</time>
      </trkpt>
      <trkpt lat="46.63224" lon="5.61878">
        <ele>495.7</ele>
        <time>2022-07-03T08:48:29Z</time>
      </trkpt>
      <trkpt lat="46.63227" lon="5.61882">
        <ele>495.8</ele>
        <time>2022-07-03T08:48:33Z</time>
      </trkpt>
      <trkpt lat="46.63229" lon="5.61889">
        <ele>496.4</ele>
        <time>2022-07-03T08:48:39Z</time>
      </trkpt>
      <trkpt lat="46.63227" lon="5.61896">
        <ele>497</ele>
        <time>2022-07-03T08:48:45Z</time>
      </trkpt>
      <trkpt lat="46.63228" lon="5.61904">
        <ele>497.7</ele>
        <time>2022-07-03T08:48:50Z</time>
      </trkpt>
      <trkpt lat="46.63228" lon="5.6191">
        <ele>498</ele>
        <time>2022-07-03T08:48:58Z</time>
      </trkpt>
      <trkpt lat="46.63228" lon="5.61917">
        <ele>497.5</ele>
        <time>2022-07-03T08:49:04Z</time>
      </trkpt>
      <trkpt lat="46.63227" lon="5.61924">
        <ele>497.2</ele>
        <time>2022-07-03T08:49:08Z</time>
      </trkpt>
      <trkpt lat="46.6323" lon="5.61929">
        <ele>497</ele>
        <time>2022-07-03T08:49:13Z</time>
      </trkpt>
      <trkpt lat="46.63234" lon="5.61933">
        <ele>496.6</ele>
        <time>2022-07-03T08:49:17Z</time>
      </trkpt>
      <trkpt lat="46.63232" lon="5.61939">
        <ele>496.3</ele>
        <time>2022-07-03T08:49:23Z</time>
      </trkpt>
      <trkpt lat="46.63228" lon="5.61943">
        <ele>496.9</ele>
        <time>2022-07-03T08:49:29Z</time>
      </trkpt>
      <trkpt lat="46.63232" lon="5.61938">
        <ele>498.1</ele>
        <time>2022-07-03T08:49:43Z</time>
      </trkpt>
      <trkpt lat="46.63232" lon="5.61932">
        <ele>499.1</ele>
        <time>2022-07-03T08:49:53Z</time>
      </trkpt>
      <trkpt lat="46.63233" lon="5.61925">
        <ele>500.2</ele>
        <time>2022-07-03T08:49:58Z</time>
      </trkpt>
      <trkpt lat="46.6323" lon="5.61931">
        <ele>502.9</ele>
        <time>2022-07-03T08:50:18Z</time>
      </trkpt>
      <trkpt lat="46.63226" lon="5.61924">
        <ele>502.5</ele>
        <time>2022-07-03T08:50:22Z</time>
      </trkpt>
      <trkpt lat="46.63223" lon="5.61918">
        <ele>508</ele>
        <time>2022-07-03T08:50:54Z</time>
      </trkpt>
      <trkpt lat="46.63227" lon="5.61921">
        <ele>508.2</ele>
        <time>2022-07-03T08:51:05Z</time>
      </trkpt>
      <trkpt lat="46.6324" lon="5.61925">
        <ele>506.2</ele>
        <time>2022-07-03T08:51:17Z</time>
      </trkpt>
      <trkpt lat="46.63237" lon="5.61932">
        <ele>504.8</ele>
        <time>2022-07-03T08:51:48Z</time>
      </trkpt>
      <trkpt lat="46.63232" lon="5.61933">
        <ele>505.3</ele>
        <time>2022-07-03T08:51:52Z</time>
      </trkpt>
      <trkpt lat="46.63237" lon="5.61938">
        <ele>506.2</ele>
        <time>2022-07-03T08:52:01Z</time>
      </trkpt>
      <trkpt lat="46.63242" lon="5.6194">
        <ele>506.5</ele>
        <time>2022-07-03T08:52:04Z</time>
      </trkpt>
      <trkpt lat="46.63246" lon="5.61944">
        <ele>506.1</ele>
        <time>2022-07-03T08:52:17Z</time>
      </trkpt>
      <trkpt lat="46.63243" lon="5.61952">
        <ele>505.2</ele>
        <time>2022-07-03T08:52:23Z</time>
      </trkpt>
      <trkpt lat="46.6324" lon="5.61958">
        <ele>504.4</ele>
        <time>2022-07-03T08:52:26Z</time>
      </trkpt>
      <trkpt lat="46.63242" lon="5.61964">
        <ele>504.6</ele>
        <time>2022-07-03T08:52:41Z</time>
      </trkpt>
      <trkpt lat="46.63244" lon="5.61957">
        <ele>504.9</ele>
        <time>2022-07-03T08:52:48Z</time>
      </trkpt>
      <trkpt lat="46.63248" lon="5.61954">
        <ele>504.8</ele>
        <time>2022-07-03T08:52:52Z</time>
      </trkpt>
      <trkpt lat="46.63244" lon="5.61949">
        <ele>504.9</ele>
        <time>2022-07-03T08:53:23Z</time>
      </trkpt>
      <trkpt lat="46.63238" lon="5.61945">
        <ele>506.3</ele>
        <time>2022-07-03T08:53:32Z</time>
      </trkpt>
      <trkpt lat="46.63244" lon="5.61947">
        <ele>507.9</ele>
        <time>2022-07-03T08:53:47Z</time>
      </trkpt>
      <trkpt lat="46.63248" lon="5.61953">
        <ele>508.8</ele>
        <time>2022-07-03T08:53:55Z</time>
      </trkpt>
      <trkpt lat="46.63252" lon="5.61957">
        <ele>510</ele>
        <time>2022-07-03T08:54:08Z</time>
      </trkpt>
      <trkpt lat="46.63254" lon="5.61963">
        <ele>522.4</ele>
        <time>2022-07-03T08:54:48Z</time>
      </trkpt>
      <trkpt lat="46.63256" lon="5.6197">
        <ele>522.5</ele>
        <time>2022-07-03T08:54:51Z</time>
      </trkpt>
      <trkpt lat="46.63259" lon="5.61976">
        <ele>522.5</ele>
        <time>2022-07-03T08:54:54Z</time>
      </trkpt>
      <trkpt lat="46.63263" lon="5.61981">
        <ele>522.2</ele>
        <time>2022-07-03T08:54:58Z</time>
      </trkpt>
      <trkpt lat="46.63266" lon="5.61987">
        <ele>522.1</ele>
        <time>2022-07-03T08:55:04Z</time>
      </trkpt>
      <trkpt lat="46.63271" lon="5.61988">
        <ele>522.5</ele>
        <time>2022-07-03T08:55:10Z</time>
      </trkpt>
      <trkpt lat="46.63275" lon="5.61991">
        <ele>523.4</ele>
        <time>2022-07-03T08:55:19Z</time>
      </trkpt>
      <trkpt lat="46.6328" lon="5.61995">
        <ele>523.6</ele>
        <time>2022-07-03T08:55:25Z</time>
      </trkpt>
      <trkpt lat="46.63283" lon="5.62">
        <ele>523.7</ele>
        <time>2022-07-03T08:55:31Z</time>
      </trkpt>
      <trkpt lat="46.63289" lon="5.62003">
        <ele>524.6</ele>
        <time>2022-07-03T08:55:35Z</time>
      </trkpt>
      <trkpt lat="46.63294" lon="5.62006">
        <ele>525.9</ele>
        <time>2022-07-03T08:55:43Z</time>
      </trkpt>
      <trkpt lat="46.63299" lon="5.62009">
        <ele>526.3</ele>
        <time>2022-07-03T08:55:46Z</time>
      </trkpt>
      <trkpt lat="46.63305" lon="5.62012">
        <ele>526.6</ele>
        <time>2022-07-03T08:55:49Z</time>
      </trkpt>
      <trkpt lat="46.63311" lon="5.62012">
        <ele>526.7</ele>
        <time>2022-07-03T08:55:52Z</time>
      </trkpt>
      <trkpt lat="46.63316" lon="5.62012">
        <ele>526.5</ele>
        <time>2022-07-03T08:55:55Z</time>
      </trkpt>
      <trkpt lat="46.63321" lon="5.6201">
        <ele>526.8</ele>
        <time>2022-07-03T08:56:00Z</time>
      </trkpt>
      <trkpt lat="46.63327" lon="5.62011">
        <ele>527.3</ele>
        <time>2022-07-03T08:56:05Z</time>
      </trkpt>
      <trkpt lat="46.63331" lon="5.62011">
        <ele>527.9</ele>
        <time>2022-07-03T08:56:11Z</time>
      </trkpt>
      <trkpt lat="46.63335" lon="5.62016">
        <ele>527.6</ele>
        <time>2022-07-03T08:56:14Z</time>
      </trkpt>
      <trkpt lat="46.63339" lon="5.6202">
        <ele>525.7</ele>
        <time>2022-07-03T08:56:20Z</time>
      </trkpt>
      <trkpt lat="46.63344" lon="5.62019">
        <ele>523.1</ele>
        <time>2022-07-03T08:56:26Z</time>
      </trkpt>
      <trkpt lat="46.63348" lon="5.62023">
        <ele>520.9</ele>
        <time>2022-07-03T08:56:30Z</time>
      </trkpt>
      <trkpt lat="46.63352" lon="5.62027">
        <ele>519.3</ele>
        <time>2022-07-03T08:56:35Z</time>
      </trkpt>
      <trkpt lat="46.63358" lon="5.62027">
        <ele>518.1</ele>
        <time>2022-07-03T08:56:39Z</time>
      </trkpt>
      <trkpt lat="46.63363" lon="5.62026">
        <ele>516</ele>
        <time>2022-07-03T08:56:43Z</time>
      </trkpt>
      <trkpt lat="46.63368" lon="5.62027">
        <ele>512.8</ele>
        <time>2022-07-03T08:56:49Z</time>
      </trkpt>
      <trkpt lat="46.63373" lon="5.62027">
        <ele>511.8</ele>
        <time>2022-07-03T08:56:55Z</time>
      </trkpt>
      <trkpt lat="46.63377" lon="5.62031">
        <ele>513.2</ele>
        <time>2022-07-03T08:57:06Z</time>
      </trkpt>
      <trkpt lat="46.63381" lon="5.62035">
        <ele>515.9</ele>
        <time>2022-07-03T08:57:22Z</time>
      </trkpt>
      <trkpt lat="46.63378" lon="5.62029">
        <ele>519</ele>
        <time>2022-07-03T08:57:45Z</time>
      </trkpt>
      <trkpt lat="46.63376" lon="5.62022">
        <ele>518.7</ele>
        <time>2022-07-03T08:57:50Z</time>
      </trkpt>
      <trkpt lat="46.63372" lon="5.62025">
        <ele>516.6</ele>
        <time>2022-07-03T08:58:08Z</time>
      </trkpt>
      <trkpt lat="46.63369" lon="5.62021">
        <ele>527.4</ele>
        <time>2022-07-03T08:58:41Z</time>
      </trkpt>
      <trkpt lat="46.63371" lon="5.62027">
        <ele>531.3</ele>
        <time>2022-07-03T08:58:54Z</time>
      </trkpt>
      <trkpt lat="46.6337" lon="5.62019">
        <ele>530.4</ele>
        <time>2022-07-03T08:59:03Z</time>
      </trkpt>
      <trkpt lat="46.63365" lon="5.62015">
        <ele>528.8</ele>
        <time>2022-07-03T08:59:07Z</time>
      </trkpt>
      <trkpt lat="46.63363" lon="5.62008">
        <ele>527</ele>
        <time>2022-07-03T08:59:13Z</time>
      </trkpt>
      <trkpt lat="46.6336" lon="5.62003">
        <ele>525.8</ele>
        <time>2022-07-03T08:59:17Z</time>
      </trkpt>
      <trkpt lat="46.63361" lon="5.61995">
        <ele>523.8</ele>
        <time>2022-07-03T08:59:27Z</time>
      </trkpt>
      <trkpt lat="46.63363" lon="5.61988">
        <ele>523</ele>
        <time>2022-07-03T08:59:33Z</time>
      </trkpt>
      <trkpt lat="46.63362" lon="5.6198">
        <ele>521.4</ele>
        <time>2022-07-03T08:59:40Z</time>
      </trkpt>
      <trkpt lat="46.63364" lon="5.61974">
        <ele>525</ele>
        <time>2022-07-03T08:59:52Z</time>
      </trkpt>
      <trkpt lat="46.63366" lon="5.61968">
        <ele>524.9</ele>
        <time>2022-07-03T08:59:57Z</time>
      </trkpt>
      <trkpt lat="46.63371" lon="5.61965">
        <ele>524.5</ele>
        <time>2022-07-03T09:00:03Z</time>
      </trkpt>
      <trkpt lat="46.63376" lon="5.61965">
        <ele>522.8</ele>
        <time>2022-07-03T09:00:11Z</time>
      </trkpt>
      <trkpt lat="46.6338" lon="5.61962">
        <ele>521.9</ele>
        <time>2022-07-03T09:00:17Z</time>
      </trkpt>
      <trkpt lat="46.63385" lon="5.61958">
        <ele>521.7</ele>
        <time>2022-07-03T09:00:21Z</time>
      </trkpt>
      <trkpt lat="46.63388" lon="5.61952">
        <ele>522.2</ele>
        <time>2022-07-03T09:00:25Z</time>
      </trkpt>
      <trkpt lat="46.63393" lon="5.61952">
        <ele>523.3</ele>
        <time>2022-07-03T09:00:32Z</time>
      </trkpt>
      <trkpt lat="46.63397" lon="5.61952">
        <ele>524.2</ele>
        <time>2022-07-03T09:00:38Z</time>
      </trkpt>
      <trkpt lat="46.63402" lon="5.6195">
        <ele>524.9</ele>
        <time>2022-07-03T09:00:43Z</time>
      </trkpt>
      <trkpt lat="46.63406" lon="5.61946">
        <ele>526.1</ele>
        <time>2022-07-03T09:00:51Z</time>
      </trkpt>
      <trkpt lat="46.63409" lon="5.61941">
        <ele>526.4</ele>
        <time>2022-07-03T09:00:56Z</time>
      </trkpt>
      <trkpt lat="46.63411" lon="5.61935">
        <ele>527</ele>
        <time>2022-07-03T09:01:02Z</time>
      </trkpt>
      <trkpt lat="46.63415" lon="5.6193">
        <ele>527.6</ele>
        <time>2022-07-03T09:01:06Z</time>
      </trkpt>
      <trkpt lat="46.63419" lon="5.61926">
        <ele>528</ele>
        <time>2022-07-03T09:01:13Z</time>
      </trkpt>
      <trkpt lat="46.63422" lon="5.61922">
        <ele>528.1</ele>
        <time>2022-07-03T09:01:21Z</time>
      </trkpt>
      <trkpt lat="46.63426" lon="5.61917">
        <ele>527.4</ele>
        <time>2022-07-03T09:01:28Z</time>
      </trkpt>
      <trkpt lat="46.63431" lon="5.61917">
        <ele>527.2</ele>
        <time>2022-07-03T09:01:33Z</time>
      </trkpt>
      <trkpt lat="46.63436" lon="5.61915">
        <ele>527.6</ele>
        <time>2022-07-03T09:01:38Z</time>
      </trkpt>
      <trkpt lat="46.63441" lon="5.61913">
        <ele>530</ele>
        <time>2022-07-03T09:01:46Z</time>
      </trkpt>
      <trkpt lat="46.63445" lon="5.61908">
        <ele>531.6</ele>
        <time>2022-07-03T09:01:52Z</time>
      </trkpt>
      <trkpt lat="46.63449" lon="5.61904">
        <ele>532.7</ele>
        <time>2022-07-03T09:02:00Z</time>
      </trkpt>
      <trkpt lat="46.63453" lon="5.61902">
        <ele>532.4</ele>
        <time>2022-07-03T09:02:04Z</time>
      </trkpt>
      <trkpt lat="46.63458" lon="5.619">
        <ele>531.9</ele>
        <time>2022-07-03T09:02:08Z</time>
      </trkpt>
      <trkpt lat="46.63462" lon="5.61896">
        <ele>531.1</ele>
        <time>2022-07-03T09:02:14Z</time>
      </trkpt>
      <trkpt lat="46.6346" lon="5.6189">
        <ele>538.9</ele>
        <time>2022-07-03T09:02:41Z</time>
      </trkpt>
      <trkpt lat="46.63457" lon="5.61895">
        <ele>541</ele>
        <time>2022-07-03T09:03:19Z</time>
      </trkpt>
      <trkpt lat="46.63462" lon="5.61893">
        <ele>539.5</ele>
        <time>2022-07-03T09:03:29Z</time>
      </trkpt>
      <trkpt lat="46.63467" lon="5.61892">
        <ele>538.3</ele>
        <time>2022-07-03T09:03:33Z</time>
      </trkpt>
      <trkpt lat="46.63472" lon="5.6189">
        <ele>536.8</ele>
        <time>2022-07-03T09:03:38Z</time>
      </trkpt>
      <trkpt lat="46.63476" lon="5.61886">
        <ele>535.6</ele>
        <time>2022-07-03T09:03:44Z</time>
      </trkpt>
      <trkpt lat="46.63479" lon="5.61881">
        <ele>535.4</ele>
        <time>2022-07-03T09:03:50Z</time>
      </trkpt>
      <trkpt lat="46.6348" lon="5.61873">
        <ele>536.1</ele>
        <time>2022-07-03T09:03:56Z</time>
      </trkpt>
      <trkpt lat="46.63481" lon="5.61866">
        <ele>537.1</ele>
        <time>2022-07-03T09:04:02Z</time>
      </trkpt>
      <trkpt lat="46.63484" lon="5.6186">
        <ele>537.9</ele>
        <time>2022-07-03T09:04:08Z</time>
      </trkpt>
      <trkpt lat="46.63487" lon="5.61854">
        <ele>538.2</ele>
        <time>2022-07-03T09:04:14Z</time>
      </trkpt>
      <trkpt lat="46.63491" lon="5.61849">
        <ele>537.8</ele>
        <time>2022-07-03T09:04:22Z</time>
      </trkpt>
      <trkpt lat="46.63496" lon="5.61846">
        <ele>537</ele>
        <time>2022-07-03T09:04:27Z</time>
      </trkpt>
      <trkpt lat="46.63501" lon="5.61843">
        <ele>536.3</ele>
        <time>2022-07-03T09:04:30Z</time>
      </trkpt>
      <trkpt lat="46.63505" lon="5.61842">
        <ele>535.1</ele>
        <time>2022-07-03T09:04:34Z</time>
      </trkpt>
      <trkpt lat="46.63509" lon="5.61839">
        <ele>533.7</ele>
        <time>2022-07-03T09:04:42Z</time>
      </trkpt>
      <trkpt lat="46.63513" lon="5.61834">
        <ele>533.1</ele>
        <time>2022-07-03T09:04:46Z</time>
      </trkpt>
      <trkpt lat="46.63517" lon="5.6183">
        <ele>532.8</ele>
        <time>2022-07-03T09:04:50Z</time>
      </trkpt>
      <trkpt lat="46.63521" lon="5.61825">
        <ele>533</ele>
        <time>2022-07-03T09:04:56Z</time>
      </trkpt>
      <trkpt lat="46.63525" lon="5.6182">
        <ele>532.7</ele>
        <time>2022-07-03T09:05:00Z</time>
      </trkpt>
      <trkpt lat="46.63529" lon="5.61814">
        <ele>532.3</ele>
        <time>2022-07-03T09:05:04Z</time>
      </trkpt>
      <trkpt lat="46.63533" lon="5.61811">
        <ele>531.8</ele>
        <time>2022-07-03T09:05:11Z</time>
      </trkpt>
      <trkpt lat="46.63538" lon="5.61807">
        <ele>531.1</ele>
        <time>2022-07-03T09:05:17Z</time>
      </trkpt>
      <trkpt lat="46.63543" lon="5.61806">
        <ele>530.9</ele>
        <time>2022-07-03T09:05:23Z</time>
      </trkpt>
      <trkpt lat="46.63547" lon="5.61809">
        <ele>530.1</ele>
        <time>2022-07-03T09:05:31Z</time>
      </trkpt>
      <trkpt lat="46.63552" lon="5.61811">
        <ele>529.2</ele>
        <time>2022-07-03T09:05:36Z</time>
      </trkpt>
      <trkpt lat="46.63556" lon="5.61815">
        <ele>528.3</ele>
        <time>2022-07-03T09:05:40Z</time>
      </trkpt>
      <trkpt lat="46.6356" lon="5.61819">
        <ele>527.1</ele>
        <time>2022-07-03T09:05:44Z</time>
      </trkpt>
      <trkpt lat="46.63565" lon="5.61822">
        <ele>526.1</ele>
        <time>2022-07-03T09:05:50Z</time>
      </trkpt>
      <trkpt lat="46.6357" lon="5.61825">
        <ele>525.8</ele>
        <time>2022-07-03T09:05:57Z</time>
      </trkpt>
      <trkpt lat="46.63575" lon="5.61826">
        <ele>526</ele>
        <time>2022-07-03T09:06:02Z</time>
      </trkpt>
      <trkpt lat="46.6358" lon="5.61826">
        <ele>526.7</ele>
        <time>2022-07-03T09:06:06Z</time>
      </trkpt>
      <trkpt lat="46.63585" lon="5.61828">
        <ele>527.6</ele>
        <time>2022-07-03T09:06:11Z</time>
      </trkpt>
      <trkpt lat="46.6359" lon="5.61829">
        <ele>528.5</ele>
        <time>2022-07-03T09:06:17Z</time>
      </trkpt>
      <trkpt lat="46.63595" lon="5.61828">
        <ele>529.7</ele>
        <time>2022-07-03T09:06:23Z</time>
      </trkpt>
      <trkpt lat="46.63599" lon="5.61831">
        <ele>531.7</ele>
        <time>2022-07-03T09:06:53Z</time>
      </trkpt>
      <trkpt lat="46.63605" lon="5.61832">
        <ele>533.9</ele>
        <time>2022-07-03T09:07:24Z</time>
      </trkpt>
      <trkpt lat="46.63609" lon="5.61832">
        <ele>534</ele>
        <time>2022-07-03T09:07:28Z</time>
      </trkpt>
      <trkpt lat="46.63606" lon="5.61838">
        <ele>532.7</ele>
        <time>2022-07-03T09:07:48Z</time>
      </trkpt>
      <trkpt lat="46.63609" lon="5.61843">
        <ele>530.6</ele>
        <time>2022-07-03T09:07:55Z</time>
      </trkpt>
      <trkpt lat="46.63614" lon="5.61845">
        <ele>529.2</ele>
        <time>2022-07-03T09:08:01Z</time>
      </trkpt>
      <trkpt lat="46.63618" lon="5.61846">
        <ele>528.5</ele>
        <time>2022-07-03T09:08:06Z</time>
      </trkpt>
      <trkpt lat="46.63624" lon="5.61848">
        <ele>527.9</ele>
        <time>2022-07-03T09:08:11Z</time>
      </trkpt>
      <trkpt lat="46.63628" lon="5.61852">
        <ele>527.2</ele>
        <time>2022-07-03T09:08:17Z</time>
      </trkpt>
      <trkpt lat="46.6363" lon="5.61858">
        <ele>527.1</ele>
        <time>2022-07-03T09:08:22Z</time>
      </trkpt>
      <trkpt lat="46.63633" lon="5.61863">
        <ele>527.4</ele>
        <time>2022-07-03T09:08:28Z</time>
      </trkpt>
      <trkpt lat="46.63636" lon="5.61868">
        <ele>527.5</ele>
        <time>2022-07-03T09:08:33Z</time>
      </trkpt>
      <trkpt lat="46.6364" lon="5.61874">
        <ele>527.2</ele>
        <time>2022-07-03T09:08:38Z</time>
      </trkpt>
      <trkpt lat="46.63643" lon="5.61879">
        <ele>526.5</ele>
        <time>2022-07-03T09:08:43Z</time>
      </trkpt>
      <trkpt lat="46.63647" lon="5.61881">
        <ele>525.4</ele>
        <time>2022-07-03T09:08:51Z</time>
      </trkpt>
      <trkpt lat="46.63652" lon="5.61878">
        <ele>525.6</ele>
        <time>2022-07-03T09:09:05Z</time>
      </trkpt>
      <trkpt lat="46.63657" lon="5.61877">
        <ele>525.8</ele>
        <time>2022-07-03T09:09:09Z</time>
      </trkpt>
      <trkpt lat="46.63662" lon="5.61876">
        <ele>526.1</ele>
        <time>2022-07-03T09:09:15Z</time>
      </trkpt>
      <trkpt lat="46.63667" lon="5.61874">
        <ele>526</ele>
        <time>2022-07-03T09:09:20Z</time>
      </trkpt>
      <trkpt lat="46.63672" lon="5.61872">
        <ele>526.1</ele>
        <time>2022-07-03T09:09:25Z</time>
      </trkpt>
      <trkpt lat="46.63677" lon="5.61873">
        <ele>526.1</ele>
        <time>2022-07-03T09:09:30Z</time>
      </trkpt>
      <trkpt lat="46.63681" lon="5.6187">
        <ele>527.3</ele>
        <time>2022-07-03T09:09:42Z</time>
      </trkpt>
      <trkpt lat="46.63686" lon="5.61869">
        <ele>528.9</ele>
        <time>2022-07-03T09:09:49Z</time>
      </trkpt>
      <trkpt lat="46.63691" lon="5.61872">
        <ele>529.1</ele>
        <time>2022-07-03T09:09:57Z</time>
      </trkpt>
      <trkpt lat="46.63696" lon="5.61874">
        <ele>528.3</ele>
        <time>2022-07-03T09:10:03Z</time>
      </trkpt>
      <trkpt lat="46.637" lon="5.61869">
        <ele>528.8</ele>
        <time>2022-07-03T09:10:17Z</time>
      </trkpt>
      <trkpt lat="46.63704" lon="5.61866">
        <ele>530</ele>
        <time>2022-07-03T09:10:26Z</time>
      </trkpt>
      <trkpt lat="46.63708" lon="5.61861">
        <ele>530.7</ele>
        <time>2022-07-03T09:10:33Z</time>
      </trkpt>
      <trkpt lat="46.63712" lon="5.61858">
        <ele>530.7</ele>
        <time>2022-07-03T09:10:38Z</time>
      </trkpt>
      <trkpt lat="46.63717" lon="5.61856">
        <ele>530.6</ele>
        <time>2022-07-03T09:10:45Z</time>
      </trkpt>
      <trkpt lat="46.63721" lon="5.61854">
        <ele>531.1</ele>
        <time>2022-07-03T09:10:51Z</time>
      </trkpt>
      <trkpt lat="46.63726" lon="5.61852">
        <ele>533.2</ele>
        <time>2022-07-03T09:12:30Z</time>
      </trkpt>
      <trkpt lat="46.63731" lon="5.61854">
        <ele>532.2</ele>
        <time>2022-07-03T09:12:37Z</time>
      </trkpt>
      <trkpt lat="46.63736" lon="5.61852">
        <ele>531.3</ele>
        <time>2022-07-03T09:12:42Z</time>
      </trkpt>
      <trkpt lat="46.6374" lon="5.61853">
        <ele>529.6</ele>
        <time>2022-07-03T09:12:50Z</time>
      </trkpt>
      <trkpt lat="46.63745" lon="5.61852">
        <ele>529.5</ele>
        <time>2022-07-03T09:12:59Z</time>
      </trkpt>
      <trkpt lat="46.63749" lon="5.61847">
        <ele>528.9</ele>
        <time>2022-07-03T09:13:09Z</time>
      </trkpt>
      <trkpt lat="46.63753" lon="5.61843">
        <ele>530.5</ele>
        <time>2022-07-03T09:14:21Z</time>
      </trkpt>
      <trkpt lat="46.63758" lon="5.61842">
        <ele>531.2</ele>
        <time>2022-07-03T09:14:25Z</time>
      </trkpt>
      <trkpt lat="46.63764" lon="5.61843">
        <ele>531.6</ele>
        <time>2022-07-03T09:14:29Z</time>
      </trkpt>
      <trkpt lat="46.6377" lon="5.61844">
        <ele>532.4</ele>
        <time>2022-07-03T09:14:33Z</time>
      </trkpt>
      <trkpt lat="46.63775" lon="5.61843">
        <ele>533.4</ele>
        <time>2022-07-03T09:14:37Z</time>
      </trkpt>
      <trkpt lat="46.6378" lon="5.61842">
        <ele>534.4</ele>
        <time>2022-07-03T09:14:42Z</time>
      </trkpt>
      <trkpt lat="46.63784" lon="5.61846">
        <ele>534.1</ele>
        <time>2022-07-03T09:14:51Z</time>
      </trkpt>
      <trkpt lat="46.63779" lon="5.61846">
        <ele>533.1</ele>
        <time>2022-07-03T09:15:16Z</time>
      </trkpt>
      <trkpt lat="46.63779" lon="5.61839">
        <ele>536.2</ele>
        <time>2022-07-03T09:16:38Z</time>
      </trkpt>
      <trkpt lat="46.63783" lon="5.61843">
        <ele>536.1</ele>
        <time>2022-07-03T09:17:00Z</time>
      </trkpt>
      <trkpt lat="46.63786" lon="5.6185">
        <ele>535.6</ele>
        <time>2022-07-03T09:17:05Z</time>
      </trkpt>
      <trkpt lat="46.63786" lon="5.61857">
        <ele>535.7</ele>
        <time>2022-07-03T09:17:09Z</time>
      </trkpt>
      <trkpt lat="46.63785" lon="5.61864">
        <ele>536.4</ele>
        <time>2022-07-03T09:17:14Z</time>
      </trkpt>
      <trkpt lat="46.63785" lon="5.61871">
        <ele>536.9</ele>
        <time>2022-07-03T09:17:20Z</time>
      </trkpt>
      <trkpt lat="46.63787" lon="5.61877">
        <ele>536.9</ele>
        <time>2022-07-03T09:17:25Z</time>
      </trkpt>
      <trkpt lat="46.63786" lon="5.61884">
        <ele>536.3</ele>
        <time>2022-07-03T09:17:33Z</time>
      </trkpt>
      <trkpt lat="46.63788" lon="5.61891">
        <ele>535</ele>
        <time>2022-07-03T09:17:42Z</time>
      </trkpt>
      <trkpt lat="46.63792" lon="5.61895">
        <ele>533.9</ele>
        <time>2022-07-03T09:17:50Z</time>
      </trkpt>
      <trkpt lat="46.63796" lon="5.619">
        <ele>533.7</ele>
        <time>2022-07-03T09:17:56Z</time>
      </trkpt>
      <trkpt lat="46.638" lon="5.61904">
        <ele>533.3</ele>
        <time>2022-07-03T09:18:02Z</time>
      </trkpt>
      <trkpt lat="46.63805" lon="5.61906">
        <ele>532.7</ele>
        <time>2022-07-03T09:18:07Z</time>
      </trkpt>
      <trkpt lat="46.63809" lon="5.61907">
        <ele>532.2</ele>
        <time>2022-07-03T09:18:11Z</time>
      </trkpt>
      <trkpt lat="46.63815" lon="5.61907">
        <ele>531.9</ele>
        <time>2022-07-03T09:18:16Z</time>
      </trkpt>
      <trkpt lat="46.63819" lon="5.61908">
        <ele>532.2</ele>
        <time>2022-07-03T09:18:20Z</time>
      </trkpt>
      <trkpt lat="46.63825" lon="5.61907">
        <ele>532.5</ele>
        <time>2022-07-03T09:18:26Z</time>
      </trkpt>
      <trkpt lat="46.63829" lon="5.61906">
        <ele>533</ele>
        <time>2022-07-03T09:18:36Z</time>
      </trkpt>
      <trkpt lat="46.63834" lon="5.61903">
        <ele>533.6</ele>
        <time>2022-07-03T09:18:40Z</time>
      </trkpt>
      <trkpt lat="46.63839" lon="5.61902">
        <ele>534.4</ele>
        <time>2022-07-03T09:18:43Z</time>
      </trkpt>
      <trkpt lat="46.63845" lon="5.619">
        <ele>535.3</ele>
        <time>2022-07-03T09:18:47Z</time>
      </trkpt>
      <trkpt lat="46.6385" lon="5.61899">
        <ele>535.9</ele>
        <time>2022-07-03T09:18:51Z</time>
      </trkpt>
      <trkpt lat="46.63854" lon="5.61895">
        <ele>536.7</ele>
        <time>2022-07-03T09:18:56Z</time>
      </trkpt>
      <trkpt lat="46.63858" lon="5.6189">
        <ele>538.6</ele>
        <time>2022-07-03T09:19:01Z</time>
      </trkpt>
      <trkpt lat="46.63863" lon="5.61888">
        <ele>539</ele>
        <time>2022-07-03T09:19:06Z</time>
      </trkpt>
      <trkpt lat="46.63868" lon="5.61886">
        <ele>539.2</ele>
        <time>2022-07-03T09:19:09Z</time>
      </trkpt>
      <trkpt lat="46.63873" lon="5.61885">
        <ele>539.4</ele>
        <time>2022-07-03T09:19:13Z</time>
      </trkpt>
      <trkpt lat="46.63878" lon="5.61887">
        <ele>539.1</ele>
        <time>2022-07-03T09:19:18Z</time>
      </trkpt>
      <trkpt lat="46.63883" lon="5.61888">
        <ele>538.3</ele>
        <time>2022-07-03T09:19:22Z</time>
      </trkpt>
      <trkpt lat="46.63888" lon="5.61888">
        <ele>537.9</ele>
        <time>2022-07-03T09:19:26Z</time>
      </trkpt>
      <trkpt lat="46.63892" lon="5.61889">
        <ele>538</ele>
        <time>2022-07-03T09:19:31Z</time>
      </trkpt>
      <trkpt lat="46.63898" lon="5.61892">
        <ele>537.8</ele>
        <time>2022-07-03T09:19:36Z</time>
      </trkpt>
      <trkpt lat="46.63902" lon="5.61895">
        <ele>537.8</ele>
        <time>2022-07-03T09:19:40Z</time>
      </trkpt>
      <trkpt lat="46.63906" lon="5.61899">
        <ele>536.9</ele>
        <time>2022-07-03T09:19:45Z</time>
      </trkpt>
      <trkpt lat="46.6391" lon="5.61905">
        <ele>536.3</ele>
        <time>2022-07-03T09:19:50Z</time>
      </trkpt>
      <trkpt lat="46.63914" lon="5.61911">
        <ele>535.7</ele>
        <time>2022-07-03T09:19:55Z</time>
      </trkpt>
      <trkpt lat="46.63918" lon="5.61916">
        <ele>535.1</ele>
        <time>2022-07-03T09:19:59Z</time>
      </trkpt>
      <trkpt lat="46.63921" lon="5.61921">
        <ele>534.3</ele>
        <time>2022-07-03T09:20:03Z</time>
      </trkpt>
      <trkpt lat="46.63923" lon="5.61927">
        <ele>533</ele>
        <time>2022-07-03T09:20:08Z</time>
      </trkpt>
      <trkpt lat="46.63925" lon="5.61934">
        <ele>532.1</ele>
        <time>2022-07-03T09:20:15Z</time>
      </trkpt>
      <trkpt lat="46.63928" lon="5.61939">
        <ele>531.4</ele>
        <time>2022-07-03T09:20:19Z</time>
      </trkpt>
      <trkpt lat="46.63931" lon="5.61946">
        <ele>530.7</ele>
        <time>2022-07-03T09:20:23Z</time>
      </trkpt>
      <trkpt lat="46.63935" lon="5.61952">
        <ele>530.6</ele>
        <time>2022-07-03T09:20:27Z</time>
      </trkpt>
      <trkpt lat="46.63938" lon="5.61958">
        <ele>530.9</ele>
        <time>2022-07-03T09:20:31Z</time>
      </trkpt>
      <trkpt lat="46.63942" lon="5.61961">
        <ele>531.1</ele>
        <time>2022-07-03T09:20:35Z</time>
      </trkpt>
      <trkpt lat="46.63947" lon="5.61964">
        <ele>530.4</ele>
        <time>2022-07-03T09:20:40Z</time>
      </trkpt>
      <trkpt lat="46.63953" lon="5.61965">
        <ele>529.3</ele>
        <time>2022-07-03T09:20:45Z</time>
      </trkpt>
      <trkpt lat="46.63958" lon="5.61965">
        <ele>528.8</ele>
        <time>2022-07-03T09:20:49Z</time>
      </trkpt>
      <trkpt lat="46.63963" lon="5.61965">
        <ele>528.7</ele>
        <time>2022-07-03T09:20:53Z</time>
      </trkpt>
      <trkpt lat="46.63968" lon="5.61967">
        <ele>529.1</ele>
        <time>2022-07-03T09:20:57Z</time>
      </trkpt>
      <trkpt lat="46.63973" lon="5.61968">
        <ele>529.3</ele>
        <time>2022-07-03T09:21:01Z</time>
      </trkpt>
      <trkpt lat="46.63977" lon="5.61972">
        <ele>529.8</ele>
        <time>2022-07-03T09:21:06Z</time>
      </trkpt>
      <trkpt lat="46.63982" lon="5.61974">
        <ele>531</ele>
        <time>2022-07-03T09:21:12Z</time>
      </trkpt>
      <trkpt lat="46.63986" lon="5.61977">
        <ele>532</ele>
        <time>2022-07-03T09:21:16Z</time>
      </trkpt>
      <trkpt lat="46.6399" lon="5.61979">
        <ele>532.9</ele>
        <time>2022-07-03T09:21:20Z</time>
      </trkpt>
      <trkpt lat="46.63995" lon="5.61982">
        <ele>533.5</ele>
        <time>2022-07-03T09:21:25Z</time>
      </trkpt>
      <trkpt lat="46.63999" lon="5.61985">
        <ele>533.8</ele>
        <time>2022-07-03T09:21:29Z</time>
      </trkpt>
      <trkpt lat="46.64003" lon="5.61989">
        <ele>533.5</ele>
        <time>2022-07-03T09:21:34Z</time>
      </trkpt>
      <trkpt lat="46.64008" lon="5.61994">
        <ele>533.6</ele>
        <time>2022-07-03T09:21:40Z</time>
      </trkpt>
      <trkpt lat="46.64012" lon="5.61997">
        <ele>534.2</ele>
        <time>2022-07-03T09:21:44Z</time>
      </trkpt>
      <trkpt lat="46.64017" lon="5.61997">
        <ele>534.8</ele>
        <time>2022-07-03T09:21:48Z</time>
      </trkpt>
      <trkpt lat="46.64022" lon="5.61996">
        <ele>535.4</ele>
        <time>2022-07-03T09:21:52Z</time>
      </trkpt>
      <trkpt lat="46.64027" lon="5.61996">
        <ele>535.9</ele>
        <time>2022-07-03T09:21:56Z</time>
      </trkpt>
      <trkpt lat="46.64032" lon="5.61995">
        <ele>536.2</ele>
        <time>2022-07-03T09:22:01Z</time>
      </trkpt>
      <trkpt lat="46.64037" lon="5.61995">
        <ele>536.1</ele>
        <time>2022-07-03T09:22:09Z</time>
      </trkpt>
      <trkpt lat="46.64043" lon="5.61993">
        <ele>536.2</ele>
        <time>2022-07-03T09:22:14Z</time>
      </trkpt>
      <trkpt lat="46.64047" lon="5.61991">
        <ele>536.8</ele>
        <time>2022-07-03T09:22:19Z</time>
      </trkpt>
      <trkpt lat="46.64052" lon="5.61989">
        <ele>537.6</ele>
        <time>2022-07-03T09:22:25Z</time>
      </trkpt>
      <trkpt lat="46.64057" lon="5.61986">
        <ele>538</ele>
        <time>2022-07-03T09:22:32Z</time>
      </trkpt>
      <trkpt lat="46.64061" lon="5.61983">
        <ele>538.3</ele>
        <time>2022-07-03T09:22:36Z</time>
      </trkpt>
      <trkpt lat="46.64065" lon="5.61981">
        <ele>538.8</ele>
        <time>2022-07-03T09:22:40Z</time>
      </trkpt>
      <trkpt lat="46.64069" lon="5.61976">
        <ele>539.3</ele>
        <time>2022-07-03T09:22:44Z</time>
      </trkpt>
      <trkpt lat="46.64073" lon="5.61973">
        <ele>540</ele>
        <time>2022-07-03T09:22:49Z</time>
      </trkpt>
      <trkpt lat="46.64077" lon="5.61968">
        <ele>540.7</ele>
        <time>2022-07-03T09:22:54Z</time>
      </trkpt>
      <trkpt lat="46.64079" lon="5.61962">
        <ele>541.6</ele>
        <time>2022-07-03T09:22:59Z</time>
      </trkpt>
      <trkpt lat="46.6408" lon="5.61955">
        <ele>542.2</ele>
        <time>2022-07-03T09:23:04Z</time>
      </trkpt>
      <trkpt lat="46.64082" lon="5.61949">
        <ele>541.8</ele>
        <time>2022-07-03T09:23:08Z</time>
      </trkpt>
      <trkpt lat="46.64084" lon="5.61942">
        <ele>541.6</ele>
        <time>2022-07-03T09:23:12Z</time>
      </trkpt>
      <trkpt lat="46.64085" lon="5.61935">
        <ele>541.9</ele>
        <time>2022-07-03T09:23:16Z</time>
      </trkpt>
      <trkpt lat="46.64085" lon="5.61928">
        <ele>542.1</ele>
        <time>2022-07-03T09:23:20Z</time>
      </trkpt>
      <trkpt lat="46.64086" lon="5.61921">
        <ele>541.7</ele>
        <time>2022-07-03T09:23:24Z</time>
      </trkpt>
      <trkpt lat="46.64088" lon="5.61914">
        <ele>540.6</ele>
        <time>2022-07-03T09:23:30Z</time>
      </trkpt>
      <trkpt lat="46.6409" lon="5.61908">
        <ele>539.6</ele>
        <time>2022-07-03T09:23:35Z</time>
      </trkpt>
      <trkpt lat="46.64091" lon="5.61901">
        <ele>538.3</ele>
        <time>2022-07-03T09:23:41Z</time>
      </trkpt>
      <trkpt lat="46.64093" lon="5.61895">
        <ele>537.5</ele>
        <time>2022-07-03T09:24:03Z</time>
      </trkpt>
      <trkpt lat="46.64097" lon="5.6189">
        <ele>537.3</ele>
        <time>2022-07-03T09:24:10Z</time>
      </trkpt>
      <trkpt lat="46.641" lon="5.61884">
        <ele>536.4</ele>
        <time>2022-07-03T09:24:16Z</time>
      </trkpt>
      <trkpt lat="46.64103" lon="5.61879">
        <ele>535.3</ele>
        <time>2022-07-03T09:24:20Z</time>
      </trkpt>
      <trkpt lat="46.64107" lon="5.61875">
        <ele>534</ele>
        <time>2022-07-03T09:24:24Z</time>
      </trkpt>
      <trkpt lat="46.64111" lon="5.6187">
        <ele>532.6</ele>
        <time>2022-07-03T09:24:29Z</time>
      </trkpt>
      <trkpt lat="46.64115" lon="5.61865">
        <ele>531.8</ele>
        <time>2022-07-03T09:24:34Z</time>
      </trkpt>
      <trkpt lat="46.64118" lon="5.6186">
        <ele>530.9</ele>
        <time>2022-07-03T09:24:39Z</time>
      </trkpt>
      <trkpt lat="46.64121" lon="5.61853">
        <ele>530.5</ele>
        <time>2022-07-03T09:24:44Z</time>
      </trkpt>
      <trkpt lat="46.64126" lon="5.61849">
        <ele>530.3</ele>
        <time>2022-07-03T09:24:49Z</time>
      </trkpt>
      <trkpt lat="46.6413" lon="5.61847">
        <ele>530.5</ele>
        <time>2022-07-03T09:24:52Z</time>
      </trkpt>
      <trkpt lat="46.64134" lon="5.61843">
        <ele>530.4</ele>
        <time>2022-07-03T09:24:57Z</time>
      </trkpt>
      <trkpt lat="46.64134" lon="5.61837">
        <ele>530.7</ele>
        <time>2022-07-03T09:25:02Z</time>
      </trkpt>
      <trkpt lat="46.64133" lon="5.6183">
        <ele>531.7</ele>
        <time>2022-07-03T09:25:11Z</time>
      </trkpt>
      <trkpt lat="46.64137" lon="5.61832">
        <ele>536.7</ele>
        <time>2022-07-03T09:25:57Z</time>
      </trkpt>
      <trkpt lat="46.64142" lon="5.61834">
        <ele>537</ele>
        <time>2022-07-03T09:26:01Z</time>
      </trkpt>
      <trkpt lat="46.64147" lon="5.61837">
        <ele>537.6</ele>
        <time>2022-07-03T09:26:05Z</time>
      </trkpt>
      <trkpt lat="46.64152" lon="5.61841">
        <ele>538.2</ele>
        <time>2022-07-03T09:26:09Z</time>
      </trkpt>
      <trkpt lat="46.64157" lon="5.61843">
        <ele>538.6</ele>
        <time>2022-07-03T09:26:13Z</time>
      </trkpt>
      <trkpt lat="46.64161" lon="5.61845">
        <ele>538.9</ele>
        <time>2022-07-03T09:26:18Z</time>
      </trkpt>
      <trkpt lat="46.64166" lon="5.61848">
        <ele>537.9</ele>
        <time>2022-07-03T09:28:40Z</time>
      </trkpt>
      <trkpt lat="46.64171" lon="5.61846">
        <ele>536.9</ele>
        <time>2022-07-03T09:29:10Z</time>
      </trkpt>
      <trkpt lat="46.64175" lon="5.61847">
        <ele>537.4</ele>
        <time>2022-07-03T09:29:18Z</time>
      </trkpt>
      <trkpt lat="46.64179" lon="5.61842">
        <ele>541.2</ele>
        <time>2022-07-03T09:29:51Z</time>
      </trkpt>
      <trkpt lat="46.64182" lon="5.61837">
        <ele>541.5</ele>
        <time>2022-07-03T09:29:57Z</time>
      </trkpt>
      <trkpt lat="46.64185" lon="5.6183">
        <ele>541.7</ele>
        <time>2022-07-03T09:30:01Z</time>
      </trkpt>
      <trkpt lat="46.64187" lon="5.61823">
        <ele>540.9</ele>
        <time>2022-07-03T09:30:08Z</time>
      </trkpt>
      <trkpt lat="46.64189" lon="5.61815">
        <ele>540.1</ele>
        <time>2022-07-03T09:30:12Z</time>
      </trkpt>
      <trkpt lat="46.64191" lon="5.61809">
        <ele>539.6</ele>
        <time>2022-07-03T09:30:15Z</time>
      </trkpt>
      <trkpt lat="46.64194" lon="5.61802">
        <ele>539.2</ele>
        <time>2022-07-03T09:30:20Z</time>
      </trkpt>
      <trkpt lat="46.64198" lon="5.61796">
        <ele>538.7</ele>
        <time>2022-07-03T09:30:25Z</time>
      </trkpt>
      <trkpt lat="46.64201" lon="5.61791">
        <ele>538.2</ele>
        <time>2022-07-03T09:30:29Z</time>
      </trkpt>
      <trkpt lat="46.64204" lon="5.61784">
        <ele>537</ele>
        <time>2022-07-03T09:30:34Z</time>
      </trkpt>
      <trkpt lat="46.64207" lon="5.61778">
        <ele>536.4</ele>
        <time>2022-07-03T09:30:39Z</time>
      </trkpt>
      <trkpt lat="46.64209" lon="5.61772">
        <ele>536.1</ele>
        <time>2022-07-03T09:30:43Z</time>
      </trkpt>
      <trkpt lat="46.64212" lon="5.61765">
        <ele>535.9</ele>
        <time>2022-07-03T09:30:47Z</time>
      </trkpt>
      <trkpt lat="46.64214" lon="5.61759">
        <ele>535.7</ele>
        <time>2022-07-03T09:30:51Z</time>
      </trkpt>
      <trkpt lat="46.64217" lon="5.61753">
        <ele>535.5</ele>
        <time>2022-07-03T09:30:56Z</time>
      </trkpt>
      <trkpt lat="46.6422" lon="5.61746">
        <ele>535.2</ele>
        <time>2022-07-03T09:31:02Z</time>
      </trkpt>
      <trkpt lat="46.64223" lon="5.6174">
        <ele>535.3</ele>
        <time>2022-07-03T09:31:06Z</time>
      </trkpt>
      <trkpt lat="46.64224" lon="5.61733">
        <ele>535.8</ele>
        <time>2022-07-03T09:31:10Z</time>
      </trkpt>
      <trkpt lat="46.64226" lon="5.61726">
        <ele>536.7</ele>
        <time>2022-07-03T09:31:15Z</time>
      </trkpt>
      <trkpt lat="46.64228" lon="5.61719">
        <ele>537.3</ele>
        <time>2022-07-03T09:31:20Z</time>
      </trkpt>
      <trkpt lat="46.64231" lon="5.61713">
        <ele>536.7</ele>
        <time>2022-07-03T09:31:25Z</time>
      </trkpt>
      <trkpt lat="46.64234" lon="5.61706">
        <ele>536.4</ele>
        <time>2022-07-03T09:31:29Z</time>
      </trkpt>
      <trkpt lat="46.64236" lon="5.617">
        <ele>536.1</ele>
        <time>2022-07-03T09:31:33Z</time>
      </trkpt>
      <trkpt lat="46.64239" lon="5.61694">
        <ele>535.4</ele>
        <time>2022-07-03T09:31:37Z</time>
      </trkpt>
      <trkpt lat="46.64242" lon="5.61688">
        <ele>534.5</ele>
        <time>2022-07-03T09:31:41Z</time>
      </trkpt>
      <trkpt lat="46.64245" lon="5.61682">
        <ele>533.8</ele>
        <time>2022-07-03T09:31:46Z</time>
      </trkpt>
      <trkpt lat="46.64247" lon="5.61676">
        <ele>533.6</ele>
        <time>2022-07-03T09:31:50Z</time>
      </trkpt>
      <trkpt lat="46.6425" lon="5.61671">
        <ele>533.3</ele>
        <time>2022-07-03T09:31:54Z</time>
      </trkpt>
      <trkpt lat="46.64253" lon="5.61664">
        <ele>533.5</ele>
        <time>2022-07-03T09:31:59Z</time>
      </trkpt>
      <trkpt lat="46.64256" lon="5.61658">
        <ele>533.9</ele>
        <time>2022-07-03T09:32:03Z</time>
      </trkpt>
      <trkpt lat="46.64258" lon="5.61651">
        <ele>533.8</ele>
        <time>2022-07-03T09:32:07Z</time>
      </trkpt>
      <trkpt lat="46.6426" lon="5.61644">
        <ele>533.3</ele>
        <time>2022-07-03T09:32:11Z</time>
      </trkpt>
      <trkpt lat="46.64263" lon="5.61639">
        <ele>532.6</ele>
        <time>2022-07-03T09:32:15Z</time>
      </trkpt>
      <trkpt lat="46.64265" lon="5.61633">
        <ele>532.5</ele>
        <time>2022-07-03T09:32:20Z</time>
      </trkpt>
      <trkpt lat="46.64268" lon="5.61627">
        <ele>533.2</ele>
        <time>2022-07-03T09:32:25Z</time>
      </trkpt>
      <trkpt lat="46.64271" lon="5.61621">
        <ele>533.7</ele>
        <time>2022-07-03T09:32:29Z</time>
      </trkpt>
      <trkpt lat="46.64273" lon="5.61616">
        <ele>534.4</ele>
        <time>2022-07-03T09:32:33Z</time>
      </trkpt>
      <trkpt lat="46.64276" lon="5.6161">
        <ele>535.1</ele>
        <time>2022-07-03T09:32:37Z</time>
      </trkpt>
      <trkpt lat="46.6428" lon="5.61604">
        <ele>535.7</ele>
        <time>2022-07-03T09:32:42Z</time>
      </trkpt>
      <trkpt lat="46.64283" lon="5.61597">
        <ele>535.8</ele>
        <time>2022-07-03T09:32:47Z</time>
      </trkpt>
      <trkpt lat="46.64285" lon="5.61591">
        <ele>536</ele>
        <time>2022-07-03T09:32:50Z</time>
      </trkpt>
      <trkpt lat="46.64288" lon="5.61585">
        <ele>536.2</ele>
        <time>2022-07-03T09:32:55Z</time>
      </trkpt>
      <trkpt lat="46.6429" lon="5.61578">
        <ele>535.8</ele>
        <time>2022-07-03T09:33:00Z</time>
      </trkpt>
      <trkpt lat="46.64292" lon="5.61572">
        <ele>535.6</ele>
        <time>2022-07-03T09:33:04Z</time>
      </trkpt>
      <trkpt lat="46.64295" lon="5.61566">
        <ele>535.3</ele>
        <time>2022-07-03T09:33:08Z</time>
      </trkpt>
      <trkpt lat="46.64297" lon="5.61558">
        <ele>535.4</ele>
        <time>2022-07-03T09:33:12Z</time>
      </trkpt>
      <trkpt lat="46.64298" lon="5.61552">
        <ele>535.4</ele>
        <time>2022-07-03T09:33:16Z</time>
      </trkpt>
      <trkpt lat="46.643" lon="5.61545">
        <ele>535.1</ele>
        <time>2022-07-03T09:33:21Z</time>
      </trkpt>
      <trkpt lat="46.64303" lon="5.61538">
        <ele>534.7</ele>
        <time>2022-07-03T09:33:25Z</time>
      </trkpt>
      <trkpt lat="46.64304" lon="5.61531">
        <ele>534.4</ele>
        <time>2022-07-03T09:33:29Z</time>
      </trkpt>
      <trkpt lat="46.64303" lon="5.61525">
        <ele>534</ele>
        <time>2022-07-03T09:33:33Z</time>
      </trkpt>
      <trkpt lat="46.643" lon="5.61519">
        <ele>533.5</ele>
        <time>2022-07-03T09:33:37Z</time>
      </trkpt>
      <trkpt lat="46.64295" lon="5.61515">
        <ele>532.6</ele>
        <time>2022-07-03T09:33:48Z</time>
      </trkpt>
      <trkpt lat="46.64294" lon="5.61508">
        <ele>532.5</ele>
        <time>2022-07-03T09:33:57Z</time>
      </trkpt>
      <trkpt lat="46.64293" lon="5.61502">
        <ele>532.1</ele>
        <time>2022-07-03T09:34:03Z</time>
      </trkpt>
      <trkpt lat="46.64297" lon="5.61506">
        <ele>531.9</ele>
        <time>2022-07-03T09:34:34Z</time>
      </trkpt>
      <trkpt lat="46.64301" lon="5.61511">
        <ele>533.5</ele>
        <time>2022-07-03T09:34:57Z</time>
      </trkpt>
      <trkpt lat="46.64297" lon="5.61509">
        <ele>526.8</ele>
        <time>2022-07-03T09:36:30Z</time>
      </trkpt>
      <trkpt lat="46.64293" lon="5.61507">
        <ele>525.6</ele>
        <time>2022-07-03T09:36:36Z</time>
      </trkpt>
      <trkpt lat="46.64288" lon="5.61504">
        <ele>525.1</ele>
        <time>2022-07-03T09:36:41Z</time>
      </trkpt>
      <trkpt lat="46.64284" lon="5.61499">
        <ele>524.6</ele>
        <time>2022-07-03T09:36:46Z</time>
      </trkpt>
      <trkpt lat="46.6428" lon="5.61494">
        <ele>525</ele>
        <time>2022-07-03T09:36:52Z</time>
      </trkpt>
      <trkpt lat="46.64276" lon="5.61489">
        <ele>526</ele>
        <time>2022-07-03T09:36:58Z</time>
      </trkpt>
      <trkpt lat="46.64272" lon="5.61487">
        <ele>526.5</ele>
        <time>2022-07-03T09:37:03Z</time>
      </trkpt>
      <trkpt lat="46.64268" lon="5.61482">
        <ele>526.2</ele>
        <time>2022-07-03T09:37:08Z</time>
      </trkpt>
      <trkpt lat="46.64265" lon="5.61476">
        <ele>525.6</ele>
        <time>2022-07-03T09:37:13Z</time>
      </trkpt>
      <trkpt lat="46.64261" lon="5.61472">
        <ele>525.1</ele>
        <time>2022-07-03T09:37:17Z</time>
      </trkpt>
      <trkpt lat="46.64258" lon="5.61466">
        <ele>524.7</ele>
        <time>2022-07-03T09:37:22Z</time>
      </trkpt>
      <trkpt lat="46.64254" lon="5.61462">
        <ele>524.8</ele>
        <time>2022-07-03T09:37:27Z</time>
      </trkpt>
      <trkpt lat="46.64249" lon="5.6146">
        <ele>525</ele>
        <time>2022-07-03T09:37:33Z</time>
      </trkpt>
      <trkpt lat="46.64243" lon="5.61459">
        <ele>526.2</ele>
        <time>2022-07-03T09:37:38Z</time>
      </trkpt>
      <trkpt lat="46.64239" lon="5.61457">
        <ele>527.4</ele>
        <time>2022-07-03T09:37:42Z</time>
      </trkpt>
      <trkpt lat="46.64235" lon="5.61452">
        <ele>528.6</ele>
        <time>2022-07-03T09:37:46Z</time>
      </trkpt>
      <trkpt lat="46.64232" lon="5.61447">
        <ele>529.1</ele>
        <time>2022-07-03T09:37:51Z</time>
      </trkpt>
      <trkpt lat="46.64228" lon="5.61443">
        <ele>529</ele>
        <time>2022-07-03T09:37:56Z</time>
      </trkpt>
      <trkpt lat="46.64224" lon="5.6144">
        <ele>528.7</ele>
        <time>2022-07-03T09:38:03Z</time>
      </trkpt>
      <trkpt lat="46.64219" lon="5.61438">
        <ele>528.6</ele>
        <time>2022-07-03T09:38:09Z</time>
      </trkpt>
      <trkpt lat="46.64214" lon="5.61437">
        <ele>529.2</ele>
        <time>2022-07-03T09:38:14Z</time>
      </trkpt>
      <trkpt lat="46.64208" lon="5.61435">
        <ele>530.3</ele>
        <time>2022-07-03T09:38:19Z</time>
      </trkpt>
      <trkpt lat="46.64203" lon="5.61432">
        <ele>530.7</ele>
        <time>2022-07-03T09:38:23Z</time>
      </trkpt>
      <trkpt lat="46.64198" lon="5.61428">
        <ele>531.1</ele>
        <time>2022-07-03T09:38:27Z</time>
      </trkpt>
      <trkpt lat="46.64193" lon="5.61426">
        <ele>531.6</ele>
        <time>2022-07-03T09:38:31Z</time>
      </trkpt>
      <trkpt lat="46.64188" lon="5.61427">
        <ele>532.3</ele>
        <time>2022-07-03T09:38:36Z</time>
      </trkpt>
      <trkpt lat="46.64183" lon="5.61427">
        <ele>532.6</ele>
        <time>2022-07-03T09:38:40Z</time>
      </trkpt>
      <trkpt lat="46.64178" lon="5.61427">
        <ele>532.5</ele>
        <time>2022-07-03T09:38:45Z</time>
      </trkpt>
      <trkpt lat="46.64172" lon="5.61428">
        <ele>532</ele>
        <time>2022-07-03T09:38:50Z</time>
      </trkpt>
      <trkpt lat="46.64168" lon="5.6143">
        <ele>531.2</ele>
        <time>2022-07-03T09:38:54Z</time>
      </trkpt>
      <trkpt lat="46.64163" lon="5.61429">
        <ele>529.9</ele>
        <time>2022-07-03T09:38:59Z</time>
      </trkpt>
      <trkpt lat="46.64159" lon="5.61427">
        <ele>529</ele>
        <time>2022-07-03T09:39:04Z</time>
      </trkpt>
      <trkpt lat="46.64154" lon="5.61424">
        <ele>528.3</ele>
        <time>2022-07-03T09:39:09Z</time>
      </trkpt>
      <trkpt lat="46.6415" lon="5.61424">
        <ele>528</ele>
        <time>2022-07-03T09:39:13Z</time>
      </trkpt>
      <trkpt lat="46.64144" lon="5.61423">
        <ele>528</ele>
        <time>2022-07-03T09:39:18Z</time>
      </trkpt>
      <trkpt lat="46.64139" lon="5.61421">
        <ele>528.5</ele>
        <time>2022-07-03T09:39:23Z</time>
      </trkpt>
      <trkpt lat="46.64134" lon="5.61418">
        <ele>529.2</ele>
        <time>2022-07-03T09:39:28Z</time>
      </trkpt>
      <trkpt lat="46.64129" lon="5.61415">
        <ele>529.3</ele>
        <time>2022-07-03T09:39:33Z</time>
      </trkpt>
      <trkpt lat="46.64124" lon="5.61413">
        <ele>529.4</ele>
        <time>2022-07-03T09:39:37Z</time>
      </trkpt>
      <trkpt lat="46.64119" lon="5.61412">
        <ele>529.6</ele>
        <time>2022-07-03T09:39:41Z</time>
      </trkpt>
      <trkpt lat="46.64114" lon="5.61412">
        <ele>530.4</ele>
        <time>2022-07-03T09:39:44Z</time>
      </trkpt>
      <trkpt lat="46.64109" lon="5.61412">
        <ele>531.6</ele>
        <time>2022-07-03T09:39:48Z</time>
      </trkpt>
      <trkpt lat="46.64104" lon="5.61411">
        <ele>533</ele>
        <time>2022-07-03T09:39:52Z</time>
      </trkpt>
      <trkpt lat="46.64099" lon="5.61407">
        <ele>535.3</ele>
        <time>2022-07-03T09:39:57Z</time>
      </trkpt>
      <trkpt lat="46.64095" lon="5.61404">
        <ele>537.3</ele>
        <time>2022-07-03T09:40:01Z</time>
      </trkpt>
      <trkpt lat="46.64089" lon="5.614">
        <ele>538.4</ele>
        <time>2022-07-03T09:40:06Z</time>
      </trkpt>
      <trkpt lat="46.64085" lon="5.61397">
        <ele>539.5</ele>
        <time>2022-07-03T09:40:10Z</time>
      </trkpt>
      <trkpt lat="46.64081" lon="5.61393">
        <ele>540</ele>
        <time>2022-07-03T09:40:15Z</time>
      </trkpt>
      <trkpt lat="46.64077" lon="5.61388">
        <ele>540.4</ele>
        <time>2022-07-03T09:40:20Z</time>
      </trkpt>
      <trkpt lat="46.64074" lon="5.61383">
        <ele>541.2</ele>
        <time>2022-07-03T09:40:25Z</time>
      </trkpt>
      <trkpt lat="46.64071" lon="5.61379">
        <ele>541.5</ele>
        <time>2022-07-03T09:40:29Z</time>
      </trkpt>
      <trkpt lat="46.64066" lon="5.61376">
        <ele>542.1</ele>
        <time>2022-07-03T09:40:33Z</time>
      </trkpt>
      <trkpt lat="46.64062" lon="5.61372">
        <ele>543</ele>
        <time>2022-07-03T09:40:38Z</time>
      </trkpt>
      <trkpt lat="46.64057" lon="5.61371">
        <ele>543.6</ele>
        <time>2022-07-03T09:40:43Z</time>
      </trkpt>
      <trkpt lat="46.64052" lon="5.61369">
        <ele>543.6</ele>
        <time>2022-07-03T09:40:47Z</time>
      </trkpt>
      <trkpt lat="46.64048" lon="5.61366">
        <ele>543.3</ele>
        <time>2022-07-03T09:40:51Z</time>
      </trkpt>
      <trkpt lat="46.64044" lon="5.61362">
        <ele>542.5</ele>
        <time>2022-07-03T09:40:55Z</time>
      </trkpt>
      <trkpt lat="46.6404" lon="5.61358">
        <ele>541.3</ele>
        <time>2022-07-03T09:40:59Z</time>
      </trkpt>
      <trkpt lat="46.64036" lon="5.61354">
        <ele>540.2</ele>
        <time>2022-07-03T09:41:04Z</time>
      </trkpt>
      <trkpt lat="46.64031" lon="5.61354">
        <ele>539.4</ele>
        <time>2022-07-03T09:41:08Z</time>
      </trkpt>
      <trkpt lat="46.64027" lon="5.61351">
        <ele>538.3</ele>
        <time>2022-07-03T09:41:13Z</time>
      </trkpt>
      <trkpt lat="46.64023" lon="5.61347">
        <ele>537.5</ele>
        <time>2022-07-03T09:41:21Z</time>
      </trkpt>
      <trkpt lat="46.64018" lon="5.61345">
        <ele>538</ele>
        <time>2022-07-03T09:41:26Z</time>
      </trkpt>
      <trkpt lat="46.64013" lon="5.61344">
        <ele>539</ele>
        <time>2022-07-03T09:41:31Z</time>
      </trkpt>
      <trkpt lat="46.64009" lon="5.61343">
        <ele>539.2</ele>
        <time>2022-07-03T09:41:36Z</time>
      </trkpt>
      <trkpt lat="46.64004" lon="5.61343">
        <ele>539</ele>
        <time>2022-07-03T09:41:40Z</time>
      </trkpt>
      <trkpt lat="46.63999" lon="5.61341">
        <ele>538.2</ele>
        <time>2022-07-03T09:41:45Z</time>
      </trkpt>
      <trkpt lat="46.63995" lon="5.61338">
        <ele>536.5</ele>
        <time>2022-07-03T09:41:52Z</time>
      </trkpt>
      <trkpt lat="46.6399" lon="5.61335">
        <ele>535.2</ele>
        <time>2022-07-03T09:41:58Z</time>
      </trkpt>
      <trkpt lat="46.63985" lon="5.61335">
        <ele>534.7</ele>
        <time>2022-07-03T09:42:02Z</time>
      </trkpt>
      <trkpt lat="46.63981" lon="5.61338">
        <ele>533.9</ele>
        <time>2022-07-03T09:42:06Z</time>
      </trkpt>
      <trkpt lat="46.63976" lon="5.61337">
        <ele>532.8</ele>
        <time>2022-07-03T09:42:11Z</time>
      </trkpt>
      <trkpt lat="46.63971" lon="5.61334">
        <ele>531.7</ele>
        <time>2022-07-03T09:42:17Z</time>
      </trkpt>
      <trkpt lat="46.63967" lon="5.61331">
        <ele>531.3</ele>
        <time>2022-07-03T09:42:22Z</time>
      </trkpt>
      <trkpt lat="46.63962" lon="5.6133">
        <ele>530.7</ele>
        <time>2022-07-03T09:42:26Z</time>
      </trkpt>
      <trkpt lat="46.63957" lon="5.6133">
        <ele>529.9</ele>
        <time>2022-07-03T09:42:30Z</time>
      </trkpt>
      <trkpt lat="46.63951" lon="5.6133">
        <ele>529.1</ele>
        <time>2022-07-03T09:42:34Z</time>
      </trkpt>
      <trkpt lat="46.63946" lon="5.61329">
        <ele>528.2</ele>
        <time>2022-07-03T09:42:38Z</time>
      </trkpt>
      <trkpt lat="46.63942" lon="5.61326">
        <ele>527.1</ele>
        <time>2022-07-03T09:42:45Z</time>
      </trkpt>
      <trkpt lat="46.63937" lon="5.61323">
        <ele>526.8</ele>
        <time>2022-07-03T09:42:51Z</time>
      </trkpt>
      <trkpt lat="46.63932" lon="5.61322">
        <ele>527.4</ele>
        <time>2022-07-03T09:42:56Z</time>
      </trkpt>
      <trkpt lat="46.63927" lon="5.61321">
        <ele>528.1</ele>
        <time>2022-07-03T09:43:01Z</time>
      </trkpt>
      <trkpt lat="46.63922" lon="5.6132">
        <ele>528.4</ele>
        <time>2022-07-03T09:43:06Z</time>
      </trkpt>
      <trkpt lat="46.63917" lon="5.61319">
        <ele>527.9</ele>
        <time>2022-07-03T09:43:11Z</time>
      </trkpt>
      <trkpt lat="46.63911" lon="5.61318">
        <ele>527.1</ele>
        <time>2022-07-03T09:43:16Z</time>
      </trkpt>
      <trkpt lat="46.63906" lon="5.61316">
        <ele>526.3</ele>
        <time>2022-07-03T09:43:21Z</time>
      </trkpt>
      <trkpt lat="46.63901" lon="5.61314">
        <ele>526.1</ele>
        <time>2022-07-03T09:43:26Z</time>
      </trkpt>
      <trkpt lat="46.63897" lon="5.61311">
        <ele>526.4</ele>
        <time>2022-07-03T09:43:31Z</time>
      </trkpt>
      <trkpt lat="46.63891" lon="5.61311">
        <ele>526.9</ele>
        <time>2022-07-03T09:43:37Z</time>
      </trkpt>
      <trkpt lat="46.63887" lon="5.61311">
        <ele>527.6</ele>
        <time>2022-07-03T09:43:41Z</time>
      </trkpt>
      <trkpt lat="46.63882" lon="5.61311">
        <ele>528.1</ele>
        <time>2022-07-03T09:43:46Z</time>
      </trkpt>
      <trkpt lat="46.63877" lon="5.61311">
        <ele>528.1</ele>
        <time>2022-07-03T09:43:50Z</time>
      </trkpt>
      <trkpt lat="46.63872" lon="5.61312">
        <ele>527.9</ele>
        <time>2022-07-03T09:43:53Z</time>
      </trkpt>
      <trkpt lat="46.63867" lon="5.61313">
        <ele>527.6</ele>
        <time>2022-07-03T09:43:56Z</time>
      </trkpt>
      <trkpt lat="46.63863" lon="5.61313">
        <ele>527.6</ele>
        <time>2022-07-03T09:43:59Z</time>
      </trkpt>
      <trkpt lat="46.63857" lon="5.61313">
        <ele>528</ele>
        <time>2022-07-03T09:44:04Z</time>
      </trkpt>
      <trkpt lat="46.63853" lon="5.61313">
        <ele>528.3</ele>
        <time>2022-07-03T09:44:08Z</time>
      </trkpt>
      <trkpt lat="46.63847" lon="5.61314">
        <ele>528.6</ele>
        <time>2022-07-03T09:44:12Z</time>
      </trkpt>
      <trkpt lat="46.63843" lon="5.61316">
        <ele>529</ele>
        <time>2022-07-03T09:44:15Z</time>
      </trkpt>
      <trkpt lat="46.63839" lon="5.61317">
        <ele>529.4</ele>
        <time>2022-07-03T09:44:19Z</time>
      </trkpt>
      <trkpt lat="46.63833" lon="5.61317">
        <ele>529.9</ele>
        <time>2022-07-03T09:44:23Z</time>
      </trkpt>
      <trkpt lat="46.63829" lon="5.61315">
        <ele>530.5</ele>
        <time>2022-07-03T09:44:28Z</time>
      </trkpt>
      <trkpt lat="46.63824" lon="5.61314">
        <ele>531</ele>
        <time>2022-07-03T09:44:32Z</time>
      </trkpt>
      <trkpt lat="46.63819" lon="5.61314">
        <ele>531.8</ele>
        <time>2022-07-03T09:44:36Z</time>
      </trkpt>
      <trkpt lat="46.63815" lon="5.61313">
        <ele>532.9</ele>
        <time>2022-07-03T09:44:41Z</time>
      </trkpt>
      <trkpt lat="46.63811" lon="5.61309">
        <ele>534.4</ele>
        <time>2022-07-03T09:44:47Z</time>
      </trkpt>
      <trkpt lat="46.63806" lon="5.61306">
        <ele>535</ele>
        <time>2022-07-03T09:44:52Z</time>
      </trkpt>
      <trkpt lat="46.63802" lon="5.61303">
        <ele>535.4</ele>
        <time>2022-07-03T09:44:58Z</time>
      </trkpt>
      <trkpt lat="46.63797" lon="5.61301">
        <ele>535.4</ele>
        <time>2022-07-03T09:45:04Z</time>
      </trkpt>
      <trkpt lat="46.63792" lon="5.613">
        <ele>535.3</ele>
        <time>2022-07-03T09:45:09Z</time>
      </trkpt>
      <trkpt lat="46.63787" lon="5.61301">
        <ele>534.8</ele>
        <time>2022-07-03T09:45:13Z</time>
      </trkpt>
      <trkpt lat="46.63782" lon="5.613">
        <ele>533.9</ele>
        <time>2022-07-03T09:45:17Z</time>
      </trkpt>
      <trkpt lat="46.63777" lon="5.613">
        <ele>532.6</ele>
        <time>2022-07-03T09:45:22Z</time>
      </trkpt>
      <trkpt lat="46.63772" lon="5.61298">
        <ele>531.9</ele>
        <time>2022-07-03T09:45:27Z</time>
      </trkpt>
      <trkpt lat="46.63768" lon="5.61293">
        <ele>531.3</ele>
        <time>2022-07-03T09:45:33Z</time>
      </trkpt>
      <trkpt lat="46.63764" lon="5.61289">
        <ele>531.6</ele>
        <time>2022-07-03T09:45:41Z</time>
      </trkpt>
      <trkpt lat="46.6376" lon="5.61285">
        <ele>532.3</ele>
        <time>2022-07-03T09:45:46Z</time>
      </trkpt>
      <trkpt lat="46.63756" lon="5.6128">
        <ele>532.6</ele>
        <time>2022-07-03T09:45:51Z</time>
      </trkpt>
      <trkpt lat="46.63753" lon="5.61275">
        <ele>532.5</ele>
        <time>2022-07-03T09:45:56Z</time>
      </trkpt>
      <trkpt lat="46.6375" lon="5.6127">
        <ele>532</ele>
        <time>2022-07-03T09:46:00Z</time>
      </trkpt>
      <trkpt lat="46.63747" lon="5.61266">
        <ele>531.3</ele>
        <time>2022-07-03T09:46:04Z</time>
      </trkpt>
      <trkpt lat="46.63742" lon="5.61264">
        <ele>530.6</ele>
        <time>2022-07-03T09:46:10Z</time>
      </trkpt>
      <trkpt lat="46.63737" lon="5.61267">
        <ele>530.1</ele>
        <time>2022-07-03T09:46:15Z</time>
      </trkpt>
      <trkpt lat="46.63733" lon="5.61269">
        <ele>530.2</ele>
        <time>2022-07-03T09:46:19Z</time>
      </trkpt>
      <trkpt lat="46.63728" lon="5.61269">
        <ele>531.5</ele>
        <time>2022-07-03T09:46:24Z</time>
      </trkpt>
      <trkpt lat="46.63724" lon="5.61273">
        <ele>532</ele>
        <time>2022-07-03T09:46:35Z</time>
      </trkpt>
      <trkpt lat="46.63724" lon="5.61266">
        <ele>529.7</ele>
        <time>2022-07-03T09:48:06Z</time>
      </trkpt>
      <trkpt lat="46.63729" lon="5.61266">
        <ele>532.6</ele>
        <time>2022-07-03T09:49:05Z</time>
      </trkpt>
      <trkpt lat="46.63734" lon="5.61265">
        <ele>535.3</ele>
        <time>2022-07-03T09:49:17Z</time>
      </trkpt>
      <trkpt lat="46.63738" lon="5.61262">
        <ele>534.7</ele>
        <time>2022-07-03T09:50:14Z</time>
      </trkpt>
      <trkpt lat="46.63743" lon="5.6126">
        <ele>533.9</ele>
        <time>2022-07-03T09:50:18Z</time>
      </trkpt>
      <trkpt lat="46.63749" lon="5.61259">
        <ele>534.5</ele>
        <time>2022-07-03T09:51:10Z</time>
      </trkpt>
      <trkpt lat="46.63754" lon="5.61258">
        <ele>535.9</ele>
        <time>2022-07-03T09:51:13Z</time>
      </trkpt>
      <trkpt lat="46.63758" lon="5.6126">
        <ele>538.6</ele>
        <time>2022-07-03T09:51:21Z</time>
      </trkpt>
      <trkpt lat="46.63762" lon="5.61266">
        <ele>540</ele>
        <time>2022-07-03T09:51:37Z</time>
      </trkpt>
      <trkpt lat="46.63765" lon="5.61271">
        <ele>541.5</ele>
        <time>2022-07-03T09:51:45Z</time>
      </trkpt>
      <trkpt lat="46.63769" lon="5.61272">
        <ele>544.1</ele>
        <time>2022-07-03T09:52:00Z</time>
      </trkpt>
      <trkpt lat="46.63765" lon="5.61275">
        <ele>542.6</ele>
        <time>2022-07-03T09:52:36Z</time>
      </trkpt>
      <trkpt lat="46.63761" lon="5.6128">
        <ele>542</ele>
        <time>2022-07-03T09:52:41Z</time>
      </trkpt>
      <trkpt lat="46.63762" lon="5.61273">
        <ele>539.1</ele>
        <time>2022-07-03T09:52:54Z</time>
      </trkpt>
      <trkpt lat="46.63761" lon="5.61266">
        <ele>538.5</ele>
        <time>2022-07-03T09:52:58Z</time>
      </trkpt>
      <trkpt lat="46.63764" lon="5.61271">
        <ele>538</ele>
        <time>2022-07-03T09:53:12Z</time>
      </trkpt>
      <trkpt lat="46.63763" lon="5.61277">
        <ele>538.3</ele>
        <time>2022-07-03T09:55:06Z</time>
      </trkpt>
      <trkpt lat="46.63762" lon="5.61271">
        <ele>542.6</ele>
        <time>2022-07-03T10:02:00Z</time>
      </trkpt>
      <trkpt lat="46.63763" lon="5.61278">
        <ele>543.2</ele>
        <time>2022-07-03T10:10:28Z</time>
      </trkpt>
      <trkpt lat="46.6376" lon="5.61273">
        <ele>542.8</ele>
        <time>2022-07-03T10:26:19Z</time>
      </trkpt>
      <trkpt lat="46.63756" lon="5.61276">
        <ele>543.4</ele>
        <time>2022-07-03T10:31:50Z</time>
      </trkpt>
      <trkpt lat="46.63758" lon="5.61282">
        <ele>545</ele>
        <time>2022-07-03T10:32:34Z</time>
      </trkpt>
      <trkpt lat="46.6376" lon="5.61276">
        <ele>544.2</ele>
        <time>2022-07-03T10:35:08Z</time>
      </trkpt>
      <trkpt lat="46.63763" lon="5.61282">
        <ele>548.2</ele>
        <time>2022-07-03T10:40:08Z</time>
      </trkpt>
      <trkpt lat="46.63764" lon="5.61275">
        <ele>548.5</ele>
        <time>2022-07-03T10:42:11Z</time>
      </trkpt>
      <trkpt lat="46.63769" lon="5.61271">
        <ele>548.2</ele>
        <time>2022-07-03T10:42:20Z</time>
      </trkpt>
      <trkpt lat="46.63766" lon="5.61278">
        <ele>548.6</ele>
        <time>2022-07-03T10:42:27Z</time>
      </trkpt>
      <trkpt lat="46.63763" lon="5.61271">
        <ele>548.8</ele>
        <time>2022-07-03T10:42:32Z</time>
      </trkpt>
      <trkpt lat="46.63759" lon="5.61268">
        <ele>549.3</ele>
        <time>2022-07-03T10:42:42Z</time>
      </trkpt>
      <trkpt lat="46.63761" lon="5.61261">
        <ele>545.1</ele>
        <time>2022-07-03T10:43:15Z</time>
      </trkpt>
      <trkpt lat="46.63758" lon="5.61267">
        <ele>551.9</ele>
        <time>2022-07-03T10:44:19Z</time>
      </trkpt>
      <trkpt lat="46.63755" lon="5.61271">
        <ele>549.4</ele>
        <time>2022-07-03T10:44:36Z</time>
      </trkpt>
      <trkpt lat="46.6375" lon="5.61273">
        <ele>550.4</ele>
        <time>2022-07-03T10:44:55Z</time>
      </trkpt>
      <trkpt lat="46.63755" lon="5.61271">
        <ele>554.5</ele>
        <time>2022-07-03T10:45:07Z</time>
      </trkpt>
      <trkpt lat="46.63756" lon="5.61264">
        <ele>551.8</ele>
        <time>2022-07-03T10:45:25Z</time>
      </trkpt>
      <trkpt lat="46.63752" lon="5.61262">
        <ele>547.8</ele>
        <time>2022-07-03T10:45:46Z</time>
      </trkpt>
      <trkpt lat="46.63748" lon="5.61259">
        <ele>548.7</ele>
        <time>2022-07-03T10:46:15Z</time>
      </trkpt>
      <trkpt lat="46.63744" lon="5.61255">
        <ele>545.5</ele>
        <time>2022-07-03T10:47:02Z</time>
      </trkpt>
      <trkpt lat="46.63749" lon="5.61254">
        <ele>550.1</ele>
        <time>2022-07-03T10:47:14Z</time>
      </trkpt>
      <trkpt lat="46.63747" lon="5.61261">
        <ele>548.1</ele>
        <time>2022-07-03T10:48:32Z</time>
      </trkpt>
      <trkpt lat="46.63751" lon="5.61257">
        <ele>544.6</ele>
        <time>2022-07-03T10:49:10Z</time>
      </trkpt>
      <trkpt lat="46.63746" lon="5.61261">
        <ele>544.6</ele>
        <time>2022-07-03T10:49:24Z</time>
      </trkpt>
      <trkpt lat="46.63745" lon="5.61255">
        <ele>545.4</ele>
        <time>2022-07-03T10:50:30Z</time>
      </trkpt>
      <trkpt lat="46.63749" lon="5.61256">
        <ele>544.1</ele>
        <time>2022-07-03T10:51:14Z</time>
      </trkpt>
      <trkpt lat="46.63745" lon="5.61259">
        <ele>544</ele>
        <time>2022-07-03T10:51:25Z</time>
      </trkpt>
      <trkpt lat="46.6375" lon="5.6126">
        <ele>545.7</ele>
        <time>2022-07-03T10:51:52Z</time>
      </trkpt>
      <trkpt lat="46.63747" lon="5.61254">
        <ele>540.5</ele>
        <time>2022-07-03T10:53:03Z</time>
      </trkpt>
      <trkpt lat="46.63752" lon="5.61256">
        <ele>542.3</ele>
        <time>2022-07-03T10:53:12Z</time>
      </trkpt>
      <trkpt lat="46.63747" lon="5.61253">
        <ele>542.9</ele>
        <time>2022-07-03T10:53:47Z</time>
      </trkpt>
      <trkpt lat="46.63749" lon="5.6126">
        <ele>543.9</ele>
        <time>2022-07-03T10:54:00Z</time>
      </trkpt>
      <trkpt lat="46.63754" lon="5.61263">
        <ele>548.9</ele>
        <time>2022-07-03T10:54:33Z</time>
      </trkpt>
      <trkpt lat="46.63753" lon="5.61256">
        <ele>545.1</ele>
        <time>2022-07-03T10:54:49Z</time>
      </trkpt>
      <trkpt lat="46.63749" lon="5.61254">
        <ele>542.2</ele>
        <time>2022-07-03T10:56:10Z</time>
      </trkpt>
      <trkpt lat="46.63753" lon="5.61259">
        <ele>540.8</ele>
        <time>2022-07-03T10:56:35Z</time>
      </trkpt>
      <trkpt lat="46.63751" lon="5.61265">
        <ele>542.3</ele>
        <time>2022-07-03T10:56:51Z</time>
      </trkpt>
      <trkpt lat="46.63746" lon="5.61262">
        <ele>542.5</ele>
        <time>2022-07-03T10:57:24Z</time>
      </trkpt>
      <trkpt lat="46.63742" lon="5.61262">
        <ele>542.2</ele>
        <time>2022-07-03T10:57:30Z</time>
      </trkpt>
      <trkpt lat="46.63746" lon="5.61258">
        <ele>539.4</ele>
        <time>2022-07-03T10:58:42Z</time>
      </trkpt>
      <trkpt lat="46.63744" lon="5.61248">
        <ele>538.6</ele>
        <time>2022-07-03T10:58:58Z</time>
      </trkpt>
      <trkpt lat="46.63743" lon="5.61241">
        <ele>538.2</ele>
        <time>2022-07-03T10:59:01Z</time>
      </trkpt>
      <trkpt lat="46.63742" lon="5.61234">
        <ele>537.5</ele>
        <time>2022-07-03T10:59:05Z</time>
      </trkpt>
      <trkpt lat="46.6374" lon="5.61228">
        <ele>536.9</ele>
        <time>2022-07-03T10:59:12Z</time>
      </trkpt>
      <trkpt lat="46.6374" lon="5.61221">
        <ele>536.2</ele>
        <time>2022-07-03T10:59:19Z</time>
      </trkpt>
      <trkpt lat="46.6374" lon="5.61213">
        <ele>535.9</ele>
        <time>2022-07-03T10:59:25Z</time>
      </trkpt>
      <trkpt lat="46.6374" lon="5.61205">
        <ele>536.1</ele>
        <time>2022-07-03T10:59:31Z</time>
      </trkpt>
      <trkpt lat="46.63739" lon="5.61198">
        <ele>536.1</ele>
        <time>2022-07-03T10:59:36Z</time>
      </trkpt>
      <trkpt lat="46.63738" lon="5.61191">
        <ele>536</ele>
        <time>2022-07-03T10:59:41Z</time>
      </trkpt>
      <trkpt lat="46.6374" lon="5.61184">
        <ele>535.9</ele>
        <time>2022-07-03T10:59:46Z</time>
      </trkpt>
      <trkpt lat="46.63741" lon="5.61178">
        <ele>535.7</ele>
        <time>2022-07-03T10:59:53Z</time>
      </trkpt>
      <trkpt lat="46.63742" lon="5.61171">
        <ele>534.9</ele>
        <time>2022-07-03T11:00:00Z</time>
      </trkpt>
      <trkpt lat="46.63743" lon="5.61164">
        <ele>534.9</ele>
        <time>2022-07-03T11:00:04Z</time>
      </trkpt>
      <trkpt lat="46.63741" lon="5.61157">
        <ele>535</ele>
        <time>2022-07-03T11:00:08Z</time>
      </trkpt>
      <trkpt lat="46.6374" lon="5.61149">
        <ele>535.2</ele>
        <time>2022-07-03T11:00:12Z</time>
      </trkpt>
      <trkpt lat="46.6374" lon="5.61142">
        <ele>535.4</ele>
        <time>2022-07-03T11:00:17Z</time>
      </trkpt>
      <trkpt lat="46.63741" lon="5.61134">
        <ele>535.6</ele>
        <time>2022-07-03T11:00:22Z</time>
      </trkpt>
      <trkpt lat="46.63742" lon="5.61127">
        <ele>536.3</ele>
        <time>2022-07-03T11:00:27Z</time>
      </trkpt>
      <trkpt lat="46.63744" lon="5.6112">
        <ele>537.3</ele>
        <time>2022-07-03T11:00:32Z</time>
      </trkpt>
      <trkpt lat="46.63744" lon="5.61113">
        <ele>538.3</ele>
        <time>2022-07-03T11:00:38Z</time>
      </trkpt>
      <trkpt lat="46.63742" lon="5.61104">
        <ele>539.1</ele>
        <time>2022-07-03T11:00:50Z</time>
      </trkpt>
      <trkpt lat="46.6374" lon="5.61098">
        <ele>539.1</ele>
        <time>2022-07-03T11:00:54Z</time>
      </trkpt>
      <trkpt lat="46.63737" lon="5.61092">
        <ele>539</ele>
        <time>2022-07-03T11:00:59Z</time>
      </trkpt>
      <trkpt lat="46.63734" lon="5.61086">
        <ele>539.3</ele>
        <time>2022-07-03T11:01:03Z</time>
      </trkpt>
      <trkpt lat="46.6373" lon="5.6108">
        <ele>539.6</ele>
        <time>2022-07-03T11:01:08Z</time>
      </trkpt>
      <trkpt lat="46.63727" lon="5.61075">
        <ele>539.7</ele>
        <time>2022-07-03T11:01:12Z</time>
      </trkpt>
      <trkpt lat="46.63725" lon="5.61068">
        <ele>539.6</ele>
        <time>2022-07-03T11:01:16Z</time>
      </trkpt>
      <trkpt lat="46.63724" lon="5.61061">
        <ele>539.2</ele>
        <time>2022-07-03T11:01:22Z</time>
      </trkpt>
      <trkpt lat="46.63723" lon="5.61053">
        <ele>539.3</ele>
        <time>2022-07-03T11:01:29Z</time>
      </trkpt>
      <trkpt lat="46.63724" lon="5.61046">
        <ele>537.5</ele>
        <time>2022-07-03T11:01:40Z</time>
      </trkpt>
      <trkpt lat="46.63723" lon="5.61038">
        <ele>536.4</ele>
        <time>2022-07-03T11:01:45Z</time>
      </trkpt>
      <trkpt lat="46.63722" lon="5.6103">
        <ele>535.3</ele>
        <time>2022-07-03T11:01:49Z</time>
      </trkpt>
      <trkpt lat="46.6372" lon="5.61024">
        <ele>535</ele>
        <time>2022-07-03T11:01:52Z</time>
      </trkpt>
      <trkpt lat="46.63717" lon="5.61018">
        <ele>535.1</ele>
        <time>2022-07-03T11:01:55Z</time>
      </trkpt>
      <trkpt lat="46.63713" lon="5.61012">
        <ele>536</ele>
        <time>2022-07-03T11:01:59Z</time>
      </trkpt>
      <trkpt lat="46.6371" lon="5.61007">
        <ele>536.9</ele>
        <time>2022-07-03T11:02:04Z</time>
      </trkpt>
      <trkpt lat="46.63707" lon="5.61002">
        <ele>535.7</ele>
        <time>2022-07-03T11:02:11Z</time>
      </trkpt>
      <trkpt lat="46.63706" lon="5.60995">
        <ele>534</ele>
        <time>2022-07-03T11:02:21Z</time>
      </trkpt>
      <trkpt lat="46.63706" lon="5.60987">
        <ele>534.2</ele>
        <time>2022-07-03T11:02:30Z</time>
      </trkpt>
      <trkpt lat="46.63709" lon="5.60981">
        <ele>534</ele>
        <time>2022-07-03T11:02:39Z</time>
      </trkpt>
      <trkpt lat="46.63707" lon="5.60973">
        <ele>533.2</ele>
        <time>2022-07-03T11:02:45Z</time>
      </trkpt>
      <trkpt lat="46.63707" lon="5.60965">
        <ele>532.8</ele>
        <time>2022-07-03T11:02:49Z</time>
      </trkpt>
      <trkpt lat="46.63708" lon="5.60958">
        <ele>532.8</ele>
        <time>2022-07-03T11:02:53Z</time>
      </trkpt>
      <trkpt lat="46.6371" lon="5.60953">
        <ele>533</ele>
        <time>2022-07-03T11:02:57Z</time>
      </trkpt>
      <trkpt lat="46.63714" lon="5.60949">
        <ele>533.6</ele>
        <time>2022-07-03T11:03:02Z</time>
      </trkpt>
      <trkpt lat="46.63719" lon="5.60946">
        <ele>533.8</ele>
        <time>2022-07-03T11:03:08Z</time>
      </trkpt>
      <trkpt lat="46.63723" lon="5.60943">
        <ele>534</ele>
        <time>2022-07-03T11:03:14Z</time>
      </trkpt>
      <trkpt lat="46.63727" lon="5.60938">
        <ele>534.5</ele>
        <time>2022-07-03T11:03:18Z</time>
      </trkpt>
      <trkpt lat="46.6373" lon="5.60932">
        <ele>535.7</ele>
        <time>2022-07-03T11:03:23Z</time>
      </trkpt>
      <trkpt lat="46.63734" lon="5.60928">
        <ele>536.8</ele>
        <time>2022-07-03T11:03:28Z</time>
      </trkpt>
      <trkpt lat="46.63739" lon="5.60926">
        <ele>537.7</ele>
        <time>2022-07-03T11:03:34Z</time>
      </trkpt>
      <trkpt lat="46.63742" lon="5.60921">
        <ele>538.4</ele>
        <time>2022-07-03T11:03:39Z</time>
      </trkpt>
      <trkpt lat="46.63745" lon="5.60916">
        <ele>539.6</ele>
        <time>2022-07-03T11:03:49Z</time>
      </trkpt>
      <trkpt lat="46.63751" lon="5.60912">
        <ele>539.8</ele>
        <time>2022-07-03T11:03:52Z</time>
      </trkpt>
      <trkpt lat="46.63755" lon="5.60907">
        <ele>540.1</ele>
        <time>2022-07-03T11:03:56Z</time>
      </trkpt>
      <trkpt lat="46.63759" lon="5.60903">
        <ele>540.3</ele>
        <time>2022-07-03T11:04:01Z</time>
      </trkpt>
      <trkpt lat="46.63764" lon="5.60899">
        <ele>541.4</ele>
        <time>2022-07-03T11:04:06Z</time>
      </trkpt>
      <trkpt lat="46.63769" lon="5.60895">
        <ele>542.4</ele>
        <time>2022-07-03T11:04:10Z</time>
      </trkpt>
      <trkpt lat="46.63773" lon="5.60893">
        <ele>544.2</ele>
        <time>2022-07-03T11:04:15Z</time>
      </trkpt>
      <trkpt lat="46.63777" lon="5.6089">
        <ele>545.4</ele>
        <time>2022-07-03T11:04:28Z</time>
      </trkpt>
      <trkpt lat="46.63781" lon="5.60885">
        <ele>545</ele>
        <time>2022-07-03T11:04:35Z</time>
      </trkpt>
      <trkpt lat="46.63786" lon="5.60882">
        <ele>544.5</ele>
        <time>2022-07-03T11:04:38Z</time>
      </trkpt>
      <trkpt lat="46.63791" lon="5.60881">
        <ele>544.2</ele>
        <time>2022-07-03T11:04:43Z</time>
      </trkpt>
      <trkpt lat="46.63796" lon="5.60881">
        <ele>544.1</ele>
        <time>2022-07-03T11:04:49Z</time>
      </trkpt>
      <trkpt lat="46.63799" lon="5.60875">
        <ele>544.8</ele>
        <time>2022-07-03T11:04:57Z</time>
      </trkpt>
      <trkpt lat="46.63804" lon="5.60872">
        <ele>543.3</ele>
        <time>2022-07-03T11:05:10Z</time>
      </trkpt>
      <trkpt lat="46.63808" lon="5.60869">
        <ele>541.9</ele>
        <time>2022-07-03T11:05:14Z</time>
      </trkpt>
      <trkpt lat="46.63814" lon="5.60866">
        <ele>540.5</ele>
        <time>2022-07-03T11:05:18Z</time>
      </trkpt>
      <trkpt lat="46.63819" lon="5.60865">
        <ele>539.5</ele>
        <time>2022-07-03T11:05:22Z</time>
      </trkpt>
      <trkpt lat="46.63823" lon="5.60863">
        <ele>538.2</ele>
        <time>2022-07-03T11:05:28Z</time>
      </trkpt>
      <trkpt lat="46.63829" lon="5.60861">
        <ele>536.4</ele>
        <time>2022-07-03T11:05:34Z</time>
      </trkpt>
      <trkpt lat="46.63834" lon="5.60859">
        <ele>536</ele>
        <time>2022-07-03T11:05:37Z</time>
      </trkpt>
      <trkpt lat="46.6384" lon="5.60858">
        <ele>535.9</ele>
        <time>2022-07-03T11:05:40Z</time>
      </trkpt>
      <trkpt lat="46.63845" lon="5.60857">
        <ele>536.3</ele>
        <time>2022-07-03T11:05:44Z</time>
      </trkpt>
      <trkpt lat="46.6385" lon="5.60855">
        <ele>536.9</ele>
        <time>2022-07-03T11:05:49Z</time>
      </trkpt>
      <trkpt lat="46.63855" lon="5.60853">
        <ele>537.5</ele>
        <time>2022-07-03T11:05:53Z</time>
      </trkpt>
      <trkpt lat="46.63859" lon="5.6085">
        <ele>538.6</ele>
        <time>2022-07-03T11:05:59Z</time>
      </trkpt>
      <trkpt lat="46.63864" lon="5.60847">
        <ele>539.8</ele>
        <time>2022-07-03T11:06:07Z</time>
      </trkpt>
      <trkpt lat="46.63869" lon="5.60846">
        <ele>539.8</ele>
        <time>2022-07-03T11:06:12Z</time>
      </trkpt>
      <trkpt lat="46.63874" lon="5.60846">
        <ele>539.5</ele>
        <time>2022-07-03T11:06:16Z</time>
      </trkpt>
      <trkpt lat="46.63879" lon="5.60847">
        <ele>539.6</ele>
        <time>2022-07-03T11:06:21Z</time>
      </trkpt>
      <trkpt lat="46.63884" lon="5.60845">
        <ele>540.2</ele>
        <time>2022-07-03T11:06:24Z</time>
      </trkpt>
      <trkpt lat="46.63888" lon="5.60842">
        <ele>541</ele>
        <time>2022-07-03T11:06:28Z</time>
      </trkpt>
      <trkpt lat="46.63893" lon="5.60839">
        <ele>542</ele>
        <time>2022-07-03T11:06:32Z</time>
      </trkpt>
      <trkpt lat="46.63898" lon="5.60838">
        <ele>543.4</ele>
        <time>2022-07-03T11:06:36Z</time>
      </trkpt>
      <trkpt lat="46.63903" lon="5.60837">
        <ele>545.3</ele>
        <time>2022-07-03T11:06:42Z</time>
      </trkpt>
      <trkpt lat="46.63907" lon="5.60835">
        <ele>545.9</ele>
        <time>2022-07-03T11:06:45Z</time>
      </trkpt>
      <trkpt lat="46.63912" lon="5.60834">
        <ele>546.1</ele>
        <time>2022-07-03T11:06:48Z</time>
      </trkpt>
      <trkpt lat="46.63917" lon="5.60835">
        <ele>546.3</ele>
        <time>2022-07-03T11:06:51Z</time>
      </trkpt>
      <trkpt lat="46.63922" lon="5.60835">
        <ele>546.5</ele>
        <time>2022-07-03T11:06:55Z</time>
      </trkpt>
      <trkpt lat="46.63927" lon="5.60835">
        <ele>546.2</ele>
        <time>2022-07-03T11:06:59Z</time>
      </trkpt>
      <trkpt lat="46.63932" lon="5.60835">
        <ele>545.5</ele>
        <time>2022-07-03T11:07:05Z</time>
      </trkpt>
      <trkpt lat="46.63936" lon="5.60836">
        <ele>544.7</ele>
        <time>2022-07-03T11:07:13Z</time>
      </trkpt>
      <trkpt lat="46.63941" lon="5.60834">
        <ele>544.3</ele>
        <time>2022-07-03T11:07:18Z</time>
      </trkpt>
      <trkpt lat="46.63946" lon="5.60833">
        <ele>543.7</ele>
        <time>2022-07-03T11:07:27Z</time>
      </trkpt>
      <trkpt lat="46.63951" lon="5.60834">
        <ele>543.7</ele>
        <time>2022-07-03T11:07:31Z</time>
      </trkpt>
      <trkpt lat="46.63957" lon="5.60833">
        <ele>544.6</ele>
        <time>2022-07-03T11:07:35Z</time>
      </trkpt>
      <trkpt lat="46.63961" lon="5.60832">
        <ele>545.3</ele>
        <time>2022-07-03T11:07:39Z</time>
      </trkpt>
      <trkpt lat="46.63966" lon="5.6083">
        <ele>545.8</ele>
        <time>2022-07-03T11:07:44Z</time>
      </trkpt>
      <trkpt lat="46.63971" lon="5.60828">
        <ele>541.3</ele>
        <time>2022-07-03T11:07:59Z</time>
      </trkpt>
      <trkpt lat="46.63976" lon="5.6083">
        <ele>539.7</ele>
        <time>2022-07-03T11:08:03Z</time>
      </trkpt>
      <trkpt lat="46.6398" lon="5.60833">
        <ele>537.3</ele>
        <time>2022-07-03T11:08:07Z</time>
      </trkpt>
      <trkpt lat="46.63986" lon="5.60832">
        <ele>536.2</ele>
        <time>2022-07-03T11:08:10Z</time>
      </trkpt>
      <trkpt lat="46.63992" lon="5.6083">
        <ele>535.3</ele>
        <time>2022-07-03T11:08:13Z</time>
      </trkpt>
      <trkpt lat="46.63998" lon="5.60828">
        <ele>534.8</ele>
        <time>2022-07-03T11:08:16Z</time>
      </trkpt>
      <trkpt lat="46.64003" lon="5.60828">
        <ele>534.1</ele>
        <time>2022-07-03T11:08:20Z</time>
      </trkpt>
      <trkpt lat="46.64006" lon="5.60823">
        <ele>531.1</ele>
        <time>2022-07-03T11:08:30Z</time>
      </trkpt>
      <trkpt lat="46.64011" lon="5.6082">
        <ele>530.3</ele>
        <time>2022-07-03T11:08:36Z</time>
      </trkpt>
      <trkpt lat="46.64017" lon="5.60815">
        <ele>531.5</ele>
        <time>2022-07-03T11:08:39Z</time>
      </trkpt>
      <trkpt lat="46.64021" lon="5.60812">
        <ele>532.3</ele>
        <time>2022-07-03T11:08:42Z</time>
      </trkpt>
      <trkpt lat="46.64028" lon="5.60811">
        <ele>532.2</ele>
        <time>2022-07-03T11:08:50Z</time>
      </trkpt>
      <trkpt lat="46.64032" lon="5.60816">
        <ele>532.2</ele>
        <time>2022-07-03T11:08:54Z</time>
      </trkpt>
      <trkpt lat="46.64036" lon="5.60823">
        <ele>531.7</ele>
        <time>2022-07-03T11:09:00Z</time>
      </trkpt>
      <trkpt lat="46.6404" lon="5.60825">
        <ele>531.2</ele>
        <time>2022-07-03T11:09:04Z</time>
      </trkpt>
      <trkpt lat="46.64045" lon="5.60829">
        <ele>529.6</ele>
        <time>2022-07-03T11:09:07Z</time>
      </trkpt>
      <trkpt lat="46.6405" lon="5.60827">
        <ele>527.3</ele>
        <time>2022-07-03T11:09:14Z</time>
      </trkpt>
      <trkpt lat="46.64053" lon="5.60821">
        <ele>527.9</ele>
        <time>2022-07-03T11:09:17Z</time>
      </trkpt>
      <trkpt lat="46.64056" lon="5.60816">
        <ele>529.7</ele>
        <time>2022-07-03T11:09:20Z</time>
      </trkpt>
      <trkpt lat="46.6406" lon="5.60812">
        <ele>531.6</ele>
        <time>2022-07-03T11:09:24Z</time>
      </trkpt>
      <trkpt lat="46.64066" lon="5.60813">
        <ele>533.8</ele>
        <time>2022-07-03T11:09:29Z</time>
      </trkpt>
      <trkpt lat="46.64071" lon="5.60814">
        <ele>534.1</ele>
        <time>2022-07-03T11:09:34Z</time>
      </trkpt>
      <trkpt lat="46.64077" lon="5.60814">
        <ele>533.4</ele>
        <time>2022-07-03T11:09:40Z</time>
      </trkpt>
      <trkpt lat="46.64082" lon="5.60817">
        <ele>531.5</ele>
        <time>2022-07-03T11:09:51Z</time>
      </trkpt>
      <trkpt lat="46.64086" lon="5.60817">
        <ele>531</ele>
        <time>2022-07-03T11:09:55Z</time>
      </trkpt>
      <trkpt lat="46.64091" lon="5.60816">
        <ele>530.4</ele>
        <time>2022-07-03T11:09:59Z</time>
      </trkpt>
      <trkpt lat="46.64096" lon="5.60817">
        <ele>529.8</ele>
        <time>2022-07-03T11:10:05Z</time>
      </trkpt>
      <trkpt lat="46.64101" lon="5.60818">
        <ele>529.6</ele>
        <time>2022-07-03T11:10:09Z</time>
      </trkpt>
      <trkpt lat="46.64105" lon="5.60816">
        <ele>529.5</ele>
        <time>2022-07-03T11:10:14Z</time>
      </trkpt>
      <trkpt lat="46.6411" lon="5.60813">
        <ele>529.6</ele>
        <time>2022-07-03T11:10:21Z</time>
      </trkpt>
      <trkpt lat="46.64114" lon="5.60811">
        <ele>529.6</ele>
        <time>2022-07-03T11:10:25Z</time>
      </trkpt>
      <trkpt lat="46.6412" lon="5.60809">
        <ele>529.5</ele>
        <time>2022-07-03T11:10:29Z</time>
      </trkpt>
      <trkpt lat="46.64126" lon="5.60809">
        <ele>529.4</ele>
        <time>2022-07-03T11:10:34Z</time>
      </trkpt>
      <trkpt lat="46.6413" lon="5.60807">
        <ele>529.3</ele>
        <time>2022-07-03T11:10:38Z</time>
      </trkpt>
      <trkpt lat="46.64135" lon="5.60805">
        <ele>529</ele>
        <time>2022-07-03T11:10:45Z</time>
      </trkpt>
      <trkpt lat="46.64139" lon="5.60805">
        <ele>528.6</ele>
        <time>2022-07-03T11:10:50Z</time>
      </trkpt>
      <trkpt lat="46.64145" lon="5.60807">
        <ele>528.3</ele>
        <time>2022-07-03T11:10:54Z</time>
      </trkpt>
      <trkpt lat="46.64149" lon="5.60808">
        <ele>528.6</ele>
        <time>2022-07-03T11:10:58Z</time>
      </trkpt>
      <trkpt lat="46.64154" lon="5.60809">
        <ele>529.6</ele>
        <time>2022-07-03T11:11:03Z</time>
      </trkpt>
      <trkpt lat="46.64158" lon="5.60807">
        <ele>531.1</ele>
        <time>2022-07-03T11:11:08Z</time>
      </trkpt>
      <trkpt lat="46.64163" lon="5.60806">
        <ele>532.9</ele>
        <time>2022-07-03T11:11:13Z</time>
      </trkpt>
      <trkpt lat="46.64167" lon="5.60809">
        <ele>533.8</ele>
        <time>2022-07-03T11:11:18Z</time>
      </trkpt>
      <trkpt lat="46.64173" lon="5.6081">
        <ele>534.2</ele>
        <time>2022-07-03T11:11:22Z</time>
      </trkpt>
      <trkpt lat="46.64178" lon="5.60809">
        <ele>534.5</ele>
        <time>2022-07-03T11:11:27Z</time>
      </trkpt>
      <trkpt lat="46.64183" lon="5.60807">
        <ele>534.4</ele>
        <time>2022-07-03T11:11:32Z</time>
      </trkpt>
      <trkpt lat="46.64188" lon="5.60807">
        <ele>533.4</ele>
        <time>2022-07-03T11:11:37Z</time>
      </trkpt>
      <trkpt lat="46.64193" lon="5.60809">
        <ele>532.1</ele>
        <time>2022-07-03T11:11:41Z</time>
      </trkpt>
      <trkpt lat="46.64198" lon="5.60807">
        <ele>534</ele>
        <time>2022-07-03T11:12:43Z</time>
      </trkpt>
      <trkpt lat="46.64203" lon="5.60808">
        <ele>535</ele>
        <time>2022-07-03T11:12:48Z</time>
      </trkpt>
      <trkpt lat="46.64207" lon="5.60808">
        <ele>534</ele>
        <time>2022-07-03T11:12:56Z</time>
      </trkpt>
      <trkpt lat="46.64213" lon="5.60809">
        <ele>531.4</ele>
        <time>2022-07-03T11:13:01Z</time>
      </trkpt>
      <trkpt lat="46.64217" lon="5.6081">
        <ele>529.3</ele>
        <time>2022-07-03T11:13:05Z</time>
      </trkpt>
      <trkpt lat="46.64223" lon="5.60809">
        <ele>527.5</ele>
        <time>2022-07-03T11:13:14Z</time>
      </trkpt>
      <trkpt lat="46.64227" lon="5.6081">
        <ele>527</ele>
        <time>2022-07-03T11:13:19Z</time>
      </trkpt>
      <trkpt lat="46.64233" lon="5.60811">
        <ele>526.4</ele>
        <time>2022-07-03T11:13:23Z</time>
      </trkpt>
      <trkpt lat="46.64239" lon="5.60812">
        <ele>525.9</ele>
        <time>2022-07-03T11:13:27Z</time>
      </trkpt>
      <trkpt lat="46.64244" lon="5.60812">
        <ele>525.6</ele>
        <time>2022-07-03T11:13:31Z</time>
      </trkpt>
      <trkpt lat="46.64248" lon="5.60811">
        <ele>525.7</ele>
        <time>2022-07-03T11:13:36Z</time>
      </trkpt>
      <trkpt lat="46.64252" lon="5.60807">
        <ele>526.2</ele>
        <time>2022-07-03T11:13:43Z</time>
      </trkpt>
      <trkpt lat="46.64257" lon="5.60804">
        <ele>526.2</ele>
        <time>2022-07-03T11:13:50Z</time>
      </trkpt>
      <trkpt lat="46.64261" lon="5.60802">
        <ele>526.6</ele>
        <time>2022-07-03T11:13:58Z</time>
      </trkpt>
      <trkpt lat="46.64266" lon="5.60803">
        <ele>526.6</ele>
        <time>2022-07-03T11:14:02Z</time>
      </trkpt>
      <trkpt lat="46.64271" lon="5.60806">
        <ele>526.9</ele>
        <time>2022-07-03T11:14:06Z</time>
      </trkpt>
      <trkpt lat="46.64276" lon="5.60808">
        <ele>526.8</ele>
        <time>2022-07-03T11:14:10Z</time>
      </trkpt>
      <trkpt lat="46.64281" lon="5.60809">
        <ele>526.2</ele>
        <time>2022-07-03T11:14:14Z</time>
      </trkpt>
      <trkpt lat="46.64285" lon="5.6081">
        <ele>525.5</ele>
        <time>2022-07-03T11:14:19Z</time>
      </trkpt>
      <trkpt lat="46.6429" lon="5.60813">
        <ele>524.8</ele>
        <time>2022-07-03T11:14:22Z</time>
      </trkpt>
      <trkpt lat="46.64295" lon="5.60812">
        <ele>524.1</ele>
        <time>2022-07-03T11:14:27Z</time>
      </trkpt>
      <trkpt lat="46.643" lon="5.60811">
        <ele>523.7</ele>
        <time>2022-07-03T11:14:33Z</time>
      </trkpt>
      <trkpt lat="46.64305" lon="5.6081">
        <ele>523.2</ele>
        <time>2022-07-03T11:14:40Z</time>
      </trkpt>
      <trkpt lat="46.6431" lon="5.60809">
        <ele>523.2</ele>
        <time>2022-07-03T11:14:44Z</time>
      </trkpt>
      <trkpt lat="46.64315" lon="5.60807">
        <ele>523.3</ele>
        <time>2022-07-03T11:14:48Z</time>
      </trkpt>
      <trkpt lat="46.64319" lon="5.60805">
        <ele>523.4</ele>
        <time>2022-07-03T11:14:55Z</time>
      </trkpt>
      <trkpt lat="46.64324" lon="5.60803">
        <ele>523.1</ele>
        <time>2022-07-03T11:15:03Z</time>
      </trkpt>
      <trkpt lat="46.64328" lon="5.60804">
        <ele>522.5</ele>
        <time>2022-07-03T11:15:10Z</time>
      </trkpt>
      <trkpt lat="46.64334" lon="5.60805">
        <ele>522.3</ele>
        <time>2022-07-03T11:15:16Z</time>
      </trkpt>
      <trkpt lat="46.64339" lon="5.60805">
        <ele>522.1</ele>
        <time>2022-07-03T11:15:21Z</time>
      </trkpt>
      <trkpt lat="46.64344" lon="5.60806">
        <ele>522</ele>
        <time>2022-07-03T11:15:24Z</time>
      </trkpt>
      <trkpt lat="46.64348" lon="5.60812">
        <ele>520.4</ele>
        <time>2022-07-03T11:15:41Z</time>
      </trkpt>
      <trkpt lat="46.6435" lon="5.60818">
        <ele>519.6</ele>
        <time>2022-07-03T11:15:47Z</time>
      </trkpt>
      <trkpt lat="46.64347" lon="5.60812">
        <ele>518.3</ele>
        <time>2022-07-03T11:16:18Z</time>
      </trkpt>
      <trkpt lat="46.64348" lon="5.60805">
        <ele>518.5</ele>
        <time>2022-07-03T11:16:21Z</time>
      </trkpt>
      <trkpt lat="46.64344" lon="5.60801">
        <ele>519.1</ele>
        <time>2022-07-03T11:16:27Z</time>
      </trkpt>
      <trkpt lat="46.64347" lon="5.60807">
        <ele>520</ele>
        <time>2022-07-03T11:16:33Z</time>
      </trkpt>
      <trkpt lat="46.64351" lon="5.6081">
        <ele>521.5</ele>
        <time>2022-07-03T11:16:43Z</time>
      </trkpt>
      <trkpt lat="46.64357" lon="5.6081">
        <ele>523.1</ele>
        <time>2022-07-03T11:17:02Z</time>
      </trkpt>
      <trkpt lat="46.64362" lon="5.60807">
        <ele>522.1</ele>
        <time>2022-07-03T11:17:11Z</time>
      </trkpt>
      <trkpt lat="46.64367" lon="5.60807">
        <ele>523</ele>
        <time>2022-07-03T11:17:34Z</time>
      </trkpt>
      <trkpt lat="46.64363" lon="5.608">
        <ele>522.6</ele>
        <time>2022-07-03T11:17:39Z</time>
      </trkpt>
      <trkpt lat="46.64368" lon="5.608">
        <ele>521.7</ele>
        <time>2022-07-03T11:17:53Z</time>
      </trkpt>
      <trkpt lat="46.64373" lon="5.60801">
        <ele>521.6</ele>
        <time>2022-07-03T11:17:56Z</time>
      </trkpt>
      <trkpt lat="46.64377" lon="5.608">
        <ele>521.5</ele>
        <time>2022-07-03T11:17:59Z</time>
      </trkpt>
      <trkpt lat="46.64383" lon="5.60799">
        <ele>521.5</ele>
        <time>2022-07-03T11:18:03Z</time>
      </trkpt>
      <trkpt lat="46.64388" lon="5.60799">
        <ele>521.7</ele>
        <time>2022-07-03T11:18:07Z</time>
      </trkpt>
      <trkpt lat="46.64393" lon="5.60798">
        <ele>521.9</ele>
        <time>2022-07-03T11:18:15Z</time>
      </trkpt>
      <trkpt lat="46.64398" lon="5.60797">
        <ele>521.6</ele>
        <time>2022-07-03T11:18:19Z</time>
      </trkpt>
      <trkpt lat="46.64402" lon="5.60796">
        <ele>521.4</ele>
        <time>2022-07-03T11:18:22Z</time>
      </trkpt>
      <trkpt lat="46.64407" lon="5.60797">
        <ele>521.2</ele>
        <time>2022-07-03T11:18:26Z</time>
      </trkpt>
      <trkpt lat="46.64412" lon="5.60798">
        <ele>520.7</ele>
        <time>2022-07-03T11:18:31Z</time>
      </trkpt>
      <trkpt lat="46.64417" lon="5.60799">
        <ele>520.2</ele>
        <time>2022-07-03T11:18:35Z</time>
      </trkpt>
      <trkpt lat="46.64422" lon="5.60798">
        <ele>519.8</ele>
        <time>2022-07-03T11:18:39Z</time>
      </trkpt>
      <trkpt lat="46.64427" lon="5.60795">
        <ele>519.3</ele>
        <time>2022-07-03T11:18:44Z</time>
      </trkpt>
      <trkpt lat="46.64432" lon="5.60795">
        <ele>519.1</ele>
        <time>2022-07-03T11:18:50Z</time>
      </trkpt>
      <trkpt lat="46.64436" lon="5.60795">
        <ele>519.1</ele>
        <time>2022-07-03T11:18:55Z</time>
      </trkpt>
      <trkpt lat="46.64441" lon="5.60795">
        <ele>519.3</ele>
        <time>2022-07-03T11:19:00Z</time>
      </trkpt>
      <trkpt lat="46.64446" lon="5.60798">
        <ele>518.8</ele>
        <time>2022-07-03T11:19:04Z</time>
      </trkpt>
      <trkpt lat="46.64451" lon="5.608">
        <ele>518.2</ele>
        <time>2022-07-03T11:19:08Z</time>
      </trkpt>
      <trkpt lat="46.64455" lon="5.60802">
        <ele>515.9</ele>
        <time>2022-07-03T11:19:20Z</time>
      </trkpt>
      <trkpt lat="46.6446" lon="5.608">
        <ele>515.8</ele>
        <time>2022-07-03T11:19:25Z</time>
      </trkpt>
      <trkpt lat="46.64465" lon="5.60802">
        <ele>515.7</ele>
        <time>2022-07-03T11:19:31Z</time>
      </trkpt>
      <trkpt lat="46.6447" lon="5.60806">
        <ele>515.6</ele>
        <time>2022-07-03T11:19:36Z</time>
      </trkpt>
      <trkpt lat="46.64475" lon="5.60807">
        <ele>515.5</ele>
        <time>2022-07-03T11:19:39Z</time>
      </trkpt>
      <trkpt lat="46.6448" lon="5.60809">
        <ele>515.5</ele>
        <time>2022-07-03T11:19:43Z</time>
      </trkpt>
      <trkpt lat="46.64484" lon="5.60812">
        <ele>515.1</ele>
        <time>2022-07-03T11:19:48Z</time>
      </trkpt>
      <trkpt lat="46.64489" lon="5.60815">
        <ele>514.6</ele>
        <time>2022-07-03T11:19:52Z</time>
      </trkpt>
      <trkpt lat="46.64494" lon="5.60817">
        <ele>513.8</ele>
        <time>2022-07-03T11:19:57Z</time>
      </trkpt>
      <trkpt lat="46.64499" lon="5.60819">
        <ele>513.1</ele>
        <time>2022-07-03T11:20:00Z</time>
      </trkpt>
      <trkpt lat="46.64504" lon="5.60823">
        <ele>512.1</ele>
        <time>2022-07-03T11:20:05Z</time>
      </trkpt>
      <trkpt lat="46.64508" lon="5.60826">
        <ele>512</ele>
        <time>2022-07-03T11:20:09Z</time>
      </trkpt>
      <trkpt lat="46.64512" lon="5.6083">
        <ele>512.5</ele>
        <time>2022-07-03T11:20:16Z</time>
      </trkpt>
      <trkpt lat="46.64518" lon="5.60833">
        <ele>512.5</ele>
        <time>2022-07-03T11:20:22Z</time>
      </trkpt>
      <trkpt lat="46.64525" lon="5.60835">
        <ele>512.5</ele>
        <time>2022-07-03T11:20:25Z</time>
      </trkpt>
      <trkpt lat="46.64531" lon="5.60836">
        <ele>512.4</ele>
        <time>2022-07-03T11:20:28Z</time>
      </trkpt>
      <trkpt lat="46.64537" lon="5.60836">
        <ele>512.7</ele>
        <time>2022-07-03T11:20:31Z</time>
      </trkpt>
      <trkpt lat="46.64543" lon="5.60836">
        <ele>513.1</ele>
        <time>2022-07-03T11:20:34Z</time>
      </trkpt>
      <trkpt lat="46.64548" lon="5.60836">
        <ele>513.5</ele>
        <time>2022-07-03T11:20:37Z</time>
      </trkpt>
      <trkpt lat="46.64553" lon="5.60836">
        <ele>514.5</ele>
        <time>2022-07-03T11:20:42Z</time>
      </trkpt>
      <trkpt lat="46.64558" lon="5.60837">
        <ele>515.8</ele>
        <time>2022-07-03T11:20:48Z</time>
      </trkpt>
      <trkpt lat="46.64561" lon="5.60842">
        <ele>517.2</ele>
        <time>2022-07-03T11:20:58Z</time>
      </trkpt>
      <trkpt lat="46.64566" lon="5.60845">
        <ele>516.9</ele>
        <time>2022-07-03T11:21:02Z</time>
      </trkpt>
      <trkpt lat="46.6457" lon="5.60846">
        <ele>516.9</ele>
        <time>2022-07-03T11:21:05Z</time>
      </trkpt>
      <trkpt lat="46.64575" lon="5.6085">
        <ele>517</ele>
        <time>2022-07-03T11:21:09Z</time>
      </trkpt>
      <trkpt lat="46.64579" lon="5.60855">
        <ele>517</ele>
        <time>2022-07-03T11:21:14Z</time>
      </trkpt>
      <trkpt lat="46.64581" lon="5.60862">
        <ele>516.3</ele>
        <time>2022-07-03T11:21:21Z</time>
      </trkpt>
      <trkpt lat="46.64584" lon="5.60867">
        <ele>516</ele>
        <time>2022-07-03T11:21:25Z</time>
      </trkpt>
      <trkpt lat="46.64588" lon="5.60873">
        <ele>515.8</ele>
        <time>2022-07-03T11:21:29Z</time>
      </trkpt>
      <trkpt lat="46.64592" lon="5.60878">
        <ele>515.3</ele>
        <time>2022-07-03T11:21:33Z</time>
      </trkpt>
      <trkpt lat="46.64595" lon="5.60884">
        <ele>514.5</ele>
        <time>2022-07-03T11:21:38Z</time>
      </trkpt>
      <trkpt lat="46.64595" lon="5.60891">
        <ele>512.8</ele>
        <time>2022-07-03T11:21:46Z</time>
      </trkpt>
      <trkpt lat="46.64596" lon="5.60898">
        <ele>512.2</ele>
        <time>2022-07-03T11:21:54Z</time>
      </trkpt>
      <trkpt lat="46.64598" lon="5.60905">
        <ele>512.1</ele>
        <time>2022-07-03T11:22:00Z</time>
      </trkpt>
      <trkpt lat="46.64598" lon="5.60912">
        <ele>512.8</ele>
        <time>2022-07-03T11:22:05Z</time>
      </trkpt>
      <trkpt lat="46.64601" lon="5.60919">
        <ele>513.1</ele>
        <time>2022-07-03T11:22:10Z</time>
      </trkpt>
      <trkpt lat="46.646" lon="5.60925">
        <ele>512.5</ele>
        <time>2022-07-03T11:22:19Z</time>
      </trkpt>
      <trkpt lat="46.64604" lon="5.6093">
        <ele>511.5</ele>
        <time>2022-07-03T11:22:27Z</time>
      </trkpt>
      <trkpt lat="46.64602" lon="5.60937">
        <ele>511.4</ele>
        <time>2022-07-03T11:22:36Z</time>
      </trkpt>
      <trkpt lat="46.64599" lon="5.60943">
        <ele>511.1</ele>
        <time>2022-07-03T11:22:41Z</time>
      </trkpt>
      <trkpt lat="46.64601" lon="5.60935">
        <ele>511.7</ele>
        <time>2022-07-03T11:22:53Z</time>
      </trkpt>
      <trkpt lat="46.64602" lon="5.60928">
        <ele>514</ele>
        <time>2022-07-03T11:23:06Z</time>
      </trkpt>
      <trkpt lat="46.64605" lon="5.60922">
        <ele>513.9</ele>
        <time>2022-07-03T11:23:09Z</time>
      </trkpt>
      <trkpt lat="46.6461" lon="5.60919">
        <ele>513.5</ele>
        <time>2022-07-03T11:23:14Z</time>
      </trkpt>
      <trkpt lat="46.64615" lon="5.60917">
        <ele>512.8</ele>
        <time>2022-07-03T11:23:19Z</time>
      </trkpt>
      <trkpt lat="46.64613" lon="5.60925">
        <ele>512.7</ele>
        <time>2022-07-03T11:23:34Z</time>
      </trkpt>
      <trkpt lat="46.64608" lon="5.6093">
        <ele>513</ele>
        <time>2022-07-03T11:23:37Z</time>
      </trkpt>
      <trkpt lat="46.64603" lon="5.60931">
        <ele>513.7</ele>
        <time>2022-07-03T11:23:41Z</time>
      </trkpt>
      <trkpt lat="46.64598" lon="5.60931">
        <ele>514.5</ele>
        <time>2022-07-03T11:23:45Z</time>
      </trkpt>
      <trkpt lat="46.64596" lon="5.60926">
        <ele>514.9</ele>
        <time>2022-07-03T11:23:50Z</time>
      </trkpt>
      <trkpt lat="46.64596" lon="5.60918">
        <ele>513</ele>
        <time>2022-07-03T11:23:59Z</time>
      </trkpt>
      <trkpt lat="46.64599" lon="5.60924">
        <ele>512.6</ele>
        <time>2022-07-03T11:24:30Z</time>
      </trkpt>
      <trkpt lat="46.64603" lon="5.60928">
        <ele>516.2</ele>
        <time>2022-07-03T11:25:41Z</time>
      </trkpt>
      <trkpt lat="46.64598" lon="5.6093">
        <ele>519</ele>
        <time>2022-07-03T11:26:09Z</time>
      </trkpt>
      <trkpt lat="46.64601" lon="5.60935">
        <ele>517.2</ele>
        <time>2022-07-03T11:26:33Z</time>
      </trkpt>
      <trkpt lat="46.64605" lon="5.60939">
        <ele>517.1</ele>
        <time>2022-07-03T11:26:36Z</time>
      </trkpt>
      <trkpt lat="46.64607" lon="5.60945">
        <ele>515.8</ele>
        <time>2022-07-03T11:26:41Z</time>
      </trkpt>
      <trkpt lat="46.64604" lon="5.6094">
        <ele>513.5</ele>
        <time>2022-07-03T11:26:47Z</time>
      </trkpt>
      <trkpt lat="46.64599" lon="5.60939">
        <ele>512.8</ele>
        <time>2022-07-03T11:26:52Z</time>
      </trkpt>
      <trkpt lat="46.64594" lon="5.60939">
        <ele>512.8</ele>
        <time>2022-07-03T11:26:56Z</time>
      </trkpt>
      <trkpt lat="46.64589" lon="5.6094">
        <ele>513</ele>
        <time>2022-07-03T11:27:00Z</time>
      </trkpt>
      <trkpt lat="46.64584" lon="5.60944">
        <ele>512.5</ele>
        <time>2022-07-03T11:27:04Z</time>
      </trkpt>
      <trkpt lat="46.6458" lon="5.6095">
        <ele>512.1</ele>
        <time>2022-07-03T11:27:11Z</time>
      </trkpt>
      <trkpt lat="46.64577" lon="5.60955">
        <ele>512.4</ele>
        <time>2022-07-03T11:27:16Z</time>
      </trkpt>
      <trkpt lat="46.64572" lon="5.60955">
        <ele>514.7</ele>
        <time>2022-07-03T11:27:37Z</time>
      </trkpt>
      <trkpt lat="46.64577" lon="5.60952">
        <ele>518.6</ele>
        <time>2022-07-03T11:27:49Z</time>
      </trkpt>
      <trkpt lat="46.64575" lon="5.60959">
        <ele>521.7</ele>
        <time>2022-07-03T11:27:59Z</time>
      </trkpt>
      <trkpt lat="46.64572" lon="5.60966">
        <ele>522.4</ele>
        <time>2022-07-03T11:28:03Z</time>
      </trkpt>
      <trkpt lat="46.6457" lon="5.60973">
        <ele>523.2</ele>
        <time>2022-07-03T11:28:09Z</time>
      </trkpt>
      <trkpt lat="46.64566" lon="5.60978">
        <ele>523.5</ele>
        <time>2022-07-03T11:28:14Z</time>
      </trkpt>
      <trkpt lat="46.64564" lon="5.60984">
        <ele>524.5</ele>
        <time>2022-07-03T11:28:19Z</time>
      </trkpt>
      <trkpt lat="46.64563" lon="5.60992">
        <ele>525.2</ele>
        <time>2022-07-03T11:28:24Z</time>
      </trkpt>
      <trkpt lat="46.64563" lon="5.60999">
        <ele>526.4</ele>
        <time>2022-07-03T11:28:29Z</time>
      </trkpt>
      <trkpt lat="46.64563" lon="5.61006">
        <ele>527.9</ele>
        <time>2022-07-03T11:28:33Z</time>
      </trkpt>
      <trkpt lat="46.64559" lon="5.61012">
        <ele>529.7</ele>
        <time>2022-07-03T11:28:37Z</time>
      </trkpt>
      <trkpt lat="46.64555" lon="5.61017">
        <ele>531.4</ele>
        <time>2022-07-03T11:28:41Z</time>
      </trkpt>
      <trkpt lat="46.64553" lon="5.61024">
        <ele>532.8</ele>
        <time>2022-07-03T11:28:45Z</time>
      </trkpt>
      <trkpt lat="46.64549" lon="5.61029">
        <ele>533.7</ele>
        <time>2022-07-03T11:28:48Z</time>
      </trkpt>
      <trkpt lat="46.64545" lon="5.61033">
        <ele>535.1</ele>
        <time>2022-07-03T11:28:51Z</time>
      </trkpt>
      <trkpt lat="46.64541" lon="5.61038">
        <ele>537.2</ele>
        <time>2022-07-03T11:28:56Z</time>
      </trkpt>
      <trkpt lat="46.64538" lon="5.61044">
        <ele>539</ele>
        <time>2022-07-03T11:29:01Z</time>
      </trkpt>
      <trkpt lat="46.64536" lon="5.6105">
        <ele>541.2</ele>
        <time>2022-07-03T11:29:07Z</time>
      </trkpt>
      <trkpt lat="46.64535" lon="5.61058">
        <ele>541.9</ele>
        <time>2022-07-03T11:29:10Z</time>
      </trkpt>
      <trkpt lat="46.64535" lon="5.61065">
        <ele>542.4</ele>
        <time>2022-07-03T11:29:13Z</time>
      </trkpt>
      <trkpt lat="46.64535" lon="5.61072">
        <ele>542.7</ele>
        <time>2022-07-03T11:29:17Z</time>
      </trkpt>
      <trkpt lat="46.64534" lon="5.61079">
        <ele>542.7</ele>
        <time>2022-07-03T11:29:21Z</time>
      </trkpt>
      <trkpt lat="46.64535" lon="5.61086">
        <ele>541.7</ele>
        <time>2022-07-03T11:29:26Z</time>
      </trkpt>
      <trkpt lat="46.64538" lon="5.61091">
        <ele>540.1</ele>
        <time>2022-07-03T11:29:36Z</time>
      </trkpt>
      <trkpt lat="46.64542" lon="5.61093">
        <ele>537.7</ele>
        <time>2022-07-03T11:29:45Z</time>
      </trkpt>
      <trkpt lat="46.64542" lon="5.61101">
        <ele>535.5</ele>
        <time>2022-07-03T11:29:59Z</time>
      </trkpt>
      <trkpt lat="46.64538" lon="5.61095">
        <ele>534.6</ele>
        <time>2022-07-03T11:30:24Z</time>
      </trkpt>
      <trkpt lat="46.64544" lon="5.61095">
        <ele>539.8</ele>
        <time>2022-07-03T11:30:51Z</time>
      </trkpt>
      <trkpt lat="46.64547" lon="5.61098">
        <ele>534.3</ele>
        <time>2022-07-03T11:31:15Z</time>
      </trkpt>
      <trkpt lat="46.64552" lon="5.61097">
        <ele>531.7</ele>
        <time>2022-07-03T11:31:20Z</time>
      </trkpt>
      <trkpt lat="46.64548" lon="5.61092">
        <ele>525.2</ele>
        <time>2022-07-03T11:31:29Z</time>
      </trkpt>
      <trkpt lat="46.64551" lon="5.61098">
        <ele>524.4</ele>
        <time>2022-07-03T11:31:39Z</time>
      </trkpt>
      <trkpt lat="46.64555" lon="5.61102">
        <ele>525.4</ele>
        <time>2022-07-03T11:31:45Z</time>
      </trkpt>
      <trkpt lat="46.64551" lon="5.61098">
        <ele>527.4</ele>
        <time>2022-07-03T11:32:27Z</time>
      </trkpt>
      <trkpt lat="46.64546" lon="5.61098">
        <ele>527.6</ele>
        <time>2022-07-03T11:32:32Z</time>
      </trkpt>
      <trkpt lat="46.64548" lon="5.61104">
        <ele>528.9</ele>
        <time>2022-07-03T11:32:39Z</time>
      </trkpt>
      <trkpt lat="46.64552" lon="5.61107">
        <ele>529.8</ele>
        <time>2022-07-03T11:32:42Z</time>
      </trkpt>
      <trkpt lat="46.64555" lon="5.61101">
        <ele>535.8</ele>
        <time>2022-07-03T11:33:09Z</time>
      </trkpt>
      <trkpt lat="46.64558" lon="5.61096">
        <ele>535.5</ele>
        <time>2022-07-03T11:33:13Z</time>
      </trkpt>
      <trkpt lat="46.64564" lon="5.61094">
        <ele>534.8</ele>
        <time>2022-07-03T11:33:17Z</time>
      </trkpt>
      <trkpt lat="46.64569" lon="5.61094">
        <ele>534.3</ele>
        <time>2022-07-03T11:33:20Z</time>
      </trkpt>
      <trkpt lat="46.64573" lon="5.61093">
        <ele>533.2</ele>
        <time>2022-07-03T11:33:26Z</time>
      </trkpt>
      <trkpt lat="46.64578" lon="5.61092">
        <ele>531.9</ele>
        <time>2022-07-03T11:33:32Z</time>
      </trkpt>
      <trkpt lat="46.64583" lon="5.61093">
        <ele>531.1</ele>
        <time>2022-07-03T11:33:37Z</time>
      </trkpt>
      <trkpt lat="46.64589" lon="5.61093">
        <ele>531.2</ele>
        <time>2022-07-03T11:33:41Z</time>
      </trkpt>
      <trkpt lat="46.64593" lon="5.61093">
        <ele>531.6</ele>
        <time>2022-07-03T11:33:46Z</time>
      </trkpt>
      <trkpt lat="46.64599" lon="5.61092">
        <ele>532.4</ele>
        <time>2022-07-03T11:33:51Z</time>
      </trkpt>
      <trkpt lat="46.64603" lon="5.61088">
        <ele>532.7</ele>
        <time>2022-07-03T11:33:57Z</time>
      </trkpt>
      <trkpt lat="46.64607" lon="5.61083">
        <ele>533</ele>
        <time>2022-07-03T11:34:02Z</time>
      </trkpt>
      <trkpt lat="46.64612" lon="5.61079">
        <ele>533.2</ele>
        <time>2022-07-03T11:34:07Z</time>
      </trkpt>
      <trkpt lat="46.64615" lon="5.61074">
        <ele>533.7</ele>
        <time>2022-07-03T11:34:12Z</time>
      </trkpt>
      <trkpt lat="46.64619" lon="5.6107">
        <ele>534.4</ele>
        <time>2022-07-03T11:34:16Z</time>
      </trkpt>
      <trkpt lat="46.64622" lon="5.61064">
        <ele>535.2</ele>
        <time>2022-07-03T11:34:21Z</time>
      </trkpt>
      <trkpt lat="46.64627" lon="5.6106">
        <ele>535.2</ele>
        <time>2022-07-03T11:34:27Z</time>
      </trkpt>
      <trkpt lat="46.64631" lon="5.61056">
        <ele>534.6</ele>
        <time>2022-07-03T11:34:32Z</time>
      </trkpt>
      <trkpt lat="46.64635" lon="5.61053">
        <ele>533.8</ele>
        <time>2022-07-03T11:34:37Z</time>
      </trkpt>
      <trkpt lat="46.64639" lon="5.61048">
        <ele>531.9</ele>
        <time>2022-07-03T11:34:44Z</time>
      </trkpt>
      <trkpt lat="46.64642" lon="5.61042">
        <ele>529.7</ele>
        <time>2022-07-03T11:34:49Z</time>
      </trkpt>
      <trkpt lat="46.64647" lon="5.61038">
        <ele>528</ele>
        <time>2022-07-03T11:34:53Z</time>
      </trkpt>
      <trkpt lat="46.6465" lon="5.61034">
        <ele>526.7</ele>
        <time>2022-07-03T11:34:56Z</time>
      </trkpt>
      <trkpt lat="46.64655" lon="5.6103">
        <ele>525.5</ele>
        <time>2022-07-03T11:34:59Z</time>
      </trkpt>
      <trkpt lat="46.64659" lon="5.61026">
        <ele>524.7</ele>
        <time>2022-07-03T11:35:02Z</time>
      </trkpt>
      <trkpt lat="46.64664" lon="5.61023">
        <ele>524.3</ele>
        <time>2022-07-03T11:35:06Z</time>
      </trkpt>
      <trkpt lat="46.6467" lon="5.61021">
        <ele>524.3</ele>
        <time>2022-07-03T11:35:10Z</time>
      </trkpt>
      <trkpt lat="46.64675" lon="5.61018">
        <ele>524.7</ele>
        <time>2022-07-03T11:35:14Z</time>
      </trkpt>
      <trkpt lat="46.64679" lon="5.61016">
        <ele>526.3</ele>
        <time>2022-07-03T11:35:21Z</time>
      </trkpt>
      <trkpt lat="46.64685" lon="5.61015">
        <ele>527.4</ele>
        <time>2022-07-03T11:35:28Z</time>
      </trkpt>
      <trkpt lat="46.64689" lon="5.61014">
        <ele>528.2</ele>
        <time>2022-07-03T11:35:33Z</time>
      </trkpt>
      <trkpt lat="46.64694" lon="5.61014">
        <ele>528.5</ele>
        <time>2022-07-03T11:35:38Z</time>
      </trkpt>
      <trkpt lat="46.64699" lon="5.61014">
        <ele>528.6</ele>
        <time>2022-07-03T11:35:43Z</time>
      </trkpt>
      <trkpt lat="46.64703" lon="5.6101">
        <ele>528.7</ele>
        <time>2022-07-03T11:35:50Z</time>
      </trkpt>
      <trkpt lat="46.64707" lon="5.61009">
        <ele>529</ele>
        <time>2022-07-03T11:35:54Z</time>
      </trkpt>
      <trkpt lat="46.64712" lon="5.61006">
        <ele>529.5</ele>
        <time>2022-07-03T11:35:58Z</time>
      </trkpt>
      <trkpt lat="46.64716" lon="5.61004">
        <ele>529.6</ele>
        <time>2022-07-03T11:36:02Z</time>
      </trkpt>
      <trkpt lat="46.64722" lon="5.61002">
        <ele>529.8</ele>
        <time>2022-07-03T11:36:09Z</time>
      </trkpt>
      <trkpt lat="46.64726" lon="5.61001">
        <ele>529.8</ele>
        <time>2022-07-03T11:36:13Z</time>
      </trkpt>
      <trkpt lat="46.64732" lon="5.61">
        <ele>529.4</ele>
        <time>2022-07-03T11:36:18Z</time>
      </trkpt>
      <trkpt lat="46.64737" lon="5.61">
        <ele>528.2</ele>
        <time>2022-07-03T11:36:23Z</time>
      </trkpt>
      <trkpt lat="46.64742" lon="5.60999">
        <ele>527.9</ele>
        <time>2022-07-03T11:36:26Z</time>
      </trkpt>
      <trkpt lat="46.64747" lon="5.60997">
        <ele>527.8</ele>
        <time>2022-07-03T11:36:29Z</time>
      </trkpt>
      <trkpt lat="46.64751" lon="5.60993">
        <ele>528</ele>
        <time>2022-07-03T11:36:35Z</time>
      </trkpt>
      <trkpt lat="46.64755" lon="5.60991">
        <ele>529</ele>
        <time>2022-07-03T11:36:50Z</time>
      </trkpt>
      <trkpt lat="46.64751" lon="5.60995">
        <ele>528.3</ele>
        <time>2022-07-03T11:36:59Z</time>
      </trkpt>
      <trkpt lat="46.64756" lon="5.60996">
        <ele>528.3</ele>
        <time>2022-07-03T11:37:46Z</time>
      </trkpt>
      <trkpt lat="46.64751" lon="5.60999">
        <ele>525.2</ele>
        <time>2022-07-03T11:38:12Z</time>
      </trkpt>
      <trkpt lat="46.64748" lon="5.61005">
        <ele>523.2</ele>
        <time>2022-07-03T11:38:19Z</time>
      </trkpt>
      <trkpt lat="46.64751" lon="5.60996">
        <ele>522.7</ele>
        <time>2022-07-03T11:38:23Z</time>
      </trkpt>
      <trkpt lat="46.64753" lon="5.60988">
        <ele>522.4</ele>
        <time>2022-07-03T11:38:26Z</time>
      </trkpt>
      <trkpt lat="46.64753" lon="5.60981">
        <ele>522</ele>
        <time>2022-07-03T11:38:30Z</time>
      </trkpt>
      <trkpt lat="46.64757" lon="5.60977">
        <ele>521.5</ele>
        <time>2022-07-03T11:38:34Z</time>
      </trkpt>
      <trkpt lat="46.64762" lon="5.60973">
        <ele>521.8</ele>
        <time>2022-07-03T11:38:38Z</time>
      </trkpt>
      <trkpt lat="46.64766" lon="5.60969">
        <ele>522</ele>
        <time>2022-07-03T11:38:42Z</time>
      </trkpt>
      <trkpt lat="46.64771" lon="5.60965">
        <ele>521.7</ele>
        <time>2022-07-03T11:38:48Z</time>
      </trkpt>
      <trkpt lat="46.64775" lon="5.60962">
        <ele>521.8</ele>
        <time>2022-07-03T11:38:56Z</time>
      </trkpt>
      <trkpt lat="46.64778" lon="5.60957">
        <ele>521.6</ele>
        <time>2022-07-03T11:39:02Z</time>
      </trkpt>
      <trkpt lat="46.64782" lon="5.60953">
        <ele>521.3</ele>
        <time>2022-07-03T11:39:06Z</time>
      </trkpt>
      <trkpt lat="46.64788" lon="5.6095">
        <ele>521.3</ele>
        <time>2022-07-03T11:39:10Z</time>
      </trkpt>
      <trkpt lat="46.64792" lon="5.60946">
        <ele>522.1</ele>
        <time>2022-07-03T11:39:15Z</time>
      </trkpt>
      <trkpt lat="46.64797" lon="5.60942">
        <ele>523.4</ele>
        <time>2022-07-03T11:39:21Z</time>
      </trkpt>
      <trkpt lat="46.64801" lon="5.60939">
        <ele>524.3</ele>
        <time>2022-07-03T11:39:26Z</time>
      </trkpt>
      <trkpt lat="46.64806" lon="5.60936">
        <ele>524.5</ele>
        <time>2022-07-03T11:39:29Z</time>
      </trkpt>
      <trkpt lat="46.6481" lon="5.60932">
        <ele>524.6</ele>
        <time>2022-07-03T11:39:32Z</time>
      </trkpt>
      <trkpt lat="46.64815" lon="5.60929">
        <ele>525.2</ele>
        <time>2022-07-03T11:39:35Z</time>
      </trkpt>
      <trkpt lat="46.6482" lon="5.60926">
        <ele>525.8</ele>
        <time>2022-07-03T11:39:38Z</time>
      </trkpt>
      <trkpt lat="46.64824" lon="5.60922">
        <ele>526.6</ele>
        <time>2022-07-03T11:39:41Z</time>
      </trkpt>
      <trkpt lat="46.64828" lon="5.60919">
        <ele>528.2</ele>
        <time>2022-07-03T11:39:45Z</time>
      </trkpt>
      <trkpt lat="46.64832" lon="5.60915">
        <ele>530.5</ele>
        <time>2022-07-03T11:39:52Z</time>
      </trkpt>
      <trkpt lat="46.64837" lon="5.60911">
        <ele>531.7</ele>
        <time>2022-07-03T11:39:57Z</time>
      </trkpt>
      <trkpt lat="46.64841" lon="5.60908">
        <ele>531.8</ele>
        <time>2022-07-03T11:40:01Z</time>
      </trkpt>
      <trkpt lat="46.64846" lon="5.60906">
        <ele>530.8</ele>
        <time>2022-07-03T11:40:09Z</time>
      </trkpt>
      <trkpt lat="46.6485" lon="5.60903">
        <ele>530.1</ele>
        <time>2022-07-03T11:40:14Z</time>
      </trkpt>
      <trkpt lat="46.64853" lon="5.60898">
        <ele>530.2</ele>
        <time>2022-07-03T11:40:20Z</time>
      </trkpt>
      <trkpt lat="46.64857" lon="5.60892">
        <ele>530</ele>
        <time>2022-07-03T11:40:25Z</time>
      </trkpt>
      <trkpt lat="46.64859" lon="5.60885">
        <ele>529.8</ele>
        <time>2022-07-03T11:40:29Z</time>
      </trkpt>
      <trkpt lat="46.64863" lon="5.60881">
        <ele>529.5</ele>
        <time>2022-07-03T11:40:33Z</time>
      </trkpt>
      <trkpt lat="46.64867" lon="5.60876">
        <ele>528.6</ele>
        <time>2022-07-03T11:40:38Z</time>
      </trkpt>
      <trkpt lat="46.64871" lon="5.60872">
        <ele>527.7</ele>
        <time>2022-07-03T11:40:42Z</time>
      </trkpt>
      <trkpt lat="46.64874" lon="5.60868">
        <ele>522.3</ele>
        <time>2022-07-03T11:40:57Z</time>
      </trkpt>
      <trkpt lat="46.6488" lon="5.60864">
        <ele>522</ele>
        <time>2022-07-03T11:41:00Z</time>
      </trkpt>
      <trkpt lat="46.64885" lon="5.6086">
        <ele>521.9</ele>
        <time>2022-07-03T11:41:03Z</time>
      </trkpt>
      <trkpt lat="46.6489" lon="5.60857">
        <ele>522</ele>
        <time>2022-07-03T11:41:06Z</time>
      </trkpt>
      <trkpt lat="46.64894" lon="5.60855">
        <ele>522</ele>
        <time>2022-07-03T11:41:09Z</time>
      </trkpt>
      <trkpt lat="46.649" lon="5.60852">
        <ele>521.6</ele>
        <time>2022-07-03T11:41:12Z</time>
      </trkpt>
      <trkpt lat="46.64905" lon="5.60851">
        <ele>520.8</ele>
        <time>2022-07-03T11:41:16Z</time>
      </trkpt>
      <trkpt lat="46.64909" lon="5.60846">
        <ele>520.5</ele>
        <time>2022-07-03T11:41:20Z</time>
      </trkpt>
      <trkpt lat="46.64913" lon="5.60841">
        <ele>520.4</ele>
        <time>2022-07-03T11:41:25Z</time>
      </trkpt>
      <trkpt lat="46.64916" lon="5.60837">
        <ele>520.4</ele>
        <time>2022-07-03T11:41:28Z</time>
      </trkpt>
      <trkpt lat="46.64922" lon="5.60834">
        <ele>520.5</ele>
        <time>2022-07-03T11:41:33Z</time>
      </trkpt>
      <trkpt lat="46.64927" lon="5.60833">
        <ele>520.6</ele>
        <time>2022-07-03T11:41:36Z</time>
      </trkpt>
      <trkpt lat="46.64933" lon="5.60831">
        <ele>520.2</ele>
        <time>2022-07-03T11:41:40Z</time>
      </trkpt>
      <trkpt lat="46.64937" lon="5.60829">
        <ele>519.9</ele>
        <time>2022-07-03T11:41:43Z</time>
      </trkpt>
      <trkpt lat="46.64941" lon="5.60825">
        <ele>519.6</ele>
        <time>2022-07-03T11:41:47Z</time>
      </trkpt>
      <trkpt lat="46.64944" lon="5.6082">
        <ele>519.1</ele>
        <time>2022-07-03T11:41:52Z</time>
      </trkpt>
      <trkpt lat="46.64947" lon="5.60814">
        <ele>518.1</ele>
        <time>2022-07-03T11:41:58Z</time>
      </trkpt>
      <trkpt lat="46.64952" lon="5.6081">
        <ele>517.8</ele>
        <time>2022-07-03T11:42:02Z</time>
      </trkpt>
      <trkpt lat="46.64958" lon="5.60806">
        <ele>517.5</ele>
        <time>2022-07-03T11:42:06Z</time>
      </trkpt>
      <trkpt lat="46.64962" lon="5.60801">
        <ele>517.5</ele>
        <time>2022-07-03T11:42:11Z</time>
      </trkpt>
      <trkpt lat="46.64966" lon="5.60797">
        <ele>517.9</ele>
        <time>2022-07-03T11:42:17Z</time>
      </trkpt>
      <trkpt lat="46.64971" lon="5.60797">
        <ele>518.5</ele>
        <time>2022-07-03T11:42:21Z</time>
      </trkpt>
      <trkpt lat="46.64976" lon="5.60797">
        <ele>519.4</ele>
        <time>2022-07-03T11:42:27Z</time>
      </trkpt>
      <trkpt lat="46.64971" lon="5.60795">
        <ele>522.4</ele>
        <time>2022-07-03T11:42:35Z</time>
      </trkpt>
      <trkpt lat="46.64972" lon="5.60788">
        <ele>522.9</ele>
        <time>2022-07-03T11:42:52Z</time>
      </trkpt>
      <trkpt lat="46.64977" lon="5.60786">
        <ele>521.9</ele>
        <time>2022-07-03T11:42:56Z</time>
      </trkpt>
      <trkpt lat="46.64981" lon="5.60783">
        <ele>518.6</ele>
        <time>2022-07-03T11:43:06Z</time>
      </trkpt>
      <trkpt lat="46.64986" lon="5.60784">
        <ele>516.8</ele>
        <time>2022-07-03T11:43:25Z</time>
      </trkpt>
      <trkpt lat="46.64992" lon="5.60789">
        <ele>516.8</ele>
        <time>2022-07-03T11:43:28Z</time>
      </trkpt>
      <trkpt lat="46.64993" lon="5.60796">
        <ele>516.8</ele>
        <time>2022-07-03T11:43:32Z</time>
      </trkpt>
      <trkpt lat="46.64993" lon="5.60803">
        <ele>516.5</ele>
        <time>2022-07-03T11:43:37Z</time>
      </trkpt>
      <trkpt lat="46.64997" lon="5.60806">
        <ele>515.2</ele>
        <time>2022-07-03T11:43:44Z</time>
      </trkpt>
      <trkpt lat="46.65001" lon="5.60802">
        <ele>514.1</ele>
        <time>2022-07-03T11:43:48Z</time>
      </trkpt>
      <trkpt lat="46.65004" lon="5.60797">
        <ele>513.6</ele>
        <time>2022-07-03T11:43:53Z</time>
      </trkpt>
      <trkpt lat="46.65007" lon="5.60791">
        <ele>513.8</ele>
        <time>2022-07-03T11:43:58Z</time>
      </trkpt>
      <trkpt lat="46.65012" lon="5.60792">
        <ele>516.5</ele>
        <time>2022-07-03T11:44:27Z</time>
      </trkpt>
      <trkpt lat="46.65014" lon="5.60785">
        <ele>519.8</ele>
        <time>2022-07-03T11:44:40Z</time>
      </trkpt>
      <trkpt lat="46.65016" lon="5.60779">
        <ele>520.1</ele>
        <time>2022-07-03T11:44:45Z</time>
      </trkpt>
      <trkpt lat="46.65021" lon="5.60775">
        <ele>520</ele>
        <time>2022-07-03T11:44:49Z</time>
      </trkpt>
      <trkpt lat="46.65026" lon="5.60771">
        <ele>519.8</ele>
        <time>2022-07-03T11:44:53Z</time>
      </trkpt>
      <trkpt lat="46.65029" lon="5.60767">
        <ele>519.5</ele>
        <time>2022-07-03T11:44:57Z</time>
      </trkpt>
      <trkpt lat="46.65034" lon="5.60764">
        <ele>519.3</ele>
        <time>2022-07-03T11:45:01Z</time>
      </trkpt>
      <trkpt lat="46.65039" lon="5.60762">
        <ele>519.2</ele>
        <time>2022-07-03T11:45:06Z</time>
      </trkpt>
      <trkpt lat="46.65045" lon="5.60764">
        <ele>518.8</ele>
        <time>2022-07-03T11:45:10Z</time>
      </trkpt>
      <trkpt lat="46.6505" lon="5.60764">
        <ele>518.1</ele>
        <time>2022-07-03T11:45:15Z</time>
      </trkpt>
      <trkpt lat="46.65055" lon="5.60763">
        <ele>517.5</ele>
        <time>2022-07-03T11:45:19Z</time>
      </trkpt>
      <trkpt lat="46.65059" lon="5.6076">
        <ele>517.1</ele>
        <time>2022-07-03T11:45:23Z</time>
      </trkpt>
      <trkpt lat="46.65064" lon="5.6076">
        <ele>516.4</ele>
        <time>2022-07-03T11:45:29Z</time>
      </trkpt>
      <trkpt lat="46.6507" lon="5.60759">
        <ele>515.9</ele>
        <time>2022-07-03T11:45:33Z</time>
      </trkpt>
      <trkpt lat="46.65074" lon="5.60758">
        <ele>515.1</ele>
        <time>2022-07-03T11:45:38Z</time>
      </trkpt>
      <trkpt lat="46.6508" lon="5.60757">
        <ele>513.3</ele>
        <time>2022-07-03T11:45:54Z</time>
      </trkpt>
      <trkpt lat="46.65085" lon="5.60754">
        <ele>513.5</ele>
        <time>2022-07-03T11:45:57Z</time>
      </trkpt>
      <trkpt lat="46.6509" lon="5.60752">
        <ele>513.7</ele>
        <time>2022-07-03T11:46:00Z</time>
      </trkpt>
      <trkpt lat="46.65096" lon="5.6075">
        <ele>514.2</ele>
        <time>2022-07-03T11:46:03Z</time>
      </trkpt>
      <trkpt lat="46.65101" lon="5.6075">
        <ele>514.8</ele>
        <time>2022-07-03T11:46:11Z</time>
      </trkpt>
      <trkpt lat="46.65106" lon="5.60746">
        <ele>516.1</ele>
        <time>2022-07-03T11:46:18Z</time>
      </trkpt>
      <trkpt lat="46.65112" lon="5.60744">
        <ele>517.4</ele>
        <time>2022-07-03T11:46:25Z</time>
      </trkpt>
      <trkpt lat="46.65116" lon="5.6074">
        <ele>519.3</ele>
        <time>2022-07-03T11:46:32Z</time>
      </trkpt>
      <trkpt lat="46.65122" lon="5.60738">
        <ele>520.4</ele>
        <time>2022-07-03T11:46:37Z</time>
      </trkpt>
      <trkpt lat="46.65126" lon="5.60737">
        <ele>520.9</ele>
        <time>2022-07-03T11:46:40Z</time>
      </trkpt>
      <trkpt lat="46.65133" lon="5.60735">
        <ele>520.8</ele>
        <time>2022-07-03T11:46:47Z</time>
      </trkpt>
      <trkpt lat="46.65141" lon="5.60733">
        <ele>520.7</ele>
        <time>2022-07-03T11:46:50Z</time>
      </trkpt>
      <trkpt lat="46.65147" lon="5.60731">
        <ele>520.5</ele>
        <time>2022-07-03T11:46:53Z</time>
      </trkpt>
      <trkpt lat="46.65152" lon="5.60731">
        <ele>520</ele>
        <time>2022-07-03T11:46:56Z</time>
      </trkpt>
      <trkpt lat="46.65157" lon="5.60733">
        <ele>519.2</ele>
        <time>2022-07-03T11:47:02Z</time>
      </trkpt>
      <trkpt lat="46.65154" lon="5.60727">
        <ele>518.7</ele>
        <time>2022-07-03T11:47:15Z</time>
      </trkpt>
      <trkpt lat="46.65154" lon="5.6072">
        <ele>518.2</ele>
        <time>2022-07-03T11:47:21Z</time>
      </trkpt>
      <trkpt lat="46.6516" lon="5.60717">
        <ele>517.7</ele>
        <time>2022-07-03T11:47:24Z</time>
      </trkpt>
      <trkpt lat="46.65166" lon="5.60713">
        <ele>516.8</ele>
        <time>2022-07-03T11:47:27Z</time>
      </trkpt>
      <trkpt lat="46.6517" lon="5.60708">
        <ele>515.7</ele>
        <time>2022-07-03T11:47:30Z</time>
      </trkpt>
      <trkpt lat="46.65175" lon="5.60705">
        <ele>514.9</ele>
        <time>2022-07-03T11:47:33Z</time>
      </trkpt>
      <trkpt lat="46.6518" lon="5.607">
        <ele>514.5</ele>
        <time>2022-07-03T11:47:36Z</time>
      </trkpt>
      <trkpt lat="46.65184" lon="5.60694">
        <ele>514.7</ele>
        <time>2022-07-03T11:47:40Z</time>
      </trkpt>
      <trkpt lat="46.65187" lon="5.60688">
        <ele>515.5</ele>
        <time>2022-07-03T11:47:45Z</time>
      </trkpt>
      <trkpt lat="46.65191" lon="5.60683">
        <ele>516</ele>
        <time>2022-07-03T11:47:51Z</time>
      </trkpt>
      <trkpt lat="46.65195" lon="5.60682">
        <ele>515.7</ele>
        <time>2022-07-03T11:47:54Z</time>
      </trkpt>
      <trkpt lat="46.65201" lon="5.60681">
        <ele>514.7</ele>
        <time>2022-07-03T11:47:58Z</time>
      </trkpt>
      <trkpt lat="46.65207" lon="5.60681">
        <ele>514</ele>
        <time>2022-07-03T11:48:01Z</time>
      </trkpt>
      <trkpt lat="46.65211" lon="5.60681">
        <ele>513</ele>
        <time>2022-07-03T11:48:04Z</time>
      </trkpt>
      <trkpt lat="46.65216" lon="5.60681">
        <ele>509.9</ele>
        <time>2022-07-03T11:48:21Z</time>
      </trkpt>
      <trkpt lat="46.65222" lon="5.60682">
        <ele>509.9</ele>
        <time>2022-07-03T11:48:25Z</time>
      </trkpt>
      <trkpt lat="46.65227" lon="5.60681">
        <ele>509.7</ele>
        <time>2022-07-03T11:48:28Z</time>
      </trkpt>
      <trkpt lat="46.65232" lon="5.6068">
        <ele>509.2</ele>
        <time>2022-07-03T11:48:32Z</time>
      </trkpt>
      <trkpt lat="46.65237" lon="5.60677">
        <ele>509.1</ele>
        <time>2022-07-03T11:48:36Z</time>
      </trkpt>
      <trkpt lat="46.65242" lon="5.60676">
        <ele>509.3</ele>
        <time>2022-07-03T11:48:40Z</time>
      </trkpt>
      <trkpt lat="46.65239" lon="5.60672">
        <ele>507.7</ele>
        <time>2022-07-03T11:50:07Z</time>
      </trkpt>
      <trkpt lat="46.65235" lon="5.60678">
        <ele>508.6</ele>
        <time>2022-07-03T11:50:17Z</time>
      </trkpt>
      <trkpt lat="46.65235" lon="5.60684">
        <ele>509.6</ele>
        <time>2022-07-03T11:50:27Z</time>
      </trkpt>
      <trkpt lat="46.65233" lon="5.60678">
        <ele>514.7</ele>
        <time>2022-07-03T11:52:27Z</time>
      </trkpt>
      <trkpt lat="46.65235" lon="5.60685">
        <ele>515.1</ele>
        <time>2022-07-03T11:52:34Z</time>
      </trkpt>
      <trkpt lat="46.65232" lon="5.6069">
        <ele>511.3</ele>
        <time>2022-07-03T11:53:58Z</time>
      </trkpt>
      <trkpt lat="46.65236" lon="5.60694">
        <ele>512.7</ele>
        <time>2022-07-03T11:54:07Z</time>
      </trkpt>
      <trkpt lat="46.65232" lon="5.60691">
        <ele>514</ele>
        <time>2022-07-03T11:54:15Z</time>
      </trkpt>
      <trkpt lat="46.65236" lon="5.60694">
        <ele>516.2</ele>
        <time>2022-07-03T11:54:45Z</time>
      </trkpt>
      <trkpt lat="46.65233" lon="5.60689">
        <ele>514.8</ele>
        <time>2022-07-03T11:55:17Z</time>
      </trkpt>
      <trkpt lat="46.65227" lon="5.60689">
        <ele>512.8</ele>
        <time>2022-07-03T11:55:24Z</time>
      </trkpt>
      <trkpt lat="46.65223" lon="5.60693">
        <ele>512</ele>
        <time>2022-07-03T11:55:30Z</time>
      </trkpt>
      <trkpt lat="46.6522" lon="5.60699">
        <ele>512.5</ele>
        <time>2022-07-03T11:55:35Z</time>
      </trkpt>
      <trkpt lat="46.65222" lon="5.60706">
        <ele>513.1</ele>
        <time>2022-07-03T11:55:40Z</time>
      </trkpt>
      <trkpt lat="46.65221" lon="5.60713">
        <ele>513.8</ele>
        <time>2022-07-03T11:55:46Z</time>
      </trkpt>
      <trkpt lat="46.65221" lon="5.6072">
        <ele>514</ele>
        <time>2022-07-03T11:55:51Z</time>
      </trkpt>
      <trkpt lat="46.65222" lon="5.60728">
        <ele>513.6</ele>
        <time>2022-07-03T11:55:56Z</time>
      </trkpt>
      <trkpt lat="46.65223" lon="5.60734">
        <ele>513.6</ele>
        <time>2022-07-03T11:56:01Z</time>
      </trkpt>
      <trkpt lat="46.65221" lon="5.60741">
        <ele>513.5</ele>
        <time>2022-07-03T11:56:07Z</time>
      </trkpt>
      <trkpt lat="46.65222" lon="5.60747">
        <ele>513.2</ele>
        <time>2022-07-03T11:56:14Z</time>
      </trkpt>
      <trkpt lat="46.65223" lon="5.60755">
        <ele>513.3</ele>
        <time>2022-07-03T11:56:20Z</time>
      </trkpt>
      <trkpt lat="46.65225" lon="5.60761">
        <ele>513.5</ele>
        <time>2022-07-03T11:56:24Z</time>
      </trkpt>
      <trkpt lat="46.65229" lon="5.60767">
        <ele>513.2</ele>
        <time>2022-07-03T11:56:28Z</time>
      </trkpt>
      <trkpt lat="46.65234" lon="5.60767">
        <ele>512.6</ele>
        <time>2022-07-03T11:56:33Z</time>
      </trkpt>
      <trkpt lat="46.65239" lon="5.60766">
        <ele>511.9</ele>
        <time>2022-07-03T11:56:38Z</time>
      </trkpt>
      <trkpt lat="46.65244" lon="5.60765">
        <ele>510.9</ele>
        <time>2022-07-03T11:56:44Z</time>
      </trkpt>
      <trkpt lat="46.65249" lon="5.60766">
        <ele>510.6</ele>
        <time>2022-07-03T11:56:49Z</time>
      </trkpt>
      <trkpt lat="46.65254" lon="5.60768">
        <ele>510.6</ele>
        <time>2022-07-03T11:56:54Z</time>
      </trkpt>
      <trkpt lat="46.65258" lon="5.60772">
        <ele>510.9</ele>
        <time>2022-07-03T11:56:58Z</time>
      </trkpt>
      <trkpt lat="46.65262" lon="5.60778">
        <ele>511.6</ele>
        <time>2022-07-03T11:57:03Z</time>
      </trkpt>
      <trkpt lat="46.65265" lon="5.60783">
        <ele>511.7</ele>
        <time>2022-07-03T11:57:07Z</time>
      </trkpt>
      <trkpt lat="46.65269" lon="5.60788">
        <ele>511.5</ele>
        <time>2022-07-03T11:57:11Z</time>
      </trkpt>
      <trkpt lat="46.6527" lon="5.60796">
        <ele>510.3</ele>
        <time>2022-07-03T11:57:15Z</time>
      </trkpt>
      <trkpt lat="46.6527" lon="5.60803">
        <ele>507.2</ele>
        <time>2022-07-03T11:57:21Z</time>
      </trkpt>
      <trkpt lat="46.65274" lon="5.60808">
        <ele>503.6</ele>
        <time>2022-07-03T11:57:29Z</time>
      </trkpt>
      <trkpt lat="46.65268" lon="5.60809">
        <ele>505.1</ele>
        <time>2022-07-03T11:57:49Z</time>
      </trkpt>
      <trkpt lat="46.65273" lon="5.60808">
        <ele>506.4</ele>
        <time>2022-07-03T11:58:05Z</time>
      </trkpt>
      <trkpt lat="46.65279" lon="5.60808">
        <ele>506.9</ele>
        <time>2022-07-03T11:58:09Z</time>
      </trkpt>
      <trkpt lat="46.65283" lon="5.60807">
        <ele>507.2</ele>
        <time>2022-07-03T11:58:12Z</time>
      </trkpt>
      <trkpt lat="46.65283" lon="5.60814">
        <ele>508.4</ele>
        <time>2022-07-03T11:58:22Z</time>
      </trkpt>
      <trkpt lat="46.65283" lon="5.60821">
        <ele>508.7</ele>
        <time>2022-07-03T11:58:27Z</time>
      </trkpt>
      <trkpt lat="46.65286" lon="5.60827">
        <ele>508.6</ele>
        <time>2022-07-03T11:58:34Z</time>
      </trkpt>
      <trkpt lat="46.65289" lon="5.60832">
        <ele>508.4</ele>
        <time>2022-07-03T11:58:38Z</time>
      </trkpt>
      <trkpt lat="46.65293" lon="5.60836">
        <ele>508</ele>
        <time>2022-07-03T11:58:42Z</time>
      </trkpt>
      <trkpt lat="46.65295" lon="5.60842">
        <ele>507</ele>
        <time>2022-07-03T11:58:48Z</time>
      </trkpt>
      <trkpt lat="46.65298" lon="5.60848">
        <ele>505.9</ele>
        <time>2022-07-03T11:58:54Z</time>
      </trkpt>
      <trkpt lat="46.65297" lon="5.60855">
        <ele>505.2</ele>
        <time>2022-07-03T11:59:01Z</time>
      </trkpt>
      <trkpt lat="46.65297" lon="5.60862">
        <ele>504.2</ele>
        <time>2022-07-03T11:59:07Z</time>
      </trkpt>
      <trkpt lat="46.65298" lon="5.60869">
        <ele>502.9</ele>
        <time>2022-07-03T11:59:12Z</time>
      </trkpt>
      <trkpt lat="46.65301" lon="5.60875">
        <ele>500.7</ele>
        <time>2022-07-03T11:59:18Z</time>
      </trkpt>
      <trkpt lat="46.65301" lon="5.60882">
        <ele>497.9</ele>
        <time>2022-07-03T11:59:25Z</time>
      </trkpt>
      <trkpt lat="46.65304" lon="5.60888">
        <ele>496.3</ele>
        <time>2022-07-03T11:59:30Z</time>
      </trkpt>
      <trkpt lat="46.65307" lon="5.60893">
        <ele>494.9</ele>
        <time>2022-07-03T11:59:35Z</time>
      </trkpt>
      <trkpt lat="46.65309" lon="5.60899">
        <ele>493.8</ele>
        <time>2022-07-03T11:59:40Z</time>
      </trkpt>
      <trkpt lat="46.65313" lon="5.60905">
        <ele>492.1</ele>
        <time>2022-07-03T11:59:46Z</time>
      </trkpt>
      <trkpt lat="46.65317" lon="5.60909">
        <ele>491.1</ele>
        <time>2022-07-03T11:59:49Z</time>
      </trkpt>
      <trkpt lat="46.65321" lon="5.60914">
        <ele>488.9</ele>
        <time>2022-07-03T11:59:54Z</time>
      </trkpt>
      <trkpt lat="46.65324" lon="5.6092">
        <ele>487.2</ele>
        <time>2022-07-03T11:59:59Z</time>
      </trkpt>
      <trkpt lat="46.65325" lon="5.60927">
        <ele>485.9</ele>
        <time>2022-07-03T12:00:04Z</time>
      </trkpt>
      <trkpt lat="46.65328" lon="5.60932">
        <ele>485.6</ele>
        <time>2022-07-03T12:00:09Z</time>
      </trkpt>
      <trkpt lat="46.6533" lon="5.60939">
        <ele>484.9</ele>
        <time>2022-07-03T12:00:15Z</time>
      </trkpt>
      <trkpt lat="46.65331" lon="5.60946">
        <ele>484.1</ele>
        <time>2022-07-03T12:00:20Z</time>
      </trkpt>
      <trkpt lat="46.65333" lon="5.60953">
        <ele>483.3</ele>
        <time>2022-07-03T12:00:25Z</time>
      </trkpt>
      <trkpt lat="46.65336" lon="5.60958">
        <ele>483.2</ele>
        <time>2022-07-03T12:00:31Z</time>
      </trkpt>
      <trkpt lat="46.65337" lon="5.60965">
        <ele>482.8</ele>
        <time>2022-07-03T12:00:38Z</time>
      </trkpt>
      <trkpt lat="46.65339" lon="5.60971">
        <ele>482.1</ele>
        <time>2022-07-03T12:00:44Z</time>
      </trkpt>
      <trkpt lat="46.65341" lon="5.60977">
        <ele>481.4</ele>
        <time>2022-07-03T12:00:51Z</time>
      </trkpt>
      <trkpt lat="46.65342" lon="5.60985">
        <ele>480.2</ele>
        <time>2022-07-03T12:00:59Z</time>
      </trkpt>
      <trkpt lat="46.65344" lon="5.60992">
        <ele>479.5</ele>
        <time>2022-07-03T12:01:04Z</time>
      </trkpt>
      <trkpt lat="46.65347" lon="5.60997">
        <ele>479.1</ele>
        <time>2022-07-03T12:01:08Z</time>
      </trkpt>
      <trkpt lat="46.65348" lon="5.61004">
        <ele>478.3</ele>
        <time>2022-07-03T12:01:13Z</time>
      </trkpt>
      <trkpt lat="46.65352" lon="5.61009">
        <ele>477.4</ele>
        <time>2022-07-03T12:01:18Z</time>
      </trkpt>
      <trkpt lat="46.65355" lon="5.61015">
        <ele>475.8</ele>
        <time>2022-07-03T12:01:25Z</time>
      </trkpt>
      <trkpt lat="46.65358" lon="5.61021">
        <ele>474.2</ele>
        <time>2022-07-03T12:01:32Z</time>
      </trkpt>
      <trkpt lat="46.6536" lon="5.61027">
        <ele>473.4</ele>
        <time>2022-07-03T12:01:37Z</time>
      </trkpt>
      <trkpt lat="46.65364" lon="5.61032">
        <ele>472.6</ele>
        <time>2022-07-03T12:01:43Z</time>
      </trkpt>
      <trkpt lat="46.65367" lon="5.61037">
        <ele>471.9</ele>
        <time>2022-07-03T12:01:48Z</time>
      </trkpt>
      <trkpt lat="46.6537" lon="5.61043">
        <ele>470.5</ele>
        <time>2022-07-03T12:01:54Z</time>
      </trkpt>
      <trkpt lat="46.65374" lon="5.61049">
        <ele>469.8</ele>
        <time>2022-07-03T12:01:58Z</time>
      </trkpt>
      <trkpt lat="46.65378" lon="5.61054">
        <ele>469.5</ele>
        <time>2022-07-03T12:02:03Z</time>
      </trkpt>
      <trkpt lat="46.65381" lon="5.61058">
        <ele>469.9</ele>
        <time>2022-07-03T12:02:09Z</time>
      </trkpt>
      <trkpt lat="46.65384" lon="5.61063">
        <ele>470.7</ele>
        <time>2022-07-03T12:02:15Z</time>
      </trkpt>
      <trkpt lat="46.65388" lon="5.61067">
        <ele>471.4</ele>
        <time>2022-07-03T12:02:20Z</time>
      </trkpt>
      <trkpt lat="46.65387" lon="5.61075">
        <ele>472.6</ele>
        <time>2022-07-03T12:02:29Z</time>
      </trkpt>
      <trkpt lat="46.65383" lon="5.6108">
        <ele>472.9</ele>
        <time>2022-07-03T12:02:33Z</time>
      </trkpt>
      <trkpt lat="46.65386" lon="5.61086">
        <ele>472.2</ele>
        <time>2022-07-03T12:02:45Z</time>
      </trkpt>
      <trkpt lat="46.65388" lon="5.61092">
        <ele>471.5</ele>
        <time>2022-07-03T12:02:53Z</time>
      </trkpt>
      <trkpt lat="46.65388" lon="5.611">
        <ele>469.4</ele>
        <time>2022-07-03T12:03:00Z</time>
      </trkpt>
      <trkpt lat="46.65389" lon="5.61106">
        <ele>467.1</ele>
        <time>2022-07-03T12:03:06Z</time>
      </trkpt>
      <trkpt lat="46.65392" lon="5.61113">
        <ele>466.1</ele>
        <time>2022-07-03T12:03:11Z</time>
      </trkpt>
      <trkpt lat="46.65394" lon="5.61119">
        <ele>465</ele>
        <time>2022-07-03T12:03:16Z</time>
      </trkpt>
      <trkpt lat="46.65397" lon="5.61125">
        <ele>463.9</ele>
        <time>2022-07-03T12:03:22Z</time>
      </trkpt>
      <trkpt lat="46.65398" lon="5.61132">
        <ele>463.3</ele>
        <time>2022-07-03T12:03:26Z</time>
      </trkpt>
      <trkpt lat="46.65399" lon="5.6114">
        <ele>463.2</ele>
        <time>2022-07-03T12:03:31Z</time>
      </trkpt>
      <trkpt lat="46.65398" lon="5.61147">
        <ele>463.6</ele>
        <time>2022-07-03T12:03:36Z</time>
      </trkpt>
      <trkpt lat="46.654" lon="5.61153">
        <ele>463.9</ele>
        <time>2022-07-03T12:03:41Z</time>
      </trkpt>
      <trkpt lat="46.65401" lon="5.61161">
        <ele>464</ele>
        <time>2022-07-03T12:04:11Z</time>
      </trkpt>
      <trkpt lat="46.65403" lon="5.61167">
        <ele>462.7</ele>
        <time>2022-07-03T12:04:16Z</time>
      </trkpt>
      <trkpt lat="46.65404" lon="5.61173">
        <ele>461.5</ele>
        <time>2022-07-03T12:04:21Z</time>
      </trkpt>
      <trkpt lat="46.65407" lon="5.6118">
        <ele>459.3</ele>
        <time>2022-07-03T12:04:31Z</time>
      </trkpt>
      <trkpt lat="46.65411" lon="5.61185">
        <ele>457.9</ele>
        <time>2022-07-03T12:04:37Z</time>
      </trkpt>
      <trkpt lat="46.65414" lon="5.61189">
        <ele>457.4</ele>
        <time>2022-07-03T12:04:41Z</time>
      </trkpt>
      <trkpt lat="46.65418" lon="5.61192">
        <ele>457.6</ele>
        <time>2022-07-03T12:04:46Z</time>
      </trkpt>
      <trkpt lat="46.65421" lon="5.61197">
        <ele>458.2</ele>
        <time>2022-07-03T12:04:54Z</time>
      </trkpt>
      <trkpt lat="46.65424" lon="5.61204">
        <ele>458.2</ele>
        <time>2022-07-03T12:05:00Z</time>
      </trkpt>
      <trkpt lat="46.65424" lon="5.6121">
        <ele>457.3</ele>
        <time>2022-07-03T12:05:08Z</time>
      </trkpt>
      <trkpt lat="46.65428" lon="5.61215">
        <ele>456.1</ele>
        <time>2022-07-03T12:05:13Z</time>
      </trkpt>
      <trkpt lat="46.65427" lon="5.61222">
        <ele>454</ele>
        <time>2022-07-03T12:05:20Z</time>
      </trkpt>
      <trkpt lat="46.65432" lon="5.61224">
        <ele>456</ele>
        <time>2022-07-03T12:05:37Z</time>
      </trkpt>
      <trkpt lat="46.65434" lon="5.61218">
        <ele>457.5</ele>
        <time>2022-07-03T12:05:41Z</time>
      </trkpt>
      <trkpt lat="46.65438" lon="5.61221">
        <ele>458.6</ele>
        <time>2022-07-03T12:05:49Z</time>
      </trkpt>
      <trkpt lat="46.6544" lon="5.61229">
        <ele>459</ele>
        <time>2022-07-03T12:05:53Z</time>
      </trkpt>
      <trkpt lat="46.65441" lon="5.61237">
        <ele>458.7</ele>
        <time>2022-07-03T12:05:58Z</time>
      </trkpt>
      <trkpt lat="46.65441" lon="5.61244">
        <ele>458</ele>
        <time>2022-07-03T12:06:03Z</time>
      </trkpt>
      <trkpt lat="46.65444" lon="5.61249">
        <ele>457.6</ele>
        <time>2022-07-03T12:06:08Z</time>
      </trkpt>
      <trkpt lat="46.65448" lon="5.61255">
        <ele>457.1</ele>
        <time>2022-07-03T12:06:13Z</time>
      </trkpt>
      <trkpt lat="46.65448" lon="5.61262">
        <ele>457.1</ele>
        <time>2022-07-03T12:06:19Z</time>
      </trkpt>
      <trkpt lat="46.65448" lon="5.61269">
        <ele>457.2</ele>
        <time>2022-07-03T12:06:24Z</time>
      </trkpt>
      <trkpt lat="46.65452" lon="5.61273">
        <ele>456.5</ele>
        <time>2022-07-03T12:06:32Z</time>
      </trkpt>
      <trkpt lat="46.65457" lon="5.61275">
        <ele>456.1</ele>
        <time>2022-07-03T12:06:36Z</time>
      </trkpt>
      <trkpt lat="46.65462" lon="5.61278">
        <ele>455.8</ele>
        <time>2022-07-03T12:06:39Z</time>
      </trkpt>
      <trkpt lat="46.65465" lon="5.61282">
        <ele>455</ele>
        <time>2022-07-03T12:06:47Z</time>
      </trkpt>
      <trkpt lat="46.65468" lon="5.61288">
        <ele>454.6</ele>
        <time>2022-07-03T12:06:51Z</time>
      </trkpt>
      <trkpt lat="46.65471" lon="5.61294">
        <ele>453.9</ele>
        <time>2022-07-03T12:06:55Z</time>
      </trkpt>
      <trkpt lat="46.65473" lon="5.613">
        <ele>452.6</ele>
        <time>2022-07-03T12:07:01Z</time>
      </trkpt>
      <trkpt lat="46.65476" lon="5.61306">
        <ele>451.6</ele>
        <time>2022-07-03T12:07:06Z</time>
      </trkpt>
      <trkpt lat="46.65479" lon="5.61312">
        <ele>450.6</ele>
        <time>2022-07-03T12:07:13Z</time>
      </trkpt>
      <trkpt lat="46.65482" lon="5.61317">
        <ele>449.6</ele>
        <time>2022-07-03T12:07:17Z</time>
      </trkpt>
      <trkpt lat="46.65483" lon="5.61325">
        <ele>448</ele>
        <time>2022-07-03T12:07:22Z</time>
      </trkpt>
      <trkpt lat="46.65483" lon="5.61331">
        <ele>446.8</ele>
        <time>2022-07-03T12:07:28Z</time>
      </trkpt>
      <trkpt lat="46.6548" lon="5.61335">
        <ele>445.7</ele>
        <time>2022-07-03T12:07:34Z</time>
      </trkpt>
      <trkpt lat="46.65485" lon="5.61339">
        <ele>447.7</ele>
        <time>2022-07-03T12:07:50Z</time>
      </trkpt>
      <trkpt lat="46.6549" lon="5.6134">
        <ele>449.1</ele>
        <time>2022-07-03T12:07:55Z</time>
      </trkpt>
      <trkpt lat="46.65495" lon="5.61342">
        <ele>450.5</ele>
        <time>2022-07-03T12:08:02Z</time>
      </trkpt>
      <trkpt lat="46.655" lon="5.61341">
        <ele>451.3</ele>
        <time>2022-07-03T12:08:10Z</time>
      </trkpt>
      <trkpt lat="46.65505" lon="5.61341">
        <ele>451.8</ele>
        <time>2022-07-03T12:08:15Z</time>
      </trkpt>
      <trkpt lat="46.65505" lon="5.61333">
        <ele>451.8</ele>
        <time>2022-07-03T12:08:25Z</time>
      </trkpt>
      <trkpt lat="46.65502" lon="5.61329">
        <ele>451.6</ele>
        <time>2022-07-03T12:08:29Z</time>
      </trkpt>
      <trkpt lat="46.65498" lon="5.61325">
        <ele>451.8</ele>
        <time>2022-07-03T12:08:34Z</time>
      </trkpt>
      <trkpt lat="46.65492" lon="5.61322">
        <ele>451.8</ele>
        <time>2022-07-03T12:08:39Z</time>
      </trkpt>
      <trkpt lat="46.65489" lon="5.61318">
        <ele>451.9</ele>
        <time>2022-07-03T12:08:42Z</time>
      </trkpt>
      <trkpt lat="46.65493" lon="5.61318">
        <ele>449.2</ele>
        <time>2022-07-03T12:09:01Z</time>
      </trkpt>
      <trkpt lat="46.65499" lon="5.61319">
        <ele>448</ele>
        <time>2022-07-03T12:09:05Z</time>
      </trkpt>
      <trkpt lat="46.65503" lon="5.61323">
        <ele>445.5</ele>
        <time>2022-07-03T12:09:12Z</time>
      </trkpt>
      <trkpt lat="46.65508" lon="5.61326">
        <ele>443</ele>
        <time>2022-07-03T12:09:22Z</time>
      </trkpt>
      <trkpt lat="46.65513" lon="5.61325">
        <ele>442.6</ele>
        <time>2022-07-03T12:09:26Z</time>
      </trkpt>
      <trkpt lat="46.65517" lon="5.61321">
        <ele>442.7</ele>
        <time>2022-07-03T12:09:30Z</time>
      </trkpt>
      <trkpt lat="46.65522" lon="5.61319">
        <ele>443</ele>
        <time>2022-07-03T12:09:35Z</time>
      </trkpt>
      <trkpt lat="46.65527" lon="5.6132">
        <ele>442.6</ele>
        <time>2022-07-03T12:09:41Z</time>
      </trkpt>
      <trkpt lat="46.65522" lon="5.61322">
        <ele>441.7</ele>
        <time>2022-07-03T12:10:01Z</time>
      </trkpt>
      <trkpt lat="46.65523" lon="5.61315">
        <ele>442</ele>
        <time>2022-07-03T12:10:08Z</time>
      </trkpt>
      <trkpt lat="46.6552" lon="5.61321">
        <ele>446.2</ele>
        <time>2022-07-03T12:10:37Z</time>
      </trkpt>
      <trkpt lat="46.65516" lon="5.61315">
        <ele>447</ele>
        <time>2022-07-03T12:10:50Z</time>
      </trkpt>
      <trkpt lat="46.65515" lon="5.61307">
        <ele>447.4</ele>
        <time>2022-07-03T12:10:53Z</time>
      </trkpt>
      <trkpt lat="46.65519" lon="5.61306">
        <ele>449.2</ele>
        <time>2022-07-03T12:11:12Z</time>
      </trkpt>
      <trkpt lat="46.65519" lon="5.61314">
        <ele>448.4</ele>
        <time>2022-07-03T12:11:34Z</time>
      </trkpt>
      <trkpt lat="46.65514" lon="5.61321">
        <ele>448.2</ele>
        <time>2022-07-03T12:11:37Z</time>
      </trkpt>
      <trkpt lat="46.65515" lon="5.61314">
        <ele>448.3</ele>
        <time>2022-07-03T12:11:50Z</time>
      </trkpt>
      <trkpt lat="46.65517" lon="5.61308">
        <ele>447.6</ele>
        <time>2022-07-03T12:11:57Z</time>
      </trkpt>
      <trkpt lat="46.65518" lon="5.61316">
        <ele>446</ele>
        <time>2022-07-03T12:12:04Z</time>
      </trkpt>
      <trkpt lat="46.65516" lon="5.6131">
        <ele>447.9</ele>
        <time>2022-07-03T12:12:45Z</time>
      </trkpt>
      <trkpt lat="46.65512" lon="5.61315">
        <ele>447.8</ele>
        <time>2022-07-03T12:12:54Z</time>
      </trkpt>
      <trkpt lat="46.65516" lon="5.6132">
        <ele>446.9</ele>
        <time>2022-07-03T12:13:03Z</time>
      </trkpt>
      <trkpt lat="46.65511" lon="5.61321">
        <ele>446.3</ele>
        <time>2022-07-03T12:13:19Z</time>
      </trkpt>
      <trkpt lat="46.65506" lon="5.61318">
        <ele>445.5</ele>
        <time>2022-07-03T12:13:24Z</time>
      </trkpt>
      <trkpt lat="46.65501" lon="5.61316">
        <ele>444.4</ele>
        <time>2022-07-03T12:13:28Z</time>
      </trkpt>
      <trkpt lat="46.65496" lon="5.61317">
        <ele>443.2</ele>
        <time>2022-07-03T12:13:36Z</time>
      </trkpt>
      <trkpt lat="46.65496" lon="5.61323">
        <ele>442.5</ele>
        <time>2022-07-03T12:13:44Z</time>
      </trkpt>
      <trkpt lat="46.65491" lon="5.61321">
        <ele>443.2</ele>
        <time>2022-07-03T12:13:52Z</time>
      </trkpt>
      <trkpt lat="46.65492" lon="5.61328">
        <ele>442.3</ele>
        <time>2022-07-03T12:14:02Z</time>
      </trkpt>
      <trkpt lat="46.65495" lon="5.61333">
        <ele>442.4</ele>
        <time>2022-07-03T12:14:07Z</time>
      </trkpt>
      <trkpt lat="46.65501" lon="5.61335">
        <ele>442.7</ele>
        <time>2022-07-03T12:14:12Z</time>
      </trkpt>
      <trkpt lat="46.65505" lon="5.61336">
        <ele>444</ele>
        <time>2022-07-03T12:14:19Z</time>
      </trkpt>
      <trkpt lat="46.65508" lon="5.61342">
        <ele>445.8</ele>
        <time>2022-07-03T12:14:26Z</time>
      </trkpt>
      <trkpt lat="46.65503" lon="5.61342">
        <ele>446.8</ele>
        <time>2022-07-03T12:14:30Z</time>
      </trkpt>
      <trkpt lat="46.65498" lon="5.61341">
        <ele>447</ele>
        <time>2022-07-03T12:14:34Z</time>
      </trkpt>
      <trkpt lat="46.65493" lon="5.61342">
        <ele>446.9</ele>
        <time>2022-07-03T12:14:44Z</time>
      </trkpt>
      <trkpt lat="46.65488" lon="5.61342">
        <ele>446.2</ele>
        <time>2022-07-03T12:14:50Z</time>
      </trkpt>
      <trkpt lat="46.65483" lon="5.6134">
        <ele>446.6</ele>
        <time>2022-07-03T12:14:56Z</time>
      </trkpt>
      <trkpt lat="46.65479" lon="5.6134">
        <ele>447.4</ele>
        <time>2022-07-03T12:15:02Z</time>
      </trkpt>
      <trkpt lat="46.65474" lon="5.61337">
        <ele>448.5</ele>
        <time>2022-07-03T12:15:08Z</time>
      </trkpt>
      <trkpt lat="46.6547" lon="5.61334">
        <ele>449</ele>
        <time>2022-07-03T12:15:20Z</time>
      </trkpt>
      <trkpt lat="46.65466" lon="5.61329">
        <ele>449</ele>
        <time>2022-07-03T12:15:26Z</time>
      </trkpt>
      <trkpt lat="46.65463" lon="5.61324">
        <ele>449.7</ele>
        <time>2022-07-03T12:15:37Z</time>
      </trkpt>
      <trkpt lat="46.65459" lon="5.6132">
        <ele>450.1</ele>
        <time>2022-07-03T12:15:43Z</time>
      </trkpt>
      <trkpt lat="46.65455" lon="5.61316">
        <ele>450.4</ele>
        <time>2022-07-03T12:15:50Z</time>
      </trkpt>
      <trkpt lat="46.6545" lon="5.61319">
        <ele>450.8</ele>
        <time>2022-07-03T12:15:55Z</time>
      </trkpt>
      <trkpt lat="46.65448" lon="5.61326">
        <ele>451</ele>
        <time>2022-07-03T12:16:01Z</time>
      </trkpt>
      <trkpt lat="46.65449" lon="5.61333">
        <ele>451.5</ele>
        <time>2022-07-03T12:16:08Z</time>
      </trkpt>
      <trkpt lat="46.65451" lon="5.61339">
        <ele>452.5</ele>
        <time>2022-07-03T12:16:14Z</time>
      </trkpt>
      <trkpt lat="46.65454" lon="5.61345">
        <ele>453.4</ele>
        <time>2022-07-03T12:16:20Z</time>
      </trkpt>
      <trkpt lat="46.65455" lon="5.61352">
        <ele>453.6</ele>
        <time>2022-07-03T12:16:24Z</time>
      </trkpt>
      <trkpt lat="46.65457" lon="5.61359">
        <ele>453.9</ele>
        <time>2022-07-03T12:16:31Z</time>
      </trkpt>
      <trkpt lat="46.65461" lon="5.61362">
        <ele>455.1</ele>
        <time>2022-07-03T12:16:35Z</time>
      </trkpt>
      <trkpt lat="46.65465" lon="5.61366">
        <ele>457</ele>
        <time>2022-07-03T12:16:40Z</time>
      </trkpt>
      <trkpt lat="46.6547" lon="5.61368">
        <ele>458.7</ele>
        <time>2022-07-03T12:16:47Z</time>
      </trkpt>
      <trkpt lat="46.65474" lon="5.6137">
        <ele>459.5</ele>
        <time>2022-07-03T12:16:51Z</time>
      </trkpt>
      <trkpt lat="46.65476" lon="5.61378">
        <ele>460.2</ele>
        <time>2022-07-03T12:16:58Z</time>
      </trkpt>
      <trkpt lat="46.65479" lon="5.61383">
        <ele>460.4</ele>
        <time>2022-07-03T12:17:05Z</time>
      </trkpt>
      <trkpt lat="46.65479" lon="5.61391">
        <ele>461.8</ele>
        <time>2022-07-03T12:17:11Z</time>
      </trkpt>
      <trkpt lat="46.6548" lon="5.61398">
        <ele>464.1</ele>
        <time>2022-07-03T12:17:18Z</time>
      </trkpt>
      <trkpt lat="46.65483" lon="5.61401">
        <ele>466.7</ele>
        <time>2022-07-03T12:17:30Z</time>
      </trkpt>
      <trkpt lat="46.65485" lon="5.61407">
        <ele>468.6</ele>
        <time>2022-07-03T12:17:41Z</time>
      </trkpt>
      <trkpt lat="46.65489" lon="5.61412">
        <ele>469.5</ele>
        <time>2022-07-03T12:17:45Z</time>
      </trkpt>
      <trkpt lat="46.65492" lon="5.61418">
        <ele>470.2</ele>
        <time>2022-07-03T12:17:49Z</time>
      </trkpt>
      <trkpt lat="46.65494" lon="5.61412">
        <ele>472.3</ele>
        <time>2022-07-03T12:18:10Z</time>
      </trkpt>
      <trkpt lat="46.6549" lon="5.61415">
        <ele>472.8</ele>
        <time>2022-07-03T12:18:14Z</time>
      </trkpt>
      <trkpt lat="46.65481" lon="5.61421">
        <ele>473</ele>
        <time>2022-07-03T12:18:17Z</time>
      </trkpt>
      <trkpt lat="46.65485" lon="5.61425">
        <ele>473.3</ele>
        <time>2022-07-03T12:18:24Z</time>
      </trkpt>
      <trkpt lat="46.65489" lon="5.6143">
        <ele>472.9</ele>
        <time>2022-07-03T12:18:30Z</time>
      </trkpt>
      <trkpt lat="46.65493" lon="5.61432">
        <ele>473.1</ele>
        <time>2022-07-03T12:18:33Z</time>
      </trkpt>
      <trkpt lat="46.65498" lon="5.61433">
        <ele>473.8</ele>
        <time>2022-07-03T12:18:37Z</time>
      </trkpt>
      <trkpt lat="46.65502" lon="5.61436">
        <ele>474.4</ele>
        <time>2022-07-03T12:18:42Z</time>
      </trkpt>
      <trkpt lat="46.65502" lon="5.61443">
        <ele>474.8</ele>
        <time>2022-07-03T12:18:47Z</time>
      </trkpt>
      <trkpt lat="46.65501" lon="5.6145">
        <ele>475.3</ele>
        <time>2022-07-03T12:18:57Z</time>
      </trkpt>
      <trkpt lat="46.65505" lon="5.61452">
        <ele>475.8</ele>
        <time>2022-07-03T12:19:04Z</time>
      </trkpt>
      <trkpt lat="46.6551" lon="5.61455">
        <ele>476.9</ele>
        <time>2022-07-03T12:19:09Z</time>
      </trkpt>
      <trkpt lat="46.65515" lon="5.61457">
        <ele>477.8</ele>
        <time>2022-07-03T12:19:14Z</time>
      </trkpt>
      <trkpt lat="46.6552" lon="5.61459">
        <ele>478.4</ele>
        <time>2022-07-03T12:19:17Z</time>
      </trkpt>
      <trkpt lat="46.65525" lon="5.61461">
        <ele>479.2</ele>
        <time>2022-07-03T12:19:23Z</time>
      </trkpt>
      <trkpt lat="46.6553" lon="5.61462">
        <ele>480.1</ele>
        <time>2022-07-03T12:19:27Z</time>
      </trkpt>
      <trkpt lat="46.65535" lon="5.61462">
        <ele>481</ele>
        <time>2022-07-03T12:19:30Z</time>
      </trkpt>
      <trkpt lat="46.6554" lon="5.61462">
        <ele>482.4</ele>
        <time>2022-07-03T12:19:35Z</time>
      </trkpt>
      <trkpt lat="46.65544" lon="5.61465">
        <ele>484</ele>
        <time>2022-07-03T12:19:40Z</time>
      </trkpt>
      <trkpt lat="46.65548" lon="5.61468">
        <ele>488.1</ele>
        <time>2022-07-03T12:19:48Z</time>
      </trkpt>
      <trkpt lat="46.65551" lon="5.61475">
        <ele>490.2</ele>
        <time>2022-07-03T12:19:58Z</time>
      </trkpt>
      <trkpt lat="46.65555" lon="5.61474">
        <ele>490.4</ele>
        <time>2022-07-03T12:20:02Z</time>
      </trkpt>
      <trkpt lat="46.65559" lon="5.6148">
        <ele>489.9</ele>
        <time>2022-07-03T12:20:12Z</time>
      </trkpt>
      <trkpt lat="46.65562" lon="5.61485">
        <ele>489.8</ele>
        <time>2022-07-03T12:20:15Z</time>
      </trkpt>
      <trkpt lat="46.65566" lon="5.6149">
        <ele>489.9</ele>
        <time>2022-07-03T12:20:18Z</time>
      </trkpt>
      <trkpt lat="46.6557" lon="5.61492">
        <ele>490.5</ele>
        <time>2022-07-03T12:20:22Z</time>
      </trkpt>
      <trkpt lat="46.65568" lon="5.61486">
        <ele>494</ele>
        <time>2022-07-03T12:20:34Z</time>
      </trkpt>
      <trkpt lat="46.65565" lon="5.61481">
        <ele>497</ele>
        <time>2022-07-03T12:20:54Z</time>
      </trkpt>
      <trkpt lat="46.6556" lon="5.6148">
        <ele>500.6</ele>
        <time>2022-07-03T12:21:07Z</time>
      </trkpt>
      <trkpt lat="46.65562" lon="5.61471">
        <ele>505.4</ele>
        <time>2022-07-03T12:21:47Z</time>
      </trkpt>
      <trkpt lat="46.65564" lon="5.61478">
        <ele>503.4</ele>
        <time>2022-07-03T12:22:11Z</time>
      </trkpt>
      <trkpt lat="46.65568" lon="5.61484">
        <ele>503.1</ele>
        <time>2022-07-03T12:22:14Z</time>
      </trkpt>
      <trkpt lat="46.65565" lon="5.61486">
        <ele>504.8</ele>
        <time>2022-07-03T12:22:45Z</time>
      </trkpt>
      <trkpt lat="46.65569" lon="5.61484">
        <ele>506.4</ele>
        <time>2022-07-03T12:22:51Z</time>
      </trkpt>
      <trkpt lat="46.65573" lon="5.61488">
        <ele>511</ele>
        <time>2022-07-03T12:23:13Z</time>
      </trkpt>
      <trkpt lat="46.65577" lon="5.61484">
        <ele>510.8</ele>
        <time>2022-07-03T12:23:17Z</time>
      </trkpt>
      <trkpt lat="46.65572" lon="5.6148">
        <ele>511.4</ele>
        <time>2022-07-03T12:23:29Z</time>
      </trkpt>
      <trkpt lat="46.65568" lon="5.61482">
        <ele>512.9</ele>
        <time>2022-07-03T12:23:47Z</time>
      </trkpt>
      <trkpt lat="46.65563" lon="5.61482">
        <ele>513.1</ele>
        <time>2022-07-03T12:23:50Z</time>
      </trkpt>
      <trkpt lat="46.65558" lon="5.61481">
        <ele>512.9</ele>
        <time>2022-07-03T12:23:56Z</time>
      </trkpt>
      <trkpt lat="46.65553" lon="5.61478">
        <ele>511.4</ele>
        <time>2022-07-03T12:24:10Z</time>
      </trkpt>
      <trkpt lat="46.65549" lon="5.61475">
        <ele>511.2</ele>
        <time>2022-07-03T12:24:13Z</time>
      </trkpt>
      <trkpt lat="46.65545" lon="5.61481">
        <ele>510.2</ele>
        <time>2022-07-03T12:24:21Z</time>
      </trkpt>
      <trkpt lat="46.65549" lon="5.61484">
        <ele>508</ele>
        <time>2022-07-03T12:24:29Z</time>
      </trkpt>
      <trkpt lat="46.65583" lon="5.61501">
        <ele>500.9</ele>
        <time>2022-07-03T12:25:27Z</time>
      </trkpt>
      <trkpt lat="46.65579" lon="5.61495">
        <ele>500.8</ele>
        <time>2022-07-03T12:25:31Z</time>
      </trkpt>
      <trkpt lat="46.65576" lon="5.6149">
        <ele>500.6</ele>
        <time>2022-07-03T12:25:34Z</time>
      </trkpt>
      <trkpt lat="46.65567" lon="5.61485">
        <ele>502.1</ele>
        <time>2022-07-03T12:25:54Z</time>
      </trkpt>
      <trkpt lat="46.65566" lon="5.61481">
        <ele>505.9</ele>
        <time>2022-07-03T12:26:43Z</time>
      </trkpt>
      <trkpt lat="46.65572" lon="5.61483">
        <ele>509</ele>
        <time>2022-07-03T12:27:11Z</time>
      </trkpt>
      <trkpt lat="46.65567" lon="5.61486">
        <ele>508.6</ele>
        <time>2022-07-03T12:27:20Z</time>
      </trkpt>
      <trkpt lat="46.65562" lon="5.61489">
        <ele>508.1</ele>
        <time>2022-07-03T12:27:23Z</time>
      </trkpt>
      <trkpt lat="46.6556" lon="5.61483">
        <ele>507.5</ele>
        <time>2022-07-03T12:27:28Z</time>
      </trkpt>
      <trkpt lat="46.65554" lon="5.61484">
        <ele>509.4</ele>
        <time>2022-07-03T12:27:48Z</time>
      </trkpt>
      <trkpt lat="46.65559" lon="5.61489">
        <ele>507.4</ele>
        <time>2022-07-03T12:28:03Z</time>
      </trkpt>
      <trkpt lat="46.65556" lon="5.61483">
        <ele>509.4</ele>
        <time>2022-07-03T12:28:16Z</time>
      </trkpt>
      <trkpt lat="46.65557" lon="5.61476">
        <ele>510.1</ele>
        <time>2022-07-03T12:28:23Z</time>
      </trkpt>
      <trkpt lat="46.65569" lon="5.61475">
        <ele>509.2</ele>
        <time>2022-07-03T12:28:40Z</time>
      </trkpt>
      <trkpt lat="46.65572" lon="5.6147">
        <ele>508.1</ele>
        <time>2022-07-03T12:28:48Z</time>
      </trkpt>
      <trkpt lat="46.6557" lon="5.61463">
        <ele>506.8</ele>
        <time>2022-07-03T12:28:53Z</time>
      </trkpt>
      <trkpt lat="46.65567" lon="5.61457">
        <ele>505.2</ele>
        <time>2022-07-03T12:28:57Z</time>
      </trkpt>
      <trkpt lat="46.65563" lon="5.61452">
        <ele>503.1</ele>
        <time>2022-07-03T12:29:03Z</time>
      </trkpt>
      <trkpt lat="46.65568" lon="5.61451">
        <ele>501.3</ele>
        <time>2022-07-03T12:29:12Z</time>
      </trkpt>
      <trkpt lat="46.65574" lon="5.61453">
        <ele>500.3</ele>
        <time>2022-07-03T12:29:15Z</time>
      </trkpt>
      <trkpt lat="46.65579" lon="5.61456">
        <ele>499.5</ele>
        <time>2022-07-03T12:29:18Z</time>
      </trkpt>
      <trkpt lat="46.65582" lon="5.61462">
        <ele>498.4</ele>
        <time>2022-07-03T12:29:22Z</time>
      </trkpt>
      <trkpt lat="46.65586" lon="5.61465">
        <ele>497</ele>
        <time>2022-07-03T12:29:28Z</time>
      </trkpt>
      <trkpt lat="46.65589" lon="5.61471">
        <ele>496.4</ele>
        <time>2022-07-03T12:29:34Z</time>
      </trkpt>
      <trkpt lat="46.6559" lon="5.61478">
        <ele>497.7</ele>
        <time>2022-07-03T12:29:49Z</time>
      </trkpt>
      <trkpt lat="46.65592" lon="5.61484">
        <ele>497.9</ele>
        <time>2022-07-03T12:29:53Z</time>
      </trkpt>
      <trkpt lat="46.65592" lon="5.61491">
        <ele>497.9</ele>
        <time>2022-07-03T12:29:58Z</time>
      </trkpt>
      <trkpt lat="46.65589" lon="5.61496">
        <ele>497.9</ele>
        <time>2022-07-03T12:30:07Z</time>
      </trkpt>
      <trkpt lat="46.65585" lon="5.61499">
        <ele>499.5</ele>
        <time>2022-07-03T12:30:16Z</time>
      </trkpt>
      <trkpt lat="46.65589" lon="5.61502">
        <ele>500.5</ele>
        <time>2022-07-03T12:30:32Z</time>
      </trkpt>
      <trkpt lat="46.65594" lon="5.61505">
        <ele>507</ele>
        <time>2022-07-03T12:31:21Z</time>
      </trkpt>
      <trkpt lat="46.65594" lon="5.61498">
        <ele>506</ele>
        <time>2022-07-03T12:31:37Z</time>
      </trkpt>
      <trkpt lat="46.65596" lon="5.61506">
        <ele>503.5</ele>
        <time>2022-07-03T12:31:41Z</time>
      </trkpt>
      <trkpt lat="46.65591" lon="5.61505">
        <ele>497.9</ele>
        <time>2022-07-03T12:31:53Z</time>
      </trkpt>
      <trkpt lat="46.65591" lon="5.61498">
        <ele>495.9</ele>
        <time>2022-07-03T12:31:59Z</time>
      </trkpt>
      <trkpt lat="46.65589" lon="5.61491">
        <ele>495.3</ele>
        <time>2022-07-03T12:32:04Z</time>
      </trkpt>
      <trkpt lat="46.65594" lon="5.6149">
        <ele>496</ele>
        <time>2022-07-03T12:32:22Z</time>
      </trkpt>
      <trkpt lat="46.65597" lon="5.61484">
        <ele>501.5</ele>
        <time>2022-07-03T12:32:40Z</time>
      </trkpt>
      <trkpt lat="46.65599" lon="5.61478">
        <ele>505.7</ele>
        <time>2022-07-03T12:32:56Z</time>
      </trkpt>
      <trkpt lat="46.656" lon="5.61472">
        <ele>506.9</ele>
        <time>2022-07-03T12:33:01Z</time>
      </trkpt>
      <trkpt lat="46.656" lon="5.61465">
        <ele>510.4</ele>
        <time>2022-07-03T12:33:09Z</time>
      </trkpt>
      <trkpt lat="46.65598" lon="5.61458">
        <ele>512.2</ele>
        <time>2022-07-03T12:33:13Z</time>
      </trkpt>
      <trkpt lat="46.65596" lon="5.61453">
        <ele>513.2</ele>
        <time>2022-07-03T12:33:16Z</time>
      </trkpt>
      <trkpt lat="46.65594" lon="5.61446">
        <ele>514.5</ele>
        <time>2022-07-03T12:33:21Z</time>
      </trkpt>
      <trkpt lat="46.65597" lon="5.61442">
        <ele>515.8</ele>
        <time>2022-07-03T12:33:26Z</time>
      </trkpt>
      <trkpt lat="46.656" lon="5.61436">
        <ele>516.3</ele>
        <time>2022-07-03T12:33:32Z</time>
      </trkpt>
      <trkpt lat="46.65602" lon="5.6143">
        <ele>516</ele>
        <time>2022-07-03T12:33:40Z</time>
      </trkpt>
      <trkpt lat="46.65606" lon="5.61426">
        <ele>516.5</ele>
        <time>2022-07-03T12:33:46Z</time>
      </trkpt>
      <trkpt lat="46.6561" lon="5.61422">
        <ele>517.7</ele>
        <time>2022-07-03T12:33:51Z</time>
      </trkpt>
      <trkpt lat="46.65612" lon="5.61416">
        <ele>519.2</ele>
        <time>2022-07-03T12:33:56Z</time>
      </trkpt>
      <trkpt lat="46.65615" lon="5.6141">
        <ele>520</ele>
        <time>2022-07-03T12:34:01Z</time>
      </trkpt>
      <trkpt lat="46.65618" lon="5.61404">
        <ele>519.9</ele>
        <time>2022-07-03T12:34:07Z</time>
      </trkpt>
      <trkpt lat="46.65622" lon="5.614">
        <ele>519.1</ele>
        <time>2022-07-03T12:34:12Z</time>
      </trkpt>
      <trkpt lat="46.65624" lon="5.61393">
        <ele>519.1</ele>
        <time>2022-07-03T12:34:16Z</time>
      </trkpt>
      <trkpt lat="46.6562" lon="5.61389">
        <ele>519.9</ele>
        <time>2022-07-03T12:34:23Z</time>
      </trkpt>
      <trkpt lat="46.65625" lon="5.61388">
        <ele>518.9</ele>
        <time>2022-07-03T12:34:29Z</time>
      </trkpt>
      <trkpt lat="46.65624" lon="5.61382">
        <ele>518.2</ele>
        <time>2022-07-03T12:34:41Z</time>
      </trkpt>
      <trkpt lat="46.65621" lon="5.61377">
        <ele>520</ele>
        <time>2022-07-03T12:35:00Z</time>
      </trkpt>
      <trkpt lat="46.65617" lon="5.61375">
        <ele>521.4</ele>
        <time>2022-07-03T12:35:09Z</time>
      </trkpt>
      <trkpt lat="46.65621" lon="5.61378">
        <ele>522.9</ele>
        <time>2022-07-03T12:35:32Z</time>
      </trkpt>
      <trkpt lat="46.65618" lon="5.61372">
        <ele>522.7</ele>
        <time>2022-07-03T12:35:41Z</time>
      </trkpt>
      <trkpt lat="46.65617" lon="5.61365">
        <ele>523.2</ele>
        <time>2022-07-03T12:35:47Z</time>
      </trkpt>
      <trkpt lat="46.65614" lon="5.6137">
        <ele>524.9</ele>
        <time>2022-07-03T12:35:59Z</time>
      </trkpt>
      <trkpt lat="46.65615" lon="5.61376">
        <ele>524.1</ele>
        <time>2022-07-03T12:36:16Z</time>
      </trkpt>
      <trkpt lat="46.65619" lon="5.61373">
        <ele>518.8</ele>
        <time>2022-07-03T12:36:39Z</time>
      </trkpt>
      <trkpt lat="46.65621" lon="5.6138">
        <ele>516.7</ele>
        <time>2022-07-03T12:37:39Z</time>
      </trkpt>
      <trkpt lat="46.65625" lon="5.61377">
        <ele>518.9</ele>
        <time>2022-07-03T12:38:15Z</time>
      </trkpt>
      <trkpt lat="46.65619" lon="5.61374">
        <ele>519.4</ele>
        <time>2022-07-03T12:38:54Z</time>
      </trkpt>
      <trkpt lat="46.65621" lon="5.61382">
        <ele>524</ele>
        <time>2022-07-03T12:39:37Z</time>
      </trkpt>
      <trkpt lat="46.65619" lon="5.61377">
        <ele>522.9</ele>
        <time>2022-07-03T12:39:45Z</time>
      </trkpt>
      <trkpt lat="46.65616" lon="5.61369">
        <ele>521.7</ele>
        <time>2022-07-03T12:39:49Z</time>
      </trkpt>
      <trkpt lat="46.65614" lon="5.61363">
        <ele>520.4</ele>
        <time>2022-07-03T12:39:53Z</time>
      </trkpt>
      <trkpt lat="46.65613" lon="5.61357">
        <ele>518.4</ele>
        <time>2022-07-03T12:39:58Z</time>
      </trkpt>
      <trkpt lat="46.65614" lon="5.6135">
        <ele>516</ele>
        <time>2022-07-03T12:40:05Z</time>
      </trkpt>
      <trkpt lat="46.65615" lon="5.61344">
        <ele>515.8</ele>
        <time>2022-07-03T12:40:42Z</time>
      </trkpt>
      <trkpt lat="46.6562" lon="5.61341">
        <ele>516.5</ele>
        <time>2022-07-03T12:40:48Z</time>
      </trkpt>
      <trkpt lat="46.65625" lon="5.6134">
        <ele>516.8</ele>
        <time>2022-07-03T12:40:54Z</time>
      </trkpt>
      <trkpt lat="46.65627" lon="5.61334">
        <ele>517.2</ele>
        <time>2022-07-03T12:41:02Z</time>
      </trkpt>
      <trkpt lat="46.65628" lon="5.61327">
        <ele>516</ele>
        <time>2022-07-03T12:41:09Z</time>
      </trkpt>
      <trkpt lat="46.65628" lon="5.61319">
        <ele>515.5</ele>
        <time>2022-07-03T12:41:14Z</time>
      </trkpt>
      <trkpt lat="46.65627" lon="5.61312">
        <ele>515.6</ele>
        <time>2022-07-03T12:41:19Z</time>
      </trkpt>
      <trkpt lat="46.65624" lon="5.61307">
        <ele>515.8</ele>
        <time>2022-07-03T12:41:27Z</time>
      </trkpt>
      <trkpt lat="46.65625" lon="5.613">
        <ele>516.1</ele>
        <time>2022-07-03T12:41:33Z</time>
      </trkpt>
      <trkpt lat="46.65628" lon="5.61295">
        <ele>515.3</ele>
        <time>2022-07-03T12:41:39Z</time>
      </trkpt>
      <trkpt lat="46.65632" lon="5.6129">
        <ele>514.1</ele>
        <time>2022-07-03T12:41:49Z</time>
      </trkpt>
      <trkpt lat="46.65631" lon="5.61283">
        <ele>516.1</ele>
        <time>2022-07-03T12:42:05Z</time>
      </trkpt>
      <trkpt lat="46.65635" lon="5.6128">
        <ele>517.7</ele>
        <time>2022-07-03T12:42:18Z</time>
      </trkpt>
      <trkpt lat="46.65639" lon="5.61285">
        <ele>518</ele>
        <time>2022-07-03T12:42:21Z</time>
      </trkpt>
      <trkpt lat="46.65643" lon="5.61288">
        <ele>518.2</ele>
        <time>2022-07-03T12:42:25Z</time>
      </trkpt>
      <trkpt lat="46.65648" lon="5.61289">
        <ele>517.9</ele>
        <time>2022-07-03T12:42:32Z</time>
      </trkpt>
      <trkpt lat="46.65652" lon="5.61288">
        <ele>517.8</ele>
        <time>2022-07-03T12:42:37Z</time>
      </trkpt>
      <trkpt lat="46.65657" lon="5.61286">
        <ele>518.5</ele>
        <time>2022-07-03T12:42:45Z</time>
      </trkpt>
      <trkpt lat="46.65661" lon="5.61289">
        <ele>517.7</ele>
        <time>2022-07-03T12:42:53Z</time>
      </trkpt>
      <trkpt lat="46.65665" lon="5.61285">
        <ele>516.7</ele>
        <time>2022-07-03T12:43:00Z</time>
      </trkpt>
      <trkpt lat="46.65666" lon="5.61279">
        <ele>516.4</ele>
        <time>2022-07-03T12:43:05Z</time>
      </trkpt>
      <trkpt lat="46.65668" lon="5.61272">
        <ele>516.8</ele>
        <time>2022-07-03T12:43:10Z</time>
      </trkpt>
      <trkpt lat="46.65671" lon="5.61267">
        <ele>517.7</ele>
        <time>2022-07-03T12:43:15Z</time>
      </trkpt>
      <trkpt lat="46.65674" lon="5.61261">
        <ele>518.5</ele>
        <time>2022-07-03T12:43:22Z</time>
      </trkpt>
      <trkpt lat="46.65678" lon="5.61257">
        <ele>518.6</ele>
        <time>2022-07-03T12:43:28Z</time>
      </trkpt>
      <trkpt lat="46.65683" lon="5.61255">
        <ele>518.5</ele>
        <time>2022-07-03T12:43:34Z</time>
      </trkpt>
      <trkpt lat="46.65688" lon="5.61252">
        <ele>517.4</ele>
        <time>2022-07-03T12:43:42Z</time>
      </trkpt>
      <trkpt lat="46.65692" lon="5.61246">
        <ele>517.2</ele>
        <time>2022-07-03T12:43:47Z</time>
      </trkpt>
      <trkpt lat="46.65695" lon="5.61242">
        <ele>516.9</ele>
        <time>2022-07-03T12:43:52Z</time>
      </trkpt>
      <trkpt lat="46.65698" lon="5.61236">
        <ele>516.8</ele>
        <time>2022-07-03T12:44:00Z</time>
      </trkpt>
      <trkpt lat="46.65703" lon="5.61231">
        <ele>516.9</ele>
        <time>2022-07-03T12:44:05Z</time>
      </trkpt>
      <trkpt lat="46.65706" lon="5.61227">
        <ele>516.7</ele>
        <time>2022-07-03T12:44:08Z</time>
      </trkpt>
      <trkpt lat="46.65709" lon="5.61222">
        <ele>514.6</ele>
        <time>2022-07-03T12:44:18Z</time>
      </trkpt>
      <trkpt lat="46.65715" lon="5.61222">
        <ele>513.3</ele>
        <time>2022-07-03T12:44:25Z</time>
      </trkpt>
      <trkpt lat="46.6572" lon="5.6122">
        <ele>512.1</ele>
        <time>2022-07-03T12:44:42Z</time>
      </trkpt>
      <trkpt lat="46.65726" lon="5.61223">
        <ele>512</ele>
        <time>2022-07-03T12:44:45Z</time>
      </trkpt>
      <trkpt lat="46.65731" lon="5.61224">
        <ele>511.3</ele>
        <time>2022-07-03T12:44:50Z</time>
      </trkpt>
      <trkpt lat="46.65732" lon="5.61217">
        <ele>509.9</ele>
        <time>2022-07-03T12:44:56Z</time>
      </trkpt>
      <trkpt lat="46.65727" lon="5.61216">
        <ele>508.3</ele>
        <time>2022-07-03T12:45:10Z</time>
      </trkpt>
      <trkpt lat="46.65722" lon="5.61217">
        <ele>508.1</ele>
        <time>2022-07-03T12:45:15Z</time>
      </trkpt>
      <trkpt lat="46.65721" lon="5.61209">
        <ele>509</ele>
        <time>2022-07-03T12:45:29Z</time>
      </trkpt>
      <trkpt lat="46.65719" lon="5.61204">
        <ele>509.3</ele>
        <time>2022-07-03T12:45:32Z</time>
      </trkpt>
      <trkpt lat="46.65725" lon="5.61207">
        <ele>509.3</ele>
        <time>2022-07-03T12:46:07Z</time>
      </trkpt>
      <trkpt lat="46.65728" lon="5.61212">
        <ele>509.8</ele>
        <time>2022-07-03T12:46:34Z</time>
      </trkpt>
      <trkpt lat="46.65733" lon="5.61213">
        <ele>509</ele>
        <time>2022-07-03T12:46:50Z</time>
      </trkpt>
      <trkpt lat="46.65737" lon="5.61217">
        <ele>507.5</ele>
        <time>2022-07-03T12:47:00Z</time>
      </trkpt>
      <trkpt lat="46.65741" lon="5.61214">
        <ele>504.4</ele>
        <time>2022-07-03T12:47:26Z</time>
      </trkpt>
      <trkpt lat="46.65747" lon="5.61213">
        <ele>504.4</ele>
        <time>2022-07-03T12:47:29Z</time>
      </trkpt>
      <trkpt lat="46.65753" lon="5.61214">
        <ele>504.9</ele>
        <time>2022-07-03T12:47:32Z</time>
      </trkpt>
      <trkpt lat="46.65758" lon="5.61213">
        <ele>505.8</ele>
        <time>2022-07-03T12:47:36Z</time>
      </trkpt>
      <trkpt lat="46.65762" lon="5.6121">
        <ele>507.2</ele>
        <time>2022-07-03T12:47:41Z</time>
      </trkpt>
      <trkpt lat="46.65767" lon="5.61208">
        <ele>508.2</ele>
        <time>2022-07-03T12:47:46Z</time>
      </trkpt>
      <trkpt lat="46.6577" lon="5.61202">
        <ele>509.3</ele>
        <time>2022-07-03T12:47:59Z</time>
      </trkpt>
      <trkpt lat="46.65772" lon="5.61196">
        <ele>508.7</ele>
        <time>2022-07-03T12:48:04Z</time>
      </trkpt>
      <trkpt lat="46.65774" lon="5.6119">
        <ele>507.3</ele>
        <time>2022-07-03T12:48:16Z</time>
      </trkpt>
      <trkpt lat="46.65772" lon="5.61184">
        <ele>505.6</ele>
        <time>2022-07-03T12:48:23Z</time>
      </trkpt>
      <trkpt lat="46.65771" lon="5.61176">
        <ele>505.6</ele>
        <time>2022-07-03T12:48:37Z</time>
      </trkpt>
      <trkpt lat="46.6577" lon="5.61186">
        <ele>507.1</ele>
        <time>2022-07-03T12:48:44Z</time>
      </trkpt>
      <trkpt lat="46.65768" lon="5.61196">
        <ele>505.9</ele>
        <time>2022-07-03T12:48:47Z</time>
      </trkpt>
      <trkpt lat="46.65772" lon="5.61202">
        <ele>504.7</ele>
        <time>2022-07-03T12:48:50Z</time>
      </trkpt>
      <trkpt lat="46.65778" lon="5.61199">
        <ele>503.5</ele>
        <time>2022-07-03T12:48:53Z</time>
      </trkpt>
      <trkpt lat="46.65788" lon="5.61192">
        <ele>502.9</ele>
        <time>2022-07-03T12:48:56Z</time>
      </trkpt>
      <trkpt lat="46.65794" lon="5.61189">
        <ele>502</ele>
        <time>2022-07-03T12:48:59Z</time>
      </trkpt>
      <trkpt lat="46.65799" lon="5.61187">
        <ele>500.6</ele>
        <time>2022-07-03T12:49:02Z</time>
      </trkpt>
      <trkpt lat="46.65803" lon="5.61182">
        <ele>500.5</ele>
        <time>2022-07-03T12:49:05Z</time>
      </trkpt>
      <trkpt lat="46.65807" lon="5.61179">
        <ele>500.7</ele>
        <time>2022-07-03T12:49:08Z</time>
      </trkpt>
      <trkpt lat="46.65812" lon="5.61178">
        <ele>501.2</ele>
        <time>2022-07-03T12:49:12Z</time>
      </trkpt>
      <trkpt lat="46.65817" lon="5.61181">
        <ele>501.3</ele>
        <time>2022-07-03T12:49:16Z</time>
      </trkpt>
      <trkpt lat="46.65821" lon="5.6118">
        <ele>500</ele>
        <time>2022-07-03T12:49:21Z</time>
      </trkpt>
      <trkpt lat="46.65826" lon="5.61183">
        <ele>498.9</ele>
        <time>2022-07-03T12:49:30Z</time>
      </trkpt>
      <trkpt lat="46.65831" lon="5.61183">
        <ele>499.2</ele>
        <time>2022-07-03T12:49:34Z</time>
      </trkpt>
      <trkpt lat="46.65835" lon="5.61182">
        <ele>500.1</ele>
        <time>2022-07-03T12:49:41Z</time>
      </trkpt>
      <trkpt lat="46.6584" lon="5.61183">
        <ele>501.5</ele>
        <time>2022-07-03T12:49:45Z</time>
      </trkpt>
      <trkpt lat="46.65844" lon="5.61183">
        <ele>503.1</ele>
        <time>2022-07-03T12:49:49Z</time>
      </trkpt>
      <trkpt lat="46.65849" lon="5.61186">
        <ele>504.4</ele>
        <time>2022-07-03T12:49:54Z</time>
      </trkpt>
      <trkpt lat="46.65854" lon="5.61191">
        <ele>504.9</ele>
        <time>2022-07-03T12:49:58Z</time>
      </trkpt>
      <trkpt lat="46.65858" lon="5.6119">
        <ele>505.4</ele>
        <time>2022-07-03T12:50:06Z</time>
      </trkpt>
      <trkpt lat="46.65864" lon="5.61189">
        <ele>505.2</ele>
        <time>2022-07-03T12:50:11Z</time>
      </trkpt>
      <trkpt lat="46.65869" lon="5.61188">
        <ele>505.2</ele>
        <time>2022-07-03T12:50:17Z</time>
      </trkpt>
      <trkpt lat="46.65873" lon="5.61194">
        <ele>504.9</ele>
        <time>2022-07-03T12:50:23Z</time>
      </trkpt>
      <trkpt lat="46.65877" lon="5.61197">
        <ele>504.5</ele>
        <time>2022-07-03T12:50:26Z</time>
      </trkpt>
      <trkpt lat="46.65882" lon="5.61197">
        <ele>504.3</ele>
        <time>2022-07-03T12:50:31Z</time>
      </trkpt>
      <trkpt lat="46.65887" lon="5.61196">
        <ele>504.6</ele>
        <time>2022-07-03T12:50:34Z</time>
      </trkpt>
      <trkpt lat="46.65892" lon="5.61195">
        <ele>505.4</ele>
        <time>2022-07-03T12:50:37Z</time>
      </trkpt>
      <trkpt lat="46.65897" lon="5.61195">
        <ele>506.2</ele>
        <time>2022-07-03T12:50:41Z</time>
      </trkpt>
      <trkpt lat="46.65902" lon="5.61193">
        <ele>507.7</ele>
        <time>2022-07-03T12:50:48Z</time>
      </trkpt>
      <trkpt lat="46.65906" lon="5.61194">
        <ele>508.9</ele>
        <time>2022-07-03T12:50:53Z</time>
      </trkpt>
      <trkpt lat="46.65912" lon="5.61195">
        <ele>509.8</ele>
        <time>2022-07-03T12:50:57Z</time>
      </trkpt>
      <trkpt lat="46.65917" lon="5.61196">
        <ele>510.7</ele>
        <time>2022-07-03T12:51:02Z</time>
      </trkpt>
      <trkpt lat="46.65922" lon="5.61198">
        <ele>511.3</ele>
        <time>2022-07-03T12:51:08Z</time>
      </trkpt>
      <trkpt lat="46.65928" lon="5.612">
        <ele>511.3</ele>
        <time>2022-07-03T12:51:12Z</time>
      </trkpt>
      <trkpt lat="46.65933" lon="5.61201">
        <ele>511.2</ele>
        <time>2022-07-03T12:51:16Z</time>
      </trkpt>
      <trkpt lat="46.65938" lon="5.61199">
        <ele>510.6</ele>
        <time>2022-07-03T12:51:21Z</time>
      </trkpt>
      <trkpt lat="46.6594" lon="5.61193">
        <ele>505.8</ele>
        <time>2022-07-03T12:51:44Z</time>
      </trkpt>
      <trkpt lat="46.65945" lon="5.61193">
        <ele>505</ele>
        <time>2022-07-03T12:51:47Z</time>
      </trkpt>
      <trkpt lat="46.6595" lon="5.61193">
        <ele>504.3</ele>
        <time>2022-07-03T12:51:50Z</time>
      </trkpt>
      <trkpt lat="46.65954" lon="5.61195">
        <ele>503.4</ele>
        <time>2022-07-03T12:51:53Z</time>
      </trkpt>
      <trkpt lat="46.65957" lon="5.612">
        <ele>496.3</ele>
        <time>2022-07-03T12:52:19Z</time>
      </trkpt>
      <trkpt lat="46.65962" lon="5.61199">
        <ele>495.4</ele>
        <time>2022-07-03T12:52:24Z</time>
      </trkpt>
      <trkpt lat="46.65966" lon="5.61194">
        <ele>494.9</ele>
        <time>2022-07-03T12:52:34Z</time>
      </trkpt>
      <trkpt lat="46.65971" lon="5.61195">
        <ele>495.2</ele>
        <time>2022-07-03T12:52:41Z</time>
      </trkpt>
      <trkpt lat="46.65976" lon="5.61197">
        <ele>496</ele>
        <time>2022-07-03T12:52:46Z</time>
      </trkpt>
      <trkpt lat="46.65981" lon="5.61199">
        <ele>496.5</ele>
        <time>2022-07-03T12:52:50Z</time>
      </trkpt>
      <trkpt lat="46.65985" lon="5.61202">
        <ele>496.8</ele>
        <time>2022-07-03T12:52:54Z</time>
      </trkpt>
      <trkpt lat="46.6599" lon="5.61201">
        <ele>497.4</ele>
        <time>2022-07-03T12:53:00Z</time>
      </trkpt>
      <trkpt lat="46.65994" lon="5.61199">
        <ele>497.5</ele>
        <time>2022-07-03T12:53:13Z</time>
      </trkpt>
      <trkpt lat="46.65999" lon="5.61196">
        <ele>496.6</ele>
        <time>2022-07-03T12:53:20Z</time>
      </trkpt>
      <trkpt lat="46.66004" lon="5.61201">
        <ele>495.8</ele>
        <time>2022-07-03T12:53:24Z</time>
      </trkpt>
      <trkpt lat="46.66007" lon="5.61207">
        <ele>495.5</ele>
        <time>2022-07-03T12:53:27Z</time>
      </trkpt>
      <trkpt lat="46.66011" lon="5.61209">
        <ele>495.1</ele>
        <time>2022-07-03T12:53:32Z</time>
      </trkpt>
      <trkpt lat="46.66016" lon="5.61207">
        <ele>493.7</ele>
        <time>2022-07-03T12:53:49Z</time>
      </trkpt>
      <trkpt lat="46.66021" lon="5.61206">
        <ele>492.9</ele>
        <time>2022-07-03T12:53:55Z</time>
      </trkpt>
      <trkpt lat="46.66027" lon="5.61207">
        <ele>492.4</ele>
        <time>2022-07-03T12:53:59Z</time>
      </trkpt>
      <trkpt lat="46.66032" lon="5.6121">
        <ele>492.1</ele>
        <time>2022-07-03T12:54:02Z</time>
      </trkpt>
      <trkpt lat="46.66039" lon="5.61213">
        <ele>491.8</ele>
        <time>2022-07-03T12:54:05Z</time>
      </trkpt>
      <trkpt lat="46.66044" lon="5.61215">
        <ele>492</ele>
        <time>2022-07-03T12:54:09Z</time>
      </trkpt>
      <trkpt lat="46.66048" lon="5.61215">
        <ele>493.5</ele>
        <time>2022-07-03T12:54:19Z</time>
      </trkpt>
      <trkpt lat="46.66052" lon="5.61219">
        <ele>494.5</ele>
        <time>2022-07-03T12:54:23Z</time>
      </trkpt>
      <trkpt lat="46.66056" lon="5.61223">
        <ele>495.4</ele>
        <time>2022-07-03T12:54:27Z</time>
      </trkpt>
      <trkpt lat="46.66058" lon="5.6123">
        <ele>496.2</ele>
        <time>2022-07-03T12:54:32Z</time>
      </trkpt>
      <trkpt lat="46.66062" lon="5.61235">
        <ele>496.1</ele>
        <time>2022-07-03T12:54:46Z</time>
      </trkpt>
      <trkpt lat="46.66066" lon="5.61238">
        <ele>494.8</ele>
        <time>2022-07-03T12:54:51Z</time>
      </trkpt>
      <trkpt lat="46.66071" lon="5.61237">
        <ele>493.5</ele>
        <time>2022-07-03T12:55:01Z</time>
      </trkpt>
      <trkpt lat="46.66076" lon="5.61236">
        <ele>493</ele>
        <time>2022-07-03T12:55:18Z</time>
      </trkpt>
      <trkpt lat="46.6608" lon="5.61238">
        <ele>494.6</ele>
        <time>2022-07-03T12:55:27Z</time>
      </trkpt>
      <trkpt lat="46.66085" lon="5.61234">
        <ele>496.8</ele>
        <time>2022-07-03T12:55:36Z</time>
      </trkpt>
      <trkpt lat="46.66089" lon="5.61233">
        <ele>499</ele>
        <time>2022-07-03T12:55:44Z</time>
      </trkpt>
      <trkpt lat="46.66094" lon="5.61233">
        <ele>499.2</ele>
        <time>2022-07-03T12:55:52Z</time>
      </trkpt>
      <trkpt lat="46.66099" lon="5.61232">
        <ele>498.4</ele>
        <time>2022-07-03T12:55:58Z</time>
      </trkpt>
      <trkpt lat="46.66104" lon="5.61229">
        <ele>497.5</ele>
        <time>2022-07-03T12:56:03Z</time>
      </trkpt>
      <trkpt lat="46.66109" lon="5.61229">
        <ele>496.4</ele>
        <time>2022-07-03T12:56:08Z</time>
      </trkpt>
      <trkpt lat="46.66112" lon="5.61234">
        <ele>494.6</ele>
        <time>2022-07-03T12:56:15Z</time>
      </trkpt>
      <trkpt lat="46.66116" lon="5.61239">
        <ele>493.3</ele>
        <time>2022-07-03T12:56:21Z</time>
      </trkpt>
      <trkpt lat="46.6612" lon="5.61243">
        <ele>492.3</ele>
        <time>2022-07-03T12:56:26Z</time>
      </trkpt>
      <trkpt lat="46.66122" lon="5.6125">
        <ele>491.6</ele>
        <time>2022-07-03T12:56:32Z</time>
      </trkpt>
      <trkpt lat="46.66122" lon="5.61257">
        <ele>491.7</ele>
        <time>2022-07-03T12:56:37Z</time>
      </trkpt>
      <trkpt lat="46.66123" lon="5.61264">
        <ele>492.3</ele>
        <time>2022-07-03T12:56:42Z</time>
      </trkpt>
      <trkpt lat="46.66125" lon="5.61272">
        <ele>493.2</ele>
        <time>2022-07-03T12:56:47Z</time>
      </trkpt>
      <trkpt lat="46.66124" lon="5.61278">
        <ele>493.6</ele>
        <time>2022-07-03T12:56:52Z</time>
      </trkpt>
      <trkpt lat="46.6612" lon="5.61284">
        <ele>493.3</ele>
        <time>2022-07-03T12:56:58Z</time>
      </trkpt>
      <trkpt lat="46.66117" lon="5.61289">
        <ele>492.7</ele>
        <time>2022-07-03T12:57:03Z</time>
      </trkpt>
      <trkpt lat="46.66113" lon="5.61294">
        <ele>491.8</ele>
        <time>2022-07-03T12:57:09Z</time>
      </trkpt>
      <trkpt lat="46.6611" lon="5.61299">
        <ele>491.5</ele>
        <time>2022-07-03T12:57:14Z</time>
      </trkpt>
      <trkpt lat="46.66109" lon="5.61306">
        <ele>491.7</ele>
        <time>2022-07-03T12:57:20Z</time>
      </trkpt>
      <trkpt lat="46.66112" lon="5.61313">
        <ele>491.9</ele>
        <time>2022-07-03T12:57:26Z</time>
      </trkpt>
      <trkpt lat="46.66116" lon="5.61317">
        <ele>491.6</ele>
        <time>2022-07-03T12:57:31Z</time>
      </trkpt>
      <trkpt lat="46.66121" lon="5.61322">
        <ele>491.4</ele>
        <time>2022-07-03T12:57:35Z</time>
      </trkpt>
      <trkpt lat="46.66125" lon="5.61319">
        <ele>491.7</ele>
        <time>2022-07-03T12:57:43Z</time>
      </trkpt>
      <trkpt lat="46.66121" lon="5.61323">
        <ele>492.8</ele>
        <time>2022-07-03T12:57:52Z</time>
      </trkpt>
      <trkpt lat="46.66116" lon="5.61319">
        <ele>494.2</ele>
        <time>2022-07-03T12:57:55Z</time>
      </trkpt>
      <trkpt lat="46.66121" lon="5.61316">
        <ele>497.7</ele>
        <time>2022-07-03T12:58:11Z</time>
      </trkpt>
      <trkpt lat="46.66125" lon="5.61322">
        <ele>497.6</ele>
        <time>2022-07-03T12:58:15Z</time>
      </trkpt>
      <trkpt lat="46.66123" lon="5.6133">
        <ele>496.2</ele>
        <time>2022-07-03T12:58:18Z</time>
      </trkpt>
      <trkpt lat="46.66119" lon="5.61322">
        <ele>495.6</ele>
        <time>2022-07-03T12:58:22Z</time>
      </trkpt>
      <trkpt lat="46.66118" lon="5.61309">
        <ele>496.3</ele>
        <time>2022-07-03T12:58:25Z</time>
      </trkpt>
      <trkpt lat="46.66117" lon="5.61302">
        <ele>497.1</ele>
        <time>2022-07-03T12:58:28Z</time>
      </trkpt>
      <trkpt lat="46.66119" lon="5.61307">
        <ele>498.5</ele>
        <time>2022-07-03T12:58:39Z</time>
      </trkpt>
      <trkpt lat="46.66116" lon="5.61308">
        <ele>508.9</ele>
        <time>2022-07-03T12:59:09Z</time>
      </trkpt>
      <trkpt lat="46.66121" lon="5.61314">
        <ele>509.2</ele>
        <time>2022-07-03T12:59:14Z</time>
      </trkpt>
      <trkpt lat="46.66125" lon="5.61319">
        <ele>508.6</ele>
        <time>2022-07-03T12:59:17Z</time>
      </trkpt>
      <trkpt lat="46.66126" lon="5.61328">
        <ele>504.1</ele>
        <time>2022-07-03T12:59:35Z</time>
      </trkpt>
      <trkpt lat="46.66121" lon="5.61329">
        <ele>502.2</ele>
        <time>2022-07-03T12:59:41Z</time>
      </trkpt>
      <trkpt lat="46.66118" lon="5.61324">
        <ele>499.9</ele>
        <time>2022-07-03T12:59:51Z</time>
      </trkpt>
      <trkpt lat="46.66117" lon="5.61317">
        <ele>497.4</ele>
        <time>2022-07-03T13:00:05Z</time>
      </trkpt>
      <trkpt lat="46.66113" lon="5.61318">
        <ele>494.7</ele>
        <time>2022-07-03T13:00:22Z</time>
      </trkpt>
      <trkpt lat="46.66118" lon="5.61316">
        <ele>493.7</ele>
        <time>2022-07-03T13:00:40Z</time>
      </trkpt>
      <trkpt lat="46.66121" lon="5.61309">
        <ele>494.2</ele>
        <time>2022-07-03T13:00:46Z</time>
      </trkpt>
      <trkpt lat="46.66118" lon="5.61315">
        <ele>500.4</ele>
        <time>2022-07-03T13:01:00Z</time>
      </trkpt>
      <trkpt lat="46.66114" lon="5.61311">
        <ele>500.9</ele>
        <time>2022-07-03T13:02:09Z</time>
      </trkpt>
      <trkpt lat="46.66113" lon="5.61308">
        <ele>502.4</ele>
        <time>2022-07-03T13:02:45Z</time>
      </trkpt>
      <trkpt lat="46.66116" lon="5.61304">
        <ele>502.8</ele>
        <time>2022-07-03T13:02:57Z</time>
      </trkpt>
      <trkpt lat="46.66121" lon="5.61305">
        <ele>502.7</ele>
        <time>2022-07-03T13:03:06Z</time>
      </trkpt>
      <trkpt lat="46.66116" lon="5.61302">
        <ele>502</ele>
        <time>2022-07-03T13:03:14Z</time>
      </trkpt>
      <trkpt lat="46.66122" lon="5.61304">
        <ele>501.9</ele>
        <time>2022-07-03T13:03:21Z</time>
      </trkpt>
      <trkpt lat="46.66128" lon="5.61307">
        <ele>501.8</ele>
        <time>2022-07-03T13:03:24Z</time>
      </trkpt>
      <trkpt lat="46.66133" lon="5.61312">
        <ele>501.9</ele>
        <time>2022-07-03T13:03:27Z</time>
      </trkpt>
      <trkpt lat="46.66137" lon="5.61315">
        <ele>502</ele>
        <time>2022-07-03T13:03:30Z</time>
      </trkpt>
      <trkpt lat="46.66141" lon="5.61319">
        <ele>502.3</ele>
        <time>2022-07-03T13:03:34Z</time>
      </trkpt>
      <trkpt lat="46.66141" lon="5.61326">
        <ele>502.3</ele>
        <time>2022-07-03T13:03:42Z</time>
      </trkpt>
      <trkpt lat="46.66146" lon="5.61328">
        <ele>499.5</ele>
        <time>2022-07-03T13:04:04Z</time>
      </trkpt>
      <trkpt lat="46.66149" lon="5.61324">
        <ele>498.2</ele>
        <time>2022-07-03T13:04:10Z</time>
      </trkpt>
      <trkpt lat="46.66152" lon="5.61319">
        <ele>496.4</ele>
        <time>2022-07-03T13:04:17Z</time>
      </trkpt>
      <trkpt lat="46.66157" lon="5.61321">
        <ele>494.9</ele>
        <time>2022-07-03T13:04:25Z</time>
      </trkpt>
      <trkpt lat="46.66161" lon="5.6132">
        <ele>493.7</ele>
        <time>2022-07-03T13:04:34Z</time>
      </trkpt>
      <trkpt lat="46.66166" lon="5.61321">
        <ele>493.8</ele>
        <time>2022-07-03T13:04:37Z</time>
      </trkpt>
      <trkpt lat="46.66171" lon="5.61323">
        <ele>493.8</ele>
        <time>2022-07-03T13:04:41Z</time>
      </trkpt>
      <trkpt lat="46.66176" lon="5.61324">
        <ele>493.9</ele>
        <time>2022-07-03T13:04:50Z</time>
      </trkpt>
      <trkpt lat="46.66181" lon="5.61326">
        <ele>493.7</ele>
        <time>2022-07-03T13:04:55Z</time>
      </trkpt>
      <trkpt lat="46.66186" lon="5.61326">
        <ele>493.1</ele>
        <time>2022-07-03T13:04:59Z</time>
      </trkpt>
      <trkpt lat="46.66191" lon="5.61327">
        <ele>492.7</ele>
        <time>2022-07-03T13:05:04Z</time>
      </trkpt>
      <trkpt lat="46.66195" lon="5.61332">
        <ele>492.7</ele>
        <time>2022-07-03T13:05:08Z</time>
      </trkpt>
      <trkpt lat="46.66199" lon="5.61336">
        <ele>492.6</ele>
        <time>2022-07-03T13:05:12Z</time>
      </trkpt>
      <trkpt lat="46.66202" lon="5.61341">
        <ele>491.9</ele>
        <time>2022-07-03T13:05:22Z</time>
      </trkpt>
      <trkpt lat="46.66207" lon="5.61342">
        <ele>491.7</ele>
        <time>2022-07-03T13:05:27Z</time>
      </trkpt>
      <trkpt lat="46.66211" lon="5.61338">
        <ele>491.4</ele>
        <time>2022-07-03T13:05:36Z</time>
      </trkpt>
      <trkpt lat="46.66216" lon="5.61335">
        <ele>491.4</ele>
        <time>2022-07-03T13:05:43Z</time>
      </trkpt>
      <trkpt lat="46.6622" lon="5.61336">
        <ele>492.2</ele>
        <time>2022-07-03T13:06:05Z</time>
      </trkpt>
      <trkpt lat="46.66225" lon="5.61341">
        <ele>491.9</ele>
        <time>2022-07-03T13:06:12Z</time>
      </trkpt>
      <trkpt lat="46.66229" lon="5.61346">
        <ele>492.1</ele>
        <time>2022-07-03T13:06:16Z</time>
      </trkpt>
      <trkpt lat="46.66234" lon="5.61348">
        <ele>492.9</ele>
        <time>2022-07-03T13:06:21Z</time>
      </trkpt>
      <trkpt lat="46.66238" lon="5.61354">
        <ele>493.3</ele>
        <time>2022-07-03T13:06:24Z</time>
      </trkpt>
      <trkpt lat="46.66243" lon="5.61358">
        <ele>493.9</ele>
        <time>2022-07-03T13:06:27Z</time>
      </trkpt>
      <trkpt lat="46.66249" lon="5.61361">
        <ele>494.9</ele>
        <time>2022-07-03T13:06:30Z</time>
      </trkpt>
      <trkpt lat="46.66253" lon="5.61363">
        <ele>495.9</ele>
        <time>2022-07-03T13:06:33Z</time>
      </trkpt>
      <trkpt lat="46.66257" lon="5.61366">
        <ele>499.6</ele>
        <time>2022-07-03T13:06:44Z</time>
      </trkpt>
      <trkpt lat="46.66261" lon="5.61372">
        <ele>501.7</ele>
        <time>2022-07-03T13:07:03Z</time>
      </trkpt>
      <trkpt lat="46.66266" lon="5.61368">
        <ele>501.2</ele>
        <time>2022-07-03T13:07:10Z</time>
      </trkpt>
      <trkpt lat="46.66271" lon="5.6137">
        <ele>501.4</ele>
        <time>2022-07-03T13:07:16Z</time>
      </trkpt>
      <trkpt lat="46.66275" lon="5.61372">
        <ele>503.1</ele>
        <time>2022-07-03T13:07:30Z</time>
      </trkpt>
      <trkpt lat="46.6628" lon="5.61369">
        <ele>504.3</ele>
        <time>2022-07-03T13:07:35Z</time>
      </trkpt>
      <trkpt lat="46.66286" lon="5.61367">
        <ele>505</ele>
        <time>2022-07-03T13:07:40Z</time>
      </trkpt>
      <trkpt lat="46.6629" lon="5.61369">
        <ele>505</ele>
        <time>2022-07-03T13:07:43Z</time>
      </trkpt>
      <trkpt lat="46.66295" lon="5.61367">
        <ele>505</ele>
        <time>2022-07-03T13:07:48Z</time>
      </trkpt>
      <trkpt lat="46.66299" lon="5.61372">
        <ele>506.1</ele>
        <time>2022-07-03T13:07:59Z</time>
      </trkpt>
      <trkpt lat="46.66304" lon="5.61372">
        <ele>506.5</ele>
        <time>2022-07-03T13:08:05Z</time>
      </trkpt>
      <trkpt lat="46.6631" lon="5.61372">
        <ele>506.4</ele>
        <time>2022-07-03T13:08:10Z</time>
      </trkpt>
      <trkpt lat="46.66315" lon="5.61373">
        <ele>506.6</ele>
        <time>2022-07-03T13:08:13Z</time>
      </trkpt>
      <trkpt lat="46.66319" lon="5.6137">
        <ele>507.3</ele>
        <time>2022-07-03T13:08:16Z</time>
      </trkpt>
      <trkpt lat="46.66324" lon="5.61367">
        <ele>508.5</ele>
        <time>2022-07-03T13:08:21Z</time>
      </trkpt>
      <trkpt lat="46.66328" lon="5.61363">
        <ele>509.7</ele>
        <time>2022-07-03T13:08:26Z</time>
      </trkpt>
      <trkpt lat="46.66333" lon="5.61359">
        <ele>509.9</ele>
        <time>2022-07-03T13:08:46Z</time>
      </trkpt>
      <trkpt lat="46.66336" lon="5.61354">
        <ele>508.9</ele>
        <time>2022-07-03T13:08:51Z</time>
      </trkpt>
      <trkpt lat="46.66339" lon="5.61357">
        <ele>510.4</ele>
        <time>2022-07-03T13:09:37Z</time>
      </trkpt>
      <trkpt lat="46.66344" lon="5.6136">
        <ele>510.3</ele>
        <time>2022-07-03T13:09:56Z</time>
      </trkpt>
      <trkpt lat="46.66348" lon="5.61362">
        <ele>509.5</ele>
        <time>2022-07-03T13:10:03Z</time>
      </trkpt>
      <trkpt lat="46.66344" lon="5.61358">
        <ele>508.5</ele>
        <time>2022-07-03T13:10:21Z</time>
      </trkpt>
      <trkpt lat="46.6634" lon="5.61356">
        <ele>507.6</ele>
        <time>2022-07-03T13:10:34Z</time>
      </trkpt>
      <trkpt lat="46.66338" lon="5.61348">
        <ele>507.7</ele>
        <time>2022-07-03T13:10:49Z</time>
      </trkpt>
      <trkpt lat="46.6634" lon="5.61342">
        <ele>508.4</ele>
        <time>2022-07-03T13:10:59Z</time>
      </trkpt>
      <trkpt lat="46.66337" lon="5.61337">
        <ele>508.9</ele>
        <time>2022-07-03T13:11:20Z</time>
      </trkpt>
      <trkpt lat="46.66339" lon="5.61343">
        <ele>516.6</ele>
        <time>2022-07-03T13:12:25Z</time>
      </trkpt>
      <trkpt lat="46.6634" lon="5.6135">
        <ele>520.3</ele>
        <time>2022-07-03T13:12:32Z</time>
      </trkpt>
      <trkpt lat="46.66338" lon="5.61343">
        <ele>522.5</ele>
        <time>2022-07-03T13:13:01Z</time>
      </trkpt>
      <trkpt lat="46.66336" lon="5.61336">
        <ele>522.8</ele>
        <time>2022-07-03T13:13:07Z</time>
      </trkpt>
      <trkpt lat="46.66332" lon="5.61343">
        <ele>523.8</ele>
        <time>2022-07-03T13:13:44Z</time>
      </trkpt>
      <trkpt lat="46.66335" lon="5.6135">
        <ele>520.5</ele>
        <time>2022-07-03T13:13:55Z</time>
      </trkpt>
      <trkpt lat="46.66338" lon="5.61357">
        <ele>519.8</ele>
        <time>2022-07-03T13:13:58Z</time>
      </trkpt>
      <trkpt lat="46.66341" lon="5.61364">
        <ele>518.9</ele>
        <time>2022-07-03T13:14:01Z</time>
      </trkpt>
      <trkpt lat="46.66345" lon="5.61368">
        <ele>517.2</ele>
        <time>2022-07-03T13:14:08Z</time>
      </trkpt>
      <trkpt lat="46.6635" lon="5.61364">
        <ele>515.9</ele>
        <time>2022-07-03T13:14:23Z</time>
      </trkpt>
      <trkpt lat="46.66355" lon="5.61365">
        <ele>516.6</ele>
        <time>2022-07-03T13:14:30Z</time>
      </trkpt>
      <trkpt lat="46.66359" lon="5.61366">
        <ele>516.5</ele>
        <time>2022-07-03T13:14:41Z</time>
      </trkpt>
      <trkpt lat="46.66364" lon="5.61365">
        <ele>516</ele>
        <time>2022-07-03T13:14:48Z</time>
      </trkpt>
      <trkpt lat="46.66368" lon="5.6136">
        <ele>515.4</ele>
        <time>2022-07-03T13:14:54Z</time>
      </trkpt>
      <trkpt lat="46.66372" lon="5.61355">
        <ele>515</ele>
        <time>2022-07-03T13:14:59Z</time>
      </trkpt>
      <trkpt lat="46.66376" lon="5.61351">
        <ele>515</ele>
        <time>2022-07-03T13:15:03Z</time>
      </trkpt>
      <trkpt lat="46.6638" lon="5.61348">
        <ele>515</ele>
        <time>2022-07-03T13:15:06Z</time>
      </trkpt>
      <trkpt lat="46.66385" lon="5.61346">
        <ele>515.1</ele>
        <time>2022-07-03T13:15:10Z</time>
      </trkpt>
      <trkpt lat="46.6639" lon="5.61346">
        <ele>515</ele>
        <time>2022-07-03T13:15:14Z</time>
      </trkpt>
      <trkpt lat="46.66394" lon="5.61341">
        <ele>514.4</ele>
        <time>2022-07-03T13:15:18Z</time>
      </trkpt>
      <trkpt lat="46.66399" lon="5.61339">
        <ele>513.7</ele>
        <time>2022-07-03T13:15:23Z</time>
      </trkpt>
      <trkpt lat="46.66404" lon="5.61336">
        <ele>513.2</ele>
        <time>2022-07-03T13:15:29Z</time>
      </trkpt>
      <trkpt lat="46.66408" lon="5.61332">
        <ele>512.9</ele>
        <time>2022-07-03T13:15:35Z</time>
      </trkpt>
      <trkpt lat="46.66411" lon="5.61327">
        <ele>513.1</ele>
        <time>2022-07-03T13:15:40Z</time>
      </trkpt>
      <trkpt lat="46.66415" lon="5.61321">
        <ele>514.3</ele>
        <time>2022-07-03T13:15:46Z</time>
      </trkpt>
      <trkpt lat="46.66419" lon="5.61318">
        <ele>515.3</ele>
        <time>2022-07-03T13:15:57Z</time>
      </trkpt>
      <trkpt lat="46.66423" lon="5.61313">
        <ele>516.3</ele>
        <time>2022-07-03T13:16:06Z</time>
      </trkpt>
      <trkpt lat="46.66428" lon="5.61311">
        <ele>515.9</ele>
        <time>2022-07-03T13:16:14Z</time>
      </trkpt>
      <trkpt lat="46.66432" lon="5.61307">
        <ele>516.2</ele>
        <time>2022-07-03T13:16:22Z</time>
      </trkpt>
      <trkpt lat="46.66436" lon="5.61301">
        <ele>517.3</ele>
        <time>2022-07-03T13:16:28Z</time>
      </trkpt>
      <trkpt lat="46.66438" lon="5.61294">
        <ele>517.9</ele>
        <time>2022-07-03T13:16:32Z</time>
      </trkpt>
      <trkpt lat="46.6644" lon="5.61287">
        <ele>519</ele>
        <time>2022-07-03T13:16:36Z</time>
      </trkpt>
      <trkpt lat="46.66443" lon="5.61282">
        <ele>520.7</ele>
        <time>2022-07-03T13:16:41Z</time>
      </trkpt>
      <trkpt lat="46.66447" lon="5.61277">
        <ele>522.3</ele>
        <time>2022-07-03T13:16:47Z</time>
      </trkpt>
      <trkpt lat="46.66449" lon="5.61271">
        <ele>523.1</ele>
        <time>2022-07-03T13:16:51Z</time>
      </trkpt>
      <trkpt lat="46.66454" lon="5.61268">
        <ele>522.8</ele>
        <time>2022-07-03T13:17:00Z</time>
      </trkpt>
      <trkpt lat="46.66454" lon="5.61262">
        <ele>523</ele>
        <time>2022-07-03T13:17:09Z</time>
      </trkpt>
      <trkpt lat="46.66457" lon="5.61255">
        <ele>521.9</ele>
        <time>2022-07-03T13:17:16Z</time>
      </trkpt>
      <trkpt lat="46.66462" lon="5.61252">
        <ele>521.1</ele>
        <time>2022-07-03T13:17:21Z</time>
      </trkpt>
      <trkpt lat="46.66464" lon="5.61244">
        <ele>520.7</ele>
        <time>2022-07-03T13:17:26Z</time>
      </trkpt>
      <trkpt lat="46.66466" lon="5.61238">
        <ele>520.4</ele>
        <time>2022-07-03T13:17:31Z</time>
      </trkpt>
      <trkpt lat="46.6647" lon="5.61234">
        <ele>520.4</ele>
        <time>2022-07-03T13:17:35Z</time>
      </trkpt>
      <trkpt lat="46.66473" lon="5.61228">
        <ele>520.3</ele>
        <time>2022-07-03T13:17:39Z</time>
      </trkpt>
      <trkpt lat="46.66476" lon="5.61222">
        <ele>520.2</ele>
        <time>2022-07-03T13:17:42Z</time>
      </trkpt>
      <trkpt lat="46.66478" lon="5.61216">
        <ele>520</ele>
        <time>2022-07-03T13:17:47Z</time>
      </trkpt>
      <trkpt lat="46.66482" lon="5.61219">
        <ele>520.8</ele>
        <time>2022-07-03T13:18:11Z</time>
      </trkpt>
      <trkpt lat="46.66479" lon="5.61224">
        <ele>520.5</ele>
        <time>2022-07-03T13:18:18Z</time>
      </trkpt>
      <trkpt lat="46.66474" lon="5.61219">
        <ele>519.9</ele>
        <time>2022-07-03T13:18:21Z</time>
      </trkpt>
      <trkpt lat="46.66472" lon="5.61212">
        <ele>519</ele>
        <time>2022-07-03T13:18:24Z</time>
      </trkpt>
      <trkpt lat="46.66475" lon="5.61206">
        <ele>518.3</ele>
        <time>2022-07-03T13:18:32Z</time>
      </trkpt>
      <trkpt lat="46.66474" lon="5.61214">
        <ele>517.3</ele>
        <time>2022-07-03T13:18:39Z</time>
      </trkpt>
      <trkpt lat="46.66474" lon="5.61222">
        <ele>517.1</ele>
        <time>2022-07-03T13:18:42Z</time>
      </trkpt>
      <trkpt lat="46.66478" lon="5.61228">
        <ele>516.5</ele>
        <time>2022-07-03T13:18:46Z</time>
      </trkpt>
      <trkpt lat="46.66483" lon="5.61229">
        <ele>516.8</ele>
        <time>2022-07-03T13:19:06Z</time>
      </trkpt>
      <trkpt lat="46.66488" lon="5.61232">
        <ele>516</ele>
        <time>2022-07-03T13:19:11Z</time>
      </trkpt>
      <trkpt lat="46.66483" lon="5.61235">
        <ele>515.2</ele>
        <time>2022-07-03T13:19:25Z</time>
      </trkpt>
      <trkpt lat="46.66487" lon="5.6123">
        <ele>514.7</ele>
        <time>2022-07-03T13:19:32Z</time>
      </trkpt>
      <trkpt lat="46.66484" lon="5.61225">
        <ele>516.7</ele>
        <time>2022-07-03T13:20:04Z</time>
      </trkpt>
      <trkpt lat="46.66486" lon="5.61219">
        <ele>521.4</ele>
        <time>2022-07-03T13:20:23Z</time>
      </trkpt>
      <trkpt lat="46.66481" lon="5.61218">
        <ele>522.9</ele>
        <time>2022-07-03T13:20:28Z</time>
      </trkpt>
      <trkpt lat="46.66477" lon="5.61216">
        <ele>523.9</ele>
        <time>2022-07-03T13:20:32Z</time>
      </trkpt>
      <trkpt lat="46.66473" lon="5.61221">
        <ele>527.1</ele>
        <time>2022-07-03T13:20:40Z</time>
      </trkpt>
      <trkpt lat="46.66478" lon="5.61224">
        <ele>536.2</ele>
        <time>2022-07-03T13:21:21Z</time>
      </trkpt>
      <trkpt lat="46.66483" lon="5.61223">
        <ele>536.1</ele>
        <time>2022-07-03T13:21:24Z</time>
      </trkpt>
      <trkpt lat="46.66488" lon="5.61222">
        <ele>535.8</ele>
        <time>2022-07-03T13:21:28Z</time>
      </trkpt>
      <trkpt lat="46.66483" lon="5.6122">
        <ele>535.7</ele>
        <time>2022-07-03T13:21:47Z</time>
      </trkpt>
      <trkpt lat="46.66479" lon="5.61222">
        <ele>539.9</ele>
        <time>2022-07-03T13:22:34Z</time>
      </trkpt>
      <trkpt lat="46.66474" lon="5.61223">
        <ele>543.5</ele>
        <time>2022-07-03T13:23:20Z</time>
      </trkpt>
      <trkpt lat="46.66478" lon="5.61223">
        <ele>539.9</ele>
        <time>2022-07-03T13:23:34Z</time>
      </trkpt>
      <trkpt lat="46.66482" lon="5.61229">
        <ele>535.7</ele>
        <time>2022-07-03T13:24:04Z</time>
      </trkpt>
      <trkpt lat="46.66485" lon="5.61223">
        <ele>533.5</ele>
        <time>2022-07-03T13:24:09Z</time>
      </trkpt>
      <trkpt lat="46.66489" lon="5.61219">
        <ele>532.5</ele>
        <time>2022-07-03T13:24:13Z</time>
      </trkpt>
      <trkpt lat="46.6649" lon="5.61212">
        <ele>532</ele>
        <time>2022-07-03T13:24:17Z</time>
      </trkpt>
      <trkpt lat="46.66492" lon="5.61206">
        <ele>531.8</ele>
        <time>2022-07-03T13:24:22Z</time>
      </trkpt>
      <trkpt lat="46.66496" lon="5.61202">
        <ele>530.5</ele>
        <time>2022-07-03T13:24:31Z</time>
      </trkpt>
      <trkpt lat="46.66498" lon="5.61195">
        <ele>529.2</ele>
        <time>2022-07-03T13:24:35Z</time>
      </trkpt>
      <trkpt lat="46.66501" lon="5.61189">
        <ele>527.4</ele>
        <time>2022-07-03T13:24:40Z</time>
      </trkpt>
      <trkpt lat="46.66505" lon="5.61185">
        <ele>526.1</ele>
        <time>2022-07-03T13:24:45Z</time>
      </trkpt>
      <trkpt lat="46.66506" lon="5.61178">
        <ele>525.7</ele>
        <time>2022-07-03T13:24:56Z</time>
      </trkpt>
      <trkpt lat="46.66505" lon="5.61171">
        <ele>526.2</ele>
        <time>2022-07-03T13:25:02Z</time>
      </trkpt>
      <trkpt lat="46.66508" lon="5.61166">
        <ele>527.3</ele>
        <time>2022-07-03T13:25:15Z</time>
      </trkpt>
      <trkpt lat="46.6651" lon="5.61159">
        <ele>527.5</ele>
        <time>2022-07-03T13:25:20Z</time>
      </trkpt>
      <trkpt lat="46.66512" lon="5.61152">
        <ele>527.8</ele>
        <time>2022-07-03T13:25:24Z</time>
      </trkpt>
      <trkpt lat="46.66515" lon="5.61146">
        <ele>528.4</ele>
        <time>2022-07-03T13:25:29Z</time>
      </trkpt>
      <trkpt lat="46.66518" lon="5.6114">
        <ele>529</ele>
        <time>2022-07-03T13:25:38Z</time>
      </trkpt>
      <trkpt lat="46.66522" lon="5.61135">
        <ele>528.8</ele>
        <time>2022-07-03T13:25:43Z</time>
      </trkpt>
      <trkpt lat="46.6652" lon="5.61129">
        <ele>526.1</ele>
        <time>2022-07-03T13:26:09Z</time>
      </trkpt>
      <trkpt lat="46.66517" lon="5.61124">
        <ele>526</ele>
        <time>2022-07-03T13:26:14Z</time>
      </trkpt>
      <trkpt lat="46.66519" lon="5.61132">
        <ele>524.4</ele>
        <time>2022-07-03T13:27:01Z</time>
      </trkpt>
      <trkpt lat="46.66519" lon="5.61138">
        <ele>522.1</ele>
        <time>2022-07-03T13:27:39Z</time>
      </trkpt>
      <trkpt lat="46.66514" lon="5.61136">
        <ele>523.3</ele>
        <time>2022-07-03T13:27:52Z</time>
      </trkpt>
      <trkpt lat="46.66511" lon="5.61131">
        <ele>525</ele>
        <time>2022-07-03T13:27:59Z</time>
      </trkpt>
      <trkpt lat="46.66507" lon="5.61131">
        <ele>527.5</ele>
        <time>2022-07-03T13:28:07Z</time>
      </trkpt>
      <trkpt lat="46.66511" lon="5.61133">
        <ele>534.3</ele>
        <time>2022-07-03T13:28:33Z</time>
      </trkpt>
      <trkpt lat="46.66516" lon="5.61135">
        <ele>534.1</ele>
        <time>2022-07-03T13:28:39Z</time>
      </trkpt>
      <trkpt lat="46.66515" lon="5.61142">
        <ele>533.1</ele>
        <time>2022-07-03T13:28:47Z</time>
      </trkpt>
      <trkpt lat="46.6652" lon="5.61142">
        <ele>531.3</ele>
        <time>2022-07-03T13:28:58Z</time>
      </trkpt>
      <trkpt lat="46.66521" lon="5.61136">
        <ele>531.4</ele>
        <time>2022-07-03T13:29:02Z</time>
      </trkpt>
      <trkpt lat="46.6652" lon="5.61127">
        <ele>531.9</ele>
        <time>2022-07-03T13:29:06Z</time>
      </trkpt>
      <trkpt lat="46.66519" lon="5.6112">
        <ele>532.3</ele>
        <time>2022-07-03T13:29:10Z</time>
      </trkpt>
      <trkpt lat="46.66524" lon="5.61116">
        <ele>531.8</ele>
        <time>2022-07-03T13:29:14Z</time>
      </trkpt>
      <trkpt lat="46.66528" lon="5.61112">
        <ele>531.4</ele>
        <time>2022-07-03T13:29:18Z</time>
      </trkpt>
      <trkpt lat="46.66529" lon="5.61105">
        <ele>530.3</ele>
        <time>2022-07-03T13:29:35Z</time>
      </trkpt>
      <trkpt lat="46.66533" lon="5.61101">
        <ele>530.8</ele>
        <time>2022-07-03T13:29:42Z</time>
      </trkpt>
      <trkpt lat="46.66531" lon="5.61094">
        <ele>530.5</ele>
        <time>2022-07-03T13:29:50Z</time>
      </trkpt>
      <trkpt lat="46.66531" lon="5.61087">
        <ele>530</ele>
        <time>2022-07-03T13:30:06Z</time>
      </trkpt>
      <trkpt lat="46.66535" lon="5.61092">
        <ele>529.7</ele>
        <time>2022-07-03T13:30:13Z</time>
      </trkpt>
      <trkpt lat="46.66534" lon="5.61086">
        <ele>529.1</ele>
        <time>2022-07-03T13:30:23Z</time>
      </trkpt>
      <trkpt lat="46.6653" lon="5.6108">
        <ele>533.3</ele>
        <time>2022-07-03T13:30:49Z</time>
      </trkpt>
      <trkpt lat="46.66534" lon="5.61086">
        <ele>533.9</ele>
        <time>2022-07-03T13:30:56Z</time>
      </trkpt>
      <trkpt lat="46.66538" lon="5.61082">
        <ele>531.6</ele>
        <time>2022-07-03T13:31:26Z</time>
      </trkpt>
      <trkpt lat="46.66541" lon="5.61087">
        <ele>529.4</ele>
        <time>2022-07-03T13:31:36Z</time>
      </trkpt>
      <trkpt lat="46.66536" lon="5.61087">
        <ele>526.7</ele>
        <time>2022-07-03T13:31:58Z</time>
      </trkpt>
      <trkpt lat="46.66536" lon="5.6108">
        <ele>527.5</ele>
        <time>2022-07-03T13:32:02Z</time>
      </trkpt>
      <trkpt lat="46.66536" lon="5.61073">
        <ele>528</ele>
        <time>2022-07-03T13:32:05Z</time>
      </trkpt>
      <trkpt lat="46.66537" lon="5.61067">
        <ele>527.9</ele>
        <time>2022-07-03T13:32:09Z</time>
      </trkpt>
      <trkpt lat="46.66541" lon="5.61062">
        <ele>527.6</ele>
        <time>2022-07-03T13:32:16Z</time>
      </trkpt>
      <trkpt lat="46.66539" lon="5.6107">
        <ele>526.9</ele>
        <time>2022-07-03T13:32:28Z</time>
      </trkpt>
      <trkpt lat="46.66535" lon="5.61068">
        <ele>527.5</ele>
        <time>2022-07-03T13:32:34Z</time>
      </trkpt>
      <trkpt lat="46.66537" lon="5.61062">
        <ele>523.4</ele>
        <time>2022-07-03T13:33:01Z</time>
      </trkpt>
      <trkpt lat="46.66534" lon="5.61067">
        <ele>522.3</ele>
        <time>2022-07-03T13:33:31Z</time>
      </trkpt>
      <trkpt lat="46.66529" lon="5.61068">
        <ele>522.9</ele>
        <time>2022-07-03T13:33:37Z</time>
      </trkpt>
      <trkpt lat="46.66526" lon="5.61073">
        <ele>524</ele>
        <time>2022-07-03T13:33:46Z</time>
      </trkpt>
      <trkpt lat="46.66522" lon="5.6107">
        <ele>525.9</ele>
        <time>2022-07-03T13:34:06Z</time>
      </trkpt>
      <trkpt lat="46.66516" lon="5.61069">
        <ele>525.7</ele>
        <time>2022-07-03T13:34:10Z</time>
      </trkpt>
      <trkpt lat="46.6651" lon="5.61067">
        <ele>525.2</ele>
        <time>2022-07-03T13:34:13Z</time>
      </trkpt>
      <trkpt lat="46.66505" lon="5.61063">
        <ele>524.4</ele>
        <time>2022-07-03T13:34:16Z</time>
      </trkpt>
      <trkpt lat="46.66501" lon="5.61058">
        <ele>522.6</ele>
        <time>2022-07-03T13:34:21Z</time>
      </trkpt>
      <trkpt lat="46.66499" lon="5.61051">
        <ele>519.3</ele>
        <time>2022-07-03T13:34:29Z</time>
      </trkpt>
      <trkpt lat="46.66495" lon="5.61047">
        <ele>517.8</ele>
        <time>2022-07-03T13:34:33Z</time>
      </trkpt>
      <trkpt lat="46.66492" lon="5.61041">
        <ele>516.8</ele>
        <time>2022-07-03T13:34:37Z</time>
      </trkpt>
      <trkpt lat="46.66491" lon="5.61034">
        <ele>515.8</ele>
        <time>2022-07-03T13:34:41Z</time>
      </trkpt>
      <trkpt lat="46.66493" lon="5.61027">
        <ele>515</ele>
        <time>2022-07-03T13:34:46Z</time>
      </trkpt>
      <trkpt lat="46.66495" lon="5.61021">
        <ele>514.6</ele>
        <time>2022-07-03T13:34:50Z</time>
      </trkpt>
      <trkpt lat="46.66495" lon="5.61014">
        <ele>514</ele>
        <time>2022-07-03T13:34:53Z</time>
      </trkpt>
      <trkpt lat="46.66496" lon="5.61007">
        <ele>511.6</ele>
        <time>2022-07-03T13:35:01Z</time>
      </trkpt>
      <trkpt lat="46.66497" lon="5.61">
        <ele>510.2</ele>
        <time>2022-07-03T13:35:06Z</time>
      </trkpt>
      <trkpt lat="46.66495" lon="5.60994">
        <ele>508.3</ele>
        <time>2022-07-03T13:35:13Z</time>
      </trkpt>
      <trkpt lat="46.6649" lon="5.60991">
        <ele>507.8</ele>
        <time>2022-07-03T13:35:17Z</time>
      </trkpt>
      <trkpt lat="46.66486" lon="5.60988">
        <ele>507.3</ele>
        <time>2022-07-03T13:35:21Z</time>
      </trkpt>
      <trkpt lat="46.66484" lon="5.60982">
        <ele>506.6</ele>
        <time>2022-07-03T13:35:29Z</time>
      </trkpt>
      <trkpt lat="46.66485" lon="5.60975">
        <ele>505.6</ele>
        <time>2022-07-03T13:35:40Z</time>
      </trkpt>
      <trkpt lat="46.66486" lon="5.60967">
        <ele>504.6</ele>
        <time>2022-07-03T13:35:47Z</time>
      </trkpt>
      <trkpt lat="46.66488" lon="5.60959">
        <ele>504</ele>
        <time>2022-07-03T13:35:51Z</time>
      </trkpt>
      <trkpt lat="46.66488" lon="5.60952">
        <ele>502.1</ele>
        <time>2022-07-03T13:35:56Z</time>
      </trkpt>
      <trkpt lat="46.66484" lon="5.60943">
        <ele>499.2</ele>
        <time>2022-07-03T13:36:07Z</time>
      </trkpt>
      <trkpt lat="46.66481" lon="5.60938">
        <ele>498.8</ele>
        <time>2022-07-03T13:36:10Z</time>
      </trkpt>
      <trkpt lat="46.66479" lon="5.60931">
        <ele>498.6</ele>
        <time>2022-07-03T13:36:15Z</time>
      </trkpt>
      <trkpt lat="46.66475" lon="5.60926">
        <ele>498.7</ele>
        <time>2022-07-03T13:36:19Z</time>
      </trkpt>
      <trkpt lat="46.66474" lon="5.60919">
        <ele>499.1</ele>
        <time>2022-07-03T13:36:36Z</time>
      </trkpt>
      <trkpt lat="46.66476" lon="5.60911">
        <ele>500</ele>
        <time>2022-07-03T13:36:41Z</time>
      </trkpt>
      <trkpt lat="46.66478" lon="5.60904">
        <ele>500.2</ele>
        <time>2022-07-03T13:36:45Z</time>
      </trkpt>
      <trkpt lat="46.66479" lon="5.60897">
        <ele>500.3</ele>
        <time>2022-07-03T13:36:49Z</time>
      </trkpt>
      <trkpt lat="46.6648" lon="5.60889">
        <ele>500.6</ele>
        <time>2022-07-03T13:36:54Z</time>
      </trkpt>
      <trkpt lat="46.66481" lon="5.60883">
        <ele>500.7</ele>
        <time>2022-07-03T13:36:58Z</time>
      </trkpt>
      <trkpt lat="46.66481" lon="5.60876">
        <ele>501.1</ele>
        <time>2022-07-03T13:37:04Z</time>
      </trkpt>
      <trkpt lat="46.66476" lon="5.60875">
        <ele>501.5</ele>
        <time>2022-07-03T13:37:08Z</time>
      </trkpt>
      <trkpt lat="46.66471" lon="5.60874">
        <ele>502.7</ele>
        <time>2022-07-03T13:37:14Z</time>
      </trkpt>
      <trkpt lat="46.66466" lon="5.60874">
        <ele>503.1</ele>
        <time>2022-07-03T13:37:18Z</time>
      </trkpt>
      <trkpt lat="46.66461" lon="5.60872">
        <ele>503.1</ele>
        <time>2022-07-03T13:37:23Z</time>
      </trkpt>
      <trkpt lat="46.66457" lon="5.60867">
        <ele>502.4</ele>
        <time>2022-07-03T13:37:29Z</time>
      </trkpt>
      <trkpt lat="46.66454" lon="5.60862">
        <ele>501</ele>
        <time>2022-07-03T13:37:43Z</time>
      </trkpt>
      <trkpt lat="46.66453" lon="5.60856">
        <ele>500.1</ele>
        <time>2022-07-03T13:37:50Z</time>
      </trkpt>
      <trkpt lat="46.66454" lon="5.60849">
        <ele>499.7</ele>
        <time>2022-07-03T13:37:58Z</time>
      </trkpt>
      <trkpt lat="46.66459" lon="5.60847">
        <ele>499.8</ele>
        <time>2022-07-03T13:38:01Z</time>
      </trkpt>
      <trkpt lat="46.66464" lon="5.60846">
        <ele>499.6</ele>
        <time>2022-07-03T13:38:05Z</time>
      </trkpt>
      <trkpt lat="46.66474" lon="5.60845">
        <ele>502.8</ele>
        <time>2022-07-03T13:40:13Z</time>
      </trkpt>
      <trkpt lat="46.66457" lon="5.6083">
        <ele>517.1</ele>
        <time>2022-07-03T13:40:16Z</time>
      </trkpt>
      <trkpt lat="46.66445" lon="5.60832">
        <ele>524</ele>
        <time>2022-07-03T13:40:27Z</time>
      </trkpt>
      <trkpt lat="46.66456" lon="5.60834">
        <ele>519</ele>
        <time>2022-07-03T13:40:30Z</time>
      </trkpt>
      <trkpt lat="46.6646" lon="5.60835">
        <ele>515</ele>
        <time>2022-07-03T13:40:33Z</time>
      </trkpt>
      <trkpt lat="46.66455" lon="5.60836">
        <ele>505.5</ele>
        <time>2022-07-03T13:40:50Z</time>
      </trkpt>
      <trkpt lat="46.66454" lon="5.60828">
        <ele>504.5</ele>
        <time>2022-07-03T13:40:53Z</time>
      </trkpt>
      <trkpt lat="46.6645" lon="5.60824">
        <ele>503.8</ele>
        <time>2022-07-03T13:40:56Z</time>
      </trkpt>
      <trkpt lat="46.66447" lon="5.60817">
        <ele>501.1</ele>
        <time>2022-07-03T13:41:02Z</time>
      </trkpt>
      <trkpt lat="46.66446" lon="5.60811">
        <ele>500.5</ele>
        <time>2022-07-03T13:41:06Z</time>
      </trkpt>
      <trkpt lat="46.66444" lon="5.60804">
        <ele>497.8</ele>
        <time>2022-07-03T13:41:14Z</time>
      </trkpt>
      <trkpt lat="46.6644" lon="5.60799">
        <ele>497.1</ele>
        <time>2022-07-03T13:41:17Z</time>
      </trkpt>
      <trkpt lat="46.66436" lon="5.60797">
        <ele>497.2</ele>
        <time>2022-07-03T13:41:21Z</time>
      </trkpt>
      <trkpt lat="46.66433" lon="5.60792">
        <ele>497</ele>
        <time>2022-07-03T13:41:26Z</time>
      </trkpt>
      <trkpt lat="46.66432" lon="5.60784">
        <ele>496.5</ele>
        <time>2022-07-03T13:41:30Z</time>
      </trkpt>
      <trkpt lat="46.66436" lon="5.60778">
        <ele>496.4</ele>
        <time>2022-07-03T13:41:34Z</time>
      </trkpt>
      <trkpt lat="46.6644" lon="5.60776">
        <ele>497</ele>
        <time>2022-07-03T13:41:41Z</time>
      </trkpt>
      <trkpt lat="46.66442" lon="5.6077">
        <ele>497.5</ele>
        <time>2022-07-03T13:41:47Z</time>
      </trkpt>
      <trkpt lat="46.6644" lon="5.60762">
        <ele>497.3</ele>
        <time>2022-07-03T13:41:57Z</time>
      </trkpt>
      <trkpt lat="46.66439" lon="5.60755">
        <ele>496.1</ele>
        <time>2022-07-03T13:42:19Z</time>
      </trkpt>
      <trkpt lat="46.66425" lon="5.6077">
        <ele>496.6</ele>
        <time>2022-07-03T13:42:31Z</time>
      </trkpt>
      <trkpt lat="46.66429" lon="5.60764">
        <ele>497.3</ele>
        <time>2022-07-03T13:42:34Z</time>
      </trkpt>
      <trkpt lat="46.66426" lon="5.60758">
        <ele>497.9</ele>
        <time>2022-07-03T13:42:37Z</time>
      </trkpt>
      <trkpt lat="46.66431" lon="5.60756">
        <ele>499.8</ele>
        <time>2022-07-03T13:42:47Z</time>
      </trkpt>
      <trkpt lat="46.66436" lon="5.60761">
        <ele>500.2</ele>
        <time>2022-07-03T13:42:53Z</time>
      </trkpt>
      <trkpt lat="46.66438" lon="5.60766">
        <ele>500.8</ele>
        <time>2022-07-03T13:43:00Z</time>
      </trkpt>
      <trkpt lat="46.66436" lon="5.60773">
        <ele>501.4</ele>
        <time>2022-07-03T13:43:06Z</time>
      </trkpt>
      <trkpt lat="46.6644" lon="5.60775">
        <ele>505.4</ele>
        <time>2022-07-03T13:43:13Z</time>
      </trkpt>
      <trkpt lat="46.6644" lon="5.60769">
        <ele>511.5</ele>
        <time>2022-07-03T13:43:31Z</time>
      </trkpt>
      <trkpt lat="46.66435" lon="5.60771">
        <ele>512.8</ele>
        <time>2022-07-03T13:43:41Z</time>
      </trkpt>
      <trkpt lat="46.6643" lon="5.60773">
        <ele>514.2</ele>
        <time>2022-07-03T13:43:46Z</time>
      </trkpt>
      <trkpt lat="46.66426" lon="5.60775">
        <ele>515.3</ele>
        <time>2022-07-03T13:43:51Z</time>
      </trkpt>
      <trkpt lat="46.66427" lon="5.60768">
        <ele>517.5</ele>
        <time>2022-07-03T13:44:00Z</time>
      </trkpt>
      <trkpt lat="46.66431" lon="5.60764">
        <ele>517.5</ele>
        <time>2022-07-03T13:44:03Z</time>
      </trkpt>
      <trkpt lat="46.66435" lon="5.60764">
        <ele>516.1</ele>
        <time>2022-07-03T13:44:09Z</time>
      </trkpt>
      <trkpt lat="46.66431" lon="5.60762">
        <ele>514.7</ele>
        <time>2022-07-03T13:44:17Z</time>
      </trkpt>
      <trkpt lat="46.66432" lon="5.60769">
        <ele>513.4</ele>
        <time>2022-07-03T13:44:25Z</time>
      </trkpt>
      <trkpt lat="46.66428" lon="5.60773">
        <ele>512.8</ele>
        <time>2022-07-03T13:44:29Z</time>
      </trkpt>
      <trkpt lat="46.66433" lon="5.60769">
        <ele>513.2</ele>
        <time>2022-07-03T13:44:36Z</time>
      </trkpt>
      <trkpt lat="46.66434" lon="5.60762">
        <ele>513.1</ele>
        <time>2022-07-03T13:44:44Z</time>
      </trkpt>
      <trkpt lat="46.66434" lon="5.60755">
        <ele>506.8</ele>
        <time>2022-07-03T13:44:57Z</time>
      </trkpt>
      <trkpt lat="46.66431" lon="5.60749">
        <ele>504.6</ele>
        <time>2022-07-03T13:45:13Z</time>
      </trkpt>
      <trkpt lat="46.66429" lon="5.60743">
        <ele>504.1</ele>
        <time>2022-07-03T13:45:25Z</time>
      </trkpt>
      <trkpt lat="46.66433" lon="5.60741">
        <ele>502.6</ele>
        <time>2022-07-03T13:45:41Z</time>
      </trkpt>
      <trkpt lat="46.66429" lon="5.60737">
        <ele>503.3</ele>
        <time>2022-07-03T13:45:55Z</time>
      </trkpt>
      <trkpt lat="46.66424" lon="5.60733">
        <ele>503.5</ele>
        <time>2022-07-03T13:45:58Z</time>
      </trkpt>
      <trkpt lat="46.66421" lon="5.60728">
        <ele>503.6</ele>
        <time>2022-07-03T13:46:02Z</time>
      </trkpt>
      <trkpt lat="46.6642" lon="5.60721">
        <ele>503.2</ele>
        <time>2022-07-03T13:46:09Z</time>
      </trkpt>
      <trkpt lat="46.66418" lon="5.60714">
        <ele>503</ele>
        <time>2022-07-03T13:46:13Z</time>
      </trkpt>
      <trkpt lat="46.66418" lon="5.60707">
        <ele>502</ele>
        <time>2022-07-03T13:46:21Z</time>
      </trkpt>
      <trkpt lat="46.66417" lon="5.607">
        <ele>500.3</ele>
        <time>2022-07-03T13:46:30Z</time>
      </trkpt>
      <trkpt lat="46.66415" lon="5.60692">
        <ele>499</ele>
        <time>2022-07-03T13:46:36Z</time>
      </trkpt>
      <trkpt lat="46.66413" lon="5.60686">
        <ele>498.1</ele>
        <time>2022-07-03T13:46:42Z</time>
      </trkpt>
      <trkpt lat="46.6641" lon="5.6068">
        <ele>497.7</ele>
        <time>2022-07-03T13:46:46Z</time>
      </trkpt>
      <trkpt lat="46.66405" lon="5.60676">
        <ele>497.4</ele>
        <time>2022-07-03T13:46:51Z</time>
      </trkpt>
      <trkpt lat="46.66401" lon="5.60674">
        <ele>497.5</ele>
        <time>2022-07-03T13:46:57Z</time>
      </trkpt>
      <trkpt lat="46.66397" lon="5.60668">
        <ele>498</ele>
        <time>2022-07-03T13:47:03Z</time>
      </trkpt>
      <trkpt lat="46.66395" lon="5.60662">
        <ele>498.8</ele>
        <time>2022-07-03T13:47:08Z</time>
      </trkpt>
      <trkpt lat="46.66393" lon="5.60656">
        <ele>499.5</ele>
        <time>2022-07-03T13:47:12Z</time>
      </trkpt>
      <trkpt lat="46.66391" lon="5.60649">
        <ele>500.4</ele>
        <time>2022-07-03T13:47:18Z</time>
      </trkpt>
      <trkpt lat="46.66388" lon="5.60645">
        <ele>500.9</ele>
        <time>2022-07-03T13:47:23Z</time>
      </trkpt>
      <trkpt lat="46.66383" lon="5.60643">
        <ele>502.1</ele>
        <time>2022-07-03T13:47:32Z</time>
      </trkpt>
      <trkpt lat="46.66379" lon="5.60639">
        <ele>502.6</ele>
        <time>2022-07-03T13:47:36Z</time>
      </trkpt>
      <trkpt lat="46.66375" lon="5.60634">
        <ele>502.9</ele>
        <time>2022-07-03T13:47:40Z</time>
      </trkpt>
      <trkpt lat="46.66371" lon="5.60631">
        <ele>503</ele>
        <time>2022-07-03T13:47:43Z</time>
      </trkpt>
      <trkpt lat="46.66368" lon="5.60625">
        <ele>503.1</ele>
        <time>2022-07-03T13:47:46Z</time>
      </trkpt>
      <trkpt lat="46.66365" lon="5.60619">
        <ele>502.9</ele>
        <time>2022-07-03T13:47:50Z</time>
      </trkpt>
      <trkpt lat="46.66361" lon="5.60616">
        <ele>502.8</ele>
        <time>2022-07-03T13:47:54Z</time>
      </trkpt>
      <trkpt lat="46.66356" lon="5.60614">
        <ele>502.9</ele>
        <time>2022-07-03T13:48:00Z</time>
      </trkpt>
      <trkpt lat="46.66351" lon="5.60613">
        <ele>503</ele>
        <time>2022-07-03T13:48:05Z</time>
      </trkpt>
      <trkpt lat="46.66346" lon="5.60611">
        <ele>503.3</ele>
        <time>2022-07-03T13:48:10Z</time>
      </trkpt>
      <trkpt lat="46.66341" lon="5.60609">
        <ele>504.2</ele>
        <time>2022-07-03T13:48:15Z</time>
      </trkpt>
      <trkpt lat="46.66336" lon="5.60606">
        <ele>504.9</ele>
        <time>2022-07-03T13:48:20Z</time>
      </trkpt>
      <trkpt lat="46.6633" lon="5.60604">
        <ele>505.4</ele>
        <time>2022-07-03T13:48:24Z</time>
      </trkpt>
      <trkpt lat="46.66326" lon="5.60601">
        <ele>505.5</ele>
        <time>2022-07-03T13:48:27Z</time>
      </trkpt>
      <trkpt lat="46.66321" lon="5.60597">
        <ele>505.5</ele>
        <time>2022-07-03T13:48:31Z</time>
      </trkpt>
      <trkpt lat="46.66316" lon="5.60595">
        <ele>505.6</ele>
        <time>2022-07-03T13:48:36Z</time>
      </trkpt>
      <trkpt lat="46.66312" lon="5.60592">
        <ele>505.8</ele>
        <time>2022-07-03T13:48:41Z</time>
      </trkpt>
      <trkpt lat="46.66309" lon="5.60586">
        <ele>506</ele>
        <time>2022-07-03T13:48:48Z</time>
      </trkpt>
      <trkpt lat="46.66304" lon="5.60583">
        <ele>505.9</ele>
        <time>2022-07-03T13:48:54Z</time>
      </trkpt>
      <trkpt lat="46.66299" lon="5.60582">
        <ele>505.5</ele>
        <time>2022-07-03T13:49:00Z</time>
      </trkpt>
      <trkpt lat="46.66296" lon="5.60578">
        <ele>505.2</ele>
        <time>2022-07-03T13:49:04Z</time>
      </trkpt>
      <trkpt lat="46.66291" lon="5.60574">
        <ele>505.9</ele>
        <time>2022-07-03T13:49:09Z</time>
      </trkpt>
      <trkpt lat="46.66286" lon="5.60573">
        <ele>506.7</ele>
        <time>2022-07-03T13:49:15Z</time>
      </trkpt>
      <trkpt lat="46.6628" lon="5.60572">
        <ele>507.1</ele>
        <time>2022-07-03T13:49:20Z</time>
      </trkpt>
      <trkpt lat="46.66276" lon="5.60573">
        <ele>507.1</ele>
        <time>2022-07-03T13:49:27Z</time>
      </trkpt>
      <trkpt lat="46.66272" lon="5.60568">
        <ele>506.7</ele>
        <time>2022-07-03T13:49:35Z</time>
      </trkpt>
      <trkpt lat="46.66268" lon="5.60563">
        <ele>506</ele>
        <time>2022-07-03T13:49:40Z</time>
      </trkpt>
      <trkpt lat="46.66263" lon="5.60558">
        <ele>505.7</ele>
        <time>2022-07-03T13:49:44Z</time>
      </trkpt>
      <trkpt lat="46.66259" lon="5.60554">
        <ele>505.5</ele>
        <time>2022-07-03T13:49:47Z</time>
      </trkpt>
      <trkpt lat="46.66258" lon="5.60547">
        <ele>505.1</ele>
        <time>2022-07-03T13:49:55Z</time>
      </trkpt>
      <trkpt lat="46.66252" lon="5.60543">
        <ele>507</ele>
        <time>2022-07-03T13:49:59Z</time>
      </trkpt>
      <trkpt lat="46.66248" lon="5.60539">
        <ele>508.2</ele>
        <time>2022-07-03T13:50:03Z</time>
      </trkpt>
      <trkpt lat="46.66243" lon="5.60535">
        <ele>508.2</ele>
        <time>2022-07-03T13:50:07Z</time>
      </trkpt>
      <trkpt lat="46.66238" lon="5.60532">
        <ele>507.7</ele>
        <time>2022-07-03T13:50:11Z</time>
      </trkpt>
      <trkpt lat="46.66233" lon="5.60532">
        <ele>506.2</ele>
        <time>2022-07-03T13:50:19Z</time>
      </trkpt>
      <trkpt lat="46.66228" lon="5.60532">
        <ele>505.2</ele>
        <time>2022-07-03T13:50:27Z</time>
      </trkpt>
      <trkpt lat="46.66225" lon="5.60528">
        <ele>504.9</ele>
        <time>2022-07-03T13:50:38Z</time>
      </trkpt>
      <trkpt lat="46.66221" lon="5.60525">
        <ele>504.8</ele>
        <time>2022-07-03T13:50:50Z</time>
      </trkpt>
      <trkpt lat="46.66216" lon="5.60523">
        <ele>504.7</ele>
        <time>2022-07-03T13:50:58Z</time>
      </trkpt>
      <trkpt lat="46.66211" lon="5.60524">
        <ele>504.7</ele>
        <time>2022-07-03T13:51:02Z</time>
      </trkpt>
      <trkpt lat="46.66206" lon="5.60527">
        <ele>504.7</ele>
        <time>2022-07-03T13:51:07Z</time>
      </trkpt>
      <trkpt lat="46.66201" lon="5.60529">
        <ele>504.6</ele>
        <time>2022-07-03T13:51:12Z</time>
      </trkpt>
      <trkpt lat="46.66203" lon="5.60522">
        <ele>504.8</ele>
        <time>2022-07-03T13:51:16Z</time>
      </trkpt>
      <trkpt lat="46.66198" lon="5.60521">
        <ele>505</ele>
        <time>2022-07-03T13:51:26Z</time>
      </trkpt>
      <trkpt lat="46.66194" lon="5.60524">
        <ele>504.9</ele>
        <time>2022-07-03T13:51:30Z</time>
      </trkpt>
      <trkpt lat="46.66197" lon="5.60529">
        <ele>504.5</ele>
        <time>2022-07-03T13:51:38Z</time>
      </trkpt>
      <trkpt lat="46.66201" lon="5.60524">
        <ele>504.1</ele>
        <time>2022-07-03T13:51:44Z</time>
      </trkpt>
      <trkpt lat="46.66204" lon="5.60521">
        <ele>505.5</ele>
        <time>2022-07-03T13:52:07Z</time>
      </trkpt>
      <trkpt lat="46.66199" lon="5.60517">
        <ele>507.5</ele>
        <time>2022-07-03T13:52:49Z</time>
      </trkpt>
      <trkpt lat="46.66195" lon="5.60517">
        <ele>509.1</ele>
        <time>2022-07-03T13:52:57Z</time>
      </trkpt>
      <trkpt lat="46.66196" lon="5.60524">
        <ele>511.4</ele>
        <time>2022-07-03T13:53:08Z</time>
      </trkpt>
      <trkpt lat="46.66199" lon="5.60528">
        <ele>512.5</ele>
        <time>2022-07-03T13:53:24Z</time>
      </trkpt>
      <trkpt lat="46.66195" lon="5.60524">
        <ele>512.5</ele>
        <time>2022-07-03T13:53:33Z</time>
      </trkpt>
      <trkpt lat="46.66198" lon="5.6053">
        <ele>513</ele>
        <time>2022-07-03T13:53:45Z</time>
      </trkpt>
      <trkpt lat="46.662" lon="5.60523">
        <ele>513.5</ele>
        <time>2022-07-03T13:53:54Z</time>
      </trkpt>
      <trkpt lat="46.66196" lon="5.60517">
        <ele>514.2</ele>
        <time>2022-07-03T13:53:58Z</time>
      </trkpt>
      <trkpt lat="46.66197" lon="5.60525">
        <ele>515.6</ele>
        <time>2022-07-03T13:54:06Z</time>
      </trkpt>
      <trkpt lat="46.66193" lon="5.6052">
        <ele>514.8</ele>
        <time>2022-07-03T13:54:22Z</time>
      </trkpt>
      <trkpt lat="46.66198" lon="5.60524">
        <ele>515.6</ele>
        <time>2022-07-03T13:54:33Z</time>
      </trkpt>
      <trkpt lat="46.66194" lon="5.60528">
        <ele>513.8</ele>
        <time>2022-07-03T13:55:01Z</time>
      </trkpt>
      <trkpt lat="46.66191" lon="5.60521">
        <ele>513.2</ele>
        <time>2022-07-03T13:55:05Z</time>
      </trkpt>
      <trkpt lat="46.66187" lon="5.60517">
        <ele>513</ele>
        <time>2022-07-03T13:55:09Z</time>
      </trkpt>
      <trkpt lat="46.66183" lon="5.60515">
        <ele>513.3</ele>
        <time>2022-07-03T13:55:13Z</time>
      </trkpt>
      <trkpt lat="46.66178" lon="5.60516">
        <ele>514</ele>
        <time>2022-07-03T13:55:17Z</time>
      </trkpt>
      <trkpt lat="46.66175" lon="5.60511">
        <ele>514.4</ele>
        <time>2022-07-03T13:55:26Z</time>
      </trkpt>
      <trkpt lat="46.66172" lon="5.60505">
        <ele>514</ele>
        <time>2022-07-03T13:55:30Z</time>
      </trkpt>
      <trkpt lat="46.6617" lon="5.60498">
        <ele>513.4</ele>
        <time>2022-07-03T13:55:34Z</time>
      </trkpt>
      <trkpt lat="46.66166" lon="5.60494">
        <ele>511.9</ele>
        <time>2022-07-03T13:55:46Z</time>
      </trkpt>
      <trkpt lat="46.66161" lon="5.60492">
        <ele>511.5</ele>
        <time>2022-07-03T13:55:51Z</time>
      </trkpt>
      <trkpt lat="46.66155" lon="5.6049">
        <ele>511.3</ele>
        <time>2022-07-03T13:55:55Z</time>
      </trkpt>
      <trkpt lat="46.6615" lon="5.60488">
        <ele>510.9</ele>
        <time>2022-07-03T13:55:58Z</time>
      </trkpt>
      <trkpt lat="46.66144" lon="5.60486">
        <ele>510.4</ele>
        <time>2022-07-03T13:56:01Z</time>
      </trkpt>
      <trkpt lat="46.66138" lon="5.60487">
        <ele>509.8</ele>
        <time>2022-07-03T13:56:04Z</time>
      </trkpt>
      <trkpt lat="46.66134" lon="5.60483">
        <ele>509.1</ele>
        <time>2022-07-03T13:56:10Z</time>
      </trkpt>
      <trkpt lat="46.66131" lon="5.60477">
        <ele>508.8</ele>
        <time>2022-07-03T13:56:15Z</time>
      </trkpt>
      <trkpt lat="46.66128" lon="5.6047">
        <ele>508.2</ele>
        <time>2022-07-03T13:56:21Z</time>
      </trkpt>
      <trkpt lat="46.66126" lon="5.60464">
        <ele>507.5</ele>
        <time>2022-07-03T13:56:27Z</time>
      </trkpt>
      <trkpt lat="46.66122" lon="5.60462">
        <ele>506.9</ele>
        <time>2022-07-03T13:56:35Z</time>
      </trkpt>
      <trkpt lat="46.6612" lon="5.60469">
        <ele>505.2</ele>
        <time>2022-07-03T13:57:08Z</time>
      </trkpt>
      <trkpt lat="46.6612" lon="5.60462">
        <ele>502.1</ele>
        <time>2022-07-03T13:57:19Z</time>
      </trkpt>
      <trkpt lat="46.66123" lon="5.60457">
        <ele>501.1</ele>
        <time>2022-07-03T13:57:26Z</time>
      </trkpt>
      <trkpt lat="46.66124" lon="5.6045">
        <ele>495.1</ele>
        <time>2022-07-03T13:58:07Z</time>
      </trkpt>
      <trkpt lat="46.66119" lon="5.60454">
        <ele>494.7</ele>
        <time>2022-07-03T13:58:15Z</time>
      </trkpt>
      <trkpt lat="46.66115" lon="5.60453">
        <ele>495.1</ele>
        <time>2022-07-03T13:58:26Z</time>
      </trkpt>
      <trkpt lat="46.6612" lon="5.6045">
        <ele>495.4</ele>
        <time>2022-07-03T13:59:02Z</time>
      </trkpt>
      <trkpt lat="46.66118" lon="5.60445">
        <ele>497.8</ele>
        <time>2022-07-03T13:59:15Z</time>
      </trkpt>
      <trkpt lat="46.66114" lon="5.6044">
        <ele>498.2</ele>
        <time>2022-07-03T13:59:19Z</time>
      </trkpt>
      <trkpt lat="46.6611" lon="5.60434">
        <ele>498</ele>
        <time>2022-07-03T13:59:23Z</time>
      </trkpt>
      <trkpt lat="46.66105" lon="5.60433">
        <ele>497.6</ele>
        <time>2022-07-03T13:59:27Z</time>
      </trkpt>
      <trkpt lat="46.66102" lon="5.60428">
        <ele>496.7</ele>
        <time>2022-07-03T13:59:34Z</time>
      </trkpt>
      <trkpt lat="46.66098" lon="5.60424">
        <ele>496.9</ele>
        <time>2022-07-03T13:59:39Z</time>
      </trkpt>
      <trkpt lat="46.66094" lon="5.60419">
        <ele>496.8</ele>
        <time>2022-07-03T13:59:43Z</time>
      </trkpt>
      <trkpt lat="46.66089" lon="5.60415">
        <ele>496.6</ele>
        <time>2022-07-03T13:59:47Z</time>
      </trkpt>
      <trkpt lat="46.66084" lon="5.60415">
        <ele>496.4</ele>
        <time>2022-07-03T13:59:51Z</time>
      </trkpt>
      <trkpt lat="46.66079" lon="5.60414">
        <ele>496.5</ele>
        <time>2022-07-03T13:59:57Z</time>
      </trkpt>
      <trkpt lat="46.66076" lon="5.60409">
        <ele>496.5</ele>
        <time>2022-07-03T14:00:03Z</time>
      </trkpt>
      <trkpt lat="46.66071" lon="5.60407">
        <ele>495.7</ele>
        <time>2022-07-03T14:00:12Z</time>
      </trkpt>
      <trkpt lat="46.66068" lon="5.60412">
        <ele>495.7</ele>
        <time>2022-07-03T14:00:19Z</time>
      </trkpt>
      <trkpt lat="46.66065" lon="5.60418">
        <ele>495.5</ele>
        <time>2022-07-03T14:00:29Z</time>
      </trkpt>
      <trkpt lat="46.6606" lon="5.60421">
        <ele>495.1</ele>
        <time>2022-07-03T14:00:36Z</time>
      </trkpt>
      <trkpt lat="46.66055" lon="5.60419">
        <ele>495.2</ele>
        <time>2022-07-03T14:00:41Z</time>
      </trkpt>
      <trkpt lat="46.66051" lon="5.60414">
        <ele>495.4</ele>
        <time>2022-07-03T14:00:50Z</time>
      </trkpt>
      <trkpt lat="46.66048" lon="5.60408">
        <ele>497.8</ele>
        <time>2022-07-03T14:01:01Z</time>
      </trkpt>
      <trkpt lat="46.66045" lon="5.60402">
        <ele>497.7</ele>
        <time>2022-07-03T14:01:07Z</time>
      </trkpt>
      <trkpt lat="46.66041" lon="5.60398">
        <ele>496.6</ele>
        <time>2022-07-03T14:01:12Z</time>
      </trkpt>
      <trkpt lat="46.66037" lon="5.60392">
        <ele>494.5</ele>
        <time>2022-07-03T14:01:20Z</time>
      </trkpt>
      <trkpt lat="46.66034" lon="5.60386">
        <ele>493.2</ele>
        <time>2022-07-03T14:01:26Z</time>
      </trkpt>
      <trkpt lat="46.6603" lon="5.60381">
        <ele>492.4</ele>
        <time>2022-07-03T14:01:30Z</time>
      </trkpt>
      <trkpt lat="46.66026" lon="5.60378">
        <ele>492</ele>
        <time>2022-07-03T14:01:33Z</time>
      </trkpt>
      <trkpt lat="46.66021" lon="5.60373">
        <ele>491.7</ele>
        <time>2022-07-03T14:01:37Z</time>
      </trkpt>
      <trkpt lat="46.66019" lon="5.60367">
        <ele>491.6</ele>
        <time>2022-07-03T14:01:42Z</time>
      </trkpt>
      <trkpt lat="46.66021" lon="5.6036">
        <ele>491.7</ele>
        <time>2022-07-03T14:01:50Z</time>
      </trkpt>
      <trkpt lat="46.6602" lon="5.60353">
        <ele>491.9</ele>
        <time>2022-07-03T14:01:58Z</time>
      </trkpt>
      <trkpt lat="46.66018" lon="5.60347">
        <ele>491.8</ele>
        <time>2022-07-03T14:02:03Z</time>
      </trkpt>
      <trkpt lat="46.66014" lon="5.60342">
        <ele>491.2</ele>
        <time>2022-07-03T14:02:10Z</time>
      </trkpt>
      <trkpt lat="46.66012" lon="5.60336">
        <ele>490.9</ele>
        <time>2022-07-03T14:02:15Z</time>
      </trkpt>
      <trkpt lat="46.66009" lon="5.60331">
        <ele>491.1</ele>
        <time>2022-07-03T14:02:26Z</time>
      </trkpt>
      <trkpt lat="46.66005" lon="5.60326">
        <ele>491.1</ele>
        <time>2022-07-03T14:02:29Z</time>
      </trkpt>
      <trkpt lat="46.66002" lon="5.60322">
        <ele>491.1</ele>
        <time>2022-07-03T14:02:32Z</time>
      </trkpt>
      <trkpt lat="46.66" lon="5.60315">
        <ele>491.2</ele>
        <time>2022-07-03T14:02:36Z</time>
      </trkpt>
      <trkpt lat="46.65998" lon="5.60309">
        <ele>491.1</ele>
        <time>2022-07-03T14:02:39Z</time>
      </trkpt>
      <trkpt lat="46.66002" lon="5.60305">
        <ele>491</ele>
        <time>2022-07-03T14:02:45Z</time>
      </trkpt>
      <trkpt lat="46.66002" lon="5.60298">
        <ele>490.7</ele>
        <time>2022-07-03T14:02:51Z</time>
      </trkpt>
      <trkpt lat="46.66001" lon="5.6029">
        <ele>490.5</ele>
        <time>2022-07-03T14:02:58Z</time>
      </trkpt>
      <trkpt lat="46.65998" lon="5.60283">
        <ele>490.3</ele>
        <time>2022-07-03T14:03:02Z</time>
      </trkpt>
      <trkpt lat="46.65993" lon="5.60281">
        <ele>491.3</ele>
        <time>2022-07-03T14:03:10Z</time>
      </trkpt>
      <trkpt lat="46.65992" lon="5.60274">
        <ele>494.7</ele>
        <time>2022-07-03T14:03:19Z</time>
      </trkpt>
      <trkpt lat="46.65991" lon="5.60266">
        <ele>497.7</ele>
        <time>2022-07-03T14:03:23Z</time>
      </trkpt>
      <trkpt lat="46.6599" lon="5.6026">
        <ele>499</ele>
        <time>2022-07-03T14:03:26Z</time>
      </trkpt>
      <trkpt lat="46.65991" lon="5.60253">
        <ele>500.6</ele>
        <time>2022-07-03T14:03:34Z</time>
      </trkpt>
      <trkpt lat="46.65994" lon="5.60246">
        <ele>501.4</ele>
        <time>2022-07-03T14:03:43Z</time>
      </trkpt>
      <trkpt lat="46.65997" lon="5.60239">
        <ele>501.1</ele>
        <time>2022-07-03T14:03:50Z</time>
      </trkpt>
      <trkpt lat="46.66" lon="5.60234">
        <ele>499.4</ele>
        <time>2022-07-03T14:03:57Z</time>
      </trkpt>
      <trkpt lat="46.66" lon="5.60226">
        <ele>498.4</ele>
        <time>2022-07-03T14:04:04Z</time>
      </trkpt>
      <trkpt lat="46.65998" lon="5.6022">
        <ele>498</ele>
        <time>2022-07-03T14:04:10Z</time>
      </trkpt>
      <trkpt lat="46.65995" lon="5.60212">
        <ele>497.8</ele>
        <time>2022-07-03T14:04:15Z</time>
      </trkpt>
      <trkpt lat="46.65996" lon="5.60205">
        <ele>497.7</ele>
        <time>2022-07-03T14:04:20Z</time>
      </trkpt>
      <trkpt lat="46.65993" lon="5.60191">
        <ele>498.2</ele>
        <time>2022-07-03T14:04:28Z</time>
      </trkpt>
      <trkpt lat="46.65999" lon="5.60191">
        <ele>499.1</ele>
        <time>2022-07-03T14:04:50Z</time>
      </trkpt>
      <trkpt lat="46.66002" lon="5.60187">
        <ele>498.9</ele>
        <time>2022-07-03T14:05:01Z</time>
      </trkpt>
      <trkpt lat="46.66007" lon="5.60186">
        <ele>496.4</ele>
        <time>2022-07-03T14:05:21Z</time>
      </trkpt>
      <trkpt lat="46.66012" lon="5.60187">
        <ele>495.6</ele>
        <time>2022-07-03T14:05:33Z</time>
      </trkpt>
      <trkpt lat="46.6601" lon="5.60181">
        <ele>495.9</ele>
        <time>2022-07-03T14:05:38Z</time>
      </trkpt>
      <trkpt lat="46.66007" lon="5.60176">
        <ele>496.7</ele>
        <time>2022-07-03T14:05:44Z</time>
      </trkpt>
      <trkpt lat="46.66005" lon="5.6017">
        <ele>496.1</ele>
        <time>2022-07-03T14:06:06Z</time>
      </trkpt>
      <trkpt lat="46.66009" lon="5.60173">
        <ele>496.7</ele>
        <time>2022-07-03T14:06:22Z</time>
      </trkpt>
      <trkpt lat="46.66013" lon="5.60177">
        <ele>497</ele>
        <time>2022-07-03T14:06:27Z</time>
      </trkpt>
      <trkpt lat="46.66012" lon="5.60184">
        <ele>497.6</ele>
        <time>2022-07-03T14:06:48Z</time>
      </trkpt>
      <trkpt lat="46.66007" lon="5.60187">
        <ele>496.9</ele>
        <time>2022-07-03T14:07:52Z</time>
      </trkpt>
      <trkpt lat="46.66003" lon="5.60183">
        <ele>497.5</ele>
        <time>2022-07-03T14:08:01Z</time>
      </trkpt>
      <trkpt lat="46.65999" lon="5.60181">
        <ele>497.2</ele>
        <time>2022-07-03T14:08:14Z</time>
      </trkpt>
      <trkpt lat="46.65999" lon="5.60188">
        <ele>497.3</ele>
        <time>2022-07-03T14:08:21Z</time>
      </trkpt>
      <trkpt lat="46.65995" lon="5.60184">
        <ele>497.6</ele>
        <time>2022-07-03T14:08:42Z</time>
      </trkpt>
      <trkpt lat="46.66" lon="5.60183">
        <ele>497.3</ele>
        <time>2022-07-03T14:08:51Z</time>
      </trkpt>
      <trkpt lat="46.66004" lon="5.60185">
        <ele>494.5</ele>
        <time>2022-07-03T14:09:47Z</time>
      </trkpt>
      <trkpt lat="46.65999" lon="5.60188">
        <ele>495</ele>
        <time>2022-07-03T14:09:56Z</time>
      </trkpt>
      <trkpt lat="46.66003" lon="5.60183">
        <ele>497.9</ele>
        <time>2022-07-03T14:10:44Z</time>
      </trkpt>
      <trkpt lat="46.66008" lon="5.6018">
        <ele>499.2</ele>
        <time>2022-07-03T14:10:51Z</time>
      </trkpt>
      <trkpt lat="46.66012" lon="5.60176">
        <ele>499.3</ele>
        <time>2022-07-03T14:10:57Z</time>
      </trkpt>
      <trkpt lat="46.66017" lon="5.60176">
        <ele>499.5</ele>
        <time>2022-07-03T14:11:03Z</time>
      </trkpt>
      <trkpt lat="46.66021" lon="5.60172">
        <ele>499.8</ele>
        <time>2022-07-03T14:11:09Z</time>
      </trkpt>
      <trkpt lat="46.66026" lon="5.60171">
        <ele>500.2</ele>
        <time>2022-07-03T14:11:15Z</time>
      </trkpt>
      <trkpt lat="46.6603" lon="5.60166">
        <ele>500.8</ele>
        <time>2022-07-03T14:11:21Z</time>
      </trkpt>
      <trkpt lat="46.66035" lon="5.60164">
        <ele>501.2</ele>
        <time>2022-07-03T14:11:26Z</time>
      </trkpt>
      <trkpt lat="46.66031" lon="5.60151">
        <ele>506.2</ele>
        <time>2022-07-03T14:12:08Z</time>
      </trkpt>
      <trkpt lat="46.66033" lon="5.60154">
        <ele>512.7</ele>
        <time>2022-07-03T14:13:37Z</time>
      </trkpt>
      <trkpt lat="46.66037" lon="5.60156">
        <ele>511.9</ele>
        <time>2022-07-03T14:13:46Z</time>
      </trkpt>
      <trkpt lat="46.66037" lon="5.60164">
        <ele>511</ele>
        <time>2022-07-03T14:13:53Z</time>
      </trkpt>
      <trkpt lat="46.66036" lon="5.60171">
        <ele>510.2</ele>
        <time>2022-07-03T14:13:57Z</time>
      </trkpt>
      <trkpt lat="46.66031" lon="5.60171">
        <ele>509.4</ele>
        <time>2022-07-03T14:14:02Z</time>
      </trkpt>
      <trkpt lat="46.66026" lon="5.6017">
        <ele>508.9</ele>
        <time>2022-07-03T14:14:06Z</time>
      </trkpt>
      <trkpt lat="46.66021" lon="5.6017">
        <ele>508.4</ele>
        <time>2022-07-03T14:14:10Z</time>
      </trkpt>
      <trkpt lat="46.66016" lon="5.60171">
        <ele>508</ele>
        <time>2022-07-03T14:14:15Z</time>
      </trkpt>
      <trkpt lat="46.66012" lon="5.60174">
        <ele>507.9</ele>
        <time>2022-07-03T14:14:22Z</time>
      </trkpt>
      <trkpt lat="46.66013" lon="5.60181">
        <ele>507.7</ele>
        <time>2022-07-03T14:14:29Z</time>
      </trkpt>
      <trkpt lat="46.66015" lon="5.60187">
        <ele>502.5</ele>
        <time>2022-07-03T14:14:50Z</time>
      </trkpt>
      <trkpt lat="46.66011" lon="5.60183">
        <ele>500.4</ele>
        <time>2022-07-03T14:15:04Z</time>
      </trkpt>
      <trkpt lat="46.66006" lon="5.60182">
        <ele>497.5</ele>
        <time>2022-07-03T14:15:19Z</time>
      </trkpt>
      <trkpt lat="46.66002" lon="5.60178">
        <ele>500.4</ele>
        <time>2022-07-03T14:16:01Z</time>
      </trkpt>
      <trkpt lat="46.65998" lon="5.60181">
        <ele>503.6</ele>
        <time>2022-07-03T14:16:13Z</time>
      </trkpt>
      <trkpt lat="46.65993" lon="5.60185">
        <ele>503.6</ele>
        <time>2022-07-03T14:16:23Z</time>
      </trkpt>
      <trkpt lat="46.65989" lon="5.60188">
        <ele>503.2</ele>
        <time>2022-07-03T14:16:26Z</time>
      </trkpt>
      <trkpt lat="46.65994" lon="5.6019">
        <ele>501.3</ele>
        <time>2022-07-03T14:16:41Z</time>
      </trkpt>
      <trkpt lat="46.65991" lon="5.60196">
        <ele>500.6</ele>
        <time>2022-07-03T14:16:45Z</time>
      </trkpt>
      <trkpt lat="46.6599" lon="5.60215">
        <ele>500.3</ele>
        <time>2022-07-03T14:17:07Z</time>
      </trkpt>
      <trkpt lat="46.6599" lon="5.60224">
        <ele>504</ele>
        <time>2022-07-03T14:17:26Z</time>
      </trkpt>
      <trkpt lat="46.65992" lon="5.60232">
        <ele>505</ele>
        <time>2022-07-03T14:17:32Z</time>
      </trkpt>
      <trkpt lat="46.65995" lon="5.60227">
        <ele>504.9</ele>
        <time>2022-07-03T14:17:46Z</time>
      </trkpt>
      <trkpt lat="46.6599" lon="5.60228">
        <ele>506.4</ele>
        <time>2022-07-03T14:17:55Z</time>
      </trkpt>
      <trkpt lat="46.65985" lon="5.60221">
        <ele>506.2</ele>
        <time>2022-07-03T14:18:17Z</time>
      </trkpt>
      <trkpt lat="46.65983" lon="5.60213">
        <ele>505.3</ele>
        <time>2022-07-03T14:18:20Z</time>
      </trkpt>
      <trkpt lat="46.65982" lon="5.60206">
        <ele>503.7</ele>
        <time>2022-07-03T14:18:25Z</time>
      </trkpt>
      <trkpt lat="46.65986" lon="5.60202">
        <ele>502.5</ele>
        <time>2022-07-03T14:18:37Z</time>
      </trkpt>
      <trkpt lat="46.65985" lon="5.60196">
        <ele>502.2</ele>
        <time>2022-07-03T14:18:45Z</time>
      </trkpt>
      <trkpt lat="46.65981" lon="5.60191">
        <ele>501.7</ele>
        <time>2022-07-03T14:18:52Z</time>
      </trkpt>
      <trkpt lat="46.6598" lon="5.60185">
        <ele>502.2</ele>
        <time>2022-07-03T14:19:00Z</time>
      </trkpt>
      <trkpt lat="46.6598" lon="5.60178">
        <ele>501.9</ele>
        <time>2022-07-03T14:19:08Z</time>
      </trkpt>
      <trkpt lat="46.65984" lon="5.60174">
        <ele>500.6</ele>
        <time>2022-07-03T14:19:15Z</time>
      </trkpt>
      <trkpt lat="46.65987" lon="5.60168">
        <ele>499.8</ele>
        <time>2022-07-03T14:19:20Z</time>
      </trkpt>
      <trkpt lat="46.65991" lon="5.60167">
        <ele>498</ele>
        <time>2022-07-03T14:19:40Z</time>
      </trkpt>
      <trkpt lat="46.65992" lon="5.60161">
        <ele>497.2</ele>
        <time>2022-07-03T14:19:49Z</time>
      </trkpt>
      <trkpt lat="46.65993" lon="5.60154">
        <ele>496.7</ele>
        <time>2022-07-03T14:19:55Z</time>
      </trkpt>
      <trkpt lat="46.65995" lon="5.60148">
        <ele>496.1</ele>
        <time>2022-07-03T14:20:01Z</time>
      </trkpt>
      <trkpt lat="46.65998" lon="5.60142">
        <ele>495.3</ele>
        <time>2022-07-03T14:20:08Z</time>
      </trkpt>
      <trkpt lat="46.66" lon="5.60136">
        <ele>494.5</ele>
        <time>2022-07-03T14:20:13Z</time>
      </trkpt>
      <trkpt lat="46.66004" lon="5.60131">
        <ele>493.4</ele>
        <time>2022-07-03T14:20:23Z</time>
      </trkpt>
      <trkpt lat="46.66008" lon="5.60129">
        <ele>492</ele>
        <time>2022-07-03T14:20:32Z</time>
      </trkpt>
      <trkpt lat="46.66011" lon="5.60124">
        <ele>490.7</ele>
        <time>2022-07-03T14:20:40Z</time>
      </trkpt>
      <trkpt lat="46.66016" lon="5.6012">
        <ele>490.1</ele>
        <time>2022-07-03T14:20:43Z</time>
      </trkpt>
      <trkpt lat="46.66019" lon="5.60115">
        <ele>488.9</ele>
        <time>2022-07-03T14:20:50Z</time>
      </trkpt>
      <trkpt lat="46.66014" lon="5.60117">
        <ele>486.2</ele>
        <time>2022-07-03T14:21:21Z</time>
      </trkpt>
      <trkpt lat="46.66011" lon="5.60122">
        <ele>485.1</ele>
        <time>2022-07-03T14:21:28Z</time>
      </trkpt>
      <trkpt lat="46.66008" lon="5.60128">
        <ele>484.3</ele>
        <time>2022-07-03T14:21:35Z</time>
      </trkpt>
      <trkpt lat="46.66004" lon="5.60131">
        <ele>483.6</ele>
        <time>2022-07-03T14:21:42Z</time>
      </trkpt>
      <trkpt lat="46.65999" lon="5.6013">
        <ele>483.1</ele>
        <time>2022-07-03T14:21:48Z</time>
      </trkpt>
      <trkpt lat="46.65994" lon="5.60132">
        <ele>482.6</ele>
        <time>2022-07-03T14:21:55Z</time>
      </trkpt>
      <trkpt lat="46.65989" lon="5.60132">
        <ele>482</ele>
        <time>2022-07-03T14:22:01Z</time>
      </trkpt>
      <trkpt lat="46.65984" lon="5.6013">
        <ele>481.1</ele>
        <time>2022-07-03T14:22:08Z</time>
      </trkpt>
      <trkpt lat="46.65979" lon="5.60129">
        <ele>480.5</ele>
        <time>2022-07-03T14:22:14Z</time>
      </trkpt>
      <trkpt lat="46.65975" lon="5.60128">
        <ele>479.8</ele>
        <time>2022-07-03T14:22:19Z</time>
      </trkpt>
      <trkpt lat="46.65971" lon="5.60132">
        <ele>478.9</ele>
        <time>2022-07-03T14:22:24Z</time>
      </trkpt>
      <trkpt lat="46.65968" lon="5.60137">
        <ele>478.5</ele>
        <time>2022-07-03T14:22:28Z</time>
      </trkpt>
      <trkpt lat="46.65967" lon="5.60144">
        <ele>477.7</ele>
        <time>2022-07-03T14:22:34Z</time>
      </trkpt>
      <trkpt lat="46.65964" lon="5.60149">
        <ele>476.2</ele>
        <time>2022-07-03T14:22:39Z</time>
      </trkpt>
      <trkpt lat="46.65961" lon="5.60155">
        <ele>473.2</ele>
        <time>2022-07-03T14:22:47Z</time>
      </trkpt>
      <trkpt lat="46.65956" lon="5.60157">
        <ele>471.7</ele>
        <time>2022-07-03T14:22:53Z</time>
      </trkpt>
      <trkpt lat="46.65952" lon="5.60158">
        <ele>470.7</ele>
        <time>2022-07-03T14:22:59Z</time>
      </trkpt>
      <trkpt lat="46.65948" lon="5.60163">
        <ele>468.4</ele>
        <time>2022-07-03T14:23:07Z</time>
      </trkpt>
      <trkpt lat="46.65947" lon="5.6017">
        <ele>466.8</ele>
        <time>2022-07-03T14:23:12Z</time>
      </trkpt>
      <trkpt lat="46.65946" lon="5.60177">
        <ele>464.8</ele>
        <time>2022-07-03T14:23:18Z</time>
      </trkpt>
      <trkpt lat="46.65942" lon="5.60187">
        <ele>462</ele>
        <time>2022-07-03T14:23:43Z</time>
      </trkpt>
      <trkpt lat="46.65938" lon="5.60192">
        <ele>461.8</ele>
        <time>2022-07-03T14:23:46Z</time>
      </trkpt>
      <trkpt lat="46.65936" lon="5.60199">
        <ele>461.9</ele>
        <time>2022-07-03T14:23:50Z</time>
      </trkpt>
      <trkpt lat="46.65935" lon="5.60191">
        <ele>461.5</ele>
        <time>2022-07-03T14:24:02Z</time>
      </trkpt>
      <trkpt lat="46.65933" lon="5.60185">
        <ele>460.9</ele>
        <time>2022-07-03T14:24:10Z</time>
      </trkpt>
      <trkpt lat="46.65937" lon="5.60185">
        <ele>460.9</ele>
        <time>2022-07-03T14:24:23Z</time>
      </trkpt>
      <trkpt lat="46.65934" lon="5.60179">
        <ele>460.7</ele>
        <time>2022-07-03T14:24:32Z</time>
      </trkpt>
      <trkpt lat="46.65932" lon="5.60172">
        <ele>460.6</ele>
        <time>2022-07-03T14:24:36Z</time>
      </trkpt>
      <trkpt lat="46.65932" lon="5.60164">
        <ele>460.3</ele>
        <time>2022-07-03T14:24:41Z</time>
      </trkpt>
      <trkpt lat="46.65934" lon="5.60157">
        <ele>459.9</ele>
        <time>2022-07-03T14:24:46Z</time>
      </trkpt>
      <trkpt lat="46.65937" lon="5.60151">
        <ele>459.8</ele>
        <time>2022-07-03T14:24:52Z</time>
      </trkpt>
      <trkpt lat="46.65932" lon="5.60147">
        <ele>458.9</ele>
        <time>2022-07-03T14:25:04Z</time>
      </trkpt>
      <trkpt lat="46.65927" lon="5.60148">
        <ele>459.2</ele>
        <time>2022-07-03T14:25:10Z</time>
      </trkpt>
      <trkpt lat="46.65923" lon="5.6015">
        <ele>460.6</ele>
        <time>2022-07-03T14:25:18Z</time>
      </trkpt>
      <trkpt lat="46.65919" lon="5.60153">
        <ele>461.5</ele>
        <time>2022-07-03T14:25:32Z</time>
      </trkpt>
      <trkpt lat="46.65914" lon="5.60154">
        <ele>461.2</ele>
        <time>2022-07-03T14:25:39Z</time>
      </trkpt>
      <trkpt lat="46.6591" lon="5.60152">
        <ele>460.8</ele>
        <time>2022-07-03T14:25:44Z</time>
      </trkpt>
      <trkpt lat="46.65906" lon="5.60155">
        <ele>458.7</ele>
        <time>2022-07-03T14:25:57Z</time>
      </trkpt>
      <trkpt lat="46.65906" lon="5.60163">
        <ele>457.1</ele>
        <time>2022-07-03T14:26:03Z</time>
      </trkpt>
      <trkpt lat="46.65906" lon="5.6017">
        <ele>456.4</ele>
        <time>2022-07-03T14:26:08Z</time>
      </trkpt>
      <trkpt lat="46.65902" lon="5.60174">
        <ele>452.7</ele>
        <time>2022-07-03T14:26:20Z</time>
      </trkpt>
      <trkpt lat="46.65899" lon="5.60179">
        <ele>448.8</ele>
        <time>2022-07-03T14:26:33Z</time>
      </trkpt>
      <trkpt lat="46.65898" lon="5.60187">
        <ele>448.2</ele>
        <time>2022-07-03T14:26:37Z</time>
      </trkpt>
      <trkpt lat="46.65897" lon="5.60194">
        <ele>447.7</ele>
        <time>2022-07-03T14:26:41Z</time>
      </trkpt>
      <trkpt lat="46.65894" lon="5.60199">
        <ele>446.5</ele>
        <time>2022-07-03T14:26:49Z</time>
      </trkpt>
      <trkpt lat="46.65889" lon="5.60201">
        <ele>446.1</ele>
        <time>2022-07-03T14:26:54Z</time>
      </trkpt>
      <trkpt lat="46.65885" lon="5.60205">
        <ele>446</ele>
        <time>2022-07-03T14:26:59Z</time>
      </trkpt>
      <trkpt lat="46.65882" lon="5.6021">
        <ele>446.7</ele>
        <time>2022-07-03T14:27:09Z</time>
      </trkpt>
      <trkpt lat="46.65883" lon="5.60203">
        <ele>446.7</ele>
        <time>2022-07-03T14:27:14Z</time>
      </trkpt>
      <trkpt lat="46.65884" lon="5.60196">
        <ele>447.2</ele>
        <time>2022-07-03T14:27:19Z</time>
      </trkpt>
      <trkpt lat="46.65882" lon="5.60178">
        <ele>447.9</ele>
        <time>2022-07-03T14:27:22Z</time>
      </trkpt>
      <trkpt lat="46.65878" lon="5.60167">
        <ele>448.5</ele>
        <time>2022-07-03T14:27:25Z</time>
      </trkpt>
      <trkpt lat="46.65877" lon="5.60174">
        <ele>448.3</ele>
        <time>2022-07-03T14:27:32Z</time>
      </trkpt>
      <trkpt lat="46.6588" lon="5.60181">
        <ele>447.2</ele>
        <time>2022-07-03T14:27:36Z</time>
      </trkpt>
      <trkpt lat="46.65883" lon="5.60185">
        <ele>446.2</ele>
        <time>2022-07-03T14:27:39Z</time>
      </trkpt>
      <trkpt lat="46.65886" lon="5.60192">
        <ele>444.7</ele>
        <time>2022-07-03T14:27:43Z</time>
      </trkpt>
      <trkpt lat="46.65888" lon="5.60199">
        <ele>442.6</ele>
        <time>2022-07-03T14:27:48Z</time>
      </trkpt>
      <trkpt lat="46.65892" lon="5.60204">
        <ele>440.5</ele>
        <time>2022-07-03T14:27:52Z</time>
      </trkpt>
      <trkpt lat="46.65889" lon="5.60195">
        <ele>430.8</ele>
        <time>2022-07-03T14:28:34Z</time>
      </trkpt>
      <trkpt lat="46.65884" lon="5.602">
        <ele>431.8</ele>
        <time>2022-07-03T14:29:18Z</time>
      </trkpt>
      <trkpt lat="46.65881" lon="5.60205">
        <ele>432.2</ele>
        <time>2022-07-03T14:29:21Z</time>
      </trkpt>
      <trkpt lat="46.65877" lon="5.60208">
        <ele>433.1</ele>
        <time>2022-07-03T14:29:25Z</time>
      </trkpt>
      <trkpt lat="46.65873" lon="5.60212">
        <ele>434</ele>
        <time>2022-07-03T14:29:29Z</time>
      </trkpt>
      <trkpt lat="46.6587" lon="5.60216">
        <ele>435.9</ele>
        <time>2022-07-03T14:29:36Z</time>
      </trkpt>
      <trkpt lat="46.65865" lon="5.60215">
        <ele>437.8</ele>
        <time>2022-07-03T14:29:42Z</time>
      </trkpt>
      <trkpt lat="46.65864" lon="5.60222">
        <ele>437.1</ele>
        <time>2022-07-03T14:29:56Z</time>
      </trkpt>
      <trkpt lat="46.65862" lon="5.60228">
        <ele>435.9</ele>
        <time>2022-07-03T14:30:00Z</time>
      </trkpt>
      <trkpt lat="46.65861" lon="5.60234">
        <ele>434.1</ele>
        <time>2022-07-03T14:30:07Z</time>
      </trkpt>
      <trkpt lat="46.65857" lon="5.60239">
        <ele>432.6</ele>
        <time>2022-07-03T14:30:17Z</time>
      </trkpt>
      <trkpt lat="46.65855" lon="5.60246">
        <ele>427.3</ele>
        <time>2022-07-03T14:30:33Z</time>
      </trkpt>
      <trkpt lat="46.65853" lon="5.60251">
        <ele>426.2</ele>
        <time>2022-07-03T14:30:37Z</time>
      </trkpt>
      <trkpt lat="46.6585" lon="5.60256">
        <ele>425.7</ele>
        <time>2022-07-03T14:30:42Z</time>
      </trkpt>
      <trkpt lat="46.65849" lon="5.60264">
        <ele>425.5</ele>
        <time>2022-07-03T14:30:48Z</time>
      </trkpt>
      <trkpt lat="46.65849" lon="5.60272">
        <ele>425.1</ele>
        <time>2022-07-03T14:30:53Z</time>
      </trkpt>
      <trkpt lat="46.65849" lon="5.60278">
        <ele>424.6</ele>
        <time>2022-07-03T14:30:57Z</time>
      </trkpt>
      <trkpt lat="46.6585" lon="5.60286">
        <ele>424.2</ele>
        <time>2022-07-03T14:31:01Z</time>
      </trkpt>
      <trkpt lat="46.65851" lon="5.60293">
        <ele>424.1</ele>
        <time>2022-07-03T14:31:06Z</time>
      </trkpt>
      <trkpt lat="46.65851" lon="5.603">
        <ele>425.1</ele>
        <time>2022-07-03T14:31:15Z</time>
      </trkpt>
      <trkpt lat="46.65848" lon="5.60305">
        <ele>426.8</ele>
        <time>2022-07-03T14:31:32Z</time>
      </trkpt>
      <trkpt lat="46.65846" lon="5.60312">
        <ele>427.5</ele>
        <time>2022-07-03T14:31:43Z</time>
      </trkpt>
      <trkpt lat="46.65844" lon="5.60318">
        <ele>426.4</ele>
        <time>2022-07-03T14:31:50Z</time>
      </trkpt>
      <trkpt lat="46.65848" lon="5.60317">
        <ele>421.4</ele>
        <time>2022-07-03T14:32:29Z</time>
      </trkpt>
      <trkpt lat="46.6585" lon="5.60324">
        <ele>419.1</ele>
        <time>2022-07-03T14:32:38Z</time>
      </trkpt>
      <trkpt lat="46.65845" lon="5.60321">
        <ele>419.5</ele>
        <time>2022-07-03T14:32:43Z</time>
      </trkpt>
      <trkpt lat="46.6584" lon="5.60323">
        <ele>419.7</ele>
        <time>2022-07-03T14:33:00Z</time>
      </trkpt>
      <trkpt lat="46.65835" lon="5.60322">
        <ele>416.5</ele>
        <time>2022-07-03T14:33:42Z</time>
      </trkpt>
      <trkpt lat="46.6583" lon="5.60323">
        <ele>415</ele>
        <time>2022-07-03T14:33:46Z</time>
      </trkpt>
      <trkpt lat="46.65825" lon="5.60322">
        <ele>413.9</ele>
        <time>2022-07-03T14:33:51Z</time>
      </trkpt>
      <trkpt lat="46.65827" lon="5.60329">
        <ele>413</ele>
        <time>2022-07-03T14:34:10Z</time>
      </trkpt>
      <trkpt lat="46.65826" lon="5.60335">
        <ele>413.1</ele>
        <time>2022-07-03T14:34:14Z</time>
      </trkpt>
      <trkpt lat="46.65821" lon="5.60336">
        <ele>412.5</ele>
        <time>2022-07-03T14:34:24Z</time>
      </trkpt>
      <trkpt lat="46.65817" lon="5.60342">
        <ele>410.3</ele>
        <time>2022-07-03T14:34:32Z</time>
      </trkpt>
      <trkpt lat="46.65819" lon="5.60348">
        <ele>407.4</ele>
        <time>2022-07-03T14:34:42Z</time>
      </trkpt>
      <trkpt lat="46.65821" lon="5.60354">
        <ele>405.7</ele>
        <time>2022-07-03T14:34:48Z</time>
      </trkpt>
      <trkpt lat="46.65821" lon="5.60362">
        <ele>404.3</ele>
        <time>2022-07-03T14:34:54Z</time>
      </trkpt>
      <trkpt lat="46.65823" lon="5.60368">
        <ele>402.3</ele>
        <time>2022-07-03T14:35:01Z</time>
      </trkpt>
      <trkpt lat="46.65824" lon="5.60375">
        <ele>400.4</ele>
        <time>2022-07-03T14:35:07Z</time>
      </trkpt>
      <trkpt lat="46.65824" lon="5.60382">
        <ele>399.4</ele>
        <time>2022-07-03T14:35:12Z</time>
      </trkpt>
      <trkpt lat="46.65825" lon="5.60388">
        <ele>399</ele>
        <time>2022-07-03T14:35:16Z</time>
      </trkpt>
      <trkpt lat="46.65827" lon="5.60394">
        <ele>399.2</ele>
        <time>2022-07-03T14:35:20Z</time>
      </trkpt>
      <trkpt lat="46.65831" lon="5.60398">
        <ele>400.4</ele>
        <time>2022-07-03T14:35:25Z</time>
      </trkpt>
      <trkpt lat="46.65834" lon="5.60403">
        <ele>401.5</ele>
        <time>2022-07-03T14:35:31Z</time>
      </trkpt>
      <trkpt lat="46.65838" lon="5.60408">
        <ele>401.6</ele>
        <time>2022-07-03T14:35:38Z</time>
      </trkpt>
      <trkpt lat="46.6584" lon="5.60416">
        <ele>400.8</ele>
        <time>2022-07-03T14:35:43Z</time>
      </trkpt>
      <trkpt lat="46.65842" lon="5.60422">
        <ele>399.9</ele>
        <time>2022-07-03T14:35:47Z</time>
      </trkpt>
      <trkpt lat="46.65846" lon="5.60426">
        <ele>399.1</ele>
        <time>2022-07-03T14:35:53Z</time>
      </trkpt>
      <trkpt lat="46.65849" lon="5.60432">
        <ele>399</ele>
        <time>2022-07-03T14:36:00Z</time>
      </trkpt>
      <trkpt lat="46.65849" lon="5.60439">
        <ele>398.8</ele>
        <time>2022-07-03T14:36:12Z</time>
      </trkpt>
      <trkpt lat="46.6585" lon="5.60446">
        <ele>399.6</ele>
        <time>2022-07-03T14:36:17Z</time>
      </trkpt>
      <trkpt lat="46.65845" lon="5.60446">
        <ele>400.6</ele>
        <time>2022-07-03T14:36:34Z</time>
      </trkpt>
      <trkpt lat="46.65841" lon="5.6044">
        <ele>401.4</ele>
        <time>2022-07-03T14:36:39Z</time>
      </trkpt>
      <trkpt lat="46.65838" lon="5.60434">
        <ele>402.4</ele>
        <time>2022-07-03T14:36:46Z</time>
      </trkpt>
      <trkpt lat="46.65835" lon="5.60428">
        <ele>403</ele>
        <time>2022-07-03T14:36:56Z</time>
      </trkpt>
      <trkpt lat="46.65831" lon="5.60424">
        <ele>402.4</ele>
        <time>2022-07-03T14:37:02Z</time>
      </trkpt>
      <trkpt lat="46.65827" lon="5.60419">
        <ele>401.8</ele>
        <time>2022-07-03T14:37:08Z</time>
      </trkpt>
      <trkpt lat="46.65822" lon="5.60416">
        <ele>401.4</ele>
        <time>2022-07-03T14:37:13Z</time>
      </trkpt>
      <trkpt lat="46.65818" lon="5.60416">
        <ele>400.7</ele>
        <time>2022-07-03T14:37:20Z</time>
      </trkpt>
      <trkpt lat="46.65814" lon="5.60413">
        <ele>398.3</ele>
        <time>2022-07-03T14:37:30Z</time>
      </trkpt>
      <trkpt lat="46.65809" lon="5.6041">
        <ele>396.2</ele>
        <time>2022-07-03T14:37:41Z</time>
      </trkpt>
      <trkpt lat="46.65805" lon="5.60406">
        <ele>395.5</ele>
        <time>2022-07-03T14:37:47Z</time>
      </trkpt>
      <trkpt lat="46.65801" lon="5.60406">
        <ele>394.5</ele>
        <time>2022-07-03T14:37:54Z</time>
      </trkpt>
      <trkpt lat="46.65796" lon="5.60405">
        <ele>393</ele>
        <time>2022-07-03T14:38:05Z</time>
      </trkpt>
      <trkpt lat="46.65792" lon="5.60401">
        <ele>390.8</ele>
        <time>2022-07-03T14:38:21Z</time>
      </trkpt>
      <trkpt lat="46.65791" lon="5.60394">
        <ele>389.2</ele>
        <time>2022-07-03T14:38:25Z</time>
      </trkpt>
      <trkpt lat="46.65788" lon="5.60388">
        <ele>386.6</ele>
        <time>2022-07-03T14:38:33Z</time>
      </trkpt>
      <trkpt lat="46.65783" lon="5.60383">
        <ele>385.2</ele>
        <time>2022-07-03T14:38:39Z</time>
      </trkpt>
      <trkpt lat="46.6578" lon="5.60378">
        <ele>384.4</ele>
        <time>2022-07-03T14:38:44Z</time>
      </trkpt>
      <trkpt lat="46.65777" lon="5.60372">
        <ele>383.8</ele>
        <time>2022-07-03T14:38:48Z</time>
      </trkpt>
      <trkpt lat="46.65775" lon="5.60365">
        <ele>383.2</ele>
        <time>2022-07-03T14:38:53Z</time>
      </trkpt>
      <trkpt lat="46.65773" lon="5.60359">
        <ele>382.4</ele>
        <time>2022-07-03T14:38:59Z</time>
      </trkpt>
      <trkpt lat="46.65774" lon="5.60352">
        <ele>379.7</ele>
        <time>2022-07-03T14:39:08Z</time>
      </trkpt>
      <trkpt lat="46.65771" lon="5.60346">
        <ele>378.9</ele>
        <time>2022-07-03T14:39:15Z</time>
      </trkpt>
      <trkpt lat="46.65772" lon="5.60339">
        <ele>376.5</ele>
        <time>2022-07-03T14:39:25Z</time>
      </trkpt>
      <trkpt lat="46.65771" lon="5.60332">
        <ele>375.1</ele>
        <time>2022-07-03T14:39:31Z</time>
      </trkpt>
      <trkpt lat="46.65767" lon="5.60328">
        <ele>374.4</ele>
        <time>2022-07-03T14:39:39Z</time>
      </trkpt>
      <trkpt lat="46.65763" lon="5.60324">
        <ele>374.5</ele>
        <time>2022-07-03T14:39:47Z</time>
      </trkpt>
      <trkpt lat="46.65759" lon="5.60319">
        <ele>374.7</ele>
        <time>2022-07-03T14:39:57Z</time>
      </trkpt>
      <trkpt lat="46.65755" lon="5.60318">
        <ele>374.2</ele>
        <time>2022-07-03T14:40:04Z</time>
      </trkpt>
      <trkpt lat="46.65752" lon="5.60312">
        <ele>371.9</ele>
        <time>2022-07-03T14:40:14Z</time>
      </trkpt>
      <trkpt lat="46.65752" lon="5.60305">
        <ele>365.8</ele>
        <time>2022-07-03T14:40:28Z</time>
      </trkpt>
      <trkpt lat="46.6575" lon="5.60298">
        <ele>364.1</ele>
        <time>2022-07-03T14:40:32Z</time>
      </trkpt>
      <trkpt lat="46.65746" lon="5.60294">
        <ele>363.3</ele>
        <time>2022-07-03T14:40:36Z</time>
      </trkpt>
      <trkpt lat="46.65741" lon="5.60293">
        <ele>363.1</ele>
        <time>2022-07-03T14:40:40Z</time>
      </trkpt>
      <trkpt lat="46.65736" lon="5.60293">
        <ele>364.4</ele>
        <time>2022-07-03T14:40:46Z</time>
      </trkpt>
      <trkpt lat="46.65731" lon="5.60294">
        <ele>366</ele>
        <time>2022-07-03T14:40:51Z</time>
      </trkpt>
      <trkpt lat="46.65726" lon="5.60294">
        <ele>367.8</ele>
        <time>2022-07-03T14:40:59Z</time>
      </trkpt>
      <trkpt lat="46.65722" lon="5.60298">
        <ele>367.9</ele>
        <time>2022-07-03T14:41:04Z</time>
      </trkpt>
      <trkpt lat="46.65717" lon="5.60298">
        <ele>366.1</ele>
        <time>2022-07-03T14:41:16Z</time>
      </trkpt>
      <trkpt lat="46.65713" lon="5.60296">
        <ele>364.8</ele>
        <time>2022-07-03T14:41:25Z</time>
      </trkpt>
      <trkpt lat="46.65708" lon="5.60296">
        <ele>362.7</ele>
        <time>2022-07-03T14:41:38Z</time>
      </trkpt>
      <trkpt lat="46.65704" lon="5.60293">
        <ele>359.2</ele>
        <time>2022-07-03T14:41:49Z</time>
      </trkpt>
      <trkpt lat="46.65699" lon="5.60294">
        <ele>357.8</ele>
        <time>2022-07-03T14:41:57Z</time>
      </trkpt>
      <trkpt lat="46.65693" lon="5.60297">
        <ele>356.9</ele>
        <time>2022-07-03T14:42:03Z</time>
      </trkpt>
      <trkpt lat="46.65689" lon="5.60298">
        <ele>355.6</ele>
        <time>2022-07-03T14:42:09Z</time>
      </trkpt>
      <trkpt lat="46.65684" lon="5.60298">
        <ele>353.7</ele>
        <time>2022-07-03T14:42:16Z</time>
      </trkpt>
      <trkpt lat="46.65679" lon="5.60296">
        <ele>351.6</ele>
        <time>2022-07-03T14:42:24Z</time>
      </trkpt>
      <trkpt lat="46.65674" lon="5.60296">
        <ele>350.4</ele>
        <time>2022-07-03T14:42:31Z</time>
      </trkpt>
      <trkpt lat="46.6567" lon="5.60297">
        <ele>349</ele>
        <time>2022-07-03T14:42:38Z</time>
      </trkpt>
      <trkpt lat="46.65665" lon="5.60296">
        <ele>346.7</ele>
        <time>2022-07-03T14:42:45Z</time>
      </trkpt>
      <trkpt lat="46.65661" lon="5.603">
        <ele>345.5</ele>
        <time>2022-07-03T14:42:49Z</time>
      </trkpt>
      <trkpt lat="46.65656" lon="5.60303">
        <ele>344.5</ele>
        <time>2022-07-03T14:42:54Z</time>
      </trkpt>
      <trkpt lat="46.65651" lon="5.60305">
        <ele>343.8</ele>
        <time>2022-07-03T14:43:00Z</time>
      </trkpt>
      <trkpt lat="46.65646" lon="5.60305">
        <ele>343.7</ele>
        <time>2022-07-03T14:43:06Z</time>
      </trkpt>
      <trkpt lat="46.65641" lon="5.60305">
        <ele>343.8</ele>
        <time>2022-07-03T14:43:11Z</time>
      </trkpt>
      <trkpt lat="46.65636" lon="5.60307">
        <ele>343.9</ele>
        <time>2022-07-03T14:43:17Z</time>
      </trkpt>
      <trkpt lat="46.65631" lon="5.60308">
        <ele>344.3</ele>
        <time>2022-07-03T14:43:25Z</time>
      </trkpt>
      <trkpt lat="46.65626" lon="5.60308">
        <ele>343.7</ele>
        <time>2022-07-03T14:43:31Z</time>
      </trkpt>
      <trkpt lat="46.65622" lon="5.60312">
        <ele>343.2</ele>
        <time>2022-07-03T14:43:36Z</time>
      </trkpt>
      <trkpt lat="46.6562" lon="5.60319">
        <ele>342.1</ele>
        <time>2022-07-03T14:43:40Z</time>
      </trkpt>
      <trkpt lat="46.65619" lon="5.60326">
        <ele>339.7</ele>
        <time>2022-07-03T14:43:47Z</time>
      </trkpt>
      <trkpt lat="46.65619" lon="5.60318">
        <ele>337.7</ele>
        <time>2022-07-03T14:44:27Z</time>
      </trkpt>
      <trkpt lat="46.6562" lon="5.60312">
        <ele>338.4</ele>
        <time>2022-07-03T14:44:32Z</time>
      </trkpt>
      <trkpt lat="46.6562" lon="5.60305">
        <ele>339.7</ele>
        <time>2022-07-03T14:44:38Z</time>
      </trkpt>
      <trkpt lat="46.6562" lon="5.60298">
        <ele>342.3</ele>
        <time>2022-07-03T14:44:47Z</time>
      </trkpt>
      <trkpt lat="46.65619" lon="5.60291">
        <ele>345</ele>
        <time>2022-07-03T14:45:00Z</time>
      </trkpt>
      <trkpt lat="46.65618" lon="5.60284">
        <ele>345.3</ele>
        <time>2022-07-03T14:45:06Z</time>
      </trkpt>
      <trkpt lat="46.65617" lon="5.60278">
        <ele>345.4</ele>
        <time>2022-07-03T14:45:11Z</time>
      </trkpt>
      <trkpt lat="46.65616" lon="5.60271">
        <ele>345.8</ele>
        <time>2022-07-03T14:45:18Z</time>
      </trkpt>
      <trkpt lat="46.65612" lon="5.60269">
        <ele>346.8</ele>
        <time>2022-07-03T14:45:28Z</time>
      </trkpt>
      <trkpt lat="46.6561" lon="5.60261">
        <ele>347.2</ele>
        <time>2022-07-03T14:45:47Z</time>
      </trkpt>
      <trkpt lat="46.65609" lon="5.60254">
        <ele>345.5</ele>
        <time>2022-07-03T14:45:54Z</time>
      </trkpt>
      <trkpt lat="46.6561" lon="5.60248">
        <ele>343.8</ele>
        <time>2022-07-03T14:46:00Z</time>
      </trkpt>
      <trkpt lat="46.65611" lon="5.60241">
        <ele>341</ele>
        <time>2022-07-03T14:46:08Z</time>
      </trkpt>
      <trkpt lat="46.65613" lon="5.60234">
        <ele>339</ele>
        <time>2022-07-03T14:46:14Z</time>
      </trkpt>
      <trkpt lat="46.65613" lon="5.60227">
        <ele>338</ele>
        <time>2022-07-03T14:46:18Z</time>
      </trkpt>
      <trkpt lat="46.65613" lon="5.6022">
        <ele>337.2</ele>
        <time>2022-07-03T14:46:23Z</time>
      </trkpt>
      <trkpt lat="46.65611" lon="5.60213">
        <ele>336.9</ele>
        <time>2022-07-03T14:46:29Z</time>
      </trkpt>
      <trkpt lat="46.65606" lon="5.6021">
        <ele>337.6</ele>
        <time>2022-07-03T14:46:36Z</time>
      </trkpt>
      <trkpt lat="46.656" lon="5.60209">
        <ele>338.1</ele>
        <time>2022-07-03T14:46:46Z</time>
      </trkpt>
      <trkpt lat="46.65595" lon="5.60206">
        <ele>338.6</ele>
        <time>2022-07-03T14:46:50Z</time>
      </trkpt>
      <trkpt lat="46.6559" lon="5.60203">
        <ele>339.1</ele>
        <time>2022-07-03T14:46:56Z</time>
      </trkpt>
      <trkpt lat="46.65585" lon="5.60203">
        <ele>339</ele>
        <time>2022-07-03T14:47:01Z</time>
      </trkpt>
      <trkpt lat="46.65581" lon="5.60202">
        <ele>339.3</ele>
        <time>2022-07-03T14:47:07Z</time>
      </trkpt>
      <trkpt lat="46.65576" lon="5.60201">
        <ele>340.2</ele>
        <time>2022-07-03T14:47:17Z</time>
      </trkpt>
      <trkpt lat="46.65572" lon="5.60204">
        <ele>340.1</ele>
        <time>2022-07-03T14:47:25Z</time>
      </trkpt>
      <trkpt lat="46.65569" lon="5.60208">
        <ele>339.9</ele>
        <time>2022-07-03T14:47:31Z</time>
      </trkpt>
      <trkpt lat="46.65565" lon="5.60212">
        <ele>339.9</ele>
        <time>2022-07-03T14:47:36Z</time>
      </trkpt>
      <trkpt lat="46.65563" lon="5.60218">
        <ele>339.8</ele>
        <time>2022-07-03T14:47:41Z</time>
      </trkpt>
      <trkpt lat="46.65559" lon="5.60224">
        <ele>339.7</ele>
        <time>2022-07-03T14:47:46Z</time>
      </trkpt>
      <trkpt lat="46.65556" lon="5.60228">
        <ele>339.5</ele>
        <time>2022-07-03T14:47:51Z</time>
      </trkpt>
      <trkpt lat="46.65553" lon="5.60235">
        <ele>338.9</ele>
        <time>2022-07-03T14:47:56Z</time>
      </trkpt>
      <trkpt lat="46.65552" lon="5.60241">
        <ele>338.8</ele>
        <time>2022-07-03T14:48:01Z</time>
      </trkpt>
      <trkpt lat="46.65548" lon="5.60245">
        <ele>338.2</ele>
        <time>2022-07-03T14:48:07Z</time>
      </trkpt>
      <trkpt lat="46.6554" lon="5.60248">
        <ele>333.8</ele>
        <time>2022-07-03T14:48:35Z</time>
      </trkpt>
      <trkpt lat="46.65535" lon="5.60251">
        <ele>333.2</ele>
        <time>2022-07-03T14:48:38Z</time>
      </trkpt>
      <trkpt lat="46.65531" lon="5.60255">
        <ele>332.7</ele>
        <time>2022-07-03T14:48:42Z</time>
      </trkpt>
      <trkpt lat="46.65529" lon="5.60248">
        <ele>332.6</ele>
        <time>2022-07-03T14:48:50Z</time>
      </trkpt>
      <trkpt lat="46.65531" lon="5.60241">
        <ele>332.7</ele>
        <time>2022-07-03T14:48:55Z</time>
      </trkpt>
      <trkpt lat="46.65531" lon="5.60234">
        <ele>332.7</ele>
        <time>2022-07-03T14:48:59Z</time>
      </trkpt>
      <trkpt lat="46.65531" lon="5.60227">
        <ele>332.2</ele>
        <time>2022-07-03T14:49:03Z</time>
      </trkpt>
      <trkpt lat="46.65529" lon="5.60221">
        <ele>330.6</ele>
        <time>2022-07-03T14:49:09Z</time>
      </trkpt>
      <trkpt lat="46.65526" lon="5.60214">
        <ele>328.7</ele>
        <time>2022-07-03T14:49:14Z</time>
      </trkpt>
      <trkpt lat="46.65524" lon="5.60208">
        <ele>327</ele>
        <time>2022-07-03T14:49:17Z</time>
      </trkpt>
      <trkpt lat="46.65522" lon="5.60202">
        <ele>325.3</ele>
        <time>2022-07-03T14:49:20Z</time>
      </trkpt>
      <trkpt lat="46.65519" lon="5.60195">
        <ele>323</ele>
        <time>2022-07-03T14:49:25Z</time>
      </trkpt>
      <trkpt lat="46.65515" lon="5.6019">
        <ele>321</ele>
        <time>2022-07-03T14:49:32Z</time>
      </trkpt>
      <trkpt lat="46.6551" lon="5.60193">
        <ele>320.6</ele>
        <time>2022-07-03T14:49:35Z</time>
      </trkpt>
      <trkpt lat="46.65506" lon="5.60189">
        <ele>319.1</ele>
        <time>2022-07-03T14:49:54Z</time>
      </trkpt>
      <trkpt lat="46.65503" lon="5.60195">
        <ele>319.9</ele>
        <time>2022-07-03T14:49:58Z</time>
      </trkpt>
      <trkpt lat="46.65498" lon="5.60199">
        <ele>321.9</ele>
        <time>2022-07-03T14:50:04Z</time>
      </trkpt>
      <trkpt lat="46.65494" lon="5.60201">
        <ele>323.1</ele>
        <time>2022-07-03T14:50:08Z</time>
      </trkpt>
      <trkpt lat="46.65489" lon="5.60203">
        <ele>324.3</ele>
        <time>2022-07-03T14:50:15Z</time>
      </trkpt>
      <trkpt lat="46.65484" lon="5.60206">
        <ele>324.9</ele>
        <time>2022-07-03T14:50:18Z</time>
      </trkpt>
      <trkpt lat="46.65479" lon="5.60208">
        <ele>325.3</ele>
        <time>2022-07-03T14:50:22Z</time>
      </trkpt>
      <trkpt lat="46.65474" lon="5.60209">
        <ele>325.7</ele>
        <time>2022-07-03T14:50:26Z</time>
      </trkpt>
      <trkpt lat="46.6547" lon="5.60213">
        <ele>326.1</ele>
        <time>2022-07-03T14:50:30Z</time>
      </trkpt>
      <trkpt lat="46.65466" lon="5.60217">
        <ele>327.1</ele>
        <time>2022-07-03T14:50:35Z</time>
      </trkpt>
      <trkpt lat="46.65462" lon="5.60219">
        <ele>328.4</ele>
        <time>2022-07-03T14:50:40Z</time>
      </trkpt>
      <trkpt lat="46.65457" lon="5.6022">
        <ele>329.4</ele>
        <time>2022-07-03T14:50:47Z</time>
      </trkpt>
      <trkpt lat="46.65454" lon="5.60226">
        <ele>329.5</ele>
        <time>2022-07-03T14:50:54Z</time>
      </trkpt>
      <trkpt lat="46.6545" lon="5.60228">
        <ele>329.3</ele>
        <time>2022-07-03T14:50:58Z</time>
      </trkpt>
      <trkpt lat="46.65444" lon="5.60231">
        <ele>329.4</ele>
        <time>2022-07-03T14:51:02Z</time>
      </trkpt>
      <trkpt lat="46.65439" lon="5.60234">
        <ele>329.8</ele>
        <time>2022-07-03T14:51:06Z</time>
      </trkpt>
      <trkpt lat="46.65434" lon="5.60237">
        <ele>330.1</ele>
        <time>2022-07-03T14:51:10Z</time>
      </trkpt>
      <trkpt lat="46.65429" lon="5.60238">
        <ele>330.6</ele>
        <time>2022-07-03T14:51:16Z</time>
      </trkpt>
      <trkpt lat="46.65425" lon="5.60241">
        <ele>331.6</ele>
        <time>2022-07-03T14:51:22Z</time>
      </trkpt>
      <trkpt lat="46.65421" lon="5.60244">
        <ele>331.7</ele>
        <time>2022-07-03T14:51:29Z</time>
      </trkpt>
      <trkpt lat="46.65416" lon="5.60246">
        <ele>331</ele>
        <time>2022-07-03T14:51:36Z</time>
      </trkpt>
      <trkpt lat="46.65412" lon="5.60242">
        <ele>330</ele>
        <time>2022-07-03T14:51:43Z</time>
      </trkpt>
      <trkpt lat="46.65408" lon="5.60238">
        <ele>329.6</ele>
        <time>2022-07-03T14:51:47Z</time>
      </trkpt>
      <trkpt lat="46.65404" lon="5.60234">
        <ele>329.4</ele>
        <time>2022-07-03T14:51:51Z</time>
      </trkpt>
      <trkpt lat="46.65401" lon="5.6023">
        <ele>329.3</ele>
        <time>2022-07-03T14:51:54Z</time>
      </trkpt>
      <trkpt lat="46.65397" lon="5.60225">
        <ele>329.1</ele>
        <time>2022-07-03T14:51:58Z</time>
      </trkpt>
      <trkpt lat="46.65393" lon="5.6022">
        <ele>328.6</ele>
        <time>2022-07-03T14:52:03Z</time>
      </trkpt>
      <trkpt lat="46.65391" lon="5.60214">
        <ele>328.5</ele>
        <time>2022-07-03T14:52:07Z</time>
      </trkpt>
      <trkpt lat="46.65386" lon="5.60209">
        <ele>329.5</ele>
        <time>2022-07-03T14:52:12Z</time>
      </trkpt>
      <trkpt lat="46.65383" lon="5.60202">
        <ele>329.3</ele>
        <time>2022-07-03T14:52:16Z</time>
      </trkpt>
      <trkpt lat="46.65381" lon="5.60195">
        <ele>328.4</ele>
        <time>2022-07-03T14:52:20Z</time>
      </trkpt>
      <trkpt lat="46.65378" lon="5.60187">
        <ele>327.3</ele>
        <time>2022-07-03T14:52:26Z</time>
      </trkpt>
      <trkpt lat="46.65376" lon="5.60181">
        <ele>326.1</ele>
        <time>2022-07-03T14:52:32Z</time>
      </trkpt>
      <trkpt lat="46.65375" lon="5.60175">
        <ele>324.9</ele>
        <time>2022-07-03T14:52:37Z</time>
      </trkpt>
      <trkpt lat="46.65372" lon="5.60169">
        <ele>323.8</ele>
        <time>2022-07-03T14:52:42Z</time>
      </trkpt>
      <trkpt lat="46.65369" lon="5.60163">
        <ele>323.1</ele>
        <time>2022-07-03T14:52:47Z</time>
      </trkpt>
      <trkpt lat="46.65366" lon="5.60158">
        <ele>322.4</ele>
        <time>2022-07-03T14:52:52Z</time>
      </trkpt>
      <trkpt lat="46.65363" lon="5.60152">
        <ele>321.4</ele>
        <time>2022-07-03T14:52:57Z</time>
      </trkpt>
      <trkpt lat="46.6536" lon="5.60145">
        <ele>320.7</ele>
        <time>2022-07-03T14:53:01Z</time>
      </trkpt>
      <trkpt lat="46.65359" lon="5.60138">
        <ele>320.5</ele>
        <time>2022-07-03T14:53:05Z</time>
      </trkpt>
      <trkpt lat="46.65357" lon="5.60131">
        <ele>320.5</ele>
        <time>2022-07-03T14:53:09Z</time>
      </trkpt>
      <trkpt lat="46.65355" lon="5.60124">
        <ele>320.8</ele>
        <time>2022-07-03T14:53:14Z</time>
      </trkpt>
      <trkpt lat="46.65353" lon="5.60118">
        <ele>321</ele>
        <time>2022-07-03T14:53:17Z</time>
      </trkpt>
      <trkpt lat="46.6535" lon="5.60111">
        <ele>321.5</ele>
        <time>2022-07-03T14:53:20Z</time>
      </trkpt>
      <trkpt lat="46.65347" lon="5.60106">
        <ele>322</ele>
        <time>2022-07-03T14:53:23Z</time>
      </trkpt>
      <trkpt lat="46.65345" lon="5.60099">
        <ele>322.6</ele>
        <time>2022-07-03T14:53:27Z</time>
      </trkpt>
      <trkpt lat="46.65343" lon="5.60091">
        <ele>323.2</ele>
        <time>2022-07-03T14:53:32Z</time>
      </trkpt>
      <trkpt lat="46.65341" lon="5.60085">
        <ele>323.4</ele>
        <time>2022-07-03T14:53:37Z</time>
      </trkpt>
      <trkpt lat="46.65339" lon="5.60079">
        <ele>323</ele>
        <time>2022-07-03T14:53:44Z</time>
      </trkpt>
      <trkpt lat="46.65337" lon="5.60073">
        <ele>322.4</ele>
        <time>2022-07-03T14:53:50Z</time>
      </trkpt>
      <trkpt lat="46.65342" lon="5.60071">
        <ele>321.7</ele>
        <time>2022-07-03T14:53:56Z</time>
      </trkpt>
      <trkpt lat="46.65338" lon="5.60065">
        <ele>321</ele>
        <time>2022-07-03T14:54:18Z</time>
      </trkpt>
      <trkpt lat="46.65334" lon="5.60062">
        <ele>320.9</ele>
        <time>2022-07-03T14:54:22Z</time>
      </trkpt>
      <trkpt lat="46.65329" lon="5.6006">
        <ele>320.9</ele>
        <time>2022-07-03T14:54:25Z</time>
      </trkpt>
      <trkpt lat="46.65325" lon="5.60057">
        <ele>320.9</ele>
        <time>2022-07-03T14:54:29Z</time>
      </trkpt>
      <trkpt lat="46.65321" lon="5.60052">
        <ele>320.8</ele>
        <time>2022-07-03T14:54:33Z</time>
      </trkpt>
      <trkpt lat="46.65318" lon="5.60046">
        <ele>320.3</ele>
        <time>2022-07-03T14:54:37Z</time>
      </trkpt>
      <trkpt lat="46.65316" lon="5.6004">
        <ele>320.1</ele>
        <time>2022-07-03T14:54:42Z</time>
      </trkpt>
      <trkpt lat="46.65312" lon="5.60034">
        <ele>319.8</ele>
        <time>2022-07-03T14:54:47Z</time>
      </trkpt>
      <trkpt lat="46.65308" lon="5.60029">
        <ele>319.6</ele>
        <time>2022-07-03T14:54:51Z</time>
      </trkpt>
      <trkpt lat="46.65305" lon="5.60023">
        <ele>319.3</ele>
        <time>2022-07-03T14:54:56Z</time>
      </trkpt>
      <trkpt lat="46.65304" lon="5.60017">
        <ele>319.5</ele>
        <time>2022-07-03T14:55:01Z</time>
      </trkpt>
      <trkpt lat="46.65299" lon="5.60013">
        <ele>320.2</ele>
        <time>2022-07-03T14:55:07Z</time>
      </trkpt>
      <trkpt lat="46.65294" lon="5.6001">
        <ele>320.7</ele>
        <time>2022-07-03T14:55:13Z</time>
      </trkpt>
      <trkpt lat="46.65289" lon="5.60007">
        <ele>320.6</ele>
        <time>2022-07-03T14:55:17Z</time>
      </trkpt>
      <trkpt lat="46.65283" lon="5.60007">
        <ele>320.2</ele>
        <time>2022-07-03T14:55:22Z</time>
      </trkpt>
      <trkpt lat="46.65278" lon="5.6001">
        <ele>320.2</ele>
        <time>2022-07-03T14:55:26Z</time>
      </trkpt>
      <trkpt lat="46.65274" lon="5.60015">
        <ele>320.2</ele>
        <time>2022-07-03T14:55:31Z</time>
      </trkpt>
      <trkpt lat="46.65271" lon="5.60022">
        <ele>320.2</ele>
        <time>2022-07-03T14:55:35Z</time>
      </trkpt>
      <trkpt lat="46.65268" lon="5.60029">
        <ele>320</ele>
        <time>2022-07-03T14:55:38Z</time>
      </trkpt>
      <trkpt lat="46.65263" lon="5.60032">
        <ele>319.9</ele>
        <time>2022-07-03T14:55:41Z</time>
      </trkpt>
      <trkpt lat="46.65258" lon="5.60032">
        <ele>319.9</ele>
        <time>2022-07-03T14:55:45Z</time>
      </trkpt>
      <trkpt lat="46.65255" lon="5.60026">
        <ele>320.6</ele>
        <time>2022-07-03T14:55:50Z</time>
      </trkpt>
      <trkpt lat="46.65256" lon="5.60019">
        <ele>321</ele>
        <time>2022-07-03T14:55:54Z</time>
      </trkpt>
      <trkpt lat="46.65258" lon="5.60012">
        <ele>320.7</ele>
        <time>2022-07-03T14:55:57Z</time>
      </trkpt>
      <trkpt lat="46.65261" lon="5.60006">
        <ele>319.7</ele>
        <time>2022-07-03T14:56:02Z</time>
      </trkpt>
      <trkpt lat="46.65259" lon="5.6">
        <ele>320.3</ele>
        <time>2022-07-03T14:56:13Z</time>
      </trkpt>
    </trkseg>
  </trk>
</gpx>